<?xml version="1.0" encoding="UTF-8" standalone="no" ?>
<gpx xmlns="http://www.topografix.com/GPX/1/1" xmlns:xsi="http://www.w3.org/2001/XMLSchema-instance" xsi:schemaLocation="http://www.topografix.com/GPX/1/1 http://www.topografix.com/GPX/1/1/gpx.xsd" version="1.1" creator="VisuGPX - https://www.visugpx.com">
  <metadata>
    <name>2018-09-23 Gorges de la Carança par le Roc Madriu jusqu'au refuge et retour par les Campilles 24Km D1630m</name>
    <desc><![CDATA[Boucle des gorges de la Carança en passant côté Roc de la Madriu,  jusqu'au refuge puis retour par les Campilles . Avant de retourner au parking :  un petit aller-retour de découverte au début de la corniche . Puis retour par la corniche au dessus de la centrale hydroélectrique.]]></desc>
  </metadata>
  <trk>
    <name><![CDATA[2018-09-23 19:12:50]]></name>
    <trkseg>
      <trkpt lat="42.52256" lon="2.22165">
        <ele>863.4</ele>
        <time>2018-09-23T07:21:36Z</time>
      </trkpt>
      <trkpt lat="42.52256" lon="2.22161">
        <ele>858.59</ele>
        <time>2018-09-23T07:22:05Z</time>
      </trkpt>
      <trkpt lat="42.52252" lon="2.22165">
        <ele>859.56</ele>
        <time>2018-09-23T07:22:30Z</time>
      </trkpt>
      <trkpt lat="42.52254" lon="2.22169">
        <ele>857.15</ele>
        <time>2018-09-23T07:22:50Z</time>
      </trkpt>
      <trkpt lat="42.52249" lon="2.2217">
        <ele>854.27</ele>
        <time>2018-09-23T07:22:56Z</time>
      </trkpt>
      <trkpt lat="42.52244" lon="2.22171">
        <ele>852.83</ele>
        <time>2018-09-23T07:23:01Z</time>
      </trkpt>
      <trkpt lat="42.52238" lon="2.22166">
        <ele>851.87</ele>
        <time>2018-09-23T07:23:14Z</time>
      </trkpt>
      <trkpt lat="42.52226" lon="2.22168">
        <ele>849.46</ele>
        <time>2018-09-23T07:23:24Z</time>
      </trkpt>
      <trkpt lat="42.52215" lon="2.22168">
        <ele>850.9</ele>
        <time>2018-09-23T07:23:35Z</time>
      </trkpt>
      <trkpt lat="42.52203" lon="2.22165">
        <ele>852.35</ele>
        <time>2018-09-23T07:23:47Z</time>
      </trkpt>
      <trkpt lat="42.52198" lon="2.22168">
        <ele>851.87</ele>
        <time>2018-09-23T07:24:02Z</time>
      </trkpt>
      <trkpt lat="42.52195" lon="2.22168">
        <ele>850.42</ele>
        <time>2018-09-23T07:24:15Z</time>
      </trkpt>
      <trkpt lat="42.52196" lon="2.2217">
        <ele>848.5</ele>
        <time>2018-09-23T07:24:30Z</time>
      </trkpt>
      <trkpt lat="42.52193" lon="2.2217">
        <ele>848.02</ele>
        <time>2018-09-23T07:24:33Z</time>
      </trkpt>
      <trkpt lat="42.52187" lon="2.22171">
        <ele>847.06</ele>
        <time>2018-09-23T07:24:40Z</time>
      </trkpt>
      <trkpt lat="42.52178" lon="2.22177">
        <ele>844.18</ele>
        <time>2018-09-23T07:24:50Z</time>
      </trkpt>
      <trkpt lat="42.52159" lon="2.22179">
        <ele>840.81</ele>
        <time>2018-09-23T07:25:07Z</time>
      </trkpt>
      <trkpt lat="42.52142" lon="2.22175">
        <ele>839.85</ele>
        <time>2018-09-23T07:25:22Z</time>
      </trkpt>
      <trkpt lat="42.52121" lon="2.22173">
        <ele>838.89</ele>
        <time>2018-09-23T07:25:35Z</time>
      </trkpt>
      <trkpt lat="42.52111" lon="2.22164">
        <ele>839.37</ele>
        <time>2018-09-23T07:25:46Z</time>
      </trkpt>
      <trkpt lat="42.52108" lon="2.22159">
        <ele>839.85</ele>
        <time>2018-09-23T07:25:50Z</time>
      </trkpt>
      <trkpt lat="42.52105" lon="2.22153">
        <ele>840.81</ele>
        <time>2018-09-23T07:25:59Z</time>
      </trkpt>
      <trkpt lat="42.52099" lon="2.22156">
        <ele>841.77</ele>
        <time>2018-09-23T07:26:12Z</time>
      </trkpt>
      <trkpt lat="42.52088" lon="2.22156">
        <ele>843.21</ele>
        <time>2018-09-23T07:26:27Z</time>
      </trkpt>
      <trkpt lat="42.52076" lon="2.22157">
        <ele>842.73</ele>
        <time>2018-09-23T07:26:41Z</time>
      </trkpt>
      <trkpt lat="42.52063" lon="2.2216">
        <ele>841.77</ele>
        <time>2018-09-23T07:26:52Z</time>
      </trkpt>
      <trkpt lat="42.52045" lon="2.2215">
        <ele>841.29</ele>
        <time>2018-09-23T07:27:05Z</time>
      </trkpt>
      <trkpt lat="42.52017" lon="2.22145">
        <ele>841.77</ele>
        <time>2018-09-23T07:27:19Z</time>
      </trkpt>
      <trkpt lat="42.51993" lon="2.22125">
        <ele>839.85</ele>
        <time>2018-09-23T07:27:32Z</time>
      </trkpt>
      <trkpt lat="42.51979" lon="2.22122">
        <ele>839.37</ele>
        <time>2018-09-23T07:27:46Z</time>
      </trkpt>
      <trkpt lat="42.51964" lon="2.22119">
        <ele>843.21</ele>
        <time>2018-09-23T07:27:59Z</time>
      </trkpt>
      <trkpt lat="42.51955" lon="2.22119">
        <ele>847.06</ele>
        <time>2018-09-23T07:28:10Z</time>
      </trkpt>
      <trkpt lat="42.5195" lon="2.22115">
        <ele>848.5</ele>
        <time>2018-09-23T07:28:15Z</time>
      </trkpt>
      <trkpt lat="42.51928" lon="2.22124">
        <ele>848.98</ele>
        <time>2018-09-23T07:28:29Z</time>
      </trkpt>
      <trkpt lat="42.51918" lon="2.2213">
        <ele>847.54</ele>
        <time>2018-09-23T07:28:42Z</time>
      </trkpt>
      <trkpt lat="42.51902" lon="2.22131">
        <ele>849.94</ele>
        <time>2018-09-23T07:28:56Z</time>
      </trkpt>
      <trkpt lat="42.51887" lon="2.22139">
        <ele>851.87</ele>
        <time>2018-09-23T07:29:09Z</time>
      </trkpt>
      <trkpt lat="42.51889" lon="2.22172">
        <ele>852.83</ele>
        <time>2018-09-23T07:29:22Z</time>
      </trkpt>
      <trkpt lat="42.51883" lon="2.22201">
        <ele>852.35</ele>
        <time>2018-09-23T07:29:33Z</time>
      </trkpt>
      <trkpt lat="42.51879" lon="2.22211">
        <ele>853.79</ele>
        <time>2018-09-23T07:29:39Z</time>
      </trkpt>
      <trkpt lat="42.51875" lon="2.22216">
        <ele>855.71</ele>
        <time>2018-09-23T07:29:43Z</time>
      </trkpt>
      <trkpt lat="42.51872" lon="2.22224">
        <ele>857.63</ele>
        <time>2018-09-23T07:29:48Z</time>
      </trkpt>
      <trkpt lat="42.51869" lon="2.22238">
        <ele>856.19</ele>
        <time>2018-09-23T07:29:59Z</time>
      </trkpt>
      <trkpt lat="42.51862" lon="2.22244">
        <ele>855.71</ele>
        <time>2018-09-23T07:30:10Z</time>
      </trkpt>
      <trkpt lat="42.51857" lon="2.22257">
        <ele>856.67</ele>
        <time>2018-09-23T07:30:21Z</time>
      </trkpt>
      <trkpt lat="42.51851" lon="2.22265">
        <ele>860.04</ele>
        <time>2018-09-23T07:30:26Z</time>
      </trkpt>
      <trkpt lat="42.51843" lon="2.22272">
        <ele>864.36</ele>
        <time>2018-09-23T07:30:32Z</time>
      </trkpt>
      <trkpt lat="42.51841" lon="2.22281">
        <ele>868.69</ele>
        <time>2018-09-23T07:30:36Z</time>
      </trkpt>
      <trkpt lat="42.51841" lon="2.22295">
        <ele>873.01</ele>
        <time>2018-09-23T07:30:42Z</time>
      </trkpt>
      <trkpt lat="42.51837" lon="2.22303">
        <ele>872.05</ele>
        <time>2018-09-23T07:30:49Z</time>
      </trkpt>
      <trkpt lat="42.51833" lon="2.22306">
        <ele>872.05</ele>
        <time>2018-09-23T07:30:53Z</time>
      </trkpt>
      <trkpt lat="42.51829" lon="2.22312">
        <ele>872.05</ele>
        <time>2018-09-23T07:30:58Z</time>
      </trkpt>
      <trkpt lat="42.5182" lon="2.22318">
        <ele>875.42</ele>
        <time>2018-09-23T07:31:12Z</time>
      </trkpt>
      <trkpt lat="42.51817" lon="2.22328">
        <ele>877.34</ele>
        <time>2018-09-23T07:31:24Z</time>
      </trkpt>
      <trkpt lat="42.51812" lon="2.22332">
        <ele>879.74</ele>
        <time>2018-09-23T07:31:34Z</time>
      </trkpt>
      <trkpt lat="42.51805" lon="2.22337">
        <ele>883.59</ele>
        <time>2018-09-23T07:31:45Z</time>
      </trkpt>
      <trkpt lat="42.51798" lon="2.22342">
        <ele>891.76</ele>
        <time>2018-09-23T07:31:57Z</time>
      </trkpt>
      <trkpt lat="42.51792" lon="2.22339">
        <ele>898.49</ele>
        <time>2018-09-23T07:32:07Z</time>
      </trkpt>
      <trkpt lat="42.51786" lon="2.22329">
        <ele>902.82</ele>
        <time>2018-09-23T07:32:20Z</time>
      </trkpt>
      <trkpt lat="42.51784" lon="2.22325">
        <ele>900.41</ele>
        <time>2018-09-23T07:32:34Z</time>
      </trkpt>
      <trkpt lat="42.51783" lon="2.22323">
        <ele>900.89</ele>
        <time>2018-09-23T07:32:57Z</time>
      </trkpt>
      <trkpt lat="42.51788" lon="2.22324">
        <ele>899.93</ele>
        <time>2018-09-23T07:33:17Z</time>
      </trkpt>
      <trkpt lat="42.51786" lon="2.22328">
        <ele>903.3</ele>
        <time>2018-09-23T07:33:33Z</time>
      </trkpt>
      <trkpt lat="42.51784" lon="2.22336">
        <ele>900.89</ele>
        <time>2018-09-23T07:34:07Z</time>
      </trkpt>
      <trkpt lat="42.51783" lon="2.22337">
        <ele>898.97</ele>
        <time>2018-09-23T07:34:22Z</time>
      </trkpt>
      <trkpt lat="42.51782" lon="2.22334">
        <ele>893.68</ele>
        <time>2018-09-23T07:34:40Z</time>
      </trkpt>
      <trkpt lat="42.51784" lon="2.22332">
        <ele>891.76</ele>
        <time>2018-09-23T07:34:57Z</time>
      </trkpt>
      <trkpt lat="42.51782" lon="2.22334">
        <ele>888.4</ele>
        <time>2018-09-23T07:35:20Z</time>
      </trkpt>
      <trkpt lat="42.5178" lon="2.22333">
        <ele>891.28</ele>
        <time>2018-09-23T07:35:42Z</time>
      </trkpt>
      <trkpt lat="42.51781" lon="2.22334">
        <ele>890.32</ele>
        <time>2018-09-23T07:35:58Z</time>
      </trkpt>
      <trkpt lat="42.51783" lon="2.22333">
        <ele>890.32</ele>
        <time>2018-09-23T07:36:16Z</time>
      </trkpt>
      <trkpt lat="42.51796" lon="2.22334">
        <ele>896.09</ele>
        <time>2018-09-23T07:36:41Z</time>
      </trkpt>
      <trkpt lat="42.51785" lon="2.22336">
        <ele>895.61</ele>
        <time>2018-09-23T07:37:15Z</time>
      </trkpt>
      <trkpt lat="42.51781" lon="2.22338">
        <ele>896.57</ele>
        <time>2018-09-23T07:37:40Z</time>
      </trkpt>
      <trkpt lat="42.5179" lon="2.22332">
        <ele>897.53</ele>
        <time>2018-09-23T07:38:01Z</time>
      </trkpt>
      <trkpt lat="42.51782" lon="2.22325">
        <ele>896.57</ele>
        <time>2018-09-23T07:38:15Z</time>
      </trkpt>
      <trkpt lat="42.51779" lon="2.2232">
        <ele>896.57</ele>
        <time>2018-09-23T07:38:20Z</time>
      </trkpt>
      <trkpt lat="42.51773" lon="2.2231">
        <ele>896.57</ele>
        <time>2018-09-23T07:38:35Z</time>
      </trkpt>
      <trkpt lat="42.51767" lon="2.22307">
        <ele>896.09</ele>
        <time>2018-09-23T07:38:48Z</time>
      </trkpt>
      <trkpt lat="42.5176" lon="2.22299">
        <ele>899.93</ele>
        <time>2018-09-23T07:39:01Z</time>
      </trkpt>
      <trkpt lat="42.51753" lon="2.22297">
        <ele>903.3</ele>
        <time>2018-09-23T07:39:15Z</time>
      </trkpt>
      <trkpt lat="42.51756" lon="2.22309">
        <ele>903.78</ele>
        <time>2018-09-23T07:39:26Z</time>
      </trkpt>
      <trkpt lat="42.51758" lon="2.22321">
        <ele>907.14</ele>
        <time>2018-09-23T07:39:40Z</time>
      </trkpt>
      <trkpt lat="42.5176" lon="2.22327">
        <ele>906.18</ele>
        <time>2018-09-23T07:39:55Z</time>
      </trkpt>
      <trkpt lat="42.51758" lon="2.22327">
        <ele>906.18</ele>
        <time>2018-09-23T07:40:10Z</time>
      </trkpt>
      <trkpt lat="42.51753" lon="2.22322">
        <ele>904.74</ele>
        <time>2018-09-23T07:40:29Z</time>
      </trkpt>
      <trkpt lat="42.51748" lon="2.22315">
        <ele>904.74</ele>
        <time>2018-09-23T07:40:42Z</time>
      </trkpt>
      <trkpt lat="42.51745" lon="2.2232">
        <ele>905.22</ele>
        <time>2018-09-23T07:41:07Z</time>
      </trkpt>
      <trkpt lat="42.51744" lon="2.22317">
        <ele>903.3</ele>
        <time>2018-09-23T07:41:26Z</time>
      </trkpt>
      <trkpt lat="42.51746" lon="2.22325">
        <ele>903.78</ele>
        <time>2018-09-23T07:41:38Z</time>
      </trkpt>
      <trkpt lat="42.51741" lon="2.22327">
        <ele>900.89</ele>
        <time>2018-09-23T07:41:50Z</time>
      </trkpt>
      <trkpt lat="42.51735" lon="2.22323">
        <ele>898.49</ele>
        <time>2018-09-23T07:42:01Z</time>
      </trkpt>
      <trkpt lat="42.5173" lon="2.22325">
        <ele>902.33</ele>
        <time>2018-09-23T07:42:14Z</time>
      </trkpt>
      <trkpt lat="42.51727" lon="2.22324">
        <ele>905.22</ele>
        <time>2018-09-23T07:42:26Z</time>
      </trkpt>
      <trkpt lat="42.51727" lon="2.22326">
        <ele>910.51</ele>
        <time>2018-09-23T07:42:43Z</time>
      </trkpt>
      <trkpt lat="42.5172" lon="2.22323">
        <ele>913.87</ele>
        <time>2018-09-23T07:42:57Z</time>
      </trkpt>
      <trkpt lat="42.51711" lon="2.22321">
        <ele>916.27</ele>
        <time>2018-09-23T07:43:10Z</time>
      </trkpt>
      <trkpt lat="42.51711" lon="2.22325">
        <ele>921.08</ele>
        <time>2018-09-23T07:43:23Z</time>
      </trkpt>
      <trkpt lat="42.51712" lon="2.22327">
        <ele>922.04</ele>
        <time>2018-09-23T07:43:42Z</time>
      </trkpt>
      <trkpt lat="42.51712" lon="2.22329">
        <ele>923</ele>
        <time>2018-09-23T07:43:55Z</time>
      </trkpt>
      <trkpt lat="42.51708" lon="2.22332">
        <ele>923.48</ele>
        <time>2018-09-23T07:44:02Z</time>
      </trkpt>
      <trkpt lat="42.51702" lon="2.22334">
        <ele>923.96</ele>
        <time>2018-09-23T07:44:07Z</time>
      </trkpt>
      <trkpt lat="42.51694" lon="2.22339">
        <ele>925.41</ele>
        <time>2018-09-23T07:44:20Z</time>
      </trkpt>
      <trkpt lat="42.51684" lon="2.22356">
        <ele>928.29</ele>
        <time>2018-09-23T07:44:35Z</time>
      </trkpt>
      <trkpt lat="42.51678" lon="2.22368">
        <ele>931.65</ele>
        <time>2018-09-23T07:44:47Z</time>
      </trkpt>
      <trkpt lat="42.51672" lon="2.2238">
        <ele>935.02</ele>
        <time>2018-09-23T07:45:04Z</time>
      </trkpt>
      <trkpt lat="42.51669" lon="2.22388">
        <ele>939.83</ele>
        <time>2018-09-23T07:45:18Z</time>
      </trkpt>
      <trkpt lat="42.51663" lon="2.22401">
        <ele>947.04</ele>
        <time>2018-09-23T07:45:32Z</time>
      </trkpt>
      <trkpt lat="42.51659" lon="2.2241">
        <ele>952.32</ele>
        <time>2018-09-23T07:45:45Z</time>
      </trkpt>
      <trkpt lat="42.51654" lon="2.22417">
        <ele>961.94</ele>
        <time>2018-09-23T07:46:00Z</time>
      </trkpt>
      <trkpt lat="42.51645" lon="2.22417">
        <ele>965.78</ele>
        <time>2018-09-23T07:46:12Z</time>
      </trkpt>
      <trkpt lat="42.51645" lon="2.2242">
        <ele>967.7</ele>
        <time>2018-09-23T07:46:17Z</time>
      </trkpt>
      <trkpt lat="42.51651" lon="2.22429">
        <ele>971.55</ele>
        <time>2018-09-23T07:46:30Z</time>
      </trkpt>
      <trkpt lat="42.51649" lon="2.22429">
        <ele>973.47</ele>
        <time>2018-09-23T07:46:44Z</time>
      </trkpt>
      <trkpt lat="42.51649" lon="2.22435">
        <ele>974.43</ele>
        <time>2018-09-23T07:46:54Z</time>
      </trkpt>
      <trkpt lat="42.51644" lon="2.22431">
        <ele>976.84</ele>
        <time>2018-09-23T07:47:08Z</time>
      </trkpt>
      <trkpt lat="42.51637" lon="2.22431">
        <ele>982.6</ele>
        <time>2018-09-23T07:47:22Z</time>
      </trkpt>
      <trkpt lat="42.5163" lon="2.22437">
        <ele>985.01</ele>
        <time>2018-09-23T07:47:35Z</time>
      </trkpt>
      <trkpt lat="42.51633" lon="2.22441">
        <ele>984.53</ele>
        <time>2018-09-23T07:47:48Z</time>
      </trkpt>
      <trkpt lat="42.51633" lon="2.22442">
        <ele>979.72</ele>
        <time>2018-09-23T07:48:10Z</time>
      </trkpt>
      <trkpt lat="42.51635" lon="2.22443">
        <ele>980.2</ele>
        <time>2018-09-23T07:48:23Z</time>
      </trkpt>
      <trkpt lat="42.5163" lon="2.22443">
        <ele>981.64</ele>
        <time>2018-09-23T07:48:35Z</time>
      </trkpt>
      <trkpt lat="42.51625" lon="2.22446">
        <ele>982.6</ele>
        <time>2018-09-23T07:48:47Z</time>
      </trkpt>
      <trkpt lat="42.51624" lon="2.22449">
        <ele>983.09</ele>
        <time>2018-09-23T07:48:59Z</time>
      </trkpt>
      <trkpt lat="42.51621" lon="2.22452">
        <ele>985.01</ele>
        <time>2018-09-23T07:49:19Z</time>
      </trkpt>
      <trkpt lat="42.51611" lon="2.22457">
        <ele>985.97</ele>
        <time>2018-09-23T07:49:32Z</time>
      </trkpt>
      <trkpt lat="42.51609" lon="2.22457">
        <ele>985.97</ele>
        <time>2018-09-23T07:49:33Z</time>
      </trkpt>
      <trkpt lat="42.516" lon="2.22462">
        <ele>984.05</ele>
        <time>2018-09-23T07:49:49Z</time>
      </trkpt>
      <trkpt lat="42.51592" lon="2.22458">
        <ele>986.45</ele>
        <time>2018-09-23T07:50:03Z</time>
      </trkpt>
      <trkpt lat="42.51586" lon="2.22455">
        <ele>988.37</ele>
        <time>2018-09-23T07:50:15Z</time>
      </trkpt>
      <trkpt lat="42.5158" lon="2.22451">
        <ele>988.85</ele>
        <time>2018-09-23T07:50:27Z</time>
      </trkpt>
      <trkpt lat="42.51575" lon="2.2245">
        <ele>988.37</ele>
        <time>2018-09-23T07:50:33Z</time>
      </trkpt>
      <trkpt lat="42.51568" lon="2.22449">
        <ele>986.93</ele>
        <time>2018-09-23T07:50:41Z</time>
      </trkpt>
      <trkpt lat="42.51558" lon="2.2244">
        <ele>983.09</ele>
        <time>2018-09-23T07:50:56Z</time>
      </trkpt>
      <trkpt lat="42.51547" lon="2.22437">
        <ele>979.24</ele>
        <time>2018-09-23T07:51:11Z</time>
      </trkpt>
      <trkpt lat="42.51547" lon="2.22437">
        <ele>977.8</ele>
        <time>2018-09-23T07:51:28Z</time>
      </trkpt>
      <trkpt lat="42.51548" lon="2.22441">
        <ele>973.47</ele>
        <time>2018-09-23T07:51:53Z</time>
      </trkpt>
      <trkpt lat="42.51545" lon="2.22441">
        <ele>975.88</ele>
        <time>2018-09-23T07:52:11Z</time>
      </trkpt>
      <trkpt lat="42.51543" lon="2.22441">
        <ele>976.84</ele>
        <time>2018-09-23T07:52:13Z</time>
      </trkpt>
      <trkpt lat="42.51538" lon="2.22441">
        <ele>978.28</ele>
        <time>2018-09-23T07:52:20Z</time>
      </trkpt>
      <trkpt lat="42.51526" lon="2.22442">
        <ele>982.12</ele>
        <time>2018-09-23T07:52:29Z</time>
      </trkpt>
      <trkpt lat="42.51514" lon="2.22445">
        <ele>986.45</ele>
        <time>2018-09-23T07:52:41Z</time>
      </trkpt>
      <trkpt lat="42.51513" lon="2.22447">
        <ele>989.33</ele>
        <time>2018-09-23T07:52:54Z</time>
      </trkpt>
      <trkpt lat="42.51513" lon="2.22444">
        <ele>989.33</ele>
        <time>2018-09-23T07:53:13Z</time>
      </trkpt>
      <trkpt lat="42.51507" lon="2.22454">
        <ele>989.81</ele>
        <time>2018-09-23T07:53:27Z</time>
      </trkpt>
      <trkpt lat="42.51504" lon="2.22457">
        <ele>990.78</ele>
        <time>2018-09-23T07:53:30Z</time>
      </trkpt>
      <trkpt lat="42.51496" lon="2.22455">
        <ele>996.54</ele>
        <time>2018-09-23T07:53:42Z</time>
      </trkpt>
      <trkpt lat="42.51493" lon="2.22454">
        <ele>999.43</ele>
        <time>2018-09-23T07:53:49Z</time>
      </trkpt>
      <trkpt lat="42.51485" lon="2.22453">
        <ele>1001.35</ele>
        <time>2018-09-23T07:53:56Z</time>
      </trkpt>
      <trkpt lat="42.51475" lon="2.22461">
        <ele>1003.75</ele>
        <time>2018-09-23T07:54:05Z</time>
      </trkpt>
      <trkpt lat="42.51462" lon="2.22465">
        <ele>1006.16</ele>
        <time>2018-09-23T07:54:19Z</time>
      </trkpt>
      <trkpt lat="42.51457" lon="2.22471">
        <ele>1009.52</ele>
        <time>2018-09-23T07:54:30Z</time>
      </trkpt>
      <trkpt lat="42.51452" lon="2.22475">
        <ele>1010.96</ele>
        <time>2018-09-23T07:54:45Z</time>
      </trkpt>
      <trkpt lat="42.51444" lon="2.22473">
        <ele>1012.41</ele>
        <time>2018-09-23T07:54:55Z</time>
      </trkpt>
      <trkpt lat="42.51439" lon="2.22472">
        <ele>1014.33</ele>
        <time>2018-09-23T07:55:01Z</time>
      </trkpt>
      <trkpt lat="42.51427" lon="2.22463">
        <ele>1017.69</ele>
        <time>2018-09-23T07:55:14Z</time>
      </trkpt>
      <trkpt lat="42.51416" lon="2.22458">
        <ele>1022.5</ele>
        <time>2018-09-23T07:55:25Z</time>
      </trkpt>
      <trkpt lat="42.51413" lon="2.22456">
        <ele>1023.46</ele>
        <time>2018-09-23T07:55:28Z</time>
      </trkpt>
      <trkpt lat="42.51409" lon="2.22456">
        <ele>1023.46</ele>
        <time>2018-09-23T07:55:31Z</time>
      </trkpt>
      <trkpt lat="42.51406" lon="2.22453">
        <ele>1023.94</ele>
        <time>2018-09-23T07:55:34Z</time>
      </trkpt>
      <trkpt lat="42.51391" lon="2.22449">
        <ele>1021.54</ele>
        <time>2018-09-23T07:55:48Z</time>
      </trkpt>
      <trkpt lat="42.5138" lon="2.22446">
        <ele>1016.25</ele>
        <time>2018-09-23T07:56:01Z</time>
      </trkpt>
      <trkpt lat="42.5137" lon="2.22449">
        <ele>1011.93</ele>
        <time>2018-09-23T07:56:13Z</time>
      </trkpt>
      <trkpt lat="42.51362" lon="2.22454">
        <ele>1008.56</ele>
        <time>2018-09-23T07:56:25Z</time>
      </trkpt>
      <trkpt lat="42.51359" lon="2.22454">
        <ele>1008.56</ele>
        <time>2018-09-23T07:56:29Z</time>
      </trkpt>
      <trkpt lat="42.51353" lon="2.22454">
        <ele>1011.44</ele>
        <time>2018-09-23T07:56:42Z</time>
      </trkpt>
      <trkpt lat="42.51345" lon="2.22454">
        <ele>1014.33</ele>
        <time>2018-09-23T07:56:53Z</time>
      </trkpt>
      <trkpt lat="42.51337" lon="2.22459">
        <ele>1018.17</ele>
        <time>2018-09-23T07:57:06Z</time>
      </trkpt>
      <trkpt lat="42.51327" lon="2.22466">
        <ele>1024.42</ele>
        <time>2018-09-23T07:57:21Z</time>
      </trkpt>
      <trkpt lat="42.51322" lon="2.22466">
        <ele>1029.71</ele>
        <time>2018-09-23T07:57:33Z</time>
      </trkpt>
      <trkpt lat="42.51324" lon="2.22472">
        <ele>1031.15</ele>
        <time>2018-09-23T07:57:49Z</time>
      </trkpt>
      <trkpt lat="42.51325" lon="2.22475">
        <ele>1022.98</ele>
        <time>2018-09-23T07:58:07Z</time>
      </trkpt>
      <trkpt lat="42.51324" lon="2.22472">
        <ele>1024.42</ele>
        <time>2018-09-23T07:58:34Z</time>
      </trkpt>
      <trkpt lat="42.51327" lon="2.22477">
        <ele>1022.98</ele>
        <time>2018-09-23T07:59:03Z</time>
      </trkpt>
      <trkpt lat="42.51325" lon="2.22475">
        <ele>1021.54</ele>
        <time>2018-09-23T07:59:23Z</time>
      </trkpt>
      <trkpt lat="42.51326" lon="2.22473">
        <ele>1020.58</ele>
        <time>2018-09-23T07:59:44Z</time>
      </trkpt>
      <trkpt lat="42.51329" lon="2.22472">
        <ele>1020.1</ele>
        <time>2018-09-23T08:00:01Z</time>
      </trkpt>
      <trkpt lat="42.51332" lon="2.22479">
        <ele>1020.58</ele>
        <time>2018-09-23T08:00:35Z</time>
      </trkpt>
      <trkpt lat="42.51325" lon="2.22484">
        <ele>1023.94</ele>
        <time>2018-09-23T08:00:53Z</time>
      </trkpt>
      <trkpt lat="42.51321" lon="2.22482">
        <ele>1025.38</ele>
        <time>2018-09-23T08:01:06Z</time>
      </trkpt>
      <trkpt lat="42.51322" lon="2.22482">
        <ele>1028.75</ele>
        <time>2018-09-23T08:01:33Z</time>
      </trkpt>
      <trkpt lat="42.51318" lon="2.22477">
        <ele>1028.27</ele>
        <time>2018-09-23T08:01:55Z</time>
      </trkpt>
      <trkpt lat="42.51318" lon="2.22475">
        <ele>1030.67</ele>
        <time>2018-09-23T08:02:18Z</time>
      </trkpt>
      <trkpt lat="42.51319" lon="2.22475">
        <ele>1029.71</ele>
        <time>2018-09-23T08:02:30Z</time>
      </trkpt>
      <trkpt lat="42.51321" lon="2.22477">
        <ele>1024.42</ele>
        <time>2018-09-23T08:02:42Z</time>
      </trkpt>
      <trkpt lat="42.51317" lon="2.22473">
        <ele>1024.9</ele>
        <time>2018-09-23T08:02:52Z</time>
      </trkpt>
      <trkpt lat="42.51308" lon="2.22473">
        <ele>1023.94</ele>
        <time>2018-09-23T08:02:56Z</time>
      </trkpt>
      <trkpt lat="42.51299" lon="2.22474">
        <ele>1021.06</ele>
        <time>2018-09-23T08:03:04Z</time>
      </trkpt>
      <trkpt lat="42.51289" lon="2.2248">
        <ele>1022.5</ele>
        <time>2018-09-23T08:03:17Z</time>
      </trkpt>
      <trkpt lat="42.51287" lon="2.22485">
        <ele>1022.98</ele>
        <time>2018-09-23T08:03:22Z</time>
      </trkpt>
      <trkpt lat="42.51286" lon="2.22489">
        <ele>1024.9</ele>
        <time>2018-09-23T08:03:32Z</time>
      </trkpt>
      <trkpt lat="42.5128" lon="2.225">
        <ele>1022.98</ele>
        <time>2018-09-23T08:03:47Z</time>
      </trkpt>
      <trkpt lat="42.51279" lon="2.22506">
        <ele>1022.98</ele>
        <time>2018-09-23T08:03:51Z</time>
      </trkpt>
      <trkpt lat="42.5128" lon="2.22508">
        <ele>1022.5</ele>
        <time>2018-09-23T08:03:53Z</time>
      </trkpt>
      <trkpt lat="42.51282" lon="2.22515">
        <ele>1022.02</ele>
        <time>2018-09-23T08:03:58Z</time>
      </trkpt>
      <trkpt lat="42.51281" lon="2.22528">
        <ele>1022.02</ele>
        <time>2018-09-23T08:04:10Z</time>
      </trkpt>
      <trkpt lat="42.51279" lon="2.22535">
        <ele>1022.5</ele>
        <time>2018-09-23T08:04:21Z</time>
      </trkpt>
      <trkpt lat="42.5128" lon="2.22543">
        <ele>1022.5</ele>
        <time>2018-09-23T08:04:28Z</time>
      </trkpt>
      <trkpt lat="42.5128" lon="2.22546">
        <ele>1022.98</ele>
        <time>2018-09-23T08:04:31Z</time>
      </trkpt>
      <trkpt lat="42.51275" lon="2.22557">
        <ele>1023.46</ele>
        <time>2018-09-23T08:04:42Z</time>
      </trkpt>
      <trkpt lat="42.51273" lon="2.22565">
        <ele>1023.94</ele>
        <time>2018-09-23T08:04:53Z</time>
      </trkpt>
      <trkpt lat="42.51269" lon="2.22568">
        <ele>1023.94</ele>
        <time>2018-09-23T08:05:06Z</time>
      </trkpt>
      <trkpt lat="42.51268" lon="2.22576">
        <ele>1024.42</ele>
        <time>2018-09-23T08:05:20Z</time>
      </trkpt>
      <trkpt lat="42.51267" lon="2.22576">
        <ele>1024.42</ele>
        <time>2018-09-23T08:05:22Z</time>
      </trkpt>
      <trkpt lat="42.51265" lon="2.22582">
        <ele>1023.94</ele>
        <time>2018-09-23T08:05:27Z</time>
      </trkpt>
      <trkpt lat="42.51261" lon="2.22595">
        <ele>1023.94</ele>
        <time>2018-09-23T08:05:42Z</time>
      </trkpt>
      <trkpt lat="42.51259" lon="2.22598">
        <ele>1024.42</ele>
        <time>2018-09-23T08:05:50Z</time>
      </trkpt>
      <trkpt lat="42.51257" lon="2.22601">
        <ele>1024.42</ele>
        <time>2018-09-23T08:05:53Z</time>
      </trkpt>
      <trkpt lat="42.51253" lon="2.2261">
        <ele>1024.9</ele>
        <time>2018-09-23T08:06:04Z</time>
      </trkpt>
      <trkpt lat="42.51247" lon="2.2261">
        <ele>1024.9</ele>
        <time>2018-09-23T08:06:14Z</time>
      </trkpt>
      <trkpt lat="42.51245" lon="2.22615">
        <ele>1025.38</ele>
        <time>2018-09-23T08:06:23Z</time>
      </trkpt>
      <trkpt lat="42.5124" lon="2.22614">
        <ele>1025.38</ele>
        <time>2018-09-23T08:06:31Z</time>
      </trkpt>
      <trkpt lat="42.51234" lon="2.22622">
        <ele>1025.86</ele>
        <time>2018-09-23T08:06:45Z</time>
      </trkpt>
      <trkpt lat="42.5123" lon="2.22623">
        <ele>1025.86</ele>
        <time>2018-09-23T08:06:57Z</time>
      </trkpt>
      <trkpt lat="42.51226" lon="2.22629">
        <ele>1025.86</ele>
        <time>2018-09-23T08:07:08Z</time>
      </trkpt>
      <trkpt lat="42.51222" lon="2.2263">
        <ele>1026.34</ele>
        <time>2018-09-23T08:07:16Z</time>
      </trkpt>
      <trkpt lat="42.51217" lon="2.2263">
        <ele>1026.83</ele>
        <time>2018-09-23T08:07:30Z</time>
      </trkpt>
      <trkpt lat="42.51209" lon="2.22629">
        <ele>1026.83</ele>
        <time>2018-09-23T08:07:44Z</time>
      </trkpt>
      <trkpt lat="42.51203" lon="2.22629">
        <ele>1026.83</ele>
        <time>2018-09-23T08:07:53Z</time>
      </trkpt>
      <trkpt lat="42.51194" lon="2.22623">
        <ele>1027.31</ele>
        <time>2018-09-23T08:08:05Z</time>
      </trkpt>
      <trkpt lat="42.5119" lon="2.22624">
        <ele>1027.79</ele>
        <time>2018-09-23T08:08:16Z</time>
      </trkpt>
      <trkpt lat="42.51179" lon="2.22624">
        <ele>1032.11</ele>
        <time>2018-09-23T08:08:28Z</time>
      </trkpt>
      <trkpt lat="42.51175" lon="2.22629">
        <ele>1033.07</ele>
        <time>2018-09-23T08:08:41Z</time>
      </trkpt>
      <trkpt lat="42.51167" lon="2.2263">
        <ele>1033.55</ele>
        <time>2018-09-23T08:08:53Z</time>
      </trkpt>
      <trkpt lat="42.51161" lon="2.2263">
        <ele>1035</ele>
        <time>2018-09-23T08:09:06Z</time>
      </trkpt>
      <trkpt lat="42.51154" lon="2.22628">
        <ele>1035.48</ele>
        <time>2018-09-23T08:09:21Z</time>
      </trkpt>
      <trkpt lat="42.51145" lon="2.22631">
        <ele>1036.44</ele>
        <time>2018-09-23T08:09:34Z</time>
      </trkpt>
      <trkpt lat="42.51143" lon="2.22631">
        <ele>1036.92</ele>
        <time>2018-09-23T08:09:43Z</time>
      </trkpt>
      <trkpt lat="42.51132" lon="2.2263">
        <ele>1058.55</ele>
        <time>2018-09-23T08:09:54Z</time>
      </trkpt>
      <trkpt lat="42.5113" lon="2.22629">
        <ele>1058.55</ele>
        <time>2018-09-23T08:09:57Z</time>
      </trkpt>
      <trkpt lat="42.51128" lon="2.22623">
        <ele>1059.51</ele>
        <time>2018-09-23T08:10:06Z</time>
      </trkpt>
      <trkpt lat="42.51123" lon="2.22617">
        <ele>1060.95</ele>
        <time>2018-09-23T08:10:18Z</time>
      </trkpt>
      <trkpt lat="42.51123" lon="2.22612">
        <ele>1061.91</ele>
        <time>2018-09-23T08:10:29Z</time>
      </trkpt>
      <trkpt lat="42.51125" lon="2.226">
        <ele>1065.28</ele>
        <time>2018-09-23T08:10:41Z</time>
      </trkpt>
      <trkpt lat="42.51124" lon="2.22593">
        <ele>1067.2</ele>
        <time>2018-09-23T08:10:51Z</time>
      </trkpt>
      <trkpt lat="42.51123" lon="2.22591">
        <ele>1067.68</ele>
        <time>2018-09-23T08:10:53Z</time>
      </trkpt>
      <trkpt lat="42.51115" lon="2.22584">
        <ele>1067.68</ele>
        <time>2018-09-23T08:11:03Z</time>
      </trkpt>
      <trkpt lat="42.51113" lon="2.2258">
        <ele>1068.16</ele>
        <time>2018-09-23T08:11:12Z</time>
      </trkpt>
      <trkpt lat="42.51108" lon="2.22576">
        <ele>1068.64</ele>
        <time>2018-09-23T08:11:24Z</time>
      </trkpt>
      <trkpt lat="42.51102" lon="2.22574">
        <ele>1067.2</ele>
        <time>2018-09-23T08:11:38Z</time>
      </trkpt>
      <trkpt lat="42.51097" lon="2.22567">
        <ele>1070.08</ele>
        <time>2018-09-23T08:11:51Z</time>
      </trkpt>
      <trkpt lat="42.51094" lon="2.22558">
        <ele>1073.93</ele>
        <time>2018-09-23T08:12:04Z</time>
      </trkpt>
      <trkpt lat="42.51087" lon="2.22551">
        <ele>1079.7</ele>
        <time>2018-09-23T08:12:21Z</time>
      </trkpt>
      <trkpt lat="42.51083" lon="2.22552">
        <ele>1083.06</ele>
        <time>2018-09-23T08:12:32Z</time>
      </trkpt>
      <trkpt lat="42.51081" lon="2.22559">
        <ele>1085.47</ele>
        <time>2018-09-23T08:12:45Z</time>
      </trkpt>
      <trkpt lat="42.51078" lon="2.22557">
        <ele>1089.31</ele>
        <time>2018-09-23T08:12:58Z</time>
      </trkpt>
      <trkpt lat="42.51076" lon="2.22558">
        <ele>1090.27</ele>
        <time>2018-09-23T08:13:01Z</time>
      </trkpt>
      <trkpt lat="42.51074" lon="2.22568">
        <ele>1090.75</ele>
        <time>2018-09-23T08:13:14Z</time>
      </trkpt>
      <trkpt lat="42.51077" lon="2.22577">
        <ele>1089.31</ele>
        <time>2018-09-23T08:13:28Z</time>
      </trkpt>
      <trkpt lat="42.51078" lon="2.22582">
        <ele>1092.2</ele>
        <time>2018-09-23T08:13:44Z</time>
      </trkpt>
      <trkpt lat="42.5108" lon="2.2258">
        <ele>1093.64</ele>
        <time>2018-09-23T08:14:09Z</time>
      </trkpt>
      <trkpt lat="42.51078" lon="2.22577">
        <ele>1095.56</ele>
        <time>2018-09-23T08:14:22Z</time>
      </trkpt>
      <trkpt lat="42.51078" lon="2.22578">
        <ele>1098.92</ele>
        <time>2018-09-23T08:14:40Z</time>
      </trkpt>
      <trkpt lat="42.51074" lon="2.22574">
        <ele>1101.81</ele>
        <time>2018-09-23T08:15:06Z</time>
      </trkpt>
      <trkpt lat="42.51073" lon="2.22572">
        <ele>1101.33</ele>
        <time>2018-09-23T08:15:23Z</time>
      </trkpt>
      <trkpt lat="42.51069" lon="2.22573">
        <ele>1102.29</ele>
        <time>2018-09-23T08:15:38Z</time>
      </trkpt>
      <trkpt lat="42.51066" lon="2.2257">
        <ele>1102.29</ele>
        <time>2018-09-23T08:15:51Z</time>
      </trkpt>
      <trkpt lat="42.51056" lon="2.22572">
        <ele>1101.81</ele>
        <time>2018-09-23T08:16:07Z</time>
      </trkpt>
      <trkpt lat="42.51046" lon="2.22576">
        <ele>1102.77</ele>
        <time>2018-09-23T08:16:24Z</time>
      </trkpt>
      <trkpt lat="42.51038" lon="2.22581">
        <ele>1108.06</ele>
        <time>2018-09-23T08:16:39Z</time>
      </trkpt>
      <trkpt lat="42.51032" lon="2.22588">
        <ele>1111.9</ele>
        <time>2018-09-23T08:16:51Z</time>
      </trkpt>
      <trkpt lat="42.51028" lon="2.22593">
        <ele>1112.86</ele>
        <time>2018-09-23T08:16:59Z</time>
      </trkpt>
      <trkpt lat="42.51024" lon="2.22597">
        <ele>1113.82</ele>
        <time>2018-09-23T08:17:03Z</time>
      </trkpt>
      <trkpt lat="42.51017" lon="2.22602">
        <ele>1116.23</ele>
        <time>2018-09-23T08:17:09Z</time>
      </trkpt>
      <trkpt lat="42.51005" lon="2.22608">
        <ele>1120.07</ele>
        <time>2018-09-23T08:17:22Z</time>
      </trkpt>
      <trkpt lat="42.50994" lon="2.22613">
        <ele>1117.67</ele>
        <time>2018-09-23T08:17:36Z</time>
      </trkpt>
      <trkpt lat="42.5099" lon="2.22621">
        <ele>1115.75</ele>
        <time>2018-09-23T08:17:50Z</time>
      </trkpt>
      <trkpt lat="42.50987" lon="2.22625">
        <ele>1115.27</ele>
        <time>2018-09-23T08:17:57Z</time>
      </trkpt>
      <trkpt lat="42.50985" lon="2.22628">
        <ele>1114.31</ele>
        <time>2018-09-23T08:18:01Z</time>
      </trkpt>
      <trkpt lat="42.50973" lon="2.2264">
        <ele>1109.98</ele>
        <time>2018-09-23T08:18:15Z</time>
      </trkpt>
      <trkpt lat="42.5097" lon="2.22646">
        <ele>1109.02</ele>
        <time>2018-09-23T08:18:28Z</time>
      </trkpt>
      <trkpt lat="42.50966" lon="2.22648">
        <ele>1109.02</ele>
        <time>2018-09-23T08:18:42Z</time>
      </trkpt>
      <trkpt lat="42.50964" lon="2.22658">
        <ele>1112.38</ele>
        <time>2018-09-23T08:18:56Z</time>
      </trkpt>
      <trkpt lat="42.5096" lon="2.22662">
        <ele>1112.86</ele>
        <time>2018-09-23T08:19:09Z</time>
      </trkpt>
      <trkpt lat="42.50957" lon="2.22669">
        <ele>1112.86</ele>
        <time>2018-09-23T08:19:21Z</time>
      </trkpt>
      <trkpt lat="42.50952" lon="2.22677">
        <ele>1111.9</ele>
        <time>2018-09-23T08:19:35Z</time>
      </trkpt>
      <trkpt lat="42.50953" lon="2.22685">
        <ele>1110.94</ele>
        <time>2018-09-23T08:19:46Z</time>
      </trkpt>
      <trkpt lat="42.50948" lon="2.22687">
        <ele>1112.86</ele>
        <time>2018-09-23T08:19:59Z</time>
      </trkpt>
      <trkpt lat="42.50949" lon="2.22694">
        <ele>1112.38</ele>
        <time>2018-09-23T08:20:10Z</time>
      </trkpt>
      <trkpt lat="42.50947" lon="2.2271">
        <ele>1111.42</ele>
        <time>2018-09-23T08:20:28Z</time>
      </trkpt>
      <trkpt lat="42.50944" lon="2.22722">
        <ele>1111.42</ele>
        <time>2018-09-23T08:20:42Z</time>
      </trkpt>
      <trkpt lat="42.50943" lon="2.22725">
        <ele>1111.9</ele>
        <time>2018-09-23T08:20:45Z</time>
      </trkpt>
      <trkpt lat="42.50939" lon="2.2274">
        <ele>1109.98</ele>
        <time>2018-09-23T08:20:59Z</time>
      </trkpt>
      <trkpt lat="42.50938" lon="2.22743">
        <ele>1106.61</ele>
        <time>2018-09-23T08:21:10Z</time>
      </trkpt>
      <trkpt lat="42.50935" lon="2.22751">
        <ele>1101.81</ele>
        <time>2018-09-23T08:21:30Z</time>
      </trkpt>
      <trkpt lat="42.50932" lon="2.22752">
        <ele>1101.33</ele>
        <time>2018-09-23T08:21:34Z</time>
      </trkpt>
      <trkpt lat="42.50927" lon="2.22763">
        <ele>1097.96</ele>
        <time>2018-09-23T08:21:48Z</time>
      </trkpt>
      <trkpt lat="42.50928" lon="2.22776">
        <ele>1094.6</ele>
        <time>2018-09-23T08:22:02Z</time>
      </trkpt>
      <trkpt lat="42.50928" lon="2.22785">
        <ele>1092.2</ele>
        <time>2018-09-23T08:22:15Z</time>
      </trkpt>
      <trkpt lat="42.50921" lon="2.22779">
        <ele>1091.23</ele>
        <time>2018-09-23T08:22:31Z</time>
      </trkpt>
      <trkpt lat="42.50916" lon="2.22781">
        <ele>1089.31</ele>
        <time>2018-09-23T08:22:41Z</time>
      </trkpt>
      <trkpt lat="42.50919" lon="2.22792">
        <ele>1079.7</ele>
        <time>2018-09-23T08:22:55Z</time>
      </trkpt>
      <trkpt lat="42.50921" lon="2.22801">
        <ele>1077.78</ele>
        <time>2018-09-23T08:23:09Z</time>
      </trkpt>
      <trkpt lat="42.5092" lon="2.22811">
        <ele>1077.29</ele>
        <time>2018-09-23T08:23:22Z</time>
      </trkpt>
      <trkpt lat="42.5092" lon="2.22822">
        <ele>1077.29</ele>
        <time>2018-09-23T08:23:32Z</time>
      </trkpt>
      <trkpt lat="42.50923" lon="2.22827">
        <ele>1077.78</ele>
        <time>2018-09-23T08:23:36Z</time>
      </trkpt>
      <trkpt lat="42.50919" lon="2.22843">
        <ele>1078.26</ele>
        <time>2018-09-23T08:23:51Z</time>
      </trkpt>
      <trkpt lat="42.50922" lon="2.2286">
        <ele>1079.7</ele>
        <time>2018-09-23T08:24:08Z</time>
      </trkpt>
      <trkpt lat="42.50921" lon="2.22863">
        <ele>1079.7</ele>
        <time>2018-09-23T08:24:11Z</time>
      </trkpt>
      <trkpt lat="42.50915" lon="2.22879">
        <ele>1078.74</ele>
        <time>2018-09-23T08:24:24Z</time>
      </trkpt>
      <trkpt lat="42.50912" lon="2.22886">
        <ele>1077.78</ele>
        <time>2018-09-23T08:24:30Z</time>
      </trkpt>
      <trkpt lat="42.50912" lon="2.22895">
        <ele>1076.33</ele>
        <time>2018-09-23T08:24:38Z</time>
      </trkpt>
      <trkpt lat="42.50913" lon="2.22913">
        <ele>1072.01</ele>
        <time>2018-09-23T08:24:54Z</time>
      </trkpt>
      <trkpt lat="42.50907" lon="2.22927">
        <ele>1070.57</ele>
        <time>2018-09-23T08:25:06Z</time>
      </trkpt>
      <trkpt lat="42.50902" lon="2.22936">
        <ele>1068.16</ele>
        <time>2018-09-23T08:25:19Z</time>
      </trkpt>
      <trkpt lat="42.509" lon="2.2294">
        <ele>1065.28</ele>
        <time>2018-09-23T08:25:34Z</time>
      </trkpt>
      <trkpt lat="42.50897" lon="2.22941">
        <ele>1063.84</ele>
        <time>2018-09-23T08:25:52Z</time>
      </trkpt>
      <trkpt lat="42.50892" lon="2.22941">
        <ele>1062.87</ele>
        <time>2018-09-23T08:26:08Z</time>
      </trkpt>
      <trkpt lat="42.50886" lon="2.22944">
        <ele>1059.99</ele>
        <time>2018-09-23T08:26:24Z</time>
      </trkpt>
      <trkpt lat="42.50881" lon="2.22951">
        <ele>1056.15</ele>
        <time>2018-09-23T08:26:38Z</time>
      </trkpt>
      <trkpt lat="42.50874" lon="2.22958">
        <ele>1054.7</ele>
        <time>2018-09-23T08:26:51Z</time>
      </trkpt>
      <trkpt lat="42.50867" lon="2.22968">
        <ele>1054.22</ele>
        <time>2018-09-23T08:27:01Z</time>
      </trkpt>
      <trkpt lat="42.50861" lon="2.22975">
        <ele>1052.3</ele>
        <time>2018-09-23T08:27:14Z</time>
      </trkpt>
      <trkpt lat="42.50856" lon="2.22981">
        <ele>1051.34</ele>
        <time>2018-09-23T08:27:26Z</time>
      </trkpt>
      <trkpt lat="42.50849" lon="2.22986">
        <ele>1047.97</ele>
        <time>2018-09-23T08:27:43Z</time>
      </trkpt>
      <trkpt lat="42.50845" lon="2.22989">
        <ele>1044.13</ele>
        <time>2018-09-23T08:27:55Z</time>
      </trkpt>
      <trkpt lat="42.50845" lon="2.22988">
        <ele>1043.17</ele>
        <time>2018-09-23T08:28:19Z</time>
      </trkpt>
      <trkpt lat="42.50851" lon="2.22987">
        <ele>1044.61</ele>
        <time>2018-09-23T08:28:32Z</time>
      </trkpt>
      <trkpt lat="42.50853" lon="2.22986">
        <ele>1045.57</ele>
        <time>2018-09-23T08:28:50Z</time>
      </trkpt>
      <trkpt lat="42.50854" lon="2.22986">
        <ele>1045.57</ele>
        <time>2018-09-23T08:29:07Z</time>
      </trkpt>
      <trkpt lat="42.50853" lon="2.22989">
        <ele>1045.57</ele>
        <time>2018-09-23T08:29:20Z</time>
      </trkpt>
      <trkpt lat="42.50849" lon="2.22992">
        <ele>1042.69</ele>
        <time>2018-09-23T08:29:40Z</time>
      </trkpt>
      <trkpt lat="42.50843" lon="2.22997">
        <ele>1041.25</ele>
        <time>2018-09-23T08:29:52Z</time>
      </trkpt>
      <trkpt lat="42.50833" lon="2.23003">
        <ele>1041.73</ele>
        <time>2018-09-23T08:30:05Z</time>
      </trkpt>
      <trkpt lat="42.50826" lon="2.23012">
        <ele>1039.32</ele>
        <time>2018-09-23T08:30:20Z</time>
      </trkpt>
      <trkpt lat="42.50823" lon="2.23017">
        <ele>1035.96</ele>
        <time>2018-09-23T08:30:33Z</time>
      </trkpt>
      <trkpt lat="42.5082" lon="2.23021">
        <ele>1033.07</ele>
        <time>2018-09-23T08:30:49Z</time>
      </trkpt>
      <trkpt lat="42.50815" lon="2.23022">
        <ele>1032.11</ele>
        <time>2018-09-23T08:31:06Z</time>
      </trkpt>
      <trkpt lat="42.50815" lon="2.23019">
        <ele>1034.52</ele>
        <time>2018-09-23T08:31:22Z</time>
      </trkpt>
      <trkpt lat="42.50812" lon="2.23016">
        <ele>1035.48</ele>
        <time>2018-09-23T08:31:38Z</time>
      </trkpt>
      <trkpt lat="42.50808" lon="2.2302">
        <ele>1032.11</ele>
        <time>2018-09-23T08:31:56Z</time>
      </trkpt>
      <trkpt lat="42.50801" lon="2.23024">
        <ele>1032.11</ele>
        <time>2018-09-23T08:32:09Z</time>
      </trkpt>
      <trkpt lat="42.50798" lon="2.23026">
        <ele>1033.07</ele>
        <time>2018-09-23T08:32:25Z</time>
      </trkpt>
      <trkpt lat="42.50786" lon="2.2302">
        <ele>1028.75</ele>
        <time>2018-09-23T08:32:47Z</time>
      </trkpt>
      <trkpt lat="42.50781" lon="2.23021">
        <ele>1027.79</ele>
        <time>2018-09-23T08:33:10Z</time>
      </trkpt>
      <trkpt lat="42.50788" lon="2.23013">
        <ele>1025.86</ele>
        <time>2018-09-23T08:33:25Z</time>
      </trkpt>
      <trkpt lat="42.50802" lon="2.23003">
        <ele>1028.75</ele>
        <time>2018-09-23T08:33:41Z</time>
      </trkpt>
      <trkpt lat="42.50809" lon="2.22995">
        <ele>1028.27</ele>
        <time>2018-09-23T08:33:52Z</time>
      </trkpt>
      <trkpt lat="42.50812" lon="2.22992">
        <ele>1026.34</ele>
        <time>2018-09-23T08:33:56Z</time>
      </trkpt>
      <trkpt lat="42.50817" lon="2.22979">
        <ele>1019.62</ele>
        <time>2018-09-23T08:34:11Z</time>
      </trkpt>
      <trkpt lat="42.50823" lon="2.22969">
        <ele>1015.29</ele>
        <time>2018-09-23T08:34:23Z</time>
      </trkpt>
      <trkpt lat="42.50839" lon="2.22957">
        <ele>1012.89</ele>
        <time>2018-09-23T08:34:38Z</time>
      </trkpt>
      <trkpt lat="42.50844" lon="2.22951">
        <ele>1010.96</ele>
        <time>2018-09-23T08:34:47Z</time>
      </trkpt>
      <trkpt lat="42.50852" lon="2.22946">
        <ele>1010</ele>
        <time>2018-09-23T08:35:01Z</time>
      </trkpt>
      <trkpt lat="42.50853" lon="2.22939">
        <ele>1015.77</ele>
        <time>2018-09-23T08:35:15Z</time>
      </trkpt>
      <trkpt lat="42.50853" lon="2.22931">
        <ele>1016.25</ele>
        <time>2018-09-23T08:35:31Z</time>
      </trkpt>
      <trkpt lat="42.50854" lon="2.22934">
        <ele>1008.56</ele>
        <time>2018-09-23T08:35:51Z</time>
      </trkpt>
      <trkpt lat="42.50853" lon="2.22934">
        <ele>1005.2</ele>
        <time>2018-09-23T08:36:17Z</time>
      </trkpt>
      <trkpt lat="42.50852" lon="2.22938">
        <ele>1006.64</ele>
        <time>2018-09-23T08:36:38Z</time>
      </trkpt>
      <trkpt lat="42.50855" lon="2.2294">
        <ele>1012.89</ele>
        <time>2018-09-23T08:37:03Z</time>
      </trkpt>
      <trkpt lat="42.50853" lon="2.22943">
        <ele>1013.37</ele>
        <time>2018-09-23T08:37:17Z</time>
      </trkpt>
      <trkpt lat="42.50854" lon="2.22945">
        <ele>1012.89</ele>
        <time>2018-09-23T08:37:36Z</time>
      </trkpt>
      <trkpt lat="42.50853" lon="2.22941">
        <ele>1019.62</ele>
        <time>2018-09-23T08:37:53Z</time>
      </trkpt>
      <trkpt lat="42.50852" lon="2.2294">
        <ele>1025.86</ele>
        <time>2018-09-23T08:38:12Z</time>
      </trkpt>
      <trkpt lat="42.50854" lon="2.22942">
        <ele>1025.86</ele>
        <time>2018-09-23T08:38:33Z</time>
      </trkpt>
      <trkpt lat="42.50853" lon="2.22938">
        <ele>1028.75</ele>
        <time>2018-09-23T08:38:55Z</time>
      </trkpt>
      <trkpt lat="42.50851" lon="2.22935">
        <ele>1033.07</ele>
        <time>2018-09-23T08:39:14Z</time>
      </trkpt>
      <trkpt lat="42.5085" lon="2.22936">
        <ele>1032.11</ele>
        <time>2018-09-23T08:39:33Z</time>
      </trkpt>
      <trkpt lat="42.50843" lon="2.22939">
        <ele>1031.63</ele>
        <time>2018-09-23T08:39:45Z</time>
      </trkpt>
      <trkpt lat="42.5083" lon="2.22947">
        <ele>1031.63</ele>
        <time>2018-09-23T08:39:59Z</time>
      </trkpt>
      <trkpt lat="42.50825" lon="2.22953">
        <ele>1032.11</ele>
        <time>2018-09-23T08:40:13Z</time>
      </trkpt>
      <trkpt lat="42.50824" lon="2.2295">
        <ele>1035</ele>
        <time>2018-09-23T08:40:34Z</time>
      </trkpt>
      <trkpt lat="42.50822" lon="2.22956">
        <ele>1035.96</ele>
        <time>2018-09-23T08:40:50Z</time>
      </trkpt>
      <trkpt lat="42.50819" lon="2.22968">
        <ele>1035</ele>
        <time>2018-09-23T08:41:05Z</time>
      </trkpt>
      <trkpt lat="42.5081" lon="2.22979">
        <ele>1033.55</ele>
        <time>2018-09-23T08:41:18Z</time>
      </trkpt>
      <trkpt lat="42.50801" lon="2.22995">
        <ele>1030.67</ele>
        <time>2018-09-23T08:41:35Z</time>
      </trkpt>
      <trkpt lat="42.50795" lon="2.2301">
        <ele>1031.15</ele>
        <time>2018-09-23T08:41:47Z</time>
      </trkpt>
      <trkpt lat="42.50789" lon="2.2302">
        <ele>1031.15</ele>
        <time>2018-09-23T08:42:00Z</time>
      </trkpt>
      <trkpt lat="42.50781" lon="2.23029">
        <ele>1032.59</ele>
        <time>2018-09-23T08:42:15Z</time>
      </trkpt>
      <trkpt lat="42.50775" lon="2.23039">
        <ele>1035</ele>
        <time>2018-09-23T08:42:28Z</time>
      </trkpt>
      <trkpt lat="42.50767" lon="2.23048">
        <ele>1035.48</ele>
        <time>2018-09-23T08:42:40Z</time>
      </trkpt>
      <trkpt lat="42.50759" lon="2.23056">
        <ele>1036.92</ele>
        <time>2018-09-23T08:42:56Z</time>
      </trkpt>
      <trkpt lat="42.50757" lon="2.23067">
        <ele>1040.76</ele>
        <time>2018-09-23T08:43:10Z</time>
      </trkpt>
      <trkpt lat="42.50755" lon="2.23067">
        <ele>1047.01</ele>
        <time>2018-09-23T08:43:35Z</time>
      </trkpt>
      <trkpt lat="42.50749" lon="2.23074">
        <ele>1049.42</ele>
        <time>2018-09-23T08:43:54Z</time>
      </trkpt>
      <trkpt lat="42.5074" lon="2.23075">
        <ele>1045.57</ele>
        <time>2018-09-23T08:44:08Z</time>
      </trkpt>
      <trkpt lat="42.50734" lon="2.23077">
        <ele>1043.65</ele>
        <time>2018-09-23T08:44:22Z</time>
      </trkpt>
      <trkpt lat="42.50732" lon="2.23076">
        <ele>1044.61</ele>
        <time>2018-09-23T08:44:37Z</time>
      </trkpt>
      <trkpt lat="42.50733" lon="2.23082">
        <ele>1044.61</ele>
        <time>2018-09-23T08:45:02Z</time>
      </trkpt>
      <trkpt lat="42.50735" lon="2.23078">
        <ele>1044.13</ele>
        <time>2018-09-23T08:45:17Z</time>
      </trkpt>
      <trkpt lat="42.50734" lon="2.23089">
        <ele>1038.84</ele>
        <time>2018-09-23T08:45:33Z</time>
      </trkpt>
      <trkpt lat="42.50726" lon="2.23097">
        <ele>1038.84</ele>
        <time>2018-09-23T08:45:43Z</time>
      </trkpt>
      <trkpt lat="42.5071" lon="2.23105">
        <ele>1038.36</ele>
        <time>2018-09-23T08:45:59Z</time>
      </trkpt>
      <trkpt lat="42.50703" lon="2.23107">
        <ele>1040.28</ele>
        <time>2018-09-23T08:46:14Z</time>
      </trkpt>
      <trkpt lat="42.50694" lon="2.23111">
        <ele>1039.8</ele>
        <time>2018-09-23T08:46:28Z</time>
      </trkpt>
      <trkpt lat="42.50686" lon="2.23109">
        <ele>1039.8</ele>
        <time>2018-09-23T08:46:44Z</time>
      </trkpt>
      <trkpt lat="42.50682" lon="2.23113">
        <ele>1040.76</ele>
        <time>2018-09-23T08:46:54Z</time>
      </trkpt>
      <trkpt lat="42.50678" lon="2.23127">
        <ele>1045.09</ele>
        <time>2018-09-23T08:47:14Z</time>
      </trkpt>
      <trkpt lat="42.50667" lon="2.23123">
        <ele>1049.9</ele>
        <time>2018-09-23T08:47:37Z</time>
      </trkpt>
      <trkpt lat="42.50659" lon="2.23119">
        <ele>1050.38</ele>
        <time>2018-09-23T08:47:51Z</time>
      </trkpt>
      <trkpt lat="42.50654" lon="2.23119">
        <ele>1050.86</ele>
        <time>2018-09-23T08:48:02Z</time>
      </trkpt>
      <trkpt lat="42.50646" lon="2.23117">
        <ele>1051.34</ele>
        <time>2018-09-23T08:48:18Z</time>
      </trkpt>
      <trkpt lat="42.50638" lon="2.23117">
        <ele>1049.42</ele>
        <time>2018-09-23T08:48:35Z</time>
      </trkpt>
      <trkpt lat="42.50633" lon="2.23113">
        <ele>1048.45</ele>
        <time>2018-09-23T08:48:51Z</time>
      </trkpt>
      <trkpt lat="42.50636" lon="2.23113">
        <ele>1050.86</ele>
        <time>2018-09-23T08:49:15Z</time>
      </trkpt>
      <trkpt lat="42.50634" lon="2.23102">
        <ele>1051.34</ele>
        <time>2018-09-23T08:49:36Z</time>
      </trkpt>
      <trkpt lat="42.5063" lon="2.23095">
        <ele>1052.3</ele>
        <time>2018-09-23T08:49:54Z</time>
      </trkpt>
      <trkpt lat="42.50622" lon="2.23081">
        <ele>1056.63</ele>
        <time>2018-09-23T08:50:08Z</time>
      </trkpt>
      <trkpt lat="42.50605" lon="2.23075">
        <ele>1056.15</ele>
        <time>2018-09-23T08:50:24Z</time>
      </trkpt>
      <trkpt lat="42.50595" lon="2.23075">
        <ele>1056.15</ele>
        <time>2018-09-23T08:50:39Z</time>
      </trkpt>
      <trkpt lat="42.50596" lon="2.23071">
        <ele>1055.18</ele>
        <time>2018-09-23T08:51:01Z</time>
      </trkpt>
      <trkpt lat="42.50595" lon="2.23073">
        <ele>1054.22</ele>
        <time>2018-09-23T08:51:24Z</time>
      </trkpt>
      <trkpt lat="42.50586" lon="2.2307">
        <ele>1055.67</ele>
        <time>2018-09-23T08:51:37Z</time>
      </trkpt>
      <trkpt lat="42.50578" lon="2.23073">
        <ele>1056.15</ele>
        <time>2018-09-23T08:51:45Z</time>
      </trkpt>
      <trkpt lat="42.50572" lon="2.23088">
        <ele>1060.47</ele>
        <time>2018-09-23T08:51:55Z</time>
      </trkpt>
      <trkpt lat="42.50565" lon="2.23097">
        <ele>1066.72</ele>
        <time>2018-09-23T08:52:06Z</time>
      </trkpt>
      <trkpt lat="42.50566" lon="2.23116">
        <ele>1077.29</ele>
        <time>2018-09-23T08:52:28Z</time>
      </trkpt>
      <trkpt lat="42.50557" lon="2.23116">
        <ele>1075.85</ele>
        <time>2018-09-23T08:52:48Z</time>
      </trkpt>
      <trkpt lat="42.50553" lon="2.23111">
        <ele>1076.33</ele>
        <time>2018-09-23T08:53:13Z</time>
      </trkpt>
      <trkpt lat="42.50545" lon="2.23091">
        <ele>1087.87</ele>
        <time>2018-09-23T08:53:31Z</time>
      </trkpt>
      <trkpt lat="42.50542" lon="2.23109">
        <ele>1096.52</ele>
        <time>2018-09-23T08:53:50Z</time>
      </trkpt>
      <trkpt lat="42.50536" lon="2.23125">
        <ele>1103.73</ele>
        <time>2018-09-23T08:54:02Z</time>
      </trkpt>
      <trkpt lat="42.50532" lon="2.23131">
        <ele>1110.94</ele>
        <time>2018-09-23T08:54:15Z</time>
      </trkpt>
      <trkpt lat="42.50525" lon="2.23123">
        <ele>1132.09</ele>
        <time>2018-09-23T08:54:28Z</time>
      </trkpt>
      <trkpt lat="42.50517" lon="2.23118">
        <ele>1141.22</ele>
        <time>2018-09-23T08:54:43Z</time>
      </trkpt>
      <trkpt lat="42.50515" lon="2.23118">
        <ele>1145.55</ele>
        <time>2018-09-23T08:54:59Z</time>
      </trkpt>
      <trkpt lat="42.50508" lon="2.23122">
        <ele>1147.95</ele>
        <time>2018-09-23T08:55:16Z</time>
      </trkpt>
      <trkpt lat="42.50514" lon="2.23124">
        <ele>1148.91</ele>
        <time>2018-09-23T08:55:33Z</time>
      </trkpt>
      <trkpt lat="42.50532" lon="2.23129">
        <ele>1132.09</ele>
        <time>2018-09-23T08:55:48Z</time>
      </trkpt>
      <trkpt lat="42.50533" lon="2.23122">
        <ele>1131.13</ele>
        <time>2018-09-23T08:56:00Z</time>
      </trkpt>
      <trkpt lat="42.50533" lon="2.23119">
        <ele>1131.13</ele>
        <time>2018-09-23T08:56:12Z</time>
      </trkpt>
      <trkpt lat="42.50533" lon="2.23113">
        <ele>1124.88</ele>
        <time>2018-09-23T08:56:27Z</time>
      </trkpt>
      <trkpt lat="42.50534" lon="2.23109">
        <ele>1127.76</ele>
        <time>2018-09-23T08:56:40Z</time>
      </trkpt>
      <trkpt lat="42.50539" lon="2.23106">
        <ele>1133.05</ele>
        <time>2018-09-23T08:56:54Z</time>
      </trkpt>
      <trkpt lat="42.5054" lon="2.231">
        <ele>1137.38</ele>
        <time>2018-09-23T08:57:05Z</time>
      </trkpt>
      <trkpt lat="42.50541" lon="2.23091">
        <ele>1138.34</ele>
        <time>2018-09-23T08:57:15Z</time>
      </trkpt>
      <trkpt lat="42.5054" lon="2.23083">
        <ele>1136.9</ele>
        <time>2018-09-23T08:57:27Z</time>
      </trkpt>
      <trkpt lat="42.50541" lon="2.23074">
        <ele>1136.9</ele>
        <time>2018-09-23T08:57:38Z</time>
      </trkpt>
      <trkpt lat="42.50538" lon="2.23065">
        <ele>1136.42</ele>
        <time>2018-09-23T08:57:49Z</time>
      </trkpt>
      <trkpt lat="42.50538" lon="2.23052">
        <ele>1137.38</ele>
        <time>2018-09-23T08:58:01Z</time>
      </trkpt>
      <trkpt lat="42.50534" lon="2.2303">
        <ele>1128.24</ele>
        <time>2018-09-23T08:58:16Z</time>
      </trkpt>
      <trkpt lat="42.50532" lon="2.23024">
        <ele>1129.69</ele>
        <time>2018-09-23T08:58:34Z</time>
      </trkpt>
      <trkpt lat="42.50526" lon="2.23013">
        <ele>1122</ele>
        <time>2018-09-23T08:58:55Z</time>
      </trkpt>
      <trkpt lat="42.50524" lon="2.23008">
        <ele>1118.63</ele>
        <time>2018-09-23T08:59:15Z</time>
      </trkpt>
      <trkpt lat="42.5052" lon="2.2301">
        <ele>1118.63</ele>
        <time>2018-09-23T08:59:36Z</time>
      </trkpt>
      <trkpt lat="42.5052" lon="2.23011">
        <ele>1119.11</ele>
        <time>2018-09-23T09:00:01Z</time>
      </trkpt>
      <trkpt lat="42.5052" lon="2.23011">
        <ele>1109.5</ele>
        <time>2018-09-23T09:00:38Z</time>
      </trkpt>
      <trkpt lat="42.50516" lon="2.23008">
        <ele>1109.02</ele>
        <time>2018-09-23T09:00:55Z</time>
      </trkpt>
      <trkpt lat="42.50522" lon="2.23006">
        <ele>1111.42</ele>
        <time>2018-09-23T09:01:23Z</time>
      </trkpt>
      <trkpt lat="42.50528" lon="2.23006">
        <ele>1109.5</ele>
        <time>2018-09-23T09:01:40Z</time>
      </trkpt>
      <trkpt lat="42.50525" lon="2.23003">
        <ele>1106.13</ele>
        <time>2018-09-23T09:01:53Z</time>
      </trkpt>
      <trkpt lat="42.50521" lon="2.22998">
        <ele>1093.16</ele>
        <time>2018-09-23T09:02:07Z</time>
      </trkpt>
      <trkpt lat="42.50514" lon="2.22994">
        <ele>1090.75</ele>
        <time>2018-09-23T09:02:17Z</time>
      </trkpt>
      <trkpt lat="42.50505" lon="2.22996">
        <ele>1085.95</ele>
        <time>2018-09-23T09:02:29Z</time>
      </trkpt>
      <trkpt lat="42.50492" lon="2.23006">
        <ele>1086.91</ele>
        <time>2018-09-23T09:02:46Z</time>
      </trkpt>
      <trkpt lat="42.50491" lon="2.23004">
        <ele>1088.83</ele>
        <time>2018-09-23T09:02:59Z</time>
      </trkpt>
      <trkpt lat="42.5049" lon="2.23012">
        <ele>1084.02</ele>
        <time>2018-09-23T09:03:13Z</time>
      </trkpt>
      <trkpt lat="42.50487" lon="2.23019">
        <ele>1072.01</ele>
        <time>2018-09-23T09:03:28Z</time>
      </trkpt>
      <trkpt lat="42.5048" lon="2.23029">
        <ele>1064.8</ele>
        <time>2018-09-23T09:03:43Z</time>
      </trkpt>
      <trkpt lat="42.50478" lon="2.23039">
        <ele>1066.24</ele>
        <time>2018-09-23T09:03:58Z</time>
      </trkpt>
      <trkpt lat="42.50481" lon="2.23042">
        <ele>1067.68</ele>
        <time>2018-09-23T09:04:19Z</time>
      </trkpt>
      <trkpt lat="42.50474" lon="2.23043">
        <ele>1062.87</ele>
        <time>2018-09-23T09:04:47Z</time>
      </trkpt>
      <trkpt lat="42.50472" lon="2.23048">
        <ele>1066.24</ele>
        <time>2018-09-23T09:04:59Z</time>
      </trkpt>
      <trkpt lat="42.50468" lon="2.23055">
        <ele>1067.2</ele>
        <time>2018-09-23T09:05:10Z</time>
      </trkpt>
      <trkpt lat="42.50457" lon="2.23052">
        <ele>1069.12</ele>
        <time>2018-09-23T09:05:25Z</time>
      </trkpt>
      <trkpt lat="42.50455" lon="2.23043">
        <ele>1070.57</ele>
        <time>2018-09-23T09:05:42Z</time>
      </trkpt>
      <trkpt lat="42.5045" lon="2.23038">
        <ele>1070.57</ele>
        <time>2018-09-23T09:05:56Z</time>
      </trkpt>
      <trkpt lat="42.50443" lon="2.23032">
        <ele>1068.16</ele>
        <time>2018-09-23T09:06:12Z</time>
      </trkpt>
      <trkpt lat="42.50434" lon="2.23029">
        <ele>1070.57</ele>
        <time>2018-09-23T09:06:27Z</time>
      </trkpt>
      <trkpt lat="42.50434" lon="2.23024">
        <ele>1072.97</ele>
        <time>2018-09-23T09:06:40Z</time>
      </trkpt>
      <trkpt lat="42.50435" lon="2.23022">
        <ele>1072.97</ele>
        <time>2018-09-23T09:06:47Z</time>
      </trkpt>
      <trkpt lat="42.50437" lon="2.23012">
        <ele>1074.41</ele>
        <time>2018-09-23T09:06:59Z</time>
      </trkpt>
      <trkpt lat="42.50439" lon="2.23">
        <ele>1076.81</ele>
        <time>2018-09-23T09:07:11Z</time>
      </trkpt>
      <trkpt lat="42.50431" lon="2.22989">
        <ele>1078.26</ele>
        <time>2018-09-23T09:07:24Z</time>
      </trkpt>
      <trkpt lat="42.50421" lon="2.22985">
        <ele>1078.74</ele>
        <time>2018-09-23T09:07:37Z</time>
      </trkpt>
      <trkpt lat="42.50411" lon="2.22977">
        <ele>1082.58</ele>
        <time>2018-09-23T09:07:50Z</time>
      </trkpt>
      <trkpt lat="42.50401" lon="2.22973">
        <ele>1085.95</ele>
        <time>2018-09-23T09:08:02Z</time>
      </trkpt>
      <trkpt lat="42.50393" lon="2.22981">
        <ele>1092.68</ele>
        <time>2018-09-23T09:08:16Z</time>
      </trkpt>
      <trkpt lat="42.50386" lon="2.22987">
        <ele>1096.04</ele>
        <time>2018-09-23T09:08:27Z</time>
      </trkpt>
      <trkpt lat="42.50382" lon="2.22991">
        <ele>1102.77</ele>
        <time>2018-09-23T09:08:38Z</time>
      </trkpt>
      <trkpt lat="42.50374" lon="2.22996">
        <ele>1110.94</ele>
        <time>2018-09-23T09:08:50Z</time>
      </trkpt>
      <trkpt lat="42.50364" lon="2.23001">
        <ele>1118.63</ele>
        <time>2018-09-23T09:09:02Z</time>
      </trkpt>
      <trkpt lat="42.50355" lon="2.23004">
        <ele>1126.32</ele>
        <time>2018-09-23T09:09:15Z</time>
      </trkpt>
      <trkpt lat="42.50345" lon="2.23008">
        <ele>1134.49</ele>
        <time>2018-09-23T09:09:29Z</time>
      </trkpt>
      <trkpt lat="42.50335" lon="2.23014">
        <ele>1141.22</ele>
        <time>2018-09-23T09:09:41Z</time>
      </trkpt>
      <trkpt lat="42.50321" lon="2.23013">
        <ele>1145.07</ele>
        <time>2018-09-23T09:09:54Z</time>
      </trkpt>
      <trkpt lat="42.50307" lon="2.23016">
        <ele>1147.47</ele>
        <time>2018-09-23T09:10:05Z</time>
      </trkpt>
      <trkpt lat="42.50299" lon="2.23017">
        <ele>1147.95</ele>
        <time>2018-09-23T09:10:19Z</time>
      </trkpt>
      <trkpt lat="42.50296" lon="2.23022">
        <ele>1149.39</ele>
        <time>2018-09-23T09:10:32Z</time>
      </trkpt>
      <trkpt lat="42.50291" lon="2.23024">
        <ele>1147.95</ele>
        <time>2018-09-23T09:10:45Z</time>
      </trkpt>
      <trkpt lat="42.50285" lon="2.23022">
        <ele>1148.43</ele>
        <time>2018-09-23T09:11:00Z</time>
      </trkpt>
      <trkpt lat="42.50283" lon="2.23022">
        <ele>1141.7</ele>
        <time>2018-09-23T09:11:12Z</time>
      </trkpt>
      <trkpt lat="42.50282" lon="2.23024">
        <ele>1138.82</ele>
        <time>2018-09-23T09:11:23Z</time>
      </trkpt>
      <trkpt lat="42.50291" lon="2.23038">
        <ele>1135.45</ele>
        <time>2018-09-23T09:11:54Z</time>
      </trkpt>
      <trkpt lat="42.50289" lon="2.23044">
        <ele>1134.01</ele>
        <time>2018-09-23T09:12:13Z</time>
      </trkpt>
      <trkpt lat="42.50287" lon="2.23049">
        <ele>1132.57</ele>
        <time>2018-09-23T09:12:34Z</time>
      </trkpt>
      <trkpt lat="42.50291" lon="2.23055">
        <ele>1134.97</ele>
        <time>2018-09-23T09:12:52Z</time>
      </trkpt>
      <trkpt lat="42.50289" lon="2.23061">
        <ele>1138.82</ele>
        <time>2018-09-23T09:13:22Z</time>
      </trkpt>
      <trkpt lat="42.50279" lon="2.23054">
        <ele>1139.3</ele>
        <time>2018-09-23T09:13:35Z</time>
      </trkpt>
      <trkpt lat="42.50272" lon="2.23053">
        <ele>1145.55</ele>
        <time>2018-09-23T09:13:54Z</time>
      </trkpt>
      <trkpt lat="42.50261" lon="2.2305">
        <ele>1151.8</ele>
        <time>2018-09-23T09:14:09Z</time>
      </trkpt>
      <trkpt lat="42.50253" lon="2.23048">
        <ele>1148.43</ele>
        <time>2018-09-23T09:14:23Z</time>
      </trkpt>
      <trkpt lat="42.50244" lon="2.2305">
        <ele>1144.59</ele>
        <time>2018-09-23T09:14:36Z</time>
      </trkpt>
      <trkpt lat="42.50243" lon="2.23051">
        <ele>1144.11</ele>
        <time>2018-09-23T09:14:38Z</time>
      </trkpt>
      <trkpt lat="42.50243" lon="2.23054">
        <ele>1142.66</ele>
        <time>2018-09-23T09:14:50Z</time>
      </trkpt>
      <trkpt lat="42.50239" lon="2.2307">
        <ele>1141.7</ele>
        <time>2018-09-23T09:15:03Z</time>
      </trkpt>
      <trkpt lat="42.50242" lon="2.23084">
        <ele>1143.63</ele>
        <time>2018-09-23T09:15:12Z</time>
      </trkpt>
      <trkpt lat="42.50245" lon="2.23104">
        <ele>1147.95</ele>
        <time>2018-09-23T09:15:28Z</time>
      </trkpt>
      <trkpt lat="42.50242" lon="2.23114">
        <ele>1142.18</ele>
        <time>2018-09-23T09:15:40Z</time>
      </trkpt>
      <trkpt lat="42.50239" lon="2.23118">
        <ele>1139.78</ele>
        <time>2018-09-23T09:15:52Z</time>
      </trkpt>
      <trkpt lat="42.50234" lon="2.23123">
        <ele>1139.3</ele>
        <time>2018-09-23T09:16:11Z</time>
      </trkpt>
      <trkpt lat="42.50229" lon="2.23133">
        <ele>1136.9</ele>
        <time>2018-09-23T09:16:24Z</time>
      </trkpt>
      <trkpt lat="42.50227" lon="2.23134">
        <ele>1135.45</ele>
        <time>2018-09-23T09:16:35Z</time>
      </trkpt>
      <trkpt lat="42.50214" lon="2.23136">
        <ele>1136.9</ele>
        <time>2018-09-23T09:16:48Z</time>
      </trkpt>
      <trkpt lat="42.5021" lon="2.23144">
        <ele>1136.42</ele>
        <time>2018-09-23T09:16:59Z</time>
      </trkpt>
      <trkpt lat="42.50205" lon="2.23141">
        <ele>1137.86</ele>
        <time>2018-09-23T09:17:12Z</time>
      </trkpt>
      <trkpt lat="42.50204" lon="2.23139">
        <ele>1136.9</ele>
        <time>2018-09-23T09:17:25Z</time>
      </trkpt>
      <trkpt lat="42.50197" lon="2.2314">
        <ele>1138.34</ele>
        <time>2018-09-23T09:17:38Z</time>
      </trkpt>
      <trkpt lat="42.50191" lon="2.23141">
        <ele>1140.74</ele>
        <time>2018-09-23T09:17:50Z</time>
      </trkpt>
      <trkpt lat="42.50182" lon="2.23137">
        <ele>1141.7</ele>
        <time>2018-09-23T09:18:01Z</time>
      </trkpt>
      <trkpt lat="42.50174" lon="2.23143">
        <ele>1145.07</ele>
        <time>2018-09-23T09:18:12Z</time>
      </trkpt>
      <trkpt lat="42.50162" lon="2.23141">
        <ele>1149.39</ele>
        <time>2018-09-23T09:18:25Z</time>
      </trkpt>
      <trkpt lat="42.50161" lon="2.23142">
        <ele>1149.87</ele>
        <time>2018-09-23T09:18:26Z</time>
      </trkpt>
      <trkpt lat="42.50155" lon="2.23154">
        <ele>1151.32</ele>
        <time>2018-09-23T09:18:40Z</time>
      </trkpt>
      <trkpt lat="42.50145" lon="2.23164">
        <ele>1148.91</ele>
        <time>2018-09-23T09:18:52Z</time>
      </trkpt>
      <trkpt lat="42.50141" lon="2.2317">
        <ele>1148.91</ele>
        <time>2018-09-23T09:18:58Z</time>
      </trkpt>
      <trkpt lat="42.50137" lon="2.23187">
        <ele>1148.43</ele>
        <time>2018-09-23T09:19:08Z</time>
      </trkpt>
      <trkpt lat="42.50133" lon="2.23198">
        <ele>1147.47</ele>
        <time>2018-09-23T09:19:15Z</time>
      </trkpt>
      <trkpt lat="42.50131" lon="2.23206">
        <ele>1146.99</ele>
        <time>2018-09-23T09:19:19Z</time>
      </trkpt>
      <trkpt lat="42.50116" lon="2.23221">
        <ele>1147.47</ele>
        <time>2018-09-23T09:19:33Z</time>
      </trkpt>
      <trkpt lat="42.50114" lon="2.23226">
        <ele>1147.95</ele>
        <time>2018-09-23T09:19:37Z</time>
      </trkpt>
      <trkpt lat="42.50105" lon="2.23234">
        <ele>1150.35</ele>
        <time>2018-09-23T09:19:49Z</time>
      </trkpt>
      <trkpt lat="42.50099" lon="2.23238">
        <ele>1153.24</ele>
        <time>2018-09-23T09:19:55Z</time>
      </trkpt>
      <trkpt lat="42.50095" lon="2.23243">
        <ele>1154.68</ele>
        <time>2018-09-23T09:19:59Z</time>
      </trkpt>
      <trkpt lat="42.50084" lon="2.23251">
        <ele>1161.41</ele>
        <time>2018-09-23T09:20:09Z</time>
      </trkpt>
      <trkpt lat="42.50081" lon="2.23254">
        <ele>1163.33</ele>
        <time>2018-09-23T09:20:12Z</time>
      </trkpt>
      <trkpt lat="42.50077" lon="2.23252">
        <ele>1166.7</ele>
        <time>2018-09-23T09:20:19Z</time>
      </trkpt>
      <trkpt lat="42.50068" lon="2.23252">
        <ele>1170.54</ele>
        <time>2018-09-23T09:20:31Z</time>
      </trkpt>
      <trkpt lat="42.50055" lon="2.23251">
        <ele>1174.39</ele>
        <time>2018-09-23T09:20:45Z</time>
      </trkpt>
      <trkpt lat="42.5004" lon="2.2326">
        <ele>1169.58</ele>
        <time>2018-09-23T09:20:56Z</time>
      </trkpt>
      <trkpt lat="42.50037" lon="2.23288">
        <ele>1167.18</ele>
        <time>2018-09-23T09:21:11Z</time>
      </trkpt>
      <trkpt lat="42.50038" lon="2.23289">
        <ele>1163.81</ele>
        <time>2018-09-23T09:21:17Z</time>
      </trkpt>
      <trkpt lat="42.5003" lon="2.2329">
        <ele>1158.53</ele>
        <time>2018-09-23T09:21:29Z</time>
      </trkpt>
      <trkpt lat="42.50035" lon="2.23302">
        <ele>1153.72</ele>
        <time>2018-09-23T09:21:45Z</time>
      </trkpt>
      <trkpt lat="42.50036" lon="2.233">
        <ele>1151.8</ele>
        <time>2018-09-23T09:22:00Z</time>
      </trkpt>
      <trkpt lat="42.50038" lon="2.23305">
        <ele>1152.28</ele>
        <time>2018-09-23T09:22:13Z</time>
      </trkpt>
      <trkpt lat="42.50037" lon="2.23315">
        <ele>1154.2</ele>
        <time>2018-09-23T09:22:26Z</time>
      </trkpt>
      <trkpt lat="42.50036" lon="2.23316">
        <ele>1154.68</ele>
        <time>2018-09-23T09:22:29Z</time>
      </trkpt>
      <trkpt lat="42.50035" lon="2.23324">
        <ele>1154.2</ele>
        <time>2018-09-23T09:22:35Z</time>
      </trkpt>
      <trkpt lat="42.50034" lon="2.23335">
        <ele>1153.72</ele>
        <time>2018-09-23T09:22:44Z</time>
      </trkpt>
      <trkpt lat="42.50037" lon="2.23355">
        <ele>1156.6</ele>
        <time>2018-09-23T09:22:57Z</time>
      </trkpt>
      <trkpt lat="42.50037" lon="2.23365">
        <ele>1156.6</ele>
        <time>2018-09-23T09:23:04Z</time>
      </trkpt>
      <trkpt lat="42.50029" lon="2.23377">
        <ele>1155.64</ele>
        <time>2018-09-23T09:23:17Z</time>
      </trkpt>
      <trkpt lat="42.50018" lon="2.23388">
        <ele>1155.64</ele>
        <time>2018-09-23T09:23:32Z</time>
      </trkpt>
      <trkpt lat="42.50009" lon="2.23395">
        <ele>1155.64</ele>
        <time>2018-09-23T09:23:45Z</time>
      </trkpt>
      <trkpt lat="42.50007" lon="2.23396">
        <ele>1155.64</ele>
        <time>2018-09-23T09:23:47Z</time>
      </trkpt>
      <trkpt lat="42.49995" lon="2.23403">
        <ele>1155.64</ele>
        <time>2018-09-23T09:24:01Z</time>
      </trkpt>
      <trkpt lat="42.49984" lon="2.23414">
        <ele>1156.12</ele>
        <time>2018-09-23T09:24:14Z</time>
      </trkpt>
      <trkpt lat="42.49974" lon="2.23427">
        <ele>1156.12</ele>
        <time>2018-09-23T09:24:26Z</time>
      </trkpt>
      <trkpt lat="42.49965" lon="2.23438">
        <ele>1156.6</ele>
        <time>2018-09-23T09:24:37Z</time>
      </trkpt>
      <trkpt lat="42.49956" lon="2.23445">
        <ele>1157.08</ele>
        <time>2018-09-23T09:24:49Z</time>
      </trkpt>
      <trkpt lat="42.4994" lon="2.23454">
        <ele>1171.02</ele>
        <time>2018-09-23T09:25:02Z</time>
      </trkpt>
      <trkpt lat="42.49927" lon="2.23466">
        <ele>1175.83</ele>
        <time>2018-09-23T09:25:15Z</time>
      </trkpt>
      <trkpt lat="42.4992" lon="2.23481">
        <ele>1178.23</ele>
        <time>2018-09-23T09:25:28Z</time>
      </trkpt>
      <trkpt lat="42.49919" lon="2.23485">
        <ele>1178.23</ele>
        <time>2018-09-23T09:25:32Z</time>
      </trkpt>
      <trkpt lat="42.49912" lon="2.23497">
        <ele>1178.71</ele>
        <time>2018-09-23T09:25:45Z</time>
      </trkpt>
      <trkpt lat="42.49906" lon="2.23506">
        <ele>1179.67</ele>
        <time>2018-09-23T09:25:53Z</time>
      </trkpt>
      <trkpt lat="42.49896" lon="2.23515">
        <ele>1179.19</ele>
        <time>2018-09-23T09:26:05Z</time>
      </trkpt>
      <trkpt lat="42.49886" lon="2.23528">
        <ele>1179.67</ele>
        <time>2018-09-23T09:26:18Z</time>
      </trkpt>
      <trkpt lat="42.49875" lon="2.23542">
        <ele>1181.12</ele>
        <time>2018-09-23T09:26:33Z</time>
      </trkpt>
      <trkpt lat="42.49866" lon="2.23561">
        <ele>1185.44</ele>
        <time>2018-09-23T09:26:47Z</time>
      </trkpt>
      <trkpt lat="42.49858" lon="2.23572">
        <ele>1186.88</ele>
        <time>2018-09-23T09:26:56Z</time>
      </trkpt>
      <trkpt lat="42.49847" lon="2.23582">
        <ele>1188.81</ele>
        <time>2018-09-23T09:27:08Z</time>
      </trkpt>
      <trkpt lat="42.49834" lon="2.23591">
        <ele>1185.92</ele>
        <time>2018-09-23T09:27:22Z</time>
      </trkpt>
      <trkpt lat="42.49825" lon="2.23598">
        <ele>1186.88</ele>
        <time>2018-09-23T09:27:34Z</time>
      </trkpt>
      <trkpt lat="42.49817" lon="2.23606">
        <ele>1189.29</ele>
        <time>2018-09-23T09:27:45Z</time>
      </trkpt>
      <trkpt lat="42.49806" lon="2.23616">
        <ele>1189.77</ele>
        <time>2018-09-23T09:27:57Z</time>
      </trkpt>
      <trkpt lat="42.49801" lon="2.2362">
        <ele>1190.73</ele>
        <time>2018-09-23T09:28:02Z</time>
      </trkpt>
      <trkpt lat="42.49791" lon="2.23626">
        <ele>1193.61</ele>
        <time>2018-09-23T09:28:13Z</time>
      </trkpt>
      <trkpt lat="42.4978" lon="2.23637">
        <ele>1196.5</ele>
        <time>2018-09-23T09:28:27Z</time>
      </trkpt>
      <trkpt lat="42.49771" lon="2.23646">
        <ele>1203.23</ele>
        <time>2018-09-23T09:28:40Z</time>
      </trkpt>
      <trkpt lat="42.49761" lon="2.23654">
        <ele>1204.19</ele>
        <time>2018-09-23T09:28:53Z</time>
      </trkpt>
      <trkpt lat="42.49754" lon="2.23657">
        <ele>1204.19</ele>
        <time>2018-09-23T09:29:04Z</time>
      </trkpt>
      <trkpt lat="42.49753" lon="2.23657">
        <ele>1204.19</ele>
        <time>2018-09-23T09:29:06Z</time>
      </trkpt>
      <trkpt lat="42.49745" lon="2.23653">
        <ele>1204.19</ele>
        <time>2018-09-23T09:29:18Z</time>
      </trkpt>
      <trkpt lat="42.49736" lon="2.23649">
        <ele>1203.71</ele>
        <time>2018-09-23T09:29:26Z</time>
      </trkpt>
      <trkpt lat="42.49725" lon="2.23647">
        <ele>1208.51</ele>
        <time>2018-09-23T09:29:36Z</time>
      </trkpt>
      <trkpt lat="42.4972" lon="2.23648">
        <ele>1210.92</ele>
        <time>2018-09-23T09:29:39Z</time>
      </trkpt>
      <trkpt lat="42.49718" lon="2.23648">
        <ele>1211.88</ele>
        <time>2018-09-23T09:29:41Z</time>
      </trkpt>
      <trkpt lat="42.49709" lon="2.23647">
        <ele>1215.72</ele>
        <time>2018-09-23T09:29:48Z</time>
      </trkpt>
      <trkpt lat="42.497" lon="2.23646">
        <ele>1219.57</ele>
        <time>2018-09-23T09:29:57Z</time>
      </trkpt>
      <trkpt lat="42.49693" lon="2.23646">
        <ele>1221.49</ele>
        <time>2018-09-23T09:30:04Z</time>
      </trkpt>
      <trkpt lat="42.49681" lon="2.23648">
        <ele>1228.22</ele>
        <time>2018-09-23T09:30:14Z</time>
      </trkpt>
      <trkpt lat="42.49667" lon="2.2365">
        <ele>1234.47</ele>
        <time>2018-09-23T09:30:27Z</time>
      </trkpt>
      <trkpt lat="42.49665" lon="2.23651">
        <ele>1235.43</ele>
        <time>2018-09-23T09:30:28Z</time>
      </trkpt>
      <trkpt lat="42.49652" lon="2.23658">
        <ele>1240.24</ele>
        <time>2018-09-23T09:30:40Z</time>
      </trkpt>
      <trkpt lat="42.49645" lon="2.23666">
        <ele>1242.64</ele>
        <time>2018-09-23T09:30:47Z</time>
      </trkpt>
      <trkpt lat="42.49634" lon="2.23678">
        <ele>1246.97</ele>
        <time>2018-09-23T09:31:00Z</time>
      </trkpt>
      <trkpt lat="42.49633" lon="2.2368">
        <ele>1246.97</ele>
        <time>2018-09-23T09:31:01Z</time>
      </trkpt>
      <trkpt lat="42.49623" lon="2.23687">
        <ele>1253.7</ele>
        <time>2018-09-23T09:31:14Z</time>
      </trkpt>
      <trkpt lat="42.49616" lon="2.23683">
        <ele>1258.02</ele>
        <time>2018-09-23T09:31:23Z</time>
      </trkpt>
      <trkpt lat="42.49602" lon="2.23683">
        <ele>1256.58</ele>
        <time>2018-09-23T09:31:35Z</time>
      </trkpt>
      <trkpt lat="42.49592" lon="2.23683">
        <ele>1254.66</ele>
        <time>2018-09-23T09:31:46Z</time>
      </trkpt>
      <trkpt lat="42.49584" lon="2.23688">
        <ele>1252.74</ele>
        <time>2018-09-23T09:31:58Z</time>
      </trkpt>
      <trkpt lat="42.49582" lon="2.23689">
        <ele>1252.25</ele>
        <time>2018-09-23T09:32:01Z</time>
      </trkpt>
      <trkpt lat="42.49574" lon="2.23694">
        <ele>1253.22</ele>
        <time>2018-09-23T09:32:14Z</time>
      </trkpt>
      <trkpt lat="42.49571" lon="2.23701">
        <ele>1253.22</ele>
        <time>2018-09-23T09:32:27Z</time>
      </trkpt>
      <trkpt lat="42.4957" lon="2.23703">
        <ele>1253.7</ele>
        <time>2018-09-23T09:32:46Z</time>
      </trkpt>
      <trkpt lat="42.49567" lon="2.23708">
        <ele>1254.18</ele>
        <time>2018-09-23T09:32:58Z</time>
      </trkpt>
      <trkpt lat="42.49565" lon="2.23711">
        <ele>1253.7</ele>
        <time>2018-09-23T09:33:11Z</time>
      </trkpt>
      <trkpt lat="42.49564" lon="2.23713">
        <ele>1253.22</ele>
        <time>2018-09-23T09:33:20Z</time>
      </trkpt>
      <trkpt lat="42.49556" lon="2.23712">
        <ele>1254.66</ele>
        <time>2018-09-23T09:33:35Z</time>
      </trkpt>
      <trkpt lat="42.49549" lon="2.23718">
        <ele>1253.7</ele>
        <time>2018-09-23T09:33:47Z</time>
      </trkpt>
      <trkpt lat="42.49545" lon="2.23715">
        <ele>1255.14</ele>
        <time>2018-09-23T09:34:00Z</time>
      </trkpt>
      <trkpt lat="42.49544" lon="2.23717">
        <ele>1255.62</ele>
        <time>2018-09-23T09:34:15Z</time>
      </trkpt>
      <trkpt lat="42.49548" lon="2.2371">
        <ele>1256.58</ele>
        <time>2018-09-23T09:34:25Z</time>
      </trkpt>
      <trkpt lat="42.4955" lon="2.23704">
        <ele>1257.54</ele>
        <time>2018-09-23T09:34:39Z</time>
      </trkpt>
      <trkpt lat="42.49556" lon="2.237">
        <ele>1253.22</ele>
        <time>2018-09-23T09:35:02Z</time>
      </trkpt>
      <trkpt lat="42.49552" lon="2.23705">
        <ele>1250.33</ele>
        <time>2018-09-23T09:35:14Z</time>
      </trkpt>
      <trkpt lat="42.49551" lon="2.2371">
        <ele>1248.41</ele>
        <time>2018-09-23T09:35:30Z</time>
      </trkpt>
      <trkpt lat="42.49546" lon="2.2371">
        <ele>1246.01</ele>
        <time>2018-09-23T09:35:45Z</time>
      </trkpt>
      <trkpt lat="42.49545" lon="2.23714">
        <ele>1243.6</ele>
        <time>2018-09-23T09:36:06Z</time>
      </trkpt>
      <trkpt lat="42.49546" lon="2.23718">
        <ele>1242.16</ele>
        <time>2018-09-23T09:36:33Z</time>
      </trkpt>
      <trkpt lat="42.49549" lon="2.23715">
        <ele>1242.16</ele>
        <time>2018-09-23T09:36:55Z</time>
      </trkpt>
      <trkpt lat="42.49547" lon="2.23714">
        <ele>1241.68</ele>
        <time>2018-09-23T09:37:24Z</time>
      </trkpt>
      <trkpt lat="42.49549" lon="2.23709">
        <ele>1241.68</ele>
        <time>2018-09-23T09:37:58Z</time>
      </trkpt>
      <trkpt lat="42.49551" lon="2.23706">
        <ele>1241.68</ele>
        <time>2018-09-23T09:38:29Z</time>
      </trkpt>
      <trkpt lat="42.4955" lon="2.23707">
        <ele>1241.2</ele>
        <time>2018-09-23T09:38:53Z</time>
      </trkpt>
      <trkpt lat="42.49551" lon="2.23713">
        <ele>1240.24</ele>
        <time>2018-09-23T09:39:21Z</time>
      </trkpt>
      <trkpt lat="42.49539" lon="2.23708">
        <ele>1238.8</ele>
        <time>2018-09-23T09:39:41Z</time>
      </trkpt>
      <trkpt lat="42.49539" lon="2.23704">
        <ele>1233.51</ele>
        <time>2018-09-23T09:40:02Z</time>
      </trkpt>
      <trkpt lat="42.49541" lon="2.237">
        <ele>1233.51</ele>
        <time>2018-09-23T09:40:21Z</time>
      </trkpt>
      <trkpt lat="42.4955" lon="2.23706">
        <ele>1236.39</ele>
        <time>2018-09-23T09:40:44Z</time>
      </trkpt>
      <trkpt lat="42.49546" lon="2.23705">
        <ele>1234.95</ele>
        <time>2018-09-23T09:41:06Z</time>
      </trkpt>
      <trkpt lat="42.4955" lon="2.23709">
        <ele>1237.35</ele>
        <time>2018-09-23T09:41:36Z</time>
      </trkpt>
      <trkpt lat="42.49544" lon="2.23704">
        <ele>1236.39</ele>
        <time>2018-09-23T09:41:58Z</time>
      </trkpt>
      <trkpt lat="42.49542" lon="2.23714">
        <ele>1240.72</ele>
        <time>2018-09-23T09:42:15Z</time>
      </trkpt>
      <trkpt lat="42.49537" lon="2.23717">
        <ele>1242.16</ele>
        <time>2018-09-23T09:42:31Z</time>
      </trkpt>
      <trkpt lat="42.49531" lon="2.23724">
        <ele>1243.6</ele>
        <time>2018-09-23T09:42:47Z</time>
      </trkpt>
      <trkpt lat="42.49523" lon="2.23731">
        <ele>1243.6</ele>
        <time>2018-09-23T09:43:00Z</time>
      </trkpt>
      <trkpt lat="42.49516" lon="2.23733">
        <ele>1242.64</ele>
        <time>2018-09-23T09:43:13Z</time>
      </trkpt>
      <trkpt lat="42.49509" lon="2.23737">
        <ele>1239.28</ele>
        <time>2018-09-23T09:43:27Z</time>
      </trkpt>
      <trkpt lat="42.49509" lon="2.23741">
        <ele>1235.91</ele>
        <time>2018-09-23T09:43:44Z</time>
      </trkpt>
      <trkpt lat="42.49504" lon="2.2374">
        <ele>1231.59</ele>
        <time>2018-09-23T09:44:06Z</time>
      </trkpt>
      <trkpt lat="42.49498" lon="2.23741">
        <ele>1226.78</ele>
        <time>2018-09-23T09:44:24Z</time>
      </trkpt>
      <trkpt lat="42.49495" lon="2.23745">
        <ele>1222.45</ele>
        <time>2018-09-23T09:44:38Z</time>
      </trkpt>
      <trkpt lat="42.49495" lon="2.23759">
        <ele>1218.13</ele>
        <time>2018-09-23T09:44:56Z</time>
      </trkpt>
      <trkpt lat="42.49506" lon="2.23766">
        <ele>1225.34</ele>
        <time>2018-09-23T09:45:18Z</time>
      </trkpt>
      <trkpt lat="42.49488" lon="2.23764">
        <ele>1235.43</ele>
        <time>2018-09-23T09:45:34Z</time>
      </trkpt>
      <trkpt lat="42.49482" lon="2.2377">
        <ele>1230.62</ele>
        <time>2018-09-23T09:45:50Z</time>
      </trkpt>
      <trkpt lat="42.49464" lon="2.23778">
        <ele>1227.26</ele>
        <time>2018-09-23T09:46:05Z</time>
      </trkpt>
      <trkpt lat="42.49451" lon="2.23788">
        <ele>1223.9</ele>
        <time>2018-09-23T09:46:22Z</time>
      </trkpt>
      <trkpt lat="42.4944" lon="2.238">
        <ele>1219.09</ele>
        <time>2018-09-23T09:46:37Z</time>
      </trkpt>
      <trkpt lat="42.4943" lon="2.23808">
        <ele>1213.32</ele>
        <time>2018-09-23T09:46:53Z</time>
      </trkpt>
      <trkpt lat="42.49425" lon="2.23827">
        <ele>1225.82</ele>
        <time>2018-09-23T09:47:05Z</time>
      </trkpt>
      <trkpt lat="42.49418" lon="2.23837">
        <ele>1226.78</ele>
        <time>2018-09-23T09:47:19Z</time>
      </trkpt>
      <trkpt lat="42.4942" lon="2.23851">
        <ele>1238.32</ele>
        <time>2018-09-23T09:47:34Z</time>
      </trkpt>
      <trkpt lat="42.49409" lon="2.23859">
        <ele>1238.32</ele>
        <time>2018-09-23T09:47:50Z</time>
      </trkpt>
      <trkpt lat="42.49399" lon="2.23869">
        <ele>1238.32</ele>
        <time>2018-09-23T09:48:04Z</time>
      </trkpt>
      <trkpt lat="42.49383" lon="2.23885">
        <ele>1238.8</ele>
        <time>2018-09-23T09:48:21Z</time>
      </trkpt>
      <trkpt lat="42.49375" lon="2.23893">
        <ele>1238.8</ele>
        <time>2018-09-23T09:48:42Z</time>
      </trkpt>
      <trkpt lat="42.49362" lon="2.23907">
        <ele>1238.8</ele>
        <time>2018-09-23T09:49:03Z</time>
      </trkpt>
      <trkpt lat="42.49351" lon="2.23918">
        <ele>1238.8</ele>
        <time>2018-09-23T09:49:17Z</time>
      </trkpt>
      <trkpt lat="42.49334" lon="2.23922">
        <ele>1238.8</ele>
        <time>2018-09-23T09:49:31Z</time>
      </trkpt>
      <trkpt lat="42.49325" lon="2.23924">
        <ele>1239.28</ele>
        <time>2018-09-23T09:49:47Z</time>
      </trkpt>
      <trkpt lat="42.49315" lon="2.23931">
        <ele>1239.28</ele>
        <time>2018-09-23T09:50:05Z</time>
      </trkpt>
      <trkpt lat="42.49297" lon="2.23922">
        <ele>1238.8</ele>
        <time>2018-09-23T09:50:20Z</time>
      </trkpt>
      <trkpt lat="42.49283" lon="2.2392">
        <ele>1238.8</ele>
        <time>2018-09-23T09:50:39Z</time>
      </trkpt>
      <trkpt lat="42.49268" lon="2.23915">
        <ele>1238.8</ele>
        <time>2018-09-23T09:50:55Z</time>
      </trkpt>
      <trkpt lat="42.49272" lon="2.23919">
        <ele>1239.28</ele>
        <time>2018-09-23T09:51:07Z</time>
      </trkpt>
      <trkpt lat="42.49273" lon="2.23917">
        <ele>1239.28</ele>
        <time>2018-09-23T09:51:23Z</time>
      </trkpt>
      <trkpt lat="42.49262" lon="2.23896">
        <ele>1244.56</ele>
        <time>2018-09-23T09:51:38Z</time>
      </trkpt>
      <trkpt lat="42.49249" lon="2.23892">
        <ele>1264.75</ele>
        <time>2018-09-23T09:51:50Z</time>
      </trkpt>
      <trkpt lat="42.49249" lon="2.23895">
        <ele>1265.23</ele>
        <time>2018-09-23T09:52:06Z</time>
      </trkpt>
      <trkpt lat="42.49241" lon="2.23889">
        <ele>1267.16</ele>
        <time>2018-09-23T09:52:22Z</time>
      </trkpt>
      <trkpt lat="42.49225" lon="2.23887">
        <ele>1280.61</ele>
        <time>2018-09-23T09:52:39Z</time>
      </trkpt>
      <trkpt lat="42.49213" lon="2.23891">
        <ele>1293.59</ele>
        <time>2018-09-23T09:52:58Z</time>
      </trkpt>
      <trkpt lat="42.49212" lon="2.23893">
        <ele>1303.2</ele>
        <time>2018-09-23T09:53:27Z</time>
      </trkpt>
      <trkpt lat="42.49207" lon="2.23903">
        <ele>1303.69</ele>
        <time>2018-09-23T09:53:42Z</time>
      </trkpt>
      <trkpt lat="42.492" lon="2.23901">
        <ele>1304.17</ele>
        <time>2018-09-23T09:53:58Z</time>
      </trkpt>
      <trkpt lat="42.49193" lon="2.23899">
        <ele>1304.17</ele>
        <time>2018-09-23T09:54:11Z</time>
      </trkpt>
      <trkpt lat="42.49173" lon="2.23894">
        <ele>1309.93</ele>
        <time>2018-09-23T09:54:27Z</time>
      </trkpt>
      <trkpt lat="42.49161" lon="2.23896">
        <ele>1315.22</ele>
        <time>2018-09-23T09:54:42Z</time>
      </trkpt>
      <trkpt lat="42.49151" lon="2.23896">
        <ele>1319.07</ele>
        <time>2018-09-23T09:54:57Z</time>
      </trkpt>
      <trkpt lat="42.49136" lon="2.23901">
        <ele>1319.07</ele>
        <time>2018-09-23T09:55:17Z</time>
      </trkpt>
      <trkpt lat="42.49122" lon="2.23909">
        <ele>1319.07</ele>
        <time>2018-09-23T09:55:35Z</time>
      </trkpt>
      <trkpt lat="42.49109" lon="2.23918">
        <ele>1319.55</ele>
        <time>2018-09-23T09:55:53Z</time>
      </trkpt>
      <trkpt lat="42.49106" lon="2.23923">
        <ele>1319.55</ele>
        <time>2018-09-23T09:56:10Z</time>
      </trkpt>
      <trkpt lat="42.49102" lon="2.23917">
        <ele>1319.55</ele>
        <time>2018-09-23T09:56:29Z</time>
      </trkpt>
      <trkpt lat="42.49097" lon="2.23917">
        <ele>1319.55</ele>
        <time>2018-09-23T09:56:54Z</time>
      </trkpt>
      <trkpt lat="42.49101" lon="2.23919">
        <ele>1318.1</ele>
        <time>2018-09-23T09:57:09Z</time>
      </trkpt>
      <trkpt lat="42.49083" lon="2.23924">
        <ele>1318.1</ele>
        <time>2018-09-23T09:57:26Z</time>
      </trkpt>
      <trkpt lat="42.49068" lon="2.23929">
        <ele>1318.1</ele>
        <time>2018-09-23T09:57:43Z</time>
      </trkpt>
      <trkpt lat="42.49058" lon="2.23936">
        <ele>1318.1</ele>
        <time>2018-09-23T09:57:56Z</time>
      </trkpt>
      <trkpt lat="42.4905" lon="2.23947">
        <ele>1318.1</ele>
        <time>2018-09-23T09:58:12Z</time>
      </trkpt>
      <trkpt lat="42.49044" lon="2.23949">
        <ele>1317.62</ele>
        <time>2018-09-23T09:58:27Z</time>
      </trkpt>
      <trkpt lat="42.49031" lon="2.23954">
        <ele>1317.62</ele>
        <time>2018-09-23T09:58:42Z</time>
      </trkpt>
      <trkpt lat="42.49019" lon="2.23951">
        <ele>1317.62</ele>
        <time>2018-09-23T09:58:58Z</time>
      </trkpt>
      <trkpt lat="42.49012" lon="2.23946">
        <ele>1317.62</ele>
        <time>2018-09-23T09:59:12Z</time>
      </trkpt>
      <trkpt lat="42.49002" lon="2.23943">
        <ele>1317.62</ele>
        <time>2018-09-23T09:59:27Z</time>
      </trkpt>
      <trkpt lat="42.48995" lon="2.23941">
        <ele>1317.62</ele>
        <time>2018-09-23T09:59:44Z</time>
      </trkpt>
      <trkpt lat="42.48976" lon="2.23942">
        <ele>1317.62</ele>
        <time>2018-09-23T10:00:03Z</time>
      </trkpt>
      <trkpt lat="42.4896" lon="2.23949">
        <ele>1318.1</ele>
        <time>2018-09-23T10:00:31Z</time>
      </trkpt>
      <trkpt lat="42.48968" lon="2.23941">
        <ele>1318.1</ele>
        <time>2018-09-23T10:00:47Z</time>
      </trkpt>
      <trkpt lat="42.48962" lon="2.23934">
        <ele>1318.1</ele>
        <time>2018-09-23T10:01:07Z</time>
      </trkpt>
      <trkpt lat="42.48948" lon="2.23927">
        <ele>1318.59</ele>
        <time>2018-09-23T10:01:27Z</time>
      </trkpt>
      <trkpt lat="42.48942" lon="2.23923">
        <ele>1318.59</ele>
        <time>2018-09-23T10:01:43Z</time>
      </trkpt>
      <trkpt lat="42.4894" lon="2.23923">
        <ele>1318.59</ele>
        <time>2018-09-23T10:02:02Z</time>
      </trkpt>
      <trkpt lat="42.48935" lon="2.23906">
        <ele>1320.03</ele>
        <time>2018-09-23T10:02:18Z</time>
      </trkpt>
      <trkpt lat="42.48934" lon="2.23901">
        <ele>1320.51</ele>
        <time>2018-09-23T10:02:35Z</time>
      </trkpt>
      <trkpt lat="42.48917" lon="2.23881">
        <ele>1345.98</ele>
        <time>2018-09-23T10:02:48Z</time>
      </trkpt>
      <trkpt lat="42.48907" lon="2.23873">
        <ele>1348.39</ele>
        <time>2018-09-23T10:03:02Z</time>
      </trkpt>
      <trkpt lat="42.48897" lon="2.23855">
        <ele>1356.56</ele>
        <time>2018-09-23T10:03:18Z</time>
      </trkpt>
      <trkpt lat="42.48888" lon="2.2385">
        <ele>1360.4</ele>
        <time>2018-09-23T10:03:32Z</time>
      </trkpt>
      <trkpt lat="42.4888" lon="2.2384">
        <ele>1363.29</ele>
        <time>2018-09-23T10:03:48Z</time>
      </trkpt>
      <trkpt lat="42.48871" lon="2.23826">
        <ele>1367.13</ele>
        <time>2018-09-23T10:04:05Z</time>
      </trkpt>
      <trkpt lat="42.48862" lon="2.2383">
        <ele>1370.02</ele>
        <time>2018-09-23T10:04:18Z</time>
      </trkpt>
      <trkpt lat="42.48858" lon="2.23823">
        <ele>1373.38</ele>
        <time>2018-09-23T10:04:32Z</time>
      </trkpt>
      <trkpt lat="42.48848" lon="2.23818">
        <ele>1373.86</ele>
        <time>2018-09-23T10:04:47Z</time>
      </trkpt>
      <trkpt lat="42.48839" lon="2.23814">
        <ele>1376.26</ele>
        <time>2018-09-23T10:05:01Z</time>
      </trkpt>
      <trkpt lat="42.48833" lon="2.23815">
        <ele>1381.55</ele>
        <time>2018-09-23T10:05:15Z</time>
      </trkpt>
      <trkpt lat="42.48824" lon="2.23816">
        <ele>1387.32</ele>
        <time>2018-09-23T10:05:28Z</time>
      </trkpt>
      <trkpt lat="42.48815" lon="2.23815">
        <ele>1391.17</ele>
        <time>2018-09-23T10:05:42Z</time>
      </trkpt>
      <trkpt lat="42.48809" lon="2.23807">
        <ele>1392.61</ele>
        <time>2018-09-23T10:05:53Z</time>
      </trkpt>
      <trkpt lat="42.48799" lon="2.23809">
        <ele>1400.3</ele>
        <time>2018-09-23T10:06:05Z</time>
      </trkpt>
      <trkpt lat="42.48786" lon="2.23805">
        <ele>1399.82</ele>
        <time>2018-09-23T10:06:22Z</time>
      </trkpt>
      <trkpt lat="42.48772" lon="2.23802">
        <ele>1398.86</ele>
        <time>2018-09-23T10:06:39Z</time>
      </trkpt>
      <trkpt lat="42.48764" lon="2.23805">
        <ele>1398.86</ele>
        <time>2018-09-23T10:06:56Z</time>
      </trkpt>
      <trkpt lat="42.48752" lon="2.23811">
        <ele>1398.86</ele>
        <time>2018-09-23T10:07:14Z</time>
      </trkpt>
      <trkpt lat="42.48733" lon="2.23818">
        <ele>1398.86</ele>
        <time>2018-09-23T10:07:32Z</time>
      </trkpt>
      <trkpt lat="42.48721" lon="2.23819">
        <ele>1398.37</ele>
        <time>2018-09-23T10:07:46Z</time>
      </trkpt>
      <trkpt lat="42.48711" lon="2.23819">
        <ele>1398.37</ele>
        <time>2018-09-23T10:08:06Z</time>
      </trkpt>
      <trkpt lat="42.48704" lon="2.2382">
        <ele>1393.09</ele>
        <time>2018-09-23T10:08:19Z</time>
      </trkpt>
      <trkpt lat="42.48693" lon="2.23826">
        <ele>1392.13</ele>
        <time>2018-09-23T10:08:33Z</time>
      </trkpt>
      <trkpt lat="42.48679" lon="2.23824">
        <ele>1391.65</ele>
        <time>2018-09-23T10:08:47Z</time>
      </trkpt>
      <trkpt lat="42.48669" lon="2.2382">
        <ele>1394.05</ele>
        <time>2018-09-23T10:08:59Z</time>
      </trkpt>
      <trkpt lat="42.48657" lon="2.23815">
        <ele>1396.45</ele>
        <time>2018-09-23T10:09:13Z</time>
      </trkpt>
      <trkpt lat="42.48649" lon="2.23807">
        <ele>1397.89</ele>
        <time>2018-09-23T10:09:26Z</time>
      </trkpt>
      <trkpt lat="42.48636" lon="2.23806">
        <ele>1398.37</ele>
        <time>2018-09-23T10:09:41Z</time>
      </trkpt>
      <trkpt lat="42.48621" lon="2.23806">
        <ele>1399.34</ele>
        <time>2018-09-23T10:09:57Z</time>
      </trkpt>
      <trkpt lat="42.48622" lon="2.23812">
        <ele>1408.95</ele>
        <time>2018-09-23T10:10:20Z</time>
      </trkpt>
      <trkpt lat="42.48614" lon="2.23818">
        <ele>1410.87</ele>
        <time>2018-09-23T10:10:46Z</time>
      </trkpt>
      <trkpt lat="42.48607" lon="2.23814">
        <ele>1413.28</ele>
        <time>2018-09-23T10:11:02Z</time>
      </trkpt>
      <trkpt lat="42.48601" lon="2.23817">
        <ele>1417.6</ele>
        <time>2018-09-23T10:11:17Z</time>
      </trkpt>
      <trkpt lat="42.48594" lon="2.23818">
        <ele>1420.49</ele>
        <time>2018-09-23T10:11:29Z</time>
      </trkpt>
      <trkpt lat="42.48585" lon="2.23819">
        <ele>1422.41</ele>
        <time>2018-09-23T10:11:42Z</time>
      </trkpt>
      <trkpt lat="42.48582" lon="2.23818">
        <ele>1422.89</ele>
        <time>2018-09-23T10:11:45Z</time>
      </trkpt>
      <trkpt lat="42.48567" lon="2.23818">
        <ele>1423.37</ele>
        <time>2018-09-23T10:12:02Z</time>
      </trkpt>
      <trkpt lat="42.48565" lon="2.23818">
        <ele>1423.37</ele>
        <time>2018-09-23T10:12:04Z</time>
      </trkpt>
      <trkpt lat="42.48556" lon="2.23818">
        <ele>1423.85</ele>
        <time>2018-09-23T10:12:12Z</time>
      </trkpt>
      <trkpt lat="42.48541" lon="2.23821">
        <ele>1424.33</ele>
        <time>2018-09-23T10:12:29Z</time>
      </trkpt>
      <trkpt lat="42.48528" lon="2.23829">
        <ele>1425.29</ele>
        <time>2018-09-23T10:12:44Z</time>
      </trkpt>
      <trkpt lat="42.48521" lon="2.23828">
        <ele>1427.7</ele>
        <time>2018-09-23T10:13:00Z</time>
      </trkpt>
      <trkpt lat="42.48514" lon="2.23831">
        <ele>1432.5</ele>
        <time>2018-09-23T10:13:17Z</time>
      </trkpt>
      <trkpt lat="42.48498" lon="2.23837">
        <ele>1433.46</ele>
        <time>2018-09-23T10:13:33Z</time>
      </trkpt>
      <trkpt lat="42.48486" lon="2.23842">
        <ele>1433.94</ele>
        <time>2018-09-23T10:13:50Z</time>
      </trkpt>
      <trkpt lat="42.48471" lon="2.2385">
        <ele>1433.94</ele>
        <time>2018-09-23T10:14:07Z</time>
      </trkpt>
      <trkpt lat="42.48456" lon="2.23856">
        <ele>1434.42</ele>
        <time>2018-09-23T10:14:21Z</time>
      </trkpt>
      <trkpt lat="42.48444" lon="2.23864">
        <ele>1436.35</ele>
        <time>2018-09-23T10:14:39Z</time>
      </trkpt>
      <trkpt lat="42.48434" lon="2.2387">
        <ele>1437.31</ele>
        <time>2018-09-23T10:14:56Z</time>
      </trkpt>
      <trkpt lat="42.48425" lon="2.2387">
        <ele>1437.79</ele>
        <time>2018-09-23T10:15:10Z</time>
      </trkpt>
      <trkpt lat="42.48412" lon="2.23876">
        <ele>1438.75</ele>
        <time>2018-09-23T10:15:27Z</time>
      </trkpt>
      <trkpt lat="42.48401" lon="2.23878">
        <ele>1440.67</ele>
        <time>2018-09-23T10:15:41Z</time>
      </trkpt>
      <trkpt lat="42.48391" lon="2.2388">
        <ele>1440.67</ele>
        <time>2018-09-23T10:15:56Z</time>
      </trkpt>
      <trkpt lat="42.48383" lon="2.23886">
        <ele>1441.15</ele>
        <time>2018-09-23T10:16:12Z</time>
      </trkpt>
      <trkpt lat="42.48381" lon="2.23892">
        <ele>1441.63</ele>
        <time>2018-09-23T10:16:28Z</time>
      </trkpt>
      <trkpt lat="42.48368" lon="2.23899">
        <ele>1441.63</ele>
        <time>2018-09-23T10:16:44Z</time>
      </trkpt>
      <trkpt lat="42.48353" lon="2.23903">
        <ele>1441.63</ele>
        <time>2018-09-23T10:16:58Z</time>
      </trkpt>
      <trkpt lat="42.48343" lon="2.23911">
        <ele>1442.11</ele>
        <time>2018-09-23T10:17:13Z</time>
      </trkpt>
      <trkpt lat="42.48329" lon="2.23919">
        <ele>1442.11</ele>
        <time>2018-09-23T10:17:26Z</time>
      </trkpt>
      <trkpt lat="42.48319" lon="2.23925">
        <ele>1442.11</ele>
        <time>2018-09-23T10:17:40Z</time>
      </trkpt>
      <trkpt lat="42.48308" lon="2.23934">
        <ele>1442.6</ele>
        <time>2018-09-23T10:17:55Z</time>
      </trkpt>
      <trkpt lat="42.48294" lon="2.23943">
        <ele>1445</ele>
        <time>2018-09-23T10:18:11Z</time>
      </trkpt>
      <trkpt lat="42.48294" lon="2.23947">
        <ele>1477.68</ele>
        <time>2018-09-23T10:18:25Z</time>
      </trkpt>
      <trkpt lat="42.48284" lon="2.23946">
        <ele>1477.2</ele>
        <time>2018-09-23T10:18:43Z</time>
      </trkpt>
      <trkpt lat="42.48276" lon="2.23949">
        <ele>1477.68</ele>
        <time>2018-09-23T10:19:02Z</time>
      </trkpt>
      <trkpt lat="42.48261" lon="2.23948">
        <ele>1477.2</ele>
        <time>2018-09-23T10:19:17Z</time>
      </trkpt>
      <trkpt lat="42.48247" lon="2.23946">
        <ele>1477.2</ele>
        <time>2018-09-23T10:19:34Z</time>
      </trkpt>
      <trkpt lat="42.48228" lon="2.23941">
        <ele>1486.82</ele>
        <time>2018-09-23T10:19:49Z</time>
      </trkpt>
      <trkpt lat="42.48225" lon="2.23938">
        <ele>1493.55</ele>
        <time>2018-09-23T10:20:03Z</time>
      </trkpt>
      <trkpt lat="42.48214" lon="2.23939">
        <ele>1496.43</ele>
        <time>2018-09-23T10:20:17Z</time>
      </trkpt>
      <trkpt lat="42.48198" lon="2.23943">
        <ele>1503.64</ele>
        <time>2018-09-23T10:20:29Z</time>
      </trkpt>
      <trkpt lat="42.48188" lon="2.23945">
        <ele>1511.33</ele>
        <time>2018-09-23T10:20:43Z</time>
      </trkpt>
      <trkpt lat="42.48179" lon="2.23945">
        <ele>1512.77</ele>
        <time>2018-09-23T10:20:54Z</time>
      </trkpt>
      <trkpt lat="42.48168" lon="2.23945">
        <ele>1513.25</ele>
        <time>2018-09-23T10:21:06Z</time>
      </trkpt>
      <trkpt lat="42.48159" lon="2.23945">
        <ele>1513.73</ele>
        <time>2018-09-23T10:21:20Z</time>
      </trkpt>
      <trkpt lat="42.48147" lon="2.2394">
        <ele>1511.81</ele>
        <time>2018-09-23T10:21:31Z</time>
      </trkpt>
      <trkpt lat="42.48137" lon="2.23939">
        <ele>1511.33</ele>
        <time>2018-09-23T10:21:43Z</time>
      </trkpt>
      <trkpt lat="42.4813" lon="2.23942">
        <ele>1511.81</ele>
        <time>2018-09-23T10:21:53Z</time>
      </trkpt>
      <trkpt lat="42.48119" lon="2.23949">
        <ele>1512.29</ele>
        <time>2018-09-23T10:22:07Z</time>
      </trkpt>
      <trkpt lat="42.48105" lon="2.23948">
        <ele>1511.33</ele>
        <time>2018-09-23T10:22:23Z</time>
      </trkpt>
      <trkpt lat="42.48094" lon="2.23946">
        <ele>1512.29</ele>
        <time>2018-09-23T10:22:37Z</time>
      </trkpt>
      <trkpt lat="42.48081" lon="2.23949">
        <ele>1515.18</ele>
        <time>2018-09-23T10:22:51Z</time>
      </trkpt>
      <trkpt lat="42.48066" lon="2.23947">
        <ele>1516.14</ele>
        <time>2018-09-23T10:23:04Z</time>
      </trkpt>
      <trkpt lat="42.48055" lon="2.23951">
        <ele>1519.5</ele>
        <time>2018-09-23T10:23:19Z</time>
      </trkpt>
      <trkpt lat="42.48047" lon="2.23954">
        <ele>1521.42</ele>
        <time>2018-09-23T10:23:33Z</time>
      </trkpt>
      <trkpt lat="42.48036" lon="2.23957">
        <ele>1523.83</ele>
        <time>2018-09-23T10:23:47Z</time>
      </trkpt>
      <trkpt lat="42.48026" lon="2.2396">
        <ele>1528.63</ele>
        <time>2018-09-23T10:24:00Z</time>
      </trkpt>
      <trkpt lat="42.48016" lon="2.23967">
        <ele>1527.67</ele>
        <time>2018-09-23T10:24:12Z</time>
      </trkpt>
      <trkpt lat="42.48002" lon="2.2397">
        <ele>1525.75</ele>
        <time>2018-09-23T10:24:28Z</time>
      </trkpt>
      <trkpt lat="42.4799" lon="2.23967">
        <ele>1526.23</ele>
        <time>2018-09-23T10:24:42Z</time>
      </trkpt>
      <trkpt lat="42.47974" lon="2.23966">
        <ele>1526.71</ele>
        <time>2018-09-23T10:24:57Z</time>
      </trkpt>
      <trkpt lat="42.47962" lon="2.2397">
        <ele>1528.15</ele>
        <time>2018-09-23T10:25:11Z</time>
      </trkpt>
      <trkpt lat="42.47951" lon="2.23973">
        <ele>1530.08</ele>
        <time>2018-09-23T10:25:25Z</time>
      </trkpt>
      <trkpt lat="42.47939" lon="2.23976">
        <ele>1531.04</ele>
        <time>2018-09-23T10:25:38Z</time>
      </trkpt>
      <trkpt lat="42.47929" lon="2.23979">
        <ele>1532</ele>
        <time>2018-09-23T10:25:51Z</time>
      </trkpt>
      <trkpt lat="42.47917" lon="2.23981">
        <ele>1533.92</ele>
        <time>2018-09-23T10:26:07Z</time>
      </trkpt>
      <trkpt lat="42.47906" lon="2.23985">
        <ele>1536.8</ele>
        <time>2018-09-23T10:26:25Z</time>
      </trkpt>
      <trkpt lat="42.47897" lon="2.23988">
        <ele>1540.17</ele>
        <time>2018-09-23T10:26:48Z</time>
      </trkpt>
      <trkpt lat="42.47896" lon="2.23992">
        <ele>1544.98</ele>
        <time>2018-09-23T10:27:17Z</time>
      </trkpt>
      <trkpt lat="42.47888" lon="2.23989">
        <ele>1546.42</ele>
        <time>2018-09-23T10:27:33Z</time>
      </trkpt>
      <trkpt lat="42.47879" lon="2.23989">
        <ele>1551.71</ele>
        <time>2018-09-23T10:27:43Z</time>
      </trkpt>
      <trkpt lat="42.47869" lon="2.2399">
        <ele>1552.67</ele>
        <time>2018-09-23T10:27:58Z</time>
      </trkpt>
      <trkpt lat="42.47858" lon="2.23994">
        <ele>1552.67</ele>
        <time>2018-09-23T10:28:12Z</time>
      </trkpt>
      <trkpt lat="42.47852" lon="2.23993">
        <ele>1551.71</ele>
        <time>2018-09-23T10:28:18Z</time>
      </trkpt>
      <trkpt lat="42.47835" lon="2.2399">
        <ele>1553.63</ele>
        <time>2018-09-23T10:28:34Z</time>
      </trkpt>
      <trkpt lat="42.47824" lon="2.23991">
        <ele>1555.55</ele>
        <time>2018-09-23T10:28:46Z</time>
      </trkpt>
      <trkpt lat="42.47814" lon="2.23992">
        <ele>1556.03</ele>
        <time>2018-09-23T10:29:01Z</time>
      </trkpt>
      <trkpt lat="42.47799" lon="2.23988">
        <ele>1557.47</ele>
        <time>2018-09-23T10:29:17Z</time>
      </trkpt>
      <trkpt lat="42.47782" lon="2.23985">
        <ele>1558.92</ele>
        <time>2018-09-23T10:29:34Z</time>
      </trkpt>
      <trkpt lat="42.47771" lon="2.23988">
        <ele>1560.36</ele>
        <time>2018-09-23T10:29:47Z</time>
      </trkpt>
      <trkpt lat="42.47759" lon="2.2399">
        <ele>1563.24</ele>
        <time>2018-09-23T10:30:03Z</time>
      </trkpt>
      <trkpt lat="42.47747" lon="2.24">
        <ele>1569.49</ele>
        <time>2018-09-23T10:30:20Z</time>
      </trkpt>
      <trkpt lat="42.47744" lon="2.24001">
        <ele>1572.85</ele>
        <time>2018-09-23T10:30:38Z</time>
      </trkpt>
      <trkpt lat="42.47739" lon="2.24021">
        <ele>1574.3</ele>
        <time>2018-09-23T10:31:03Z</time>
      </trkpt>
      <trkpt lat="42.47739" lon="2.24011">
        <ele>1572.85</ele>
        <time>2018-09-23T10:31:18Z</time>
      </trkpt>
      <trkpt lat="42.47736" lon="2.24007">
        <ele>1575.74</ele>
        <time>2018-09-23T10:31:34Z</time>
      </trkpt>
      <trkpt lat="42.47725" lon="2.24006">
        <ele>1577.66</ele>
        <time>2018-09-23T10:31:46Z</time>
      </trkpt>
      <trkpt lat="42.47709" lon="2.24">
        <ele>1578.14</ele>
        <time>2018-09-23T10:32:01Z</time>
      </trkpt>
      <trkpt lat="42.47696" lon="2.23993">
        <ele>1580.54</ele>
        <time>2018-09-23T10:32:14Z</time>
      </trkpt>
      <trkpt lat="42.47685" lon="2.2399">
        <ele>1585.35</ele>
        <time>2018-09-23T10:32:26Z</time>
      </trkpt>
      <trkpt lat="42.47673" lon="2.23985">
        <ele>1585.35</ele>
        <time>2018-09-23T10:32:37Z</time>
      </trkpt>
      <trkpt lat="42.47659" lon="2.23978">
        <ele>1586.31</ele>
        <time>2018-09-23T10:32:49Z</time>
      </trkpt>
      <trkpt lat="42.47649" lon="2.23971">
        <ele>1587.75</ele>
        <time>2018-09-23T10:33:01Z</time>
      </trkpt>
      <trkpt lat="42.47642" lon="2.2397">
        <ele>1587.75</ele>
        <time>2018-09-23T10:33:08Z</time>
      </trkpt>
      <trkpt lat="42.47627" lon="2.23964">
        <ele>1588.72</ele>
        <time>2018-09-23T10:33:23Z</time>
      </trkpt>
      <trkpt lat="42.47619" lon="2.23963">
        <ele>1589.2</ele>
        <time>2018-09-23T10:33:38Z</time>
      </trkpt>
      <trkpt lat="42.47606" lon="2.2396">
        <ele>1591.12</ele>
        <time>2018-09-23T10:33:55Z</time>
      </trkpt>
      <trkpt lat="42.47592" lon="2.23956">
        <ele>1594.48</ele>
        <time>2018-09-23T10:34:09Z</time>
      </trkpt>
      <trkpt lat="42.47579" lon="2.2396">
        <ele>1594.96</ele>
        <time>2018-09-23T10:34:24Z</time>
      </trkpt>
      <trkpt lat="42.47565" lon="2.23963">
        <ele>1597.37</ele>
        <time>2018-09-23T10:34:39Z</time>
      </trkpt>
      <trkpt lat="42.47552" lon="2.23964">
        <ele>1599.77</ele>
        <time>2018-09-23T10:34:54Z</time>
      </trkpt>
      <trkpt lat="42.47543" lon="2.23966">
        <ele>1600.73</ele>
        <time>2018-09-23T10:35:08Z</time>
      </trkpt>
      <trkpt lat="42.47533" lon="2.23968">
        <ele>1600.73</ele>
        <time>2018-09-23T10:35:23Z</time>
      </trkpt>
      <trkpt lat="42.47523" lon="2.23969">
        <ele>1601.21</ele>
        <time>2018-09-23T10:35:38Z</time>
      </trkpt>
      <trkpt lat="42.47509" lon="2.23964">
        <ele>1602.66</ele>
        <time>2018-09-23T10:35:52Z</time>
      </trkpt>
      <trkpt lat="42.47496" lon="2.23955">
        <ele>1605.06</ele>
        <time>2018-09-23T10:36:06Z</time>
      </trkpt>
      <trkpt lat="42.47495" lon="2.23954">
        <ele>1605.06</ele>
        <time>2018-09-23T10:36:07Z</time>
      </trkpt>
      <trkpt lat="42.47485" lon="2.23947">
        <ele>1606.02</ele>
        <time>2018-09-23T10:36:20Z</time>
      </trkpt>
      <trkpt lat="42.47475" lon="2.23938">
        <ele>1607.94</ele>
        <time>2018-09-23T10:36:32Z</time>
      </trkpt>
      <trkpt lat="42.47463" lon="2.23929">
        <ele>1608.9</ele>
        <time>2018-09-23T10:36:47Z</time>
      </trkpt>
      <trkpt lat="42.47453" lon="2.23922">
        <ele>1609.86</ele>
        <time>2018-09-23T10:36:59Z</time>
      </trkpt>
      <trkpt lat="42.47436" lon="2.23912">
        <ele>1611.31</ele>
        <time>2018-09-23T10:37:14Z</time>
      </trkpt>
      <trkpt lat="42.47424" lon="2.23906">
        <ele>1612.75</ele>
        <time>2018-09-23T10:37:29Z</time>
      </trkpt>
      <trkpt lat="42.47407" lon="2.23902">
        <ele>1613.71</ele>
        <time>2018-09-23T10:37:45Z</time>
      </trkpt>
      <trkpt lat="42.47399" lon="2.23902">
        <ele>1615.15</ele>
        <time>2018-09-23T10:37:59Z</time>
      </trkpt>
      <trkpt lat="42.47395" lon="2.23903">
        <ele>1618.04</ele>
        <time>2018-09-23T10:38:23Z</time>
      </trkpt>
      <trkpt lat="42.47384" lon="2.23903">
        <ele>1619.96</ele>
        <time>2018-09-23T10:38:38Z</time>
      </trkpt>
      <trkpt lat="42.4737" lon="2.23905">
        <ele>1621.88</ele>
        <time>2018-09-23T10:38:52Z</time>
      </trkpt>
      <trkpt lat="42.47356" lon="2.23899">
        <ele>1623.32</ele>
        <time>2018-09-23T10:39:07Z</time>
      </trkpt>
      <trkpt lat="42.47344" lon="2.23899">
        <ele>1622.84</ele>
        <time>2018-09-23T10:39:22Z</time>
      </trkpt>
      <trkpt lat="42.4733" lon="2.23895">
        <ele>1629.57</ele>
        <time>2018-09-23T10:39:38Z</time>
      </trkpt>
      <trkpt lat="42.4732" lon="2.23891">
        <ele>1636.78</ele>
        <time>2018-09-23T10:39:52Z</time>
      </trkpt>
      <trkpt lat="42.47308" lon="2.23885">
        <ele>1641.59</ele>
        <time>2018-09-23T10:40:08Z</time>
      </trkpt>
      <trkpt lat="42.47302" lon="2.23883">
        <ele>1644.47</ele>
        <time>2018-09-23T10:40:21Z</time>
      </trkpt>
      <trkpt lat="42.47295" lon="2.23881">
        <ele>1643.99</ele>
        <time>2018-09-23T10:40:33Z</time>
      </trkpt>
      <trkpt lat="42.47285" lon="2.23872">
        <ele>1643.99</ele>
        <time>2018-09-23T10:40:45Z</time>
      </trkpt>
      <trkpt lat="42.47279" lon="2.23864">
        <ele>1644.47</ele>
        <time>2018-09-23T10:40:54Z</time>
      </trkpt>
      <trkpt lat="42.4727" lon="2.23857">
        <ele>1647.36</ele>
        <time>2018-09-23T10:41:08Z</time>
      </trkpt>
      <trkpt lat="42.47269" lon="2.23856">
        <ele>1647.84</ele>
        <time>2018-09-23T10:41:09Z</time>
      </trkpt>
      <trkpt lat="42.47259" lon="2.23845">
        <ele>1649.76</ele>
        <time>2018-09-23T10:41:23Z</time>
      </trkpt>
      <trkpt lat="42.47249" lon="2.23836">
        <ele>1652.16</ele>
        <time>2018-09-23T10:41:37Z</time>
      </trkpt>
      <trkpt lat="42.47246" lon="2.23828">
        <ele>1656.01</ele>
        <time>2018-09-23T10:41:50Z</time>
      </trkpt>
      <trkpt lat="42.47243" lon="2.23817">
        <ele>1659.37</ele>
        <time>2018-09-23T10:42:03Z</time>
      </trkpt>
      <trkpt lat="42.4724" lon="2.23809">
        <ele>1663.7</ele>
        <time>2018-09-23T10:42:15Z</time>
      </trkpt>
      <trkpt lat="42.47233" lon="2.23799">
        <ele>1665.62</ele>
        <time>2018-09-23T10:42:29Z</time>
      </trkpt>
      <trkpt lat="42.47232" lon="2.23786">
        <ele>1667.54</ele>
        <time>2018-09-23T10:42:44Z</time>
      </trkpt>
      <trkpt lat="42.47229" lon="2.23778">
        <ele>1671.39</ele>
        <time>2018-09-23T10:42:58Z</time>
      </trkpt>
      <trkpt lat="42.47229" lon="2.2377">
        <ele>1678.12</ele>
        <time>2018-09-23T10:43:13Z</time>
      </trkpt>
      <trkpt lat="42.47232" lon="2.23771">
        <ele>1681.48</ele>
        <time>2018-09-23T10:43:28Z</time>
      </trkpt>
      <trkpt lat="42.47235" lon="2.2377">
        <ele>1684.37</ele>
        <time>2018-09-23T10:43:44Z</time>
      </trkpt>
      <trkpt lat="42.4724" lon="2.23763">
        <ele>1681</ele>
        <time>2018-09-23T10:44:06Z</time>
      </trkpt>
      <trkpt lat="42.47237" lon="2.23758">
        <ele>1683.41</ele>
        <time>2018-09-23T10:44:26Z</time>
      </trkpt>
      <trkpt lat="42.47233" lon="2.23753">
        <ele>1685.33</ele>
        <time>2018-09-23T10:44:40Z</time>
      </trkpt>
      <trkpt lat="42.47231" lon="2.23747">
        <ele>1688.21</ele>
        <time>2018-09-23T10:44:56Z</time>
      </trkpt>
      <trkpt lat="42.47233" lon="2.23745">
        <ele>1692.54</ele>
        <time>2018-09-23T10:45:18Z</time>
      </trkpt>
      <trkpt lat="42.47232" lon="2.23738">
        <ele>1692.54</ele>
        <time>2018-09-23T10:45:47Z</time>
      </trkpt>
      <trkpt lat="42.47227" lon="2.23727">
        <ele>1694.94</ele>
        <time>2018-09-23T10:46:05Z</time>
      </trkpt>
      <trkpt lat="42.47223" lon="2.23718">
        <ele>1700.71</ele>
        <time>2018-09-23T10:46:21Z</time>
      </trkpt>
      <trkpt lat="42.47219" lon="2.23712">
        <ele>1703.59</ele>
        <time>2018-09-23T10:46:38Z</time>
      </trkpt>
      <trkpt lat="42.47215" lon="2.23713">
        <ele>1705.52</ele>
        <time>2018-09-23T10:46:56Z</time>
      </trkpt>
      <trkpt lat="42.47216" lon="2.23714">
        <ele>1705.04</ele>
        <time>2018-09-23T10:47:20Z</time>
      </trkpt>
      <trkpt lat="42.47208" lon="2.23708">
        <ele>1700.71</ele>
        <time>2018-09-23T10:47:33Z</time>
      </trkpt>
      <trkpt lat="42.47199" lon="2.23702">
        <ele>1702.63</ele>
        <time>2018-09-23T10:47:48Z</time>
      </trkpt>
      <trkpt lat="42.4719" lon="2.23695">
        <ele>1703.11</ele>
        <time>2018-09-23T10:48:01Z</time>
      </trkpt>
      <trkpt lat="42.47184" lon="2.23693">
        <ele>1703.11</ele>
        <time>2018-09-23T10:48:11Z</time>
      </trkpt>
      <trkpt lat="42.47173" lon="2.23693">
        <ele>1705.04</ele>
        <time>2018-09-23T10:48:26Z</time>
      </trkpt>
      <trkpt lat="42.47173" lon="2.23693">
        <ele>1705.04</ele>
        <time>2018-09-23T10:48:27Z</time>
      </trkpt>
      <trkpt lat="42.47164" lon="2.23693">
        <ele>1708.4</ele>
        <time>2018-09-23T10:48:39Z</time>
      </trkpt>
      <trkpt lat="42.47158" lon="2.23691">
        <ele>1711.28</ele>
        <time>2018-09-23T10:48:54Z</time>
      </trkpt>
      <trkpt lat="42.47154" lon="2.23689">
        <ele>1710.32</ele>
        <time>2018-09-23T10:49:08Z</time>
      </trkpt>
      <trkpt lat="42.47146" lon="2.23682">
        <ele>1712.25</ele>
        <time>2018-09-23T10:49:22Z</time>
      </trkpt>
      <trkpt lat="42.4714" lon="2.23674">
        <ele>1710.32</ele>
        <time>2018-09-23T10:49:36Z</time>
      </trkpt>
      <trkpt lat="42.47138" lon="2.23673">
        <ele>1711.28</ele>
        <time>2018-09-23T10:49:53Z</time>
      </trkpt>
      <trkpt lat="42.47135" lon="2.23674">
        <ele>1713.21</ele>
        <time>2018-09-23T10:50:07Z</time>
      </trkpt>
      <trkpt lat="42.4713" lon="2.23675">
        <ele>1713.21</ele>
        <time>2018-09-23T10:50:12Z</time>
      </trkpt>
      <trkpt lat="42.47116" lon="2.2367">
        <ele>1713.21</ele>
        <time>2018-09-23T10:50:25Z</time>
      </trkpt>
      <trkpt lat="42.47105" lon="2.23656">
        <ele>1713.21</ele>
        <time>2018-09-23T10:50:39Z</time>
      </trkpt>
      <trkpt lat="42.47099" lon="2.23642">
        <ele>1715.13</ele>
        <time>2018-09-23T10:50:51Z</time>
      </trkpt>
      <trkpt lat="42.47089" lon="2.23638">
        <ele>1713.69</ele>
        <time>2018-09-23T10:51:05Z</time>
      </trkpt>
      <trkpt lat="42.47082" lon="2.23631">
        <ele>1713.21</ele>
        <time>2018-09-23T10:51:16Z</time>
      </trkpt>
      <trkpt lat="42.47073" lon="2.23625">
        <ele>1712.25</ele>
        <time>2018-09-23T10:51:27Z</time>
      </trkpt>
      <trkpt lat="42.47072" lon="2.23625">
        <ele>1712.25</ele>
        <time>2018-09-23T10:51:28Z</time>
      </trkpt>
      <trkpt lat="42.47067" lon="2.23618">
        <ele>1712.73</ele>
        <time>2018-09-23T10:51:39Z</time>
      </trkpt>
      <trkpt lat="42.47059" lon="2.23615">
        <ele>1713.69</ele>
        <time>2018-09-23T10:51:51Z</time>
      </trkpt>
      <trkpt lat="42.47056" lon="2.23606">
        <ele>1714.17</ele>
        <time>2018-09-23T10:52:02Z</time>
      </trkpt>
      <trkpt lat="42.47051" lon="2.23593">
        <ele>1713.21</ele>
        <time>2018-09-23T10:52:14Z</time>
      </trkpt>
      <trkpt lat="42.47047" lon="2.23585">
        <ele>1712.73</ele>
        <time>2018-09-23T10:52:26Z</time>
      </trkpt>
      <trkpt lat="42.47043" lon="2.23578">
        <ele>1715.61</ele>
        <time>2018-09-23T10:52:38Z</time>
      </trkpt>
      <trkpt lat="42.47035" lon="2.23577">
        <ele>1716.57</ele>
        <time>2018-09-23T10:52:52Z</time>
      </trkpt>
      <trkpt lat="42.47033" lon="2.23566">
        <ele>1718.01</ele>
        <time>2018-09-23T10:53:04Z</time>
      </trkpt>
      <trkpt lat="42.47026" lon="2.23554">
        <ele>1717.05</ele>
        <time>2018-09-23T10:53:17Z</time>
      </trkpt>
      <trkpt lat="42.47014" lon="2.23541">
        <ele>1719.94</ele>
        <time>2018-09-23T10:53:32Z</time>
      </trkpt>
      <trkpt lat="42.47007" lon="2.23538">
        <ele>1721.86</ele>
        <time>2018-09-23T10:53:45Z</time>
      </trkpt>
      <trkpt lat="42.47005" lon="2.23538">
        <ele>1722.34</ele>
        <time>2018-09-23T10:54:00Z</time>
      </trkpt>
      <trkpt lat="42.47004" lon="2.23544">
        <ele>1722.82</ele>
        <time>2018-09-23T10:54:12Z</time>
      </trkpt>
      <trkpt lat="42.47001" lon="2.23541">
        <ele>1720.9</ele>
        <time>2018-09-23T10:54:24Z</time>
      </trkpt>
      <trkpt lat="42.47001" lon="2.23537">
        <ele>1722.82</ele>
        <time>2018-09-23T10:54:43Z</time>
      </trkpt>
      <trkpt lat="42.46992" lon="2.23532">
        <ele>1721.86</ele>
        <time>2018-09-23T10:54:54Z</time>
      </trkpt>
      <trkpt lat="42.46988" lon="2.23523">
        <ele>1723.3</ele>
        <time>2018-09-23T10:55:03Z</time>
      </trkpt>
      <trkpt lat="42.46987" lon="2.23519">
        <ele>1723.78</ele>
        <time>2018-09-23T10:55:06Z</time>
      </trkpt>
      <trkpt lat="42.46977" lon="2.23503">
        <ele>1725.22</ele>
        <time>2018-09-23T10:55:22Z</time>
      </trkpt>
      <trkpt lat="42.46968" lon="2.23495">
        <ele>1724.74</ele>
        <time>2018-09-23T10:55:36Z</time>
      </trkpt>
      <trkpt lat="42.46962" lon="2.23482">
        <ele>1727.15</ele>
        <time>2018-09-23T10:55:49Z</time>
      </trkpt>
      <trkpt lat="42.46961" lon="2.23477">
        <ele>1728.11</ele>
        <time>2018-09-23T10:55:53Z</time>
      </trkpt>
      <trkpt lat="42.46951" lon="2.23461">
        <ele>1730.99</ele>
        <time>2018-09-23T10:56:11Z</time>
      </trkpt>
      <trkpt lat="42.46942" lon="2.2345">
        <ele>1736.28</ele>
        <time>2018-09-23T10:56:26Z</time>
      </trkpt>
      <trkpt lat="42.4694" lon="2.23448">
        <ele>1736.76</ele>
        <time>2018-09-23T10:56:28Z</time>
      </trkpt>
      <trkpt lat="42.46931" lon="2.23441">
        <ele>1738.2</ele>
        <time>2018-09-23T10:56:42Z</time>
      </trkpt>
      <trkpt lat="42.46929" lon="2.23439">
        <ele>1739.16</ele>
        <time>2018-09-23T10:56:45Z</time>
      </trkpt>
      <trkpt lat="42.46915" lon="2.23433">
        <ele>1740.12</ele>
        <time>2018-09-23T10:57:00Z</time>
      </trkpt>
      <trkpt lat="42.46911" lon="2.23432">
        <ele>1738.68</ele>
        <time>2018-09-23T10:57:16Z</time>
      </trkpt>
      <trkpt lat="42.46909" lon="2.23431">
        <ele>1741.08</ele>
        <time>2018-09-23T10:57:40Z</time>
      </trkpt>
      <trkpt lat="42.46907" lon="2.23428">
        <ele>1741.57</ele>
        <time>2018-09-23T10:57:49Z</time>
      </trkpt>
      <trkpt lat="42.46899" lon="2.2342">
        <ele>1742.53</ele>
        <time>2018-09-23T10:57:59Z</time>
      </trkpt>
      <trkpt lat="42.46889" lon="2.23412">
        <ele>1742.53</ele>
        <time>2018-09-23T10:58:10Z</time>
      </trkpt>
      <trkpt lat="42.46882" lon="2.23401">
        <ele>1741.08</ele>
        <time>2018-09-23T10:58:22Z</time>
      </trkpt>
      <trkpt lat="42.46877" lon="2.23392">
        <ele>1740.12</ele>
        <time>2018-09-23T10:58:35Z</time>
      </trkpt>
      <trkpt lat="42.46876" lon="2.23387">
        <ele>1740.6</ele>
        <time>2018-09-23T10:58:48Z</time>
      </trkpt>
      <trkpt lat="42.46874" lon="2.23383">
        <ele>1740.6</ele>
        <time>2018-09-23T10:58:54Z</time>
      </trkpt>
      <trkpt lat="42.46873" lon="2.23377">
        <ele>1740.6</ele>
        <time>2018-09-23T10:58:58Z</time>
      </trkpt>
      <trkpt lat="42.46873" lon="2.23375">
        <ele>1740.6</ele>
        <time>2018-09-23T10:59:00Z</time>
      </trkpt>
      <trkpt lat="42.4687" lon="2.23365">
        <ele>1741.08</ele>
        <time>2018-09-23T10:59:09Z</time>
      </trkpt>
      <trkpt lat="42.46871" lon="2.23347">
        <ele>1743.49</ele>
        <time>2018-09-23T10:59:24Z</time>
      </trkpt>
      <trkpt lat="42.46872" lon="2.23338">
        <ele>1745.41</ele>
        <time>2018-09-23T10:59:30Z</time>
      </trkpt>
      <trkpt lat="42.46866" lon="2.23318">
        <ele>1746.85</ele>
        <time>2018-09-23T10:59:44Z</time>
      </trkpt>
      <trkpt lat="42.46868" lon="2.23308">
        <ele>1749.26</ele>
        <time>2018-09-23T10:59:51Z</time>
      </trkpt>
      <trkpt lat="42.46867" lon="2.23304">
        <ele>1748.29</ele>
        <time>2018-09-23T10:59:54Z</time>
      </trkpt>
      <trkpt lat="42.46866" lon="2.23302">
        <ele>1747.33</ele>
        <time>2018-09-23T10:59:56Z</time>
      </trkpt>
      <trkpt lat="42.46852" lon="2.23293">
        <ele>1743.97</ele>
        <time>2018-09-23T11:00:10Z</time>
      </trkpt>
      <trkpt lat="42.46841" lon="2.23289">
        <ele>1743.01</ele>
        <time>2018-09-23T11:00:24Z</time>
      </trkpt>
      <trkpt lat="42.46837" lon="2.23286">
        <ele>1743.97</ele>
        <time>2018-09-23T11:00:37Z</time>
      </trkpt>
      <trkpt lat="42.46829" lon="2.2328">
        <ele>1743.97</ele>
        <time>2018-09-23T11:00:51Z</time>
      </trkpt>
      <trkpt lat="42.46828" lon="2.23275">
        <ele>1743.97</ele>
        <time>2018-09-23T11:01:04Z</time>
      </trkpt>
      <trkpt lat="42.46824" lon="2.23276">
        <ele>1743.49</ele>
        <time>2018-09-23T11:01:17Z</time>
      </trkpt>
      <trkpt lat="42.46825" lon="2.23277">
        <ele>1743.01</ele>
        <time>2018-09-23T11:01:49Z</time>
      </trkpt>
      <trkpt lat="42.46824" lon="2.23278">
        <ele>1742.53</ele>
        <time>2018-09-23T11:02:07Z</time>
      </trkpt>
      <trkpt lat="42.46823" lon="2.2327">
        <ele>1742.53</ele>
        <time>2018-09-23T11:02:26Z</time>
      </trkpt>
      <trkpt lat="42.46822" lon="2.23268">
        <ele>1744.93</ele>
        <time>2018-09-23T11:02:36Z</time>
      </trkpt>
      <trkpt lat="42.46823" lon="2.2327">
        <ele>1747.81</ele>
        <time>2018-09-23T11:02:49Z</time>
      </trkpt>
      <trkpt lat="42.46824" lon="2.23271">
        <ele>1748.29</ele>
        <time>2018-09-23T11:03:12Z</time>
      </trkpt>
      <trkpt lat="42.46822" lon="2.23271">
        <ele>1748.78</ele>
        <time>2018-09-23T11:03:36Z</time>
      </trkpt>
      <trkpt lat="42.46822" lon="2.23272">
        <ele>1749.26</ele>
        <time>2018-09-23T11:03:39Z</time>
      </trkpt>
      <trkpt lat="42.46827" lon="2.23261">
        <ele>1744.45</ele>
        <time>2018-09-23T11:53:36Z</time>
      </trkpt>
      <trkpt lat="42.46821" lon="2.2327">
        <ele>1751.66</ele>
        <time>2018-09-23T11:53:56Z</time>
      </trkpt>
      <trkpt lat="42.46819" lon="2.23271">
        <ele>1750.7</ele>
        <time>2018-09-23T11:54:17Z</time>
      </trkpt>
      <trkpt lat="42.46821" lon="2.23269">
        <ele>1749.74</ele>
        <time>2018-09-23T11:54:40Z</time>
      </trkpt>
      <trkpt lat="42.46822" lon="2.23268">
        <ele>1750.22</ele>
        <time>2018-09-23T11:55:10Z</time>
      </trkpt>
      <trkpt lat="42.46824" lon="2.23273">
        <ele>1749.26</ele>
        <time>2018-09-23T11:55:33Z</time>
      </trkpt>
      <trkpt lat="42.46823" lon="2.23276">
        <ele>1745.41</ele>
        <time>2018-09-23T11:55:57Z</time>
      </trkpt>
      <trkpt lat="42.46822" lon="2.23271">
        <ele>1745.41</ele>
        <time>2018-09-23T11:56:13Z</time>
      </trkpt>
      <trkpt lat="42.46824" lon="2.2326">
        <ele>1743.01</ele>
        <time>2018-09-23T11:56:26Z</time>
      </trkpt>
      <trkpt lat="42.4682" lon="2.23255">
        <ele>1742.05</ele>
        <time>2018-09-23T11:56:38Z</time>
      </trkpt>
      <trkpt lat="42.4682" lon="2.23246">
        <ele>1741.57</ele>
        <time>2018-09-23T11:56:51Z</time>
      </trkpt>
      <trkpt lat="42.46818" lon="2.23243">
        <ele>1741.08</ele>
        <time>2018-09-23T11:56:56Z</time>
      </trkpt>
      <trkpt lat="42.4681" lon="2.23227">
        <ele>1739.64</ele>
        <time>2018-09-23T11:57:08Z</time>
      </trkpt>
      <trkpt lat="42.46808" lon="2.23223">
        <ele>1739.16</ele>
        <time>2018-09-23T11:57:11Z</time>
      </trkpt>
      <trkpt lat="42.46807" lon="2.23222">
        <ele>1739.16</ele>
        <time>2018-09-23T11:57:13Z</time>
      </trkpt>
      <trkpt lat="42.46804" lon="2.23215">
        <ele>1738.68</ele>
        <time>2018-09-23T11:57:18Z</time>
      </trkpt>
      <trkpt lat="42.46801" lon="2.23206">
        <ele>1738.2</ele>
        <time>2018-09-23T11:57:25Z</time>
      </trkpt>
      <trkpt lat="42.46798" lon="2.2319">
        <ele>1739.16</ele>
        <time>2018-09-23T11:57:39Z</time>
      </trkpt>
      <trkpt lat="42.46797" lon="2.2318">
        <ele>1740.6</ele>
        <time>2018-09-23T11:57:46Z</time>
      </trkpt>
      <trkpt lat="42.46792" lon="2.23172">
        <ele>1742.05</ele>
        <time>2018-09-23T11:57:54Z</time>
      </trkpt>
      <trkpt lat="42.46792" lon="2.23166">
        <ele>1742.53</ele>
        <time>2018-09-23T11:57:58Z</time>
      </trkpt>
      <trkpt lat="42.4679" lon="2.23158">
        <ele>1743.97</ele>
        <time>2018-09-23T11:58:04Z</time>
      </trkpt>
      <trkpt lat="42.46784" lon="2.23145">
        <ele>1746.37</ele>
        <time>2018-09-23T11:58:18Z</time>
      </trkpt>
      <trkpt lat="42.46782" lon="2.23143">
        <ele>1747.33</ele>
        <time>2018-09-23T11:58:23Z</time>
      </trkpt>
      <trkpt lat="42.46775" lon="2.23135">
        <ele>1748.78</ele>
        <time>2018-09-23T11:58:35Z</time>
      </trkpt>
      <trkpt lat="42.46774" lon="2.23134">
        <ele>1748.78</ele>
        <time>2018-09-23T11:58:36Z</time>
      </trkpt>
      <trkpt lat="42.4677" lon="2.23131">
        <ele>1748.29</ele>
        <time>2018-09-23T11:58:39Z</time>
      </trkpt>
      <trkpt lat="42.46766" lon="2.23122">
        <ele>1746.85</ele>
        <time>2018-09-23T11:58:49Z</time>
      </trkpt>
      <trkpt lat="42.46764" lon="2.23112">
        <ele>1747.33</ele>
        <time>2018-09-23T11:58:59Z</time>
      </trkpt>
      <trkpt lat="42.46761" lon="2.23118">
        <ele>1748.29</ele>
        <time>2018-09-23T11:59:11Z</time>
      </trkpt>
      <trkpt lat="42.46763" lon="2.23121">
        <ele>1745.41</ele>
        <time>2018-09-23T11:59:25Z</time>
      </trkpt>
      <trkpt lat="42.46762" lon="2.23123">
        <ele>1748.29</ele>
        <time>2018-09-23T11:59:49Z</time>
      </trkpt>
      <trkpt lat="42.4676" lon="2.23117">
        <ele>1748.78</ele>
        <time>2018-09-23T12:00:11Z</time>
      </trkpt>
      <trkpt lat="42.46763" lon="2.23109">
        <ele>1747.33</ele>
        <time>2018-09-23T12:00:24Z</time>
      </trkpt>
      <trkpt lat="42.46763" lon="2.23106">
        <ele>1747.33</ele>
        <time>2018-09-23T12:00:27Z</time>
      </trkpt>
      <trkpt lat="42.46761" lon="2.23096">
        <ele>1747.81</ele>
        <time>2018-09-23T12:00:40Z</time>
      </trkpt>
      <trkpt lat="42.46757" lon="2.23086">
        <ele>1746.85</ele>
        <time>2018-09-23T12:00:53Z</time>
      </trkpt>
      <trkpt lat="42.46754" lon="2.2307">
        <ele>1749.26</ele>
        <time>2018-09-23T12:01:07Z</time>
      </trkpt>
      <trkpt lat="42.46751" lon="2.23058">
        <ele>1752.14</ele>
        <time>2018-09-23T12:01:22Z</time>
      </trkpt>
      <trkpt lat="42.46746" lon="2.23048">
        <ele>1755.5</ele>
        <time>2018-09-23T12:01:37Z</time>
      </trkpt>
      <trkpt lat="42.4674" lon="2.2304">
        <ele>1756.95</ele>
        <time>2018-09-23T12:01:48Z</time>
      </trkpt>
      <trkpt lat="42.46734" lon="2.2303">
        <ele>1760.31</ele>
        <time>2018-09-23T12:01:59Z</time>
      </trkpt>
      <trkpt lat="42.46729" lon="2.23017">
        <ele>1759.83</ele>
        <time>2018-09-23T12:02:15Z</time>
      </trkpt>
      <trkpt lat="42.46724" lon="2.2301">
        <ele>1761.27</ele>
        <time>2018-09-23T12:02:28Z</time>
      </trkpt>
      <trkpt lat="42.46718" lon="2.23003">
        <ele>1761.75</ele>
        <time>2018-09-23T12:02:43Z</time>
      </trkpt>
      <trkpt lat="42.46711" lon="2.22999">
        <ele>1760.79</ele>
        <time>2018-09-23T12:02:57Z</time>
      </trkpt>
      <trkpt lat="42.46708" lon="2.22996">
        <ele>1759.83</ele>
        <time>2018-09-23T12:03:02Z</time>
      </trkpt>
      <trkpt lat="42.46702" lon="2.22991">
        <ele>1761.27</ele>
        <time>2018-09-23T12:03:12Z</time>
      </trkpt>
      <trkpt lat="42.46703" lon="2.2299">
        <ele>1763.2</ele>
        <time>2018-09-23T12:03:28Z</time>
      </trkpt>
      <trkpt lat="42.46701" lon="2.22986">
        <ele>1768.48</ele>
        <time>2018-09-23T12:04:02Z</time>
      </trkpt>
      <trkpt lat="42.46699" lon="2.22982">
        <ele>1768</ele>
        <time>2018-09-23T12:04:05Z</time>
      </trkpt>
      <trkpt lat="42.46693" lon="2.22969">
        <ele>1765.6</ele>
        <time>2018-09-23T12:04:17Z</time>
      </trkpt>
      <trkpt lat="42.46693" lon="2.22966">
        <ele>1766.08</ele>
        <time>2018-09-23T12:04:27Z</time>
      </trkpt>
      <trkpt lat="42.4669" lon="2.22957">
        <ele>1767.04</ele>
        <time>2018-09-23T12:04:37Z</time>
      </trkpt>
      <trkpt lat="42.46687" lon="2.22943">
        <ele>1768.48</ele>
        <time>2018-09-23T12:04:50Z</time>
      </trkpt>
      <trkpt lat="42.46685" lon="2.22931">
        <ele>1770.89</ele>
        <time>2018-09-23T12:05:03Z</time>
      </trkpt>
      <trkpt lat="42.46682" lon="2.22923">
        <ele>1774.73</ele>
        <time>2018-09-23T12:05:15Z</time>
      </trkpt>
      <trkpt lat="42.46679" lon="2.22917">
        <ele>1775.21</ele>
        <time>2018-09-23T12:05:29Z</time>
      </trkpt>
      <trkpt lat="42.46676" lon="2.22919">
        <ele>1772.33</ele>
        <time>2018-09-23T12:05:52Z</time>
      </trkpt>
      <trkpt lat="42.46672" lon="2.2291">
        <ele>1772.81</ele>
        <time>2018-09-23T12:06:10Z</time>
      </trkpt>
      <trkpt lat="42.46672" lon="2.22905">
        <ele>1774.73</ele>
        <time>2018-09-23T12:06:17Z</time>
      </trkpt>
      <trkpt lat="42.46667" lon="2.22895">
        <ele>1778.1</ele>
        <time>2018-09-23T12:06:32Z</time>
      </trkpt>
      <trkpt lat="42.46668" lon="2.22891">
        <ele>1778.1</ele>
        <time>2018-09-23T12:06:36Z</time>
      </trkpt>
      <trkpt lat="42.46668" lon="2.22878">
        <ele>1780.98</ele>
        <time>2018-09-23T12:06:51Z</time>
      </trkpt>
      <trkpt lat="42.46664" lon="2.22873">
        <ele>1778.1</ele>
        <time>2018-09-23T12:07:12Z</time>
      </trkpt>
      <trkpt lat="42.46663" lon="2.2287">
        <ele>1778.1</ele>
        <time>2018-09-23T12:07:14Z</time>
      </trkpt>
      <trkpt lat="42.46662" lon="2.22864">
        <ele>1779.54</ele>
        <time>2018-09-23T12:07:18Z</time>
      </trkpt>
      <trkpt lat="42.46661" lon="2.22858">
        <ele>1781.46</ele>
        <time>2018-09-23T12:07:22Z</time>
      </trkpt>
      <trkpt lat="42.46656" lon="2.22845">
        <ele>1784.34</ele>
        <time>2018-09-23T12:07:32Z</time>
      </trkpt>
      <trkpt lat="42.46645" lon="2.22838">
        <ele>1787.71</ele>
        <time>2018-09-23T12:07:45Z</time>
      </trkpt>
      <trkpt lat="42.46642" lon="2.22833">
        <ele>1788.19</ele>
        <time>2018-09-23T12:07:51Z</time>
      </trkpt>
      <trkpt lat="42.46637" lon="2.22816">
        <ele>1788.19</ele>
        <time>2018-09-23T12:08:06Z</time>
      </trkpt>
      <trkpt lat="42.46632" lon="2.22799">
        <ele>1790.59</ele>
        <time>2018-09-23T12:08:18Z</time>
      </trkpt>
      <trkpt lat="42.46631" lon="2.22784">
        <ele>1794.92</ele>
        <time>2018-09-23T12:08:31Z</time>
      </trkpt>
      <trkpt lat="42.46628" lon="2.22778">
        <ele>1794.92</ele>
        <time>2018-09-23T12:08:36Z</time>
      </trkpt>
      <trkpt lat="42.46617" lon="2.22762">
        <ele>1794.92</ele>
        <time>2018-09-23T12:08:50Z</time>
      </trkpt>
      <trkpt lat="42.46606" lon="2.22746">
        <ele>1794.92</ele>
        <time>2018-09-23T12:09:02Z</time>
      </trkpt>
      <trkpt lat="42.46596" lon="2.22729">
        <ele>1797.8</ele>
        <time>2018-09-23T12:09:15Z</time>
      </trkpt>
      <trkpt lat="42.46597" lon="2.22726">
        <ele>1798.76</ele>
        <time>2018-09-23T12:09:18Z</time>
      </trkpt>
      <trkpt lat="42.46598" lon="2.22724">
        <ele>1800.21</ele>
        <time>2018-09-23T12:09:20Z</time>
      </trkpt>
      <trkpt lat="42.466" lon="2.22709">
        <ele>1801.17</ele>
        <time>2018-09-23T12:09:32Z</time>
      </trkpt>
      <trkpt lat="42.46599" lon="2.22705">
        <ele>1801.65</ele>
        <time>2018-09-23T12:09:35Z</time>
      </trkpt>
      <trkpt lat="42.46595" lon="2.22698">
        <ele>1801.65</ele>
        <time>2018-09-23T12:09:41Z</time>
      </trkpt>
      <trkpt lat="42.46591" lon="2.22685">
        <ele>1804.05</ele>
        <time>2018-09-23T12:09:52Z</time>
      </trkpt>
      <trkpt lat="42.46584" lon="2.22676">
        <ele>1803.09</ele>
        <time>2018-09-23T12:10:04Z</time>
      </trkpt>
      <trkpt lat="42.46582" lon="2.22674">
        <ele>1802.61</ele>
        <time>2018-09-23T12:10:06Z</time>
      </trkpt>
      <trkpt lat="42.46572" lon="2.22669">
        <ele>1801.17</ele>
        <time>2018-09-23T12:10:15Z</time>
      </trkpt>
      <trkpt lat="42.46553" lon="2.22659">
        <ele>1800.21</ele>
        <time>2018-09-23T12:10:32Z</time>
      </trkpt>
      <trkpt lat="42.46552" lon="2.22659">
        <ele>1800.21</ele>
        <time>2018-09-23T12:10:33Z</time>
      </trkpt>
      <trkpt lat="42.46539" lon="2.22651">
        <ele>1799.24</ele>
        <time>2018-09-23T12:10:46Z</time>
      </trkpt>
      <trkpt lat="42.46537" lon="2.2265">
        <ele>1799.24</ele>
        <time>2018-09-23T12:10:48Z</time>
      </trkpt>
      <trkpt lat="42.46532" lon="2.22649">
        <ele>1799.24</ele>
        <time>2018-09-23T12:10:52Z</time>
      </trkpt>
      <trkpt lat="42.46527" lon="2.22644">
        <ele>1798.76</ele>
        <time>2018-09-23T12:10:57Z</time>
      </trkpt>
      <trkpt lat="42.46525" lon="2.22637">
        <ele>1799.73</ele>
        <time>2018-09-23T12:11:03Z</time>
      </trkpt>
      <trkpt lat="42.46521" lon="2.2263">
        <ele>1801.65</ele>
        <time>2018-09-23T12:11:18Z</time>
      </trkpt>
      <trkpt lat="42.46518" lon="2.22631">
        <ele>1803.09</ele>
        <time>2018-09-23T12:11:46Z</time>
      </trkpt>
      <trkpt lat="42.46515" lon="2.22623">
        <ele>1803.57</ele>
        <time>2018-09-23T12:11:57Z</time>
      </trkpt>
      <trkpt lat="42.46508" lon="2.22615">
        <ele>1804.05</ele>
        <time>2018-09-23T12:12:09Z</time>
      </trkpt>
      <trkpt lat="42.46507" lon="2.22615">
        <ele>1804.53</ele>
        <time>2018-09-23T12:12:10Z</time>
      </trkpt>
      <trkpt lat="42.46504" lon="2.22607">
        <ele>1806.45</ele>
        <time>2018-09-23T12:12:17Z</time>
      </trkpt>
      <trkpt lat="42.46502" lon="2.22594">
        <ele>1806.45</ele>
        <time>2018-09-23T12:12:27Z</time>
      </trkpt>
      <trkpt lat="42.46499" lon="2.22579">
        <ele>1806.45</ele>
        <time>2018-09-23T12:12:37Z</time>
      </trkpt>
      <trkpt lat="42.46495" lon="2.22575">
        <ele>1807.42</ele>
        <time>2018-09-23T12:12:49Z</time>
      </trkpt>
      <trkpt lat="42.46495" lon="2.22574">
        <ele>1806.94</ele>
        <time>2018-09-23T12:12:51Z</time>
      </trkpt>
      <trkpt lat="42.46491" lon="2.22563">
        <ele>1808.86</ele>
        <time>2018-09-23T12:13:01Z</time>
      </trkpt>
      <trkpt lat="42.4649" lon="2.2255">
        <ele>1809.82</ele>
        <time>2018-09-23T12:13:09Z</time>
      </trkpt>
      <trkpt lat="42.46483" lon="2.22524">
        <ele>1811.74</ele>
        <time>2018-09-23T12:13:25Z</time>
      </trkpt>
      <trkpt lat="42.46482" lon="2.22513">
        <ele>1812.7</ele>
        <time>2018-09-23T12:13:35Z</time>
      </trkpt>
      <trkpt lat="42.46481" lon="2.22512">
        <ele>1812.7</ele>
        <time>2018-09-23T12:13:36Z</time>
      </trkpt>
      <trkpt lat="42.46479" lon="2.22508">
        <ele>1812.22</ele>
        <time>2018-09-23T12:13:39Z</time>
      </trkpt>
      <trkpt lat="42.46478" lon="2.22488">
        <ele>1811.74</ele>
        <time>2018-09-23T12:13:51Z</time>
      </trkpt>
      <trkpt lat="42.46478" lon="2.22478">
        <ele>1812.7</ele>
        <time>2018-09-23T12:13:59Z</time>
      </trkpt>
      <trkpt lat="42.46476" lon="2.22462">
        <ele>1812.7</ele>
        <time>2018-09-23T12:14:11Z</time>
      </trkpt>
      <trkpt lat="42.46465" lon="2.22448">
        <ele>1813.18</ele>
        <time>2018-09-23T12:14:25Z</time>
      </trkpt>
      <trkpt lat="42.46463" lon="2.22436">
        <ele>1815.59</ele>
        <time>2018-09-23T12:14:37Z</time>
      </trkpt>
      <trkpt lat="42.46463" lon="2.22436">
        <ele>1816.55</ele>
        <time>2018-09-23T12:14:41Z</time>
      </trkpt>
      <trkpt lat="42.46459" lon="2.22429">
        <ele>1816.55</ele>
        <time>2018-09-23T12:14:48Z</time>
      </trkpt>
      <trkpt lat="42.46454" lon="2.22408">
        <ele>1818.47</ele>
        <time>2018-09-23T12:15:05Z</time>
      </trkpt>
      <trkpt lat="42.46453" lon="2.22407">
        <ele>1818.95</ele>
        <time>2018-09-23T12:15:06Z</time>
      </trkpt>
      <trkpt lat="42.46449" lon="2.22393">
        <ele>1819.91</ele>
        <time>2018-09-23T12:15:20Z</time>
      </trkpt>
      <trkpt lat="42.46446" lon="2.22383">
        <ele>1823.76</ele>
        <time>2018-09-23T12:15:38Z</time>
      </trkpt>
      <trkpt lat="42.46445" lon="2.22383">
        <ele>1825.68</ele>
        <time>2018-09-23T12:16:01Z</time>
      </trkpt>
      <trkpt lat="42.46445" lon="2.22383">
        <ele>1826.16</ele>
        <time>2018-09-23T12:16:21Z</time>
      </trkpt>
      <trkpt lat="42.46441" lon="2.22387">
        <ele>1829.05</ele>
        <time>2018-09-23T12:16:50Z</time>
      </trkpt>
      <trkpt lat="42.46442" lon="2.2239">
        <ele>1830.49</ele>
        <time>2018-09-23T12:17:09Z</time>
      </trkpt>
      <trkpt lat="42.46445" lon="2.22388">
        <ele>1828.56</ele>
        <time>2018-09-23T12:17:28Z</time>
      </trkpt>
      <trkpt lat="42.46444" lon="2.22387">
        <ele>1830.01</ele>
        <time>2018-09-23T12:17:46Z</time>
      </trkpt>
      <trkpt lat="42.46446" lon="2.22384">
        <ele>1832.41</ele>
        <time>2018-09-23T12:18:11Z</time>
      </trkpt>
      <trkpt lat="42.46443" lon="2.22389">
        <ele>1834.33</ele>
        <time>2018-09-23T12:18:33Z</time>
      </trkpt>
      <trkpt lat="42.46437" lon="2.22391">
        <ele>1833.85</ele>
        <time>2018-09-23T12:18:52Z</time>
      </trkpt>
      <trkpt lat="42.46437" lon="2.22385">
        <ele>1829.53</ele>
        <time>2018-09-23T12:19:04Z</time>
      </trkpt>
      <trkpt lat="42.46435" lon="2.22382">
        <ele>1828.56</ele>
        <time>2018-09-23T12:19:20Z</time>
      </trkpt>
      <trkpt lat="42.46432" lon="2.22376">
        <ele>1828.56</ele>
        <time>2018-09-23T12:19:30Z</time>
      </trkpt>
      <trkpt lat="42.46421" lon="2.2237">
        <ele>1829.53</ele>
        <time>2018-09-23T12:19:43Z</time>
      </trkpt>
      <trkpt lat="42.46419" lon="2.22374">
        <ele>1827.12</ele>
        <time>2018-09-23T12:19:59Z</time>
      </trkpt>
      <trkpt lat="42.46421" lon="2.22373">
        <ele>1825.68</ele>
        <time>2018-09-23T12:20:20Z</time>
      </trkpt>
      <trkpt lat="42.4642" lon="2.22373">
        <ele>1821.35</ele>
        <time>2018-09-23T12:20:39Z</time>
      </trkpt>
      <trkpt lat="42.46426" lon="2.22364">
        <ele>1819.43</ele>
        <time>2018-09-23T12:20:51Z</time>
      </trkpt>
      <trkpt lat="42.46428" lon="2.22362">
        <ele>1819.91</ele>
        <time>2018-09-23T12:20:53Z</time>
      </trkpt>
      <trkpt lat="42.46434" lon="2.22348">
        <ele>1818.95</ele>
        <time>2018-09-23T12:21:08Z</time>
      </trkpt>
      <trkpt lat="42.46442" lon="2.22347">
        <ele>1824.24</ele>
        <time>2018-09-23T12:21:26Z</time>
      </trkpt>
      <trkpt lat="42.46434" lon="2.22349">
        <ele>1820.39</ele>
        <time>2018-09-23T12:21:44Z</time>
      </trkpt>
      <trkpt lat="42.46434" lon="2.22361">
        <ele>1819.43</ele>
        <time>2018-09-23T12:21:57Z</time>
      </trkpt>
      <trkpt lat="42.4643" lon="2.22374">
        <ele>1818.95</ele>
        <time>2018-09-23T12:22:10Z</time>
      </trkpt>
      <trkpt lat="42.46424" lon="2.22379">
        <ele>1817.51</ele>
        <time>2018-09-23T12:22:21Z</time>
      </trkpt>
      <trkpt lat="42.46422" lon="2.22384">
        <ele>1818.47</ele>
        <time>2018-09-23T12:22:34Z</time>
      </trkpt>
      <trkpt lat="42.46422" lon="2.22387">
        <ele>1819.91</ele>
        <time>2018-09-23T12:23:13Z</time>
      </trkpt>
      <trkpt lat="42.46422" lon="2.2239">
        <ele>1820.39</ele>
        <time>2018-09-23T12:23:43Z</time>
      </trkpt>
      <trkpt lat="42.46423" lon="2.22391">
        <ele>1822.8</ele>
        <time>2018-09-23T12:24:07Z</time>
      </trkpt>
      <trkpt lat="42.46425" lon="2.2239">
        <ele>1820.39</ele>
        <time>2018-09-23T12:24:26Z</time>
      </trkpt>
      <trkpt lat="42.46422" lon="2.22381">
        <ele>1817.03</ele>
        <time>2018-09-23T12:24:38Z</time>
      </trkpt>
      <trkpt lat="42.46422" lon="2.22379">
        <ele>1816.55</ele>
        <time>2018-09-23T12:24:51Z</time>
      </trkpt>
      <trkpt lat="42.46419" lon="2.22378">
        <ele>1814.15</ele>
        <time>2018-09-23T12:25:16Z</time>
      </trkpt>
      <trkpt lat="42.46421" lon="2.22379">
        <ele>1812.7</ele>
        <time>2018-09-23T12:25:34Z</time>
      </trkpt>
      <trkpt lat="42.46423" lon="2.22378">
        <ele>1813.18</ele>
        <time>2018-09-23T12:25:55Z</time>
      </trkpt>
      <trkpt lat="42.46427" lon="2.22376">
        <ele>1813.18</ele>
        <time>2018-09-23T12:26:14Z</time>
      </trkpt>
      <trkpt lat="42.46427" lon="2.22374">
        <ele>1811.26</ele>
        <time>2018-09-23T12:26:40Z</time>
      </trkpt>
      <trkpt lat="42.46426" lon="2.22373">
        <ele>1808.86</ele>
        <time>2018-09-23T12:27:04Z</time>
      </trkpt>
      <trkpt lat="42.46421" lon="2.22373">
        <ele>1810.78</ele>
        <time>2018-09-23T12:27:21Z</time>
      </trkpt>
      <trkpt lat="42.46422" lon="2.22371">
        <ele>1811.26</ele>
        <time>2018-09-23T12:27:43Z</time>
      </trkpt>
      <trkpt lat="42.46432" lon="2.2238">
        <ele>1814.15</ele>
        <time>2018-09-23T12:27:56Z</time>
      </trkpt>
      <trkpt lat="42.4644" lon="2.22393">
        <ele>1816.55</ele>
        <time>2018-09-23T12:28:10Z</time>
      </trkpt>
      <trkpt lat="42.46442" lon="2.22397">
        <ele>1817.51</ele>
        <time>2018-09-23T12:28:14Z</time>
      </trkpt>
      <trkpt lat="42.46444" lon="2.22397">
        <ele>1818.47</ele>
        <time>2018-09-23T12:28:20Z</time>
      </trkpt>
      <trkpt lat="42.46445" lon="2.22411">
        <ele>1819.43</ele>
        <time>2018-09-23T12:28:34Z</time>
      </trkpt>
      <trkpt lat="42.46451" lon="2.22422">
        <ele>1817.03</ele>
        <time>2018-09-23T12:28:44Z</time>
      </trkpt>
      <trkpt lat="42.46455" lon="2.22431">
        <ele>1818.95</ele>
        <time>2018-09-23T12:28:58Z</time>
      </trkpt>
      <trkpt lat="42.4646" lon="2.2243">
        <ele>1817.51</ele>
        <time>2018-09-23T12:29:03Z</time>
      </trkpt>
      <trkpt lat="42.46463" lon="2.22428">
        <ele>1817.03</ele>
        <time>2018-09-23T12:29:05Z</time>
      </trkpt>
      <trkpt lat="42.46481" lon="2.22422">
        <ele>1815.11</ele>
        <time>2018-09-23T12:29:20Z</time>
      </trkpt>
      <trkpt lat="42.46495" lon="2.22419">
        <ele>1814.15</ele>
        <time>2018-09-23T12:29:33Z</time>
      </trkpt>
      <trkpt lat="42.46494" lon="2.22418">
        <ele>1812.7</ele>
        <time>2018-09-23T12:29:47Z</time>
      </trkpt>
      <trkpt lat="42.46489" lon="2.22426">
        <ele>1813.18</ele>
        <time>2018-09-23T12:29:57Z</time>
      </trkpt>
      <trkpt lat="42.46485" lon="2.22438">
        <ele>1817.99</ele>
        <time>2018-09-23T12:30:09Z</time>
      </trkpt>
      <trkpt lat="42.46485" lon="2.22449">
        <ele>1819.91</ele>
        <time>2018-09-23T12:30:21Z</time>
      </trkpt>
      <trkpt lat="42.46484" lon="2.22456">
        <ele>1820.39</ele>
        <time>2018-09-23T12:30:26Z</time>
      </trkpt>
      <trkpt lat="42.46485" lon="2.22466">
        <ele>1821.35</ele>
        <time>2018-09-23T12:30:33Z</time>
      </trkpt>
      <trkpt lat="42.46483" lon="2.22473">
        <ele>1822.32</ele>
        <time>2018-09-23T12:30:37Z</time>
      </trkpt>
      <trkpt lat="42.46483" lon="2.22482">
        <ele>1822.8</ele>
        <time>2018-09-23T12:30:42Z</time>
      </trkpt>
      <trkpt lat="42.46482" lon="2.22489">
        <ele>1822.32</ele>
        <time>2018-09-23T12:30:46Z</time>
      </trkpt>
      <trkpt lat="42.46482" lon="2.225">
        <ele>1822.8</ele>
        <time>2018-09-23T12:30:52Z</time>
      </trkpt>
      <trkpt lat="42.46484" lon="2.22514">
        <ele>1823.76</ele>
        <time>2018-09-23T12:30:59Z</time>
      </trkpt>
      <trkpt lat="42.46486" lon="2.22524">
        <ele>1822.8</ele>
        <time>2018-09-23T12:31:05Z</time>
      </trkpt>
      <trkpt lat="42.46486" lon="2.22547">
        <ele>1822.32</ele>
        <time>2018-09-23T12:31:20Z</time>
      </trkpt>
      <trkpt lat="42.46487" lon="2.22552">
        <ele>1822.8</ele>
        <time>2018-09-23T12:31:23Z</time>
      </trkpt>
      <trkpt lat="42.46489" lon="2.22559">
        <ele>1822.32</ele>
        <time>2018-09-23T12:31:27Z</time>
      </trkpt>
      <trkpt lat="42.4649" lon="2.22562">
        <ele>1821.35</ele>
        <time>2018-09-23T12:31:29Z</time>
      </trkpt>
      <trkpt lat="42.46491" lon="2.22587">
        <ele>1820.39</ele>
        <time>2018-09-23T12:31:43Z</time>
      </trkpt>
      <trkpt lat="42.46491" lon="2.22586">
        <ele>1820.39</ele>
        <time>2018-09-23T12:31:45Z</time>
      </trkpt>
      <trkpt lat="42.46492" lon="2.22586">
        <ele>1818.47</ele>
        <time>2018-09-23T12:32:01Z</time>
      </trkpt>
      <trkpt lat="42.46492" lon="2.22587">
        <ele>1818.47</ele>
        <time>2018-09-23T12:32:02Z</time>
      </trkpt>
      <trkpt lat="42.46494" lon="2.22596">
        <ele>1817.99</ele>
        <time>2018-09-23T12:32:07Z</time>
      </trkpt>
      <trkpt lat="42.46495" lon="2.22612">
        <ele>1818.95</ele>
        <time>2018-09-23T12:32:17Z</time>
      </trkpt>
      <trkpt lat="42.46497" lon="2.22614">
        <ele>1818.95</ele>
        <time>2018-09-23T12:32:19Z</time>
      </trkpt>
      <trkpt lat="42.46502" lon="2.22623">
        <ele>1818.95</ele>
        <time>2018-09-23T12:32:27Z</time>
      </trkpt>
      <trkpt lat="42.46509" lon="2.22628">
        <ele>1814.15</ele>
        <time>2018-09-23T12:32:38Z</time>
      </trkpt>
      <trkpt lat="42.4651" lon="2.22631">
        <ele>1814.15</ele>
        <time>2018-09-23T12:32:40Z</time>
      </trkpt>
      <trkpt lat="42.46514" lon="2.22638">
        <ele>1812.7</ele>
        <time>2018-09-23T12:32:45Z</time>
      </trkpt>
      <trkpt lat="42.46518" lon="2.22643">
        <ele>1811.74</ele>
        <time>2018-09-23T12:32:50Z</time>
      </trkpt>
      <trkpt lat="42.46521" lon="2.22647">
        <ele>1811.26</ele>
        <time>2018-09-23T12:32:53Z</time>
      </trkpt>
      <trkpt lat="42.46528" lon="2.22657">
        <ele>1810.3</ele>
        <time>2018-09-23T12:33:00Z</time>
      </trkpt>
      <trkpt lat="42.46535" lon="2.2266">
        <ele>1811.26</ele>
        <time>2018-09-23T12:33:05Z</time>
      </trkpt>
      <trkpt lat="42.46549" lon="2.2267">
        <ele>1809.82</ele>
        <time>2018-09-23T12:33:16Z</time>
      </trkpt>
      <trkpt lat="42.46556" lon="2.22674">
        <ele>1809.82</ele>
        <time>2018-09-23T12:33:21Z</time>
      </trkpt>
      <trkpt lat="42.46576" lon="2.22686">
        <ele>1811.26</ele>
        <time>2018-09-23T12:33:36Z</time>
      </trkpt>
      <trkpt lat="42.46579" lon="2.22688">
        <ele>1811.74</ele>
        <time>2018-09-23T12:33:39Z</time>
      </trkpt>
      <trkpt lat="42.46581" lon="2.22691">
        <ele>1811.74</ele>
        <time>2018-09-23T12:33:43Z</time>
      </trkpt>
      <trkpt lat="42.46585" lon="2.22698">
        <ele>1811.26</ele>
        <time>2018-09-23T12:33:50Z</time>
      </trkpt>
      <trkpt lat="42.46592" lon="2.22715">
        <ele>1808.86</ele>
        <time>2018-09-23T12:34:02Z</time>
      </trkpt>
      <trkpt lat="42.46594" lon="2.2272">
        <ele>1807.9</ele>
        <time>2018-09-23T12:34:14Z</time>
      </trkpt>
      <trkpt lat="42.46593" lon="2.22733">
        <ele>1803.57</ele>
        <time>2018-09-23T12:34:25Z</time>
      </trkpt>
      <trkpt lat="42.46599" lon="2.22745">
        <ele>1803.57</ele>
        <time>2018-09-23T12:34:39Z</time>
      </trkpt>
      <trkpt lat="42.46608" lon="2.22765">
        <ele>1802.13</ele>
        <time>2018-09-23T12:34:52Z</time>
      </trkpt>
      <trkpt lat="42.46618" lon="2.22782">
        <ele>1804.05</ele>
        <time>2018-09-23T12:35:05Z</time>
      </trkpt>
      <trkpt lat="42.46623" lon="2.22799">
        <ele>1803.09</ele>
        <time>2018-09-23T12:35:17Z</time>
      </trkpt>
      <trkpt lat="42.46627" lon="2.22813">
        <ele>1805.49</ele>
        <time>2018-09-23T12:35:30Z</time>
      </trkpt>
      <trkpt lat="42.46628" lon="2.22815">
        <ele>1806.45</ele>
        <time>2018-09-23T12:35:35Z</time>
      </trkpt>
      <trkpt lat="42.4663" lon="2.22822">
        <ele>1806.45</ele>
        <time>2018-09-23T12:35:41Z</time>
      </trkpt>
      <trkpt lat="42.46633" lon="2.22826">
        <ele>1805.49</ele>
        <time>2018-09-23T12:35:46Z</time>
      </trkpt>
      <trkpt lat="42.46637" lon="2.22839">
        <ele>1802.13</ele>
        <time>2018-09-23T12:35:59Z</time>
      </trkpt>
      <trkpt lat="42.46643" lon="2.22847">
        <ele>1800.69</ele>
        <time>2018-09-23T12:36:10Z</time>
      </trkpt>
      <trkpt lat="42.46654" lon="2.22857">
        <ele>1796.36</ele>
        <time>2018-09-23T12:36:23Z</time>
      </trkpt>
      <trkpt lat="42.46656" lon="2.22863">
        <ele>1797.8</ele>
        <time>2018-09-23T12:36:27Z</time>
      </trkpt>
      <trkpt lat="42.4666" lon="2.22883">
        <ele>1796.84</ele>
        <time>2018-09-23T12:36:40Z</time>
      </trkpt>
      <trkpt lat="42.46663" lon="2.22899">
        <ele>1796.36</ele>
        <time>2018-09-23T12:36:55Z</time>
      </trkpt>
      <trkpt lat="42.46663" lon="2.22905">
        <ele>1794.44</ele>
        <time>2018-09-23T12:37:13Z</time>
      </trkpt>
      <trkpt lat="42.46665" lon="2.22905">
        <ele>1793.96</ele>
        <time>2018-09-23T12:37:16Z</time>
      </trkpt>
      <trkpt lat="42.4667" lon="2.22915">
        <ele>1791.55</ele>
        <time>2018-09-23T12:37:28Z</time>
      </trkpt>
      <trkpt lat="42.46673" lon="2.22922">
        <ele>1789.63</ele>
        <time>2018-09-23T12:37:40Z</time>
      </trkpt>
      <trkpt lat="42.46675" lon="2.22929">
        <ele>1789.15</ele>
        <time>2018-09-23T12:37:52Z</time>
      </trkpt>
      <trkpt lat="42.46676" lon="2.22932">
        <ele>1787.71</ele>
        <time>2018-09-23T12:37:55Z</time>
      </trkpt>
      <trkpt lat="42.46677" lon="2.2294">
        <ele>1786.75</ele>
        <time>2018-09-23T12:38:08Z</time>
      </trkpt>
      <trkpt lat="42.46679" lon="2.22943">
        <ele>1784.82</ele>
        <time>2018-09-23T12:38:23Z</time>
      </trkpt>
      <trkpt lat="42.46682" lon="2.22959">
        <ele>1780.98</ele>
        <time>2018-09-23T12:38:38Z</time>
      </trkpt>
      <trkpt lat="42.46687" lon="2.2297">
        <ele>1779.06</ele>
        <time>2018-09-23T12:38:48Z</time>
      </trkpt>
      <trkpt lat="42.46691" lon="2.22989">
        <ele>1777.61</ele>
        <time>2018-09-23T12:39:00Z</time>
      </trkpt>
      <trkpt lat="42.46694" lon="2.22995">
        <ele>1776.65</ele>
        <time>2018-09-23T12:39:06Z</time>
      </trkpt>
      <trkpt lat="42.46707" lon="2.23007">
        <ele>1774.25</ele>
        <time>2018-09-23T12:39:21Z</time>
      </trkpt>
      <trkpt lat="42.46715" lon="2.23015">
        <ele>1775.21</ele>
        <time>2018-09-23T12:39:34Z</time>
      </trkpt>
      <trkpt lat="42.4672" lon="2.23023">
        <ele>1774.25</ele>
        <time>2018-09-23T12:39:46Z</time>
      </trkpt>
      <trkpt lat="42.46726" lon="2.23032">
        <ele>1772.81</ele>
        <time>2018-09-23T12:39:59Z</time>
      </trkpt>
      <trkpt lat="42.46731" lon="2.23042">
        <ele>1769.92</ele>
        <time>2018-09-23T12:40:10Z</time>
      </trkpt>
      <trkpt lat="42.46735" lon="2.23049">
        <ele>1769.92</ele>
        <time>2018-09-23T12:40:20Z</time>
      </trkpt>
      <trkpt lat="42.46742" lon="2.23058">
        <ele>1768</ele>
        <time>2018-09-23T12:40:30Z</time>
      </trkpt>
      <trkpt lat="42.46745" lon="2.23066">
        <ele>1767.04</ele>
        <time>2018-09-23T12:40:44Z</time>
      </trkpt>
      <trkpt lat="42.46748" lon="2.23074">
        <ele>1764.64</ele>
        <time>2018-09-23T12:40:55Z</time>
      </trkpt>
      <trkpt lat="42.4675" lon="2.23081">
        <ele>1765.12</ele>
        <time>2018-09-23T12:41:09Z</time>
      </trkpt>
      <trkpt lat="42.46752" lon="2.23079">
        <ele>1764.64</ele>
        <time>2018-09-23T12:41:28Z</time>
      </trkpt>
      <trkpt lat="42.46755" lon="2.23085">
        <ele>1764.16</ele>
        <time>2018-09-23T12:41:34Z</time>
      </trkpt>
      <trkpt lat="42.46754" lon="2.23098">
        <ele>1765.6</ele>
        <time>2018-09-23T12:41:44Z</time>
      </trkpt>
      <trkpt lat="42.4676" lon="2.23107">
        <ele>1761.75</ele>
        <time>2018-09-23T12:41:53Z</time>
      </trkpt>
      <trkpt lat="42.46759" lon="2.23113">
        <ele>1761.27</ele>
        <time>2018-09-23T12:41:57Z</time>
      </trkpt>
      <trkpt lat="42.46763" lon="2.2313">
        <ele>1760.79</ele>
        <time>2018-09-23T12:42:09Z</time>
      </trkpt>
      <trkpt lat="42.46763" lon="2.23132">
        <ele>1760.79</ele>
        <time>2018-09-23T12:42:10Z</time>
      </trkpt>
      <trkpt lat="42.46774" lon="2.23141">
        <ele>1760.31</ele>
        <time>2018-09-23T12:42:21Z</time>
      </trkpt>
      <trkpt lat="42.46774" lon="2.23144">
        <ele>1760.31</ele>
        <time>2018-09-23T12:42:23Z</time>
      </trkpt>
      <trkpt lat="42.46776" lon="2.23146">
        <ele>1759.83</ele>
        <time>2018-09-23T12:42:26Z</time>
      </trkpt>
      <trkpt lat="42.46784" lon="2.23153">
        <ele>1758.39</ele>
        <time>2018-09-23T12:42:33Z</time>
      </trkpt>
      <trkpt lat="42.46787" lon="2.23162">
        <ele>1756.95</ele>
        <time>2018-09-23T12:42:38Z</time>
      </trkpt>
      <trkpt lat="42.46788" lon="2.23167">
        <ele>1755.99</ele>
        <time>2018-09-23T12:42:40Z</time>
      </trkpt>
      <trkpt lat="42.46786" lon="2.23175">
        <ele>1755.5</ele>
        <time>2018-09-23T12:42:45Z</time>
      </trkpt>
      <trkpt lat="42.4679" lon="2.23182">
        <ele>1754.54</ele>
        <time>2018-09-23T12:42:50Z</time>
      </trkpt>
      <trkpt lat="42.46794" lon="2.23196">
        <ele>1752.62</ele>
        <time>2018-09-23T12:42:58Z</time>
      </trkpt>
      <trkpt lat="42.46797" lon="2.23203">
        <ele>1749.74</ele>
        <time>2018-09-23T12:43:05Z</time>
      </trkpt>
      <trkpt lat="42.46804" lon="2.23222">
        <ele>1747.81</ele>
        <time>2018-09-23T12:43:16Z</time>
      </trkpt>
      <trkpt lat="42.46814" lon="2.23244">
        <ele>1749.74</ele>
        <time>2018-09-23T12:43:32Z</time>
      </trkpt>
      <trkpt lat="42.46816" lon="2.23252">
        <ele>1751.18</ele>
        <time>2018-09-23T12:43:44Z</time>
      </trkpt>
      <trkpt lat="42.46822" lon="2.23265">
        <ele>1753.1</ele>
        <time>2018-09-23T12:43:54Z</time>
      </trkpt>
      <trkpt lat="42.46826" lon="2.23269">
        <ele>1753.1</ele>
        <time>2018-09-23T12:43:58Z</time>
      </trkpt>
      <trkpt lat="42.46831" lon="2.23275">
        <ele>1754.06</ele>
        <time>2018-09-23T12:44:11Z</time>
      </trkpt>
      <trkpt lat="42.46832" lon="2.23272">
        <ele>1755.02</ele>
        <time>2018-09-23T12:44:25Z</time>
      </trkpt>
      <trkpt lat="42.46835" lon="2.23275">
        <ele>1753.58</ele>
        <time>2018-09-23T12:44:28Z</time>
      </trkpt>
      <trkpt lat="42.46841" lon="2.23295">
        <ele>1752.62</ele>
        <time>2018-09-23T12:44:39Z</time>
      </trkpt>
      <trkpt lat="42.46843" lon="2.23298">
        <ele>1753.1</ele>
        <time>2018-09-23T12:44:41Z</time>
      </trkpt>
      <trkpt lat="42.46845" lon="2.233">
        <ele>1753.1</ele>
        <time>2018-09-23T12:44:43Z</time>
      </trkpt>
      <trkpt lat="42.46848" lon="2.23302">
        <ele>1753.58</ele>
        <time>2018-09-23T12:44:46Z</time>
      </trkpt>
      <trkpt lat="42.46859" lon="2.23311">
        <ele>1756.47</ele>
        <time>2018-09-23T12:45:01Z</time>
      </trkpt>
      <trkpt lat="42.46861" lon="2.23317">
        <ele>1759.35</ele>
        <time>2018-09-23T12:45:11Z</time>
      </trkpt>
      <trkpt lat="42.4686" lon="2.23327">
        <ele>1759.35</ele>
        <time>2018-09-23T12:45:20Z</time>
      </trkpt>
      <trkpt lat="42.46865" lon="2.23346">
        <ele>1756.95</ele>
        <time>2018-09-23T12:45:35Z</time>
      </trkpt>
      <trkpt lat="42.46865" lon="2.23358">
        <ele>1755.5</ele>
        <time>2018-09-23T12:45:47Z</time>
      </trkpt>
      <trkpt lat="42.46864" lon="2.2336">
        <ele>1755.5</ele>
        <time>2018-09-23T12:45:49Z</time>
      </trkpt>
      <trkpt lat="42.46863" lon="2.23363">
        <ele>1755.5</ele>
        <time>2018-09-23T12:45:52Z</time>
      </trkpt>
      <trkpt lat="42.46865" lon="2.23376">
        <ele>1753.58</ele>
        <time>2018-09-23T12:46:01Z</time>
      </trkpt>
      <trkpt lat="42.46871" lon="2.23394">
        <ele>1750.7</ele>
        <time>2018-09-23T12:46:13Z</time>
      </trkpt>
      <trkpt lat="42.46872" lon="2.23397">
        <ele>1750.7</ele>
        <time>2018-09-23T12:46:18Z</time>
      </trkpt>
      <trkpt lat="42.46874" lon="2.23402">
        <ele>1750.7</ele>
        <time>2018-09-23T12:46:23Z</time>
      </trkpt>
      <trkpt lat="42.46877" lon="2.2341">
        <ele>1748.78</ele>
        <time>2018-09-23T12:46:31Z</time>
      </trkpt>
      <trkpt lat="42.46883" lon="2.23417">
        <ele>1748.78</ele>
        <time>2018-09-23T12:46:37Z</time>
      </trkpt>
      <trkpt lat="42.4689" lon="2.23428">
        <ele>1748.78</ele>
        <time>2018-09-23T12:46:47Z</time>
      </trkpt>
      <trkpt lat="42.46897" lon="2.23433">
        <ele>1748.78</ele>
        <time>2018-09-23T12:46:56Z</time>
      </trkpt>
      <trkpt lat="42.46901" lon="2.23439">
        <ele>1747.33</ele>
        <time>2018-09-23T12:47:01Z</time>
      </trkpt>
      <trkpt lat="42.46909" lon="2.23441">
        <ele>1747.81</ele>
        <time>2018-09-23T12:47:08Z</time>
      </trkpt>
      <trkpt lat="42.46919" lon="2.23446">
        <ele>1747.81</ele>
        <time>2018-09-23T12:47:17Z</time>
      </trkpt>
      <trkpt lat="42.46922" lon="2.23447">
        <ele>1747.81</ele>
        <time>2018-09-23T12:47:20Z</time>
      </trkpt>
      <trkpt lat="42.46929" lon="2.23453">
        <ele>1749.26</ele>
        <time>2018-09-23T12:47:27Z</time>
      </trkpt>
      <trkpt lat="42.46935" lon="2.23459">
        <ele>1748.29</ele>
        <time>2018-09-23T12:47:34Z</time>
      </trkpt>
      <trkpt lat="42.46943" lon="2.23465">
        <ele>1747.33</ele>
        <time>2018-09-23T12:47:43Z</time>
      </trkpt>
      <trkpt lat="42.4695" lon="2.23484">
        <ele>1742.05</ele>
        <time>2018-09-23T12:47:57Z</time>
      </trkpt>
      <trkpt lat="42.46953" lon="2.2349">
        <ele>1742.05</ele>
        <time>2018-09-23T12:48:01Z</time>
      </trkpt>
      <trkpt lat="42.46958" lon="2.23502">
        <ele>1741.08</ele>
        <time>2018-09-23T12:48:12Z</time>
      </trkpt>
      <trkpt lat="42.4696" lon="2.23505">
        <ele>1741.08</ele>
        <time>2018-09-23T12:48:15Z</time>
      </trkpt>
      <trkpt lat="42.46963" lon="2.23507">
        <ele>1740.6</ele>
        <time>2018-09-23T12:48:18Z</time>
      </trkpt>
      <trkpt lat="42.4697" lon="2.23512">
        <ele>1737.72</ele>
        <time>2018-09-23T12:48:25Z</time>
      </trkpt>
      <trkpt lat="42.46985" lon="2.23533">
        <ele>1734.36</ele>
        <time>2018-09-23T12:48:41Z</time>
      </trkpt>
      <trkpt lat="42.46987" lon="2.23536">
        <ele>1734.84</ele>
        <time>2018-09-23T12:48:43Z</time>
      </trkpt>
      <trkpt lat="42.46992" lon="2.2354">
        <ele>1733.88</ele>
        <time>2018-09-23T12:48:47Z</time>
      </trkpt>
      <trkpt lat="42.47" lon="2.2355">
        <ele>1732.91</ele>
        <time>2018-09-23T12:48:55Z</time>
      </trkpt>
      <trkpt lat="42.47006" lon="2.23553">
        <ele>1730.99</ele>
        <time>2018-09-23T12:49:00Z</time>
      </trkpt>
      <trkpt lat="42.47018" lon="2.23568">
        <ele>1727.63</ele>
        <time>2018-09-23T12:49:13Z</time>
      </trkpt>
      <trkpt lat="42.47018" lon="2.23569">
        <ele>1727.15</ele>
        <time>2018-09-23T12:49:14Z</time>
      </trkpt>
      <trkpt lat="42.47025" lon="2.23576">
        <ele>1724.74</ele>
        <time>2018-09-23T12:49:27Z</time>
      </trkpt>
      <trkpt lat="42.47024" lon="2.23577">
        <ele>1724.74</ele>
        <time>2018-09-23T12:49:28Z</time>
      </trkpt>
      <trkpt lat="42.47034" lon="2.23591">
        <ele>1724.74</ele>
        <time>2018-09-23T12:49:40Z</time>
      </trkpt>
      <trkpt lat="42.47041" lon="2.23598">
        <ele>1723.78</ele>
        <time>2018-09-23T12:49:51Z</time>
      </trkpt>
      <trkpt lat="42.47042" lon="2.23608">
        <ele>1724.74</ele>
        <time>2018-09-23T12:50:04Z</time>
      </trkpt>
      <trkpt lat="42.47048" lon="2.23619">
        <ele>1723.78</ele>
        <time>2018-09-23T12:50:16Z</time>
      </trkpt>
      <trkpt lat="42.47053" lon="2.23628">
        <ele>1721.86</ele>
        <time>2018-09-23T12:50:25Z</time>
      </trkpt>
      <trkpt lat="42.47062" lon="2.23633">
        <ele>1721.38</ele>
        <time>2018-09-23T12:50:37Z</time>
      </trkpt>
      <trkpt lat="42.47069" lon="2.23637">
        <ele>1721.38</ele>
        <time>2018-09-23T12:50:45Z</time>
      </trkpt>
      <trkpt lat="42.47076" lon="2.23642">
        <ele>1721.38</ele>
        <time>2018-09-23T12:50:57Z</time>
      </trkpt>
      <trkpt lat="42.47088" lon="2.23643">
        <ele>1717.53</ele>
        <time>2018-09-23T12:51:12Z</time>
      </trkpt>
      <trkpt lat="42.47088" lon="2.23645">
        <ele>1716.57</ele>
        <time>2018-09-23T12:51:26Z</time>
      </trkpt>
      <trkpt lat="42.4709" lon="2.23646">
        <ele>1716.09</ele>
        <time>2018-09-23T12:51:58Z</time>
      </trkpt>
      <trkpt lat="42.47098" lon="2.23655">
        <ele>1715.13</ele>
        <time>2018-09-23T12:52:07Z</time>
      </trkpt>
      <trkpt lat="42.47106" lon="2.23669">
        <ele>1715.13</ele>
        <time>2018-09-23T12:52:18Z</time>
      </trkpt>
      <trkpt lat="42.4712" lon="2.23679">
        <ele>1714.65</ele>
        <time>2018-09-23T12:52:33Z</time>
      </trkpt>
      <trkpt lat="42.47132" lon="2.23681">
        <ele>1722.34</ele>
        <time>2018-09-23T12:52:47Z</time>
      </trkpt>
      <trkpt lat="42.47135" lon="2.23681">
        <ele>1723.78</ele>
        <time>2018-09-23T12:52:50Z</time>
      </trkpt>
      <trkpt lat="42.4714" lon="2.23681">
        <ele>1726.18</ele>
        <time>2018-09-23T12:53:04Z</time>
      </trkpt>
      <trkpt lat="42.47142" lon="2.23673">
        <ele>1728.11</ele>
        <time>2018-09-23T12:53:17Z</time>
      </trkpt>
      <trkpt lat="42.4715" lon="2.23668">
        <ele>1733.39</ele>
        <time>2018-09-23T12:53:30Z</time>
      </trkpt>
      <trkpt lat="42.47155" lon="2.23664">
        <ele>1735.8</ele>
        <time>2018-09-23T12:53:41Z</time>
      </trkpt>
      <trkpt lat="42.47164" lon="2.23663">
        <ele>1738.2</ele>
        <time>2018-09-23T12:53:55Z</time>
      </trkpt>
      <trkpt lat="42.47173" lon="2.2366">
        <ele>1740.12</ele>
        <time>2018-09-23T12:54:09Z</time>
      </trkpt>
      <trkpt lat="42.47176" lon="2.23657">
        <ele>1739.64</ele>
        <time>2018-09-23T12:54:22Z</time>
      </trkpt>
      <trkpt lat="42.47175" lon="2.23653">
        <ele>1740.6</ele>
        <time>2018-09-23T12:54:48Z</time>
      </trkpt>
      <trkpt lat="42.47182" lon="2.23653">
        <ele>1743.97</ele>
        <time>2018-09-23T12:55:08Z</time>
      </trkpt>
      <trkpt lat="42.47188" lon="2.23655">
        <ele>1746.85</ele>
        <time>2018-09-23T12:55:19Z</time>
      </trkpt>
      <trkpt lat="42.47194" lon="2.23652">
        <ele>1751.18</ele>
        <time>2018-09-23T12:55:32Z</time>
      </trkpt>
      <trkpt lat="42.47199" lon="2.23651">
        <ele>1752.14</ele>
        <time>2018-09-23T12:55:44Z</time>
      </trkpt>
      <trkpt lat="42.47208" lon="2.23653">
        <ele>1752.62</ele>
        <time>2018-09-23T12:55:56Z</time>
      </trkpt>
      <trkpt lat="42.47211" lon="2.23656">
        <ele>1750.7</ele>
        <time>2018-09-23T12:56:01Z</time>
      </trkpt>
      <trkpt lat="42.47222" lon="2.2366">
        <ele>1748.29</ele>
        <time>2018-09-23T12:56:15Z</time>
      </trkpt>
      <trkpt lat="42.47227" lon="2.23661">
        <ele>1747.33</ele>
        <time>2018-09-23T12:56:23Z</time>
      </trkpt>
      <trkpt lat="42.47237" lon="2.23662">
        <ele>1745.41</ele>
        <time>2018-09-23T12:56:35Z</time>
      </trkpt>
      <trkpt lat="42.47246" lon="2.23669">
        <ele>1743.49</ele>
        <time>2018-09-23T12:56:49Z</time>
      </trkpt>
      <trkpt lat="42.47254" lon="2.23674">
        <ele>1745.89</ele>
        <time>2018-09-23T12:57:04Z</time>
      </trkpt>
      <trkpt lat="42.47254" lon="2.23673">
        <ele>1749.74</ele>
        <time>2018-09-23T12:57:21Z</time>
      </trkpt>
      <trkpt lat="42.47253" lon="2.23674">
        <ele>1751.66</ele>
        <time>2018-09-23T12:57:51Z</time>
      </trkpt>
      <trkpt lat="42.47254" lon="2.23676">
        <ele>1751.18</ele>
        <time>2018-09-23T12:57:55Z</time>
      </trkpt>
      <trkpt lat="42.47259" lon="2.2368">
        <ele>1749.26</ele>
        <time>2018-09-23T12:58:01Z</time>
      </trkpt>
      <trkpt lat="42.4727" lon="2.23684">
        <ele>1749.26</ele>
        <time>2018-09-23T12:58:13Z</time>
      </trkpt>
      <trkpt lat="42.47275" lon="2.2369">
        <ele>1747.33</ele>
        <time>2018-09-23T12:58:25Z</time>
      </trkpt>
      <trkpt lat="42.47278" lon="2.23693">
        <ele>1745.89</ele>
        <time>2018-09-23T12:58:30Z</time>
      </trkpt>
      <trkpt lat="42.47282" lon="2.23697">
        <ele>1746.37</ele>
        <time>2018-09-23T12:58:34Z</time>
      </trkpt>
      <trkpt lat="42.47284" lon="2.23698">
        <ele>1745.89</ele>
        <time>2018-09-23T12:58:36Z</time>
      </trkpt>
      <trkpt lat="42.47292" lon="2.23709">
        <ele>1746.85</ele>
        <time>2018-09-23T12:58:50Z</time>
      </trkpt>
      <trkpt lat="42.47292" lon="2.2371">
        <ele>1744.45</ele>
        <time>2018-09-23T12:58:59Z</time>
      </trkpt>
      <trkpt lat="42.47296" lon="2.23713">
        <ele>1743.49</ele>
        <time>2018-09-23T12:59:06Z</time>
      </trkpt>
      <trkpt lat="42.47306" lon="2.2372">
        <ele>1741.57</ele>
        <time>2018-09-23T12:59:18Z</time>
      </trkpt>
      <trkpt lat="42.47321" lon="2.23723">
        <ele>1731.95</ele>
        <time>2018-09-23T12:59:30Z</time>
      </trkpt>
      <trkpt lat="42.47327" lon="2.23724">
        <ele>1730.51</ele>
        <time>2018-09-23T12:59:36Z</time>
      </trkpt>
      <trkpt lat="42.47329" lon="2.23725">
        <ele>1730.03</ele>
        <time>2018-09-23T12:59:38Z</time>
      </trkpt>
      <trkpt lat="42.47333" lon="2.23729">
        <ele>1729.07</ele>
        <time>2018-09-23T12:59:43Z</time>
      </trkpt>
      <trkpt lat="42.47341" lon="2.23732">
        <ele>1728.59</ele>
        <time>2018-09-23T12:59:51Z</time>
      </trkpt>
      <trkpt lat="42.47342" lon="2.23731">
        <ele>1728.59</ele>
        <time>2018-09-23T12:59:53Z</time>
      </trkpt>
      <trkpt lat="42.47348" lon="2.23732">
        <ele>1728.11</ele>
        <time>2018-09-23T13:00:06Z</time>
      </trkpt>
      <trkpt lat="42.4735" lon="2.23733">
        <ele>1727.63</ele>
        <time>2018-09-23T13:00:09Z</time>
      </trkpt>
      <trkpt lat="42.47351" lon="2.23734">
        <ele>1728.11</ele>
        <time>2018-09-23T13:00:11Z</time>
      </trkpt>
      <trkpt lat="42.47357" lon="2.23737">
        <ele>1727.63</ele>
        <time>2018-09-23T13:00:17Z</time>
      </trkpt>
      <trkpt lat="42.47369" lon="2.23742">
        <ele>1726.67</ele>
        <time>2018-09-23T13:00:31Z</time>
      </trkpt>
      <trkpt lat="42.47374" lon="2.23743">
        <ele>1724.74</ele>
        <time>2018-09-23T13:00:36Z</time>
      </trkpt>
      <trkpt lat="42.47377" lon="2.23745">
        <ele>1724.26</ele>
        <time>2018-09-23T13:00:39Z</time>
      </trkpt>
      <trkpt lat="42.47389" lon="2.23745">
        <ele>1724.74</ele>
        <time>2018-09-23T13:00:51Z</time>
      </trkpt>
      <trkpt lat="42.47399" lon="2.23743">
        <ele>1723.3</ele>
        <time>2018-09-23T13:01:02Z</time>
      </trkpt>
      <trkpt lat="42.47405" lon="2.2374">
        <ele>1721.38</ele>
        <time>2018-09-23T13:01:15Z</time>
      </trkpt>
      <trkpt lat="42.47418" lon="2.23742">
        <ele>1720.42</ele>
        <time>2018-09-23T13:01:29Z</time>
      </trkpt>
      <trkpt lat="42.47421" lon="2.23743">
        <ele>1720.42</ele>
        <time>2018-09-23T13:01:32Z</time>
      </trkpt>
      <trkpt lat="42.47424" lon="2.23744">
        <ele>1720.9</ele>
        <time>2018-09-23T13:01:34Z</time>
      </trkpt>
      <trkpt lat="42.47432" lon="2.23739">
        <ele>1719.94</ele>
        <time>2018-09-23T13:01:45Z</time>
      </trkpt>
      <trkpt lat="42.47442" lon="2.23743">
        <ele>1721.86</ele>
        <time>2018-09-23T13:01:55Z</time>
      </trkpt>
      <trkpt lat="42.4745" lon="2.23748">
        <ele>1722.34</ele>
        <time>2018-09-23T13:02:04Z</time>
      </trkpt>
      <trkpt lat="42.47458" lon="2.23748">
        <ele>1721.38</ele>
        <time>2018-09-23T13:02:14Z</time>
      </trkpt>
      <trkpt lat="42.4746" lon="2.23748">
        <ele>1721.38</ele>
        <time>2018-09-23T13:02:16Z</time>
      </trkpt>
      <trkpt lat="42.47467" lon="2.23747">
        <ele>1721.38</ele>
        <time>2018-09-23T13:02:25Z</time>
      </trkpt>
      <trkpt lat="42.47478" lon="2.23747">
        <ele>1721.38</ele>
        <time>2018-09-23T13:02:37Z</time>
      </trkpt>
      <trkpt lat="42.47491" lon="2.23749">
        <ele>1723.78</ele>
        <time>2018-09-23T13:02:49Z</time>
      </trkpt>
      <trkpt lat="42.47498" lon="2.23741">
        <ele>1723.78</ele>
        <time>2018-09-23T13:03:01Z</time>
      </trkpt>
      <trkpt lat="42.47509" lon="2.23739">
        <ele>1725.7</ele>
        <time>2018-09-23T13:03:15Z</time>
      </trkpt>
      <trkpt lat="42.47515" lon="2.23737">
        <ele>1728.11</ele>
        <time>2018-09-23T13:03:31Z</time>
      </trkpt>
      <trkpt lat="42.47517" lon="2.23729">
        <ele>1731.47</ele>
        <time>2018-09-23T13:03:45Z</time>
      </trkpt>
      <trkpt lat="42.47516" lon="2.23725">
        <ele>1734.84</ele>
        <time>2018-09-23T13:03:59Z</time>
      </trkpt>
      <trkpt lat="42.47519" lon="2.23724">
        <ele>1736.76</ele>
        <time>2018-09-23T13:04:12Z</time>
      </trkpt>
      <trkpt lat="42.4751" lon="2.23716">
        <ele>1742.05</ele>
        <time>2018-09-23T13:04:27Z</time>
      </trkpt>
      <trkpt lat="42.47512" lon="2.23716">
        <ele>1746.37</ele>
        <time>2018-09-23T13:04:41Z</time>
      </trkpt>
      <trkpt lat="42.47522" lon="2.23713">
        <ele>1746.37</ele>
        <time>2018-09-23T13:04:54Z</time>
      </trkpt>
      <trkpt lat="42.47531" lon="2.23711">
        <ele>1746.85</ele>
        <time>2018-09-23T13:05:07Z</time>
      </trkpt>
      <trkpt lat="42.47537" lon="2.23712">
        <ele>1750.22</ele>
        <time>2018-09-23T13:05:20Z</time>
      </trkpt>
      <trkpt lat="42.47539" lon="2.23709">
        <ele>1750.7</ele>
        <time>2018-09-23T13:05:36Z</time>
      </trkpt>
      <trkpt lat="42.47536" lon="2.23701">
        <ele>1753.58</ele>
        <time>2018-09-23T13:06:00Z</time>
      </trkpt>
      <trkpt lat="42.47541" lon="2.237">
        <ele>1756.47</ele>
        <time>2018-09-23T13:06:13Z</time>
      </trkpt>
      <trkpt lat="42.47549" lon="2.23709">
        <ele>1758.87</ele>
        <time>2018-09-23T13:06:26Z</time>
      </trkpt>
      <trkpt lat="42.4755" lon="2.23711">
        <ele>1758.39</ele>
        <time>2018-09-23T13:06:42Z</time>
      </trkpt>
      <trkpt lat="42.4755" lon="2.23711">
        <ele>1757.43</ele>
        <time>2018-09-23T13:07:02Z</time>
      </trkpt>
      <trkpt lat="42.47549" lon="2.23715">
        <ele>1757.43</ele>
        <time>2018-09-23T13:07:31Z</time>
      </trkpt>
      <trkpt lat="42.4755" lon="2.23713">
        <ele>1759.35</ele>
        <time>2018-09-23T13:07:57Z</time>
      </trkpt>
      <trkpt lat="42.47561" lon="2.23704">
        <ele>1758.87</ele>
        <time>2018-09-23T13:08:10Z</time>
      </trkpt>
      <trkpt lat="42.47568" lon="2.23694">
        <ele>1758.87</ele>
        <time>2018-09-23T13:08:23Z</time>
      </trkpt>
      <trkpt lat="42.47573" lon="2.23692">
        <ele>1758.87</ele>
        <time>2018-09-23T13:08:29Z</time>
      </trkpt>
      <trkpt lat="42.47582" lon="2.23688">
        <ele>1760.79</ele>
        <time>2018-09-23T13:08:40Z</time>
      </trkpt>
      <trkpt lat="42.47588" lon="2.23683">
        <ele>1761.75</ele>
        <time>2018-09-23T13:08:51Z</time>
      </trkpt>
      <trkpt lat="42.47595" lon="2.23681">
        <ele>1763.68</ele>
        <time>2018-09-23T13:09:03Z</time>
      </trkpt>
      <trkpt lat="42.476" lon="2.23681">
        <ele>1763.68</ele>
        <time>2018-09-23T13:09:17Z</time>
      </trkpt>
      <trkpt lat="42.47603" lon="2.2368">
        <ele>1768</ele>
        <time>2018-09-23T13:09:33Z</time>
      </trkpt>
      <trkpt lat="42.47608" lon="2.23676">
        <ele>1767.52</ele>
        <time>2018-09-23T13:09:47Z</time>
      </trkpt>
      <trkpt lat="42.47617" lon="2.23673">
        <ele>1769.92</ele>
        <time>2018-09-23T13:10:01Z</time>
      </trkpt>
      <trkpt lat="42.47626" lon="2.2367">
        <ele>1770.41</ele>
        <time>2018-09-23T13:10:12Z</time>
      </trkpt>
      <trkpt lat="42.47632" lon="2.23671">
        <ele>1771.85</ele>
        <time>2018-09-23T13:10:27Z</time>
      </trkpt>
      <trkpt lat="42.47638" lon="2.23671">
        <ele>1771.37</ele>
        <time>2018-09-23T13:10:38Z</time>
      </trkpt>
      <trkpt lat="42.47646" lon="2.23668">
        <ele>1773.77</ele>
        <time>2018-09-23T13:10:51Z</time>
      </trkpt>
      <trkpt lat="42.47656" lon="2.23669">
        <ele>1777.61</ele>
        <time>2018-09-23T13:11:06Z</time>
      </trkpt>
      <trkpt lat="42.47666" lon="2.23675">
        <ele>1780.5</ele>
        <time>2018-09-23T13:11:18Z</time>
      </trkpt>
      <trkpt lat="42.47676" lon="2.23677">
        <ele>1787.71</ele>
        <time>2018-09-23T13:11:32Z</time>
      </trkpt>
      <trkpt lat="42.47682" lon="2.23678">
        <ele>1788.67</ele>
        <time>2018-09-23T13:11:38Z</time>
      </trkpt>
      <trkpt lat="42.47693" lon="2.23673">
        <ele>1786.27</ele>
        <time>2018-09-23T13:11:52Z</time>
      </trkpt>
      <trkpt lat="42.47698" lon="2.2366">
        <ele>1782.42</ele>
        <time>2018-09-23T13:12:05Z</time>
      </trkpt>
      <trkpt lat="42.47706" lon="2.23654">
        <ele>1780.98</ele>
        <time>2018-09-23T13:12:19Z</time>
      </trkpt>
      <trkpt lat="42.47715" lon="2.23646">
        <ele>1780.5</ele>
        <time>2018-09-23T13:12:31Z</time>
      </trkpt>
      <trkpt lat="42.47724" lon="2.23641">
        <ele>1781.46</ele>
        <time>2018-09-23T13:12:45Z</time>
      </trkpt>
      <trkpt lat="42.47728" lon="2.23637">
        <ele>1781.46</ele>
        <time>2018-09-23T13:12:51Z</time>
      </trkpt>
      <trkpt lat="42.47738" lon="2.23634">
        <ele>1780.98</ele>
        <time>2018-09-23T13:13:01Z</time>
      </trkpt>
      <trkpt lat="42.47743" lon="2.23625">
        <ele>1780.98</ele>
        <time>2018-09-23T13:13:17Z</time>
      </trkpt>
      <trkpt lat="42.47751" lon="2.23618">
        <ele>1781.46</ele>
        <time>2018-09-23T13:13:32Z</time>
      </trkpt>
      <trkpt lat="42.4776" lon="2.23617">
        <ele>1781.94</ele>
        <time>2018-09-23T13:13:41Z</time>
      </trkpt>
      <trkpt lat="42.4777" lon="2.23605">
        <ele>1780.02</ele>
        <time>2018-09-23T13:13:54Z</time>
      </trkpt>
      <trkpt lat="42.47774" lon="2.23598">
        <ele>1779.06</ele>
        <time>2018-09-23T13:14:00Z</time>
      </trkpt>
      <trkpt lat="42.47775" lon="2.23594">
        <ele>1777.61</ele>
        <time>2018-09-23T13:14:03Z</time>
      </trkpt>
      <trkpt lat="42.47782" lon="2.23576">
        <ele>1775.69</ele>
        <time>2018-09-23T13:14:16Z</time>
      </trkpt>
      <trkpt lat="42.47785" lon="2.23567">
        <ele>1776.65</ele>
        <time>2018-09-23T13:14:28Z</time>
      </trkpt>
      <trkpt lat="42.47785" lon="2.23557">
        <ele>1777.13</ele>
        <time>2018-09-23T13:14:36Z</time>
      </trkpt>
      <trkpt lat="42.47787" lon="2.23552">
        <ele>1777.13</ele>
        <time>2018-09-23T13:14:39Z</time>
      </trkpt>
      <trkpt lat="42.47788" lon="2.2354">
        <ele>1774.73</ele>
        <time>2018-09-23T13:14:49Z</time>
      </trkpt>
      <trkpt lat="42.47796" lon="2.23535">
        <ele>1777.13</ele>
        <time>2018-09-23T13:14:56Z</time>
      </trkpt>
      <trkpt lat="42.478" lon="2.23533">
        <ele>1777.13</ele>
        <time>2018-09-23T13:15:01Z</time>
      </trkpt>
      <trkpt lat="42.47805" lon="2.23536">
        <ele>1778.1</ele>
        <time>2018-09-23T13:15:05Z</time>
      </trkpt>
      <trkpt lat="42.47813" lon="2.23535">
        <ele>1778.1</ele>
        <time>2018-09-23T13:15:13Z</time>
      </trkpt>
      <trkpt lat="42.47822" lon="2.23527">
        <ele>1773.77</ele>
        <time>2018-09-23T13:15:27Z</time>
      </trkpt>
      <trkpt lat="42.47829" lon="2.23522">
        <ele>1770.89</ele>
        <time>2018-09-23T13:15:41Z</time>
      </trkpt>
      <trkpt lat="42.47841" lon="2.2352">
        <ele>1768.96</ele>
        <time>2018-09-23T13:15:54Z</time>
      </trkpt>
      <trkpt lat="42.47847" lon="2.23524">
        <ele>1769.44</ele>
        <time>2018-09-23T13:16:01Z</time>
      </trkpt>
      <trkpt lat="42.47849" lon="2.23524">
        <ele>1769.44</ele>
        <time>2018-09-23T13:16:03Z</time>
      </trkpt>
      <trkpt lat="42.47855" lon="2.23524">
        <ele>1769.92</ele>
        <time>2018-09-23T13:16:08Z</time>
      </trkpt>
      <trkpt lat="42.47866" lon="2.23523">
        <ele>1770.89</ele>
        <time>2018-09-23T13:16:17Z</time>
      </trkpt>
      <trkpt lat="42.47877" lon="2.23516">
        <ele>1771.37</ele>
        <time>2018-09-23T13:16:27Z</time>
      </trkpt>
      <trkpt lat="42.4789" lon="2.23517">
        <ele>1773.29</ele>
        <time>2018-09-23T13:16:41Z</time>
      </trkpt>
      <trkpt lat="42.47893" lon="2.23517">
        <ele>1773.29</ele>
        <time>2018-09-23T13:16:45Z</time>
      </trkpt>
      <trkpt lat="42.47906" lon="2.23518">
        <ele>1774.73</ele>
        <time>2018-09-23T13:16:59Z</time>
      </trkpt>
      <trkpt lat="42.47908" lon="2.23519">
        <ele>1775.21</ele>
        <time>2018-09-23T13:17:01Z</time>
      </trkpt>
      <trkpt lat="42.47916" lon="2.23517">
        <ele>1777.61</ele>
        <time>2018-09-23T13:17:09Z</time>
      </trkpt>
      <trkpt lat="42.47928" lon="2.23505">
        <ele>1780.98</ele>
        <time>2018-09-23T13:17:25Z</time>
      </trkpt>
      <trkpt lat="42.4793" lon="2.23499">
        <ele>1781.94</ele>
        <time>2018-09-23T13:17:31Z</time>
      </trkpt>
      <trkpt lat="42.47942" lon="2.2349">
        <ele>1785.31</ele>
        <time>2018-09-23T13:17:44Z</time>
      </trkpt>
      <trkpt lat="42.4795" lon="2.23479">
        <ele>1786.75</ele>
        <time>2018-09-23T13:17:57Z</time>
      </trkpt>
      <trkpt lat="42.47952" lon="2.23478">
        <ele>1787.23</ele>
        <time>2018-09-23T13:18:00Z</time>
      </trkpt>
      <trkpt lat="42.47964" lon="2.23475">
        <ele>1787.71</ele>
        <time>2018-09-23T13:18:10Z</time>
      </trkpt>
      <trkpt lat="42.47977" lon="2.23472">
        <ele>1785.79</ele>
        <time>2018-09-23T13:18:25Z</time>
      </trkpt>
      <trkpt lat="42.47987" lon="2.23468">
        <ele>1789.63</ele>
        <time>2018-09-23T13:18:36Z</time>
      </trkpt>
      <trkpt lat="42.47998" lon="2.23467">
        <ele>1789.63</ele>
        <time>2018-09-23T13:18:47Z</time>
      </trkpt>
      <trkpt lat="42.4801" lon="2.2347">
        <ele>1792.52</ele>
        <time>2018-09-23T13:18:58Z</time>
      </trkpt>
      <trkpt lat="42.48017" lon="2.2348">
        <ele>1798.76</ele>
        <time>2018-09-23T13:19:15Z</time>
      </trkpt>
      <trkpt lat="42.48018" lon="2.23478">
        <ele>1801.65</ele>
        <time>2018-09-23T13:19:28Z</time>
      </trkpt>
      <trkpt lat="42.48017" lon="2.2348">
        <ele>1800.21</ele>
        <time>2018-09-23T13:19:51Z</time>
      </trkpt>
      <trkpt lat="42.48018" lon="2.23481">
        <ele>1798.28</ele>
        <time>2018-09-23T13:20:13Z</time>
      </trkpt>
      <trkpt lat="42.48019" lon="2.23476">
        <ele>1794.44</ele>
        <time>2018-09-23T13:20:27Z</time>
      </trkpt>
      <trkpt lat="42.48023" lon="2.23474">
        <ele>1791.55</ele>
        <time>2018-09-23T13:20:33Z</time>
      </trkpt>
      <trkpt lat="42.48037" lon="2.23463">
        <ele>1784.34</ele>
        <time>2018-09-23T13:20:48Z</time>
      </trkpt>
      <trkpt lat="42.48054" lon="2.23457">
        <ele>1782.42</ele>
        <time>2018-09-23T13:21:02Z</time>
      </trkpt>
      <trkpt lat="42.48064" lon="2.23449">
        <ele>1780.02</ele>
        <time>2018-09-23T13:21:14Z</time>
      </trkpt>
      <trkpt lat="42.48075" lon="2.23442">
        <ele>1778.1</ele>
        <time>2018-09-23T13:21:27Z</time>
      </trkpt>
      <trkpt lat="42.48089" lon="2.23436">
        <ele>1775.69</ele>
        <time>2018-09-23T13:21:40Z</time>
      </trkpt>
      <trkpt lat="42.481" lon="2.2343">
        <ele>1775.21</ele>
        <time>2018-09-23T13:21:53Z</time>
      </trkpt>
      <trkpt lat="42.4811" lon="2.23424">
        <ele>1772.81</ele>
        <time>2018-09-23T13:22:04Z</time>
      </trkpt>
      <trkpt lat="42.48126" lon="2.23418">
        <ele>1770.89</ele>
        <time>2018-09-23T13:22:18Z</time>
      </trkpt>
      <trkpt lat="42.48139" lon="2.23408">
        <ele>1768</ele>
        <time>2018-09-23T13:22:31Z</time>
      </trkpt>
      <trkpt lat="42.48143" lon="2.23403">
        <ele>1766.08</ele>
        <time>2018-09-23T13:22:37Z</time>
      </trkpt>
      <trkpt lat="42.48147" lon="2.234">
        <ele>1764.16</ele>
        <time>2018-09-23T13:22:48Z</time>
      </trkpt>
      <trkpt lat="42.48154" lon="2.2339">
        <ele>1767.04</ele>
        <time>2018-09-23T13:23:08Z</time>
      </trkpt>
      <trkpt lat="42.48154" lon="2.23387">
        <ele>1767.04</ele>
        <time>2018-09-23T13:23:10Z</time>
      </trkpt>
      <trkpt lat="42.48151" lon="2.23372">
        <ele>1762.23</ele>
        <time>2018-09-23T13:23:20Z</time>
      </trkpt>
      <trkpt lat="42.4815" lon="2.23358">
        <ele>1758.39</ele>
        <time>2018-09-23T13:23:29Z</time>
      </trkpt>
      <trkpt lat="42.48148" lon="2.23353">
        <ele>1756.47</ele>
        <time>2018-09-23T13:23:32Z</time>
      </trkpt>
      <trkpt lat="42.48149" lon="2.23334">
        <ele>1750.7</ele>
        <time>2018-09-23T13:23:44Z</time>
      </trkpt>
      <trkpt lat="42.48157" lon="2.23316">
        <ele>1747.81</ele>
        <time>2018-09-23T13:23:56Z</time>
      </trkpt>
      <trkpt lat="42.48158" lon="2.23312">
        <ele>1747.33</ele>
        <time>2018-09-23T13:23:59Z</time>
      </trkpt>
      <trkpt lat="42.48161" lon="2.23301">
        <ele>1744.45</ele>
        <time>2018-09-23T13:24:06Z</time>
      </trkpt>
      <trkpt lat="42.48161" lon="2.23295">
        <ele>1742.53</ele>
        <time>2018-09-23T13:24:10Z</time>
      </trkpt>
      <trkpt lat="42.48161" lon="2.23291">
        <ele>1741.57</ele>
        <time>2018-09-23T13:24:12Z</time>
      </trkpt>
      <trkpt lat="42.48161" lon="2.23281">
        <ele>1739.16</ele>
        <time>2018-09-23T13:24:20Z</time>
      </trkpt>
      <trkpt lat="42.48162" lon="2.23278">
        <ele>1738.68</ele>
        <time>2018-09-23T13:24:22Z</time>
      </trkpt>
      <trkpt lat="42.48158" lon="2.23259">
        <ele>1732.43</ele>
        <time>2018-09-23T13:24:34Z</time>
      </trkpt>
      <trkpt lat="42.48158" lon="2.23254">
        <ele>1731.47</ele>
        <time>2018-09-23T13:24:37Z</time>
      </trkpt>
      <trkpt lat="42.48156" lon="2.23247">
        <ele>1729.07</ele>
        <time>2018-09-23T13:24:41Z</time>
      </trkpt>
      <trkpt lat="42.48152" lon="2.23234">
        <ele>1722.82</ele>
        <time>2018-09-23T13:24:53Z</time>
      </trkpt>
      <trkpt lat="42.48163" lon="2.23229">
        <ele>1729.07</ele>
        <time>2018-09-23T13:25:11Z</time>
      </trkpt>
      <trkpt lat="42.48175" lon="2.23229">
        <ele>1736.76</ele>
        <time>2018-09-23T13:25:39Z</time>
      </trkpt>
      <trkpt lat="42.48177" lon="2.23223">
        <ele>1742.53</ele>
        <time>2018-09-23T13:26:10Z</time>
      </trkpt>
      <trkpt lat="42.48175" lon="2.23211">
        <ele>1743.01</ele>
        <time>2018-09-23T13:26:22Z</time>
      </trkpt>
      <trkpt lat="42.48172" lon="2.23201">
        <ele>1740.6</ele>
        <time>2018-09-23T13:26:30Z</time>
      </trkpt>
      <trkpt lat="42.48163" lon="2.23184">
        <ele>1734.36</ele>
        <time>2018-09-23T13:26:42Z</time>
      </trkpt>
      <trkpt lat="42.48161" lon="2.23177">
        <ele>1730.51</ele>
        <time>2018-09-23T13:26:47Z</time>
      </trkpt>
      <trkpt lat="42.48155" lon="2.23164">
        <ele>1723.78</ele>
        <time>2018-09-23T13:26:55Z</time>
      </trkpt>
      <trkpt lat="42.48152" lon="2.23151">
        <ele>1718.97</ele>
        <time>2018-09-23T13:27:01Z</time>
      </trkpt>
      <trkpt lat="42.48152" lon="2.23145">
        <ele>1718.97</ele>
        <time>2018-09-23T13:27:04Z</time>
      </trkpt>
      <trkpt lat="42.48151" lon="2.23142">
        <ele>1718.49</ele>
        <time>2018-09-23T13:27:06Z</time>
      </trkpt>
      <trkpt lat="42.48166" lon="2.23121">
        <ele>1724.26</ele>
        <time>2018-09-23T13:27:19Z</time>
      </trkpt>
      <trkpt lat="42.4817" lon="2.23115">
        <ele>1726.67</ele>
        <time>2018-09-23T13:27:23Z</time>
      </trkpt>
      <trkpt lat="42.4817" lon="2.23096">
        <ele>1727.63</ele>
        <time>2018-09-23T13:27:37Z</time>
      </trkpt>
      <trkpt lat="42.48178" lon="2.23086">
        <ele>1729.07</ele>
        <time>2018-09-23T13:27:49Z</time>
      </trkpt>
      <trkpt lat="42.48183" lon="2.23079">
        <ele>1732.43</ele>
        <time>2018-09-23T13:28:01Z</time>
      </trkpt>
      <trkpt lat="42.48187" lon="2.2308">
        <ele>1734.36</ele>
        <time>2018-09-23T13:28:05Z</time>
      </trkpt>
      <trkpt lat="42.48193" lon="2.23084">
        <ele>1735.8</ele>
        <time>2018-09-23T13:28:10Z</time>
      </trkpt>
      <trkpt lat="42.48198" lon="2.23087">
        <ele>1736.28</ele>
        <time>2018-09-23T13:28:16Z</time>
      </trkpt>
      <trkpt lat="42.48204" lon="2.23095">
        <ele>1737.24</ele>
        <time>2018-09-23T13:28:25Z</time>
      </trkpt>
      <trkpt lat="42.48209" lon="2.23105">
        <ele>1736.28</ele>
        <time>2018-09-23T13:28:39Z</time>
      </trkpt>
      <trkpt lat="42.48211" lon="2.23111">
        <ele>1735.8</ele>
        <time>2018-09-23T13:28:47Z</time>
      </trkpt>
      <trkpt lat="42.48219" lon="2.23115">
        <ele>1730.99</ele>
        <time>2018-09-23T13:28:59Z</time>
      </trkpt>
      <trkpt lat="42.48221" lon="2.23115">
        <ele>1730.51</ele>
        <time>2018-09-23T13:29:01Z</time>
      </trkpt>
      <trkpt lat="42.48229" lon="2.23116">
        <ele>1723.78</ele>
        <time>2018-09-23T13:29:14Z</time>
      </trkpt>
      <trkpt lat="42.48236" lon="2.23121">
        <ele>1720.42</ele>
        <time>2018-09-23T13:29:24Z</time>
      </trkpt>
      <trkpt lat="42.48241" lon="2.23122">
        <ele>1720.9</ele>
        <time>2018-09-23T13:29:29Z</time>
      </trkpt>
      <trkpt lat="42.48248" lon="2.23126">
        <ele>1719.94</ele>
        <time>2018-09-23T13:29:41Z</time>
      </trkpt>
      <trkpt lat="42.48253" lon="2.23134">
        <ele>1718.49</ele>
        <time>2018-09-23T13:29:51Z</time>
      </trkpt>
      <trkpt lat="42.48256" lon="2.23136">
        <ele>1717.05</ele>
        <time>2018-09-23T13:29:56Z</time>
      </trkpt>
      <trkpt lat="42.48267" lon="2.23138">
        <ele>1713.21</ele>
        <time>2018-09-23T13:30:10Z</time>
      </trkpt>
      <trkpt lat="42.48281" lon="2.2314">
        <ele>1708.88</ele>
        <time>2018-09-23T13:30:24Z</time>
      </trkpt>
      <trkpt lat="42.48287" lon="2.23141">
        <ele>1707.44</ele>
        <time>2018-09-23T13:30:30Z</time>
      </trkpt>
      <trkpt lat="42.48298" lon="2.23136">
        <ele>1705.04</ele>
        <time>2018-09-23T13:30:43Z</time>
      </trkpt>
      <trkpt lat="42.48305" lon="2.23134">
        <ele>1703.11</ele>
        <time>2018-09-23T13:30:55Z</time>
      </trkpt>
      <trkpt lat="42.48313" lon="2.23148">
        <ele>1704.55</ele>
        <time>2018-09-23T13:31:09Z</time>
      </trkpt>
      <trkpt lat="42.4832" lon="2.23157">
        <ele>1707.92</ele>
        <time>2018-09-23T13:31:21Z</time>
      </trkpt>
      <trkpt lat="42.48329" lon="2.23162">
        <ele>1712.25</ele>
        <time>2018-09-23T13:31:35Z</time>
      </trkpt>
      <trkpt lat="42.48334" lon="2.23166">
        <ele>1715.61</ele>
        <time>2018-09-23T13:31:55Z</time>
      </trkpt>
      <trkpt lat="42.48341" lon="2.23166">
        <ele>1716.57</ele>
        <time>2018-09-23T13:32:12Z</time>
      </trkpt>
      <trkpt lat="42.48356" lon="2.23163">
        <ele>1714.65</ele>
        <time>2018-09-23T13:32:25Z</time>
      </trkpt>
      <trkpt lat="42.4836" lon="2.2316">
        <ele>1716.57</ele>
        <time>2018-09-23T13:32:34Z</time>
      </trkpt>
      <trkpt lat="42.48361" lon="2.23156">
        <ele>1718.97</ele>
        <time>2018-09-23T13:33:05Z</time>
      </trkpt>
      <trkpt lat="42.4836" lon="2.23159">
        <ele>1718.49</ele>
        <time>2018-09-23T13:33:34Z</time>
      </trkpt>
      <trkpt lat="42.48364" lon="2.23159">
        <ele>1718.01</ele>
        <time>2018-09-23T13:33:52Z</time>
      </trkpt>
      <trkpt lat="42.48361" lon="2.23153">
        <ele>1720.9</ele>
        <time>2018-09-23T13:34:04Z</time>
      </trkpt>
      <trkpt lat="42.48361" lon="2.23157">
        <ele>1724.26</ele>
        <time>2018-09-23T13:34:20Z</time>
      </trkpt>
      <trkpt lat="42.48363" lon="2.23164">
        <ele>1720.9</ele>
        <time>2018-09-23T13:34:32Z</time>
      </trkpt>
      <trkpt lat="42.48364" lon="2.23165">
        <ele>1720.9</ele>
        <time>2018-09-23T13:34:33Z</time>
      </trkpt>
      <trkpt lat="42.48372" lon="2.23167">
        <ele>1720.42</ele>
        <time>2018-09-23T13:34:44Z</time>
      </trkpt>
      <trkpt lat="42.48381" lon="2.23164">
        <ele>1717.05</ele>
        <time>2018-09-23T13:34:55Z</time>
      </trkpt>
      <trkpt lat="42.48394" lon="2.23159">
        <ele>1710.8</ele>
        <time>2018-09-23T13:35:11Z</time>
      </trkpt>
      <trkpt lat="42.48396" lon="2.23161">
        <ele>1710.8</ele>
        <time>2018-09-23T13:35:14Z</time>
      </trkpt>
      <trkpt lat="42.48404" lon="2.2317">
        <ele>1710.32</ele>
        <time>2018-09-23T13:35:23Z</time>
      </trkpt>
      <trkpt lat="42.48406" lon="2.23172">
        <ele>1710.32</ele>
        <time>2018-09-23T13:35:26Z</time>
      </trkpt>
      <trkpt lat="42.48412" lon="2.23179">
        <ele>1708.88</ele>
        <time>2018-09-23T13:35:37Z</time>
      </trkpt>
      <trkpt lat="42.48414" lon="2.2318">
        <ele>1709.36</ele>
        <time>2018-09-23T13:35:39Z</time>
      </trkpt>
      <trkpt lat="42.48418" lon="2.23183">
        <ele>1711.76</ele>
        <time>2018-09-23T13:35:51Z</time>
      </trkpt>
      <trkpt lat="42.48423" lon="2.23191">
        <ele>1713.21</ele>
        <time>2018-09-23T13:36:01Z</time>
      </trkpt>
      <trkpt lat="42.48428" lon="2.23201">
        <ele>1714.65</ele>
        <time>2018-09-23T13:36:12Z</time>
      </trkpt>
      <trkpt lat="42.48435" lon="2.23206">
        <ele>1716.09</ele>
        <time>2018-09-23T13:36:21Z</time>
      </trkpt>
      <trkpt lat="42.48444" lon="2.23207">
        <ele>1719.46</ele>
        <time>2018-09-23T13:36:34Z</time>
      </trkpt>
      <trkpt lat="42.48448" lon="2.23212">
        <ele>1719.94</ele>
        <time>2018-09-23T13:36:40Z</time>
      </trkpt>
      <trkpt lat="42.48452" lon="2.23215">
        <ele>1718.49</ele>
        <time>2018-09-23T13:36:54Z</time>
      </trkpt>
      <trkpt lat="42.48453" lon="2.23214">
        <ele>1718.49</ele>
        <time>2018-09-23T13:36:55Z</time>
      </trkpt>
      <trkpt lat="42.4846" lon="2.23211">
        <ele>1718.01</ele>
        <time>2018-09-23T13:37:02Z</time>
      </trkpt>
      <trkpt lat="42.48464" lon="2.23212">
        <ele>1718.01</ele>
        <time>2018-09-23T13:37:07Z</time>
      </trkpt>
      <trkpt lat="42.48466" lon="2.23215">
        <ele>1717.05</ele>
        <time>2018-09-23T13:37:10Z</time>
      </trkpt>
      <trkpt lat="42.4847" lon="2.23217">
        <ele>1717.53</ele>
        <time>2018-09-23T13:37:14Z</time>
      </trkpt>
      <trkpt lat="42.48476" lon="2.2322">
        <ele>1717.53</ele>
        <time>2018-09-23T13:37:21Z</time>
      </trkpt>
      <trkpt lat="42.48485" lon="2.23215">
        <ele>1716.57</ele>
        <time>2018-09-23T13:37:35Z</time>
      </trkpt>
      <trkpt lat="42.48494" lon="2.23222">
        <ele>1716.09</ele>
        <time>2018-09-23T13:37:46Z</time>
      </trkpt>
      <trkpt lat="42.48498" lon="2.23221">
        <ele>1715.61</ele>
        <time>2018-09-23T13:37:50Z</time>
      </trkpt>
      <trkpt lat="42.48503" lon="2.23232">
        <ele>1715.13</ele>
        <time>2018-09-23T13:37:59Z</time>
      </trkpt>
      <trkpt lat="42.48507" lon="2.23236">
        <ele>1716.09</ele>
        <time>2018-09-23T13:38:04Z</time>
      </trkpt>
      <trkpt lat="42.48522" lon="2.23234">
        <ele>1715.13</ele>
        <time>2018-09-23T13:38:17Z</time>
      </trkpt>
      <trkpt lat="42.4853" lon="2.23235">
        <ele>1714.65</ele>
        <time>2018-09-23T13:38:28Z</time>
      </trkpt>
      <trkpt lat="42.48535" lon="2.23233">
        <ele>1713.69</ele>
        <time>2018-09-23T13:38:33Z</time>
      </trkpt>
      <trkpt lat="42.48546" lon="2.23231">
        <ele>1713.69</ele>
        <time>2018-09-23T13:38:47Z</time>
      </trkpt>
      <trkpt lat="42.48548" lon="2.23228">
        <ele>1708.88</ele>
        <time>2018-09-23T13:39:10Z</time>
      </trkpt>
      <trkpt lat="42.48559" lon="2.23226">
        <ele>1708.4</ele>
        <time>2018-09-23T13:39:22Z</time>
      </trkpt>
      <trkpt lat="42.48563" lon="2.23227">
        <ele>1707.92</ele>
        <time>2018-09-23T13:39:26Z</time>
      </trkpt>
      <trkpt lat="42.48571" lon="2.23225">
        <ele>1707.44</ele>
        <time>2018-09-23T13:39:35Z</time>
      </trkpt>
      <trkpt lat="42.48573" lon="2.23225">
        <ele>1707.44</ele>
        <time>2018-09-23T13:39:37Z</time>
      </trkpt>
      <trkpt lat="42.48579" lon="2.23221">
        <ele>1707.44</ele>
        <time>2018-09-23T13:39:44Z</time>
      </trkpt>
      <trkpt lat="42.48586" lon="2.23214">
        <ele>1707.44</ele>
        <time>2018-09-23T13:39:56Z</time>
      </trkpt>
      <trkpt lat="42.48591" lon="2.23213">
        <ele>1706.48</ele>
        <time>2018-09-23T13:40:02Z</time>
      </trkpt>
      <trkpt lat="42.48597" lon="2.23212">
        <ele>1706</ele>
        <time>2018-09-23T13:40:07Z</time>
      </trkpt>
      <trkpt lat="42.48607" lon="2.23214">
        <ele>1706.96</ele>
        <time>2018-09-23T13:40:18Z</time>
      </trkpt>
      <trkpt lat="42.48616" lon="2.23217">
        <ele>1706.96</ele>
        <time>2018-09-23T13:40:31Z</time>
      </trkpt>
      <trkpt lat="42.48623" lon="2.23217">
        <ele>1709.36</ele>
        <time>2018-09-23T13:40:43Z</time>
      </trkpt>
      <trkpt lat="42.48629" lon="2.23223">
        <ele>1712.25</ele>
        <time>2018-09-23T13:40:53Z</time>
      </trkpt>
      <trkpt lat="42.48636" lon="2.23229">
        <ele>1713.69</ele>
        <time>2018-09-23T13:41:05Z</time>
      </trkpt>
      <trkpt lat="42.48641" lon="2.23236">
        <ele>1714.65</ele>
        <time>2018-09-23T13:41:18Z</time>
      </trkpt>
      <trkpt lat="42.48645" lon="2.23247">
        <ele>1714.65</ele>
        <time>2018-09-23T13:41:31Z</time>
      </trkpt>
      <trkpt lat="42.48642" lon="2.23256">
        <ele>1715.13</ele>
        <time>2018-09-23T13:41:44Z</time>
      </trkpt>
      <trkpt lat="42.48638" lon="2.23262">
        <ele>1718.97</ele>
        <time>2018-09-23T13:41:56Z</time>
      </trkpt>
      <trkpt lat="42.48646" lon="2.23258">
        <ele>1722.34</ele>
        <time>2018-09-23T13:42:10Z</time>
      </trkpt>
      <trkpt lat="42.48648" lon="2.23266">
        <ele>1723.78</ele>
        <time>2018-09-23T13:42:23Z</time>
      </trkpt>
      <trkpt lat="42.48656" lon="2.2327">
        <ele>1726.67</ele>
        <time>2018-09-23T13:42:36Z</time>
      </trkpt>
      <trkpt lat="42.48663" lon="2.23264">
        <ele>1727.63</ele>
        <time>2018-09-23T13:42:49Z</time>
      </trkpt>
      <trkpt lat="42.48664" lon="2.23265">
        <ele>1727.63</ele>
        <time>2018-09-23T13:43:09Z</time>
      </trkpt>
      <trkpt lat="42.48665" lon="2.23264">
        <ele>1730.51</ele>
        <time>2018-09-23T13:43:34Z</time>
      </trkpt>
      <trkpt lat="42.4867" lon="2.23263">
        <ele>1729.07</ele>
        <time>2018-09-23T13:43:43Z</time>
      </trkpt>
      <trkpt lat="42.48682" lon="2.23256">
        <ele>1724.74</ele>
        <time>2018-09-23T13:43:57Z</time>
      </trkpt>
      <trkpt lat="42.48695" lon="2.23264">
        <ele>1722.82</ele>
        <time>2018-09-23T13:44:11Z</time>
      </trkpt>
      <trkpt lat="42.487" lon="2.23263">
        <ele>1720.42</ele>
        <time>2018-09-23T13:44:19Z</time>
      </trkpt>
      <trkpt lat="42.48717" lon="2.23262">
        <ele>1718.49</ele>
        <time>2018-09-23T13:44:35Z</time>
      </trkpt>
      <trkpt lat="42.48728" lon="2.2326">
        <ele>1714.17</ele>
        <time>2018-09-23T13:44:49Z</time>
      </trkpt>
      <trkpt lat="42.48736" lon="2.2326">
        <ele>1708.88</ele>
        <time>2018-09-23T13:45:03Z</time>
      </trkpt>
      <trkpt lat="42.48747" lon="2.2326">
        <ele>1706.96</ele>
        <time>2018-09-23T13:45:14Z</time>
      </trkpt>
      <trkpt lat="42.48752" lon="2.23263">
        <ele>1706.96</ele>
        <time>2018-09-23T13:45:19Z</time>
      </trkpt>
      <trkpt lat="42.48765" lon="2.23275">
        <ele>1707.92</ele>
        <time>2018-09-23T13:45:33Z</time>
      </trkpt>
      <trkpt lat="42.48768" lon="2.2328">
        <ele>1708.4</ele>
        <time>2018-09-23T13:45:37Z</time>
      </trkpt>
      <trkpt lat="42.48783" lon="2.23283">
        <ele>1706.96</ele>
        <time>2018-09-23T13:45:51Z</time>
      </trkpt>
      <trkpt lat="42.48786" lon="2.23286">
        <ele>1707.44</ele>
        <time>2018-09-23T13:45:55Z</time>
      </trkpt>
      <trkpt lat="42.4879" lon="2.23289">
        <ele>1707.92</ele>
        <time>2018-09-23T13:45:59Z</time>
      </trkpt>
      <trkpt lat="42.48798" lon="2.23296">
        <ele>1710.32</ele>
        <time>2018-09-23T13:46:09Z</time>
      </trkpt>
      <trkpt lat="42.48802" lon="2.23291">
        <ele>1710.32</ele>
        <time>2018-09-23T13:46:15Z</time>
      </trkpt>
      <trkpt lat="42.48812" lon="2.23286">
        <ele>1713.69</ele>
        <time>2018-09-23T13:46:29Z</time>
      </trkpt>
      <trkpt lat="42.48816" lon="2.23283">
        <ele>1713.69</ele>
        <time>2018-09-23T13:46:40Z</time>
      </trkpt>
      <trkpt lat="42.48818" lon="2.23278">
        <ele>1713.69</ele>
        <time>2018-09-23T13:46:44Z</time>
      </trkpt>
      <trkpt lat="42.48827" lon="2.23258">
        <ele>1713.69</ele>
        <time>2018-09-23T13:47:00Z</time>
      </trkpt>
      <trkpt lat="42.48831" lon="2.23239">
        <ele>1715.13</ele>
        <time>2018-09-23T13:47:15Z</time>
      </trkpt>
      <trkpt lat="42.48838" lon="2.23225">
        <ele>1716.57</ele>
        <time>2018-09-23T13:47:27Z</time>
      </trkpt>
      <trkpt lat="42.48845" lon="2.23211">
        <ele>1719.46</ele>
        <time>2018-09-23T13:47:40Z</time>
      </trkpt>
      <trkpt lat="42.48855" lon="2.23198">
        <ele>1721.38</ele>
        <time>2018-09-23T13:47:54Z</time>
      </trkpt>
      <trkpt lat="42.48856" lon="2.23194">
        <ele>1721.86</ele>
        <time>2018-09-23T13:47:57Z</time>
      </trkpt>
      <trkpt lat="42.48867" lon="2.23186">
        <ele>1722.82</ele>
        <time>2018-09-23T13:48:09Z</time>
      </trkpt>
      <trkpt lat="42.48879" lon="2.23181">
        <ele>1722.82</ele>
        <time>2018-09-23T13:48:22Z</time>
      </trkpt>
      <trkpt lat="42.48892" lon="2.23176">
        <ele>1723.3</ele>
        <time>2018-09-23T13:48:35Z</time>
      </trkpt>
      <trkpt lat="42.489" lon="2.2317">
        <ele>1722.34</ele>
        <time>2018-09-23T13:48:47Z</time>
      </trkpt>
      <trkpt lat="42.48904" lon="2.23166">
        <ele>1724.26</ele>
        <time>2018-09-23T13:49:00Z</time>
      </trkpt>
      <trkpt lat="42.48902" lon="2.23157">
        <ele>1726.67</ele>
        <time>2018-09-23T13:49:15Z</time>
      </trkpt>
      <trkpt lat="42.4891" lon="2.23162">
        <ele>1730.03</ele>
        <time>2018-09-23T13:49:30Z</time>
      </trkpt>
      <trkpt lat="42.48916" lon="2.23171">
        <ele>1731.47</ele>
        <time>2018-09-23T13:49:45Z</time>
      </trkpt>
      <trkpt lat="42.48914" lon="2.23173">
        <ele>1732.91</ele>
        <time>2018-09-23T13:50:06Z</time>
      </trkpt>
      <trkpt lat="42.48919" lon="2.23166">
        <ele>1734.36</ele>
        <time>2018-09-23T13:50:19Z</time>
      </trkpt>
      <trkpt lat="42.48928" lon="2.23158">
        <ele>1738.2</ele>
        <time>2018-09-23T13:50:33Z</time>
      </trkpt>
      <trkpt lat="42.48936" lon="2.2315">
        <ele>1738.68</ele>
        <time>2018-09-23T13:50:44Z</time>
      </trkpt>
      <trkpt lat="42.48942" lon="2.23143">
        <ele>1738.68</ele>
        <time>2018-09-23T13:50:54Z</time>
      </trkpt>
      <trkpt lat="42.48952" lon="2.23137">
        <ele>1742.53</ele>
        <time>2018-09-23T13:51:08Z</time>
      </trkpt>
      <trkpt lat="42.48961" lon="2.23136">
        <ele>1743.01</ele>
        <time>2018-09-23T13:51:20Z</time>
      </trkpt>
      <trkpt lat="42.48971" lon="2.23131">
        <ele>1745.41</ele>
        <time>2018-09-23T13:51:33Z</time>
      </trkpt>
      <trkpt lat="42.48976" lon="2.23131">
        <ele>1747.33</ele>
        <time>2018-09-23T13:51:51Z</time>
      </trkpt>
      <trkpt lat="42.48985" lon="2.23128">
        <ele>1748.78</ele>
        <time>2018-09-23T13:52:03Z</time>
      </trkpt>
      <trkpt lat="42.48991" lon="2.23119">
        <ele>1749.26</ele>
        <time>2018-09-23T13:52:16Z</time>
      </trkpt>
      <trkpt lat="42.49001" lon="2.23111">
        <ele>1752.62</ele>
        <time>2018-09-23T13:52:31Z</time>
      </trkpt>
      <trkpt lat="42.49009" lon="2.23103">
        <ele>1754.54</ele>
        <time>2018-09-23T13:52:43Z</time>
      </trkpt>
      <trkpt lat="42.49016" lon="2.23094">
        <ele>1757.43</ele>
        <time>2018-09-23T13:52:54Z</time>
      </trkpt>
      <trkpt lat="42.49023" lon="2.23085">
        <ele>1760.79</ele>
        <time>2018-09-23T13:53:10Z</time>
      </trkpt>
      <trkpt lat="42.49029" lon="2.23079">
        <ele>1761.27</ele>
        <time>2018-09-23T13:53:21Z</time>
      </trkpt>
      <trkpt lat="42.49035" lon="2.23073">
        <ele>1763.2</ele>
        <time>2018-09-23T13:53:33Z</time>
      </trkpt>
      <trkpt lat="42.49041" lon="2.23069">
        <ele>1766.08</ele>
        <time>2018-09-23T13:53:43Z</time>
      </trkpt>
      <trkpt lat="42.4905" lon="2.23068">
        <ele>1769.44</ele>
        <time>2018-09-23T13:53:56Z</time>
      </trkpt>
      <trkpt lat="42.4906" lon="2.23063">
        <ele>1771.37</ele>
        <time>2018-09-23T13:54:11Z</time>
      </trkpt>
      <trkpt lat="42.49066" lon="2.23051">
        <ele>1773.29</ele>
        <time>2018-09-23T13:54:25Z</time>
      </trkpt>
      <trkpt lat="42.49078" lon="2.23045">
        <ele>1777.13</ele>
        <time>2018-09-23T13:54:41Z</time>
      </trkpt>
      <trkpt lat="42.49079" lon="2.23043">
        <ele>1778.58</ele>
        <time>2018-09-23T13:54:53Z</time>
      </trkpt>
      <trkpt lat="42.49079" lon="2.23036">
        <ele>1778.1</ele>
        <time>2018-09-23T13:55:03Z</time>
      </trkpt>
      <trkpt lat="42.49079" lon="2.23019">
        <ele>1778.1</ele>
        <time>2018-09-23T13:55:16Z</time>
      </trkpt>
      <trkpt lat="42.49078" lon="2.23">
        <ele>1776.17</ele>
        <time>2018-09-23T13:55:32Z</time>
      </trkpt>
      <trkpt lat="42.49077" lon="2.22993">
        <ele>1776.17</ele>
        <time>2018-09-23T13:55:37Z</time>
      </trkpt>
      <trkpt lat="42.49073" lon="2.22979">
        <ele>1774.73</ele>
        <time>2018-09-23T13:55:50Z</time>
      </trkpt>
      <trkpt lat="42.49072" lon="2.22975">
        <ele>1776.17</ele>
        <time>2018-09-23T13:56:11Z</time>
      </trkpt>
      <trkpt lat="42.49067" lon="2.22963">
        <ele>1775.21</ele>
        <time>2018-09-23T13:56:22Z</time>
      </trkpt>
      <trkpt lat="42.49064" lon="2.22951">
        <ele>1774.73</ele>
        <time>2018-09-23T13:56:33Z</time>
      </trkpt>
      <trkpt lat="42.49062" lon="2.22936">
        <ele>1773.77</ele>
        <time>2018-09-23T13:56:45Z</time>
      </trkpt>
      <trkpt lat="42.49058" lon="2.22919">
        <ele>1772.33</ele>
        <time>2018-09-23T13:56:58Z</time>
      </trkpt>
      <trkpt lat="42.49051" lon="2.22902">
        <ele>1770.89</ele>
        <time>2018-09-23T13:57:11Z</time>
      </trkpt>
      <trkpt lat="42.49047" lon="2.22889">
        <ele>1770.41</ele>
        <time>2018-09-23T13:57:20Z</time>
      </trkpt>
      <trkpt lat="42.49045" lon="2.22884">
        <ele>1770.41</ele>
        <time>2018-09-23T13:57:23Z</time>
      </trkpt>
      <trkpt lat="42.49037" lon="2.22867">
        <ele>1769.92</ele>
        <time>2018-09-23T13:57:35Z</time>
      </trkpt>
      <trkpt lat="42.49029" lon="2.22851">
        <ele>1770.89</ele>
        <time>2018-09-23T13:57:47Z</time>
      </trkpt>
      <trkpt lat="42.49023" lon="2.22841">
        <ele>1771.85</ele>
        <time>2018-09-23T13:57:57Z</time>
      </trkpt>
      <trkpt lat="42.49015" lon="2.22825">
        <ele>1769.92</ele>
        <time>2018-09-23T13:58:13Z</time>
      </trkpt>
      <trkpt lat="42.49009" lon="2.22811">
        <ele>1767.04</ele>
        <time>2018-09-23T13:58:27Z</time>
      </trkpt>
      <trkpt lat="42.49007" lon="2.22806">
        <ele>1766.08</ele>
        <time>2018-09-23T13:58:32Z</time>
      </trkpt>
      <trkpt lat="42.49002" lon="2.22795">
        <ele>1765.6</ele>
        <time>2018-09-23T13:58:44Z</time>
      </trkpt>
      <trkpt lat="42.49001" lon="2.22793">
        <ele>1765.6</ele>
        <time>2018-09-23T13:58:46Z</time>
      </trkpt>
      <trkpt lat="42.48998" lon="2.22783">
        <ele>1764.64</ele>
        <time>2018-09-23T13:58:55Z</time>
      </trkpt>
      <trkpt lat="42.48993" lon="2.22766">
        <ele>1762.23</ele>
        <time>2018-09-23T13:59:09Z</time>
      </trkpt>
      <trkpt lat="42.48993" lon="2.22756">
        <ele>1759.35</ele>
        <time>2018-09-23T13:59:21Z</time>
      </trkpt>
      <trkpt lat="42.48999" lon="2.22741">
        <ele>1755.99</ele>
        <time>2018-09-23T13:59:34Z</time>
      </trkpt>
      <trkpt lat="42.49002" lon="2.22722">
        <ele>1753.58</ele>
        <time>2018-09-23T13:59:46Z</time>
      </trkpt>
      <trkpt lat="42.49009" lon="2.22701">
        <ele>1750.22</ele>
        <time>2018-09-23T14:00:00Z</time>
      </trkpt>
      <trkpt lat="42.49008" lon="2.22697">
        <ele>1750.22</ele>
        <time>2018-09-23T14:00:04Z</time>
      </trkpt>
      <trkpt lat="42.49012" lon="2.22686">
        <ele>1748.29</ele>
        <time>2018-09-23T14:00:12Z</time>
      </trkpt>
      <trkpt lat="42.49011" lon="2.22678">
        <ele>1745.89</ele>
        <time>2018-09-23T14:00:17Z</time>
      </trkpt>
      <trkpt lat="42.49013" lon="2.22664">
        <ele>1743.97</ele>
        <time>2018-09-23T14:00:24Z</time>
      </trkpt>
      <trkpt lat="42.49015" lon="2.22656">
        <ele>1743.01</ele>
        <time>2018-09-23T14:00:27Z</time>
      </trkpt>
      <trkpt lat="42.49014" lon="2.22649">
        <ele>1743.01</ele>
        <time>2018-09-23T14:00:30Z</time>
      </trkpt>
      <trkpt lat="42.49017" lon="2.22638">
        <ele>1743.01</ele>
        <time>2018-09-23T14:00:34Z</time>
      </trkpt>
      <trkpt lat="42.49024" lon="2.22622">
        <ele>1741.08</ele>
        <time>2018-09-23T14:00:47Z</time>
      </trkpt>
      <trkpt lat="42.49026" lon="2.22618">
        <ele>1741.57</ele>
        <time>2018-09-23T14:00:51Z</time>
      </trkpt>
      <trkpt lat="42.49031" lon="2.22597">
        <ele>1742.05</ele>
        <time>2018-09-23T14:01:04Z</time>
      </trkpt>
      <trkpt lat="42.4903" lon="2.22587">
        <ele>1743.01</ele>
        <time>2018-09-23T14:01:11Z</time>
      </trkpt>
      <trkpt lat="42.4903" lon="2.22581">
        <ele>1743.01</ele>
        <time>2018-09-23T14:01:14Z</time>
      </trkpt>
      <trkpt lat="42.49031" lon="2.22572">
        <ele>1743.97</ele>
        <time>2018-09-23T14:01:19Z</time>
      </trkpt>
      <trkpt lat="42.49037" lon="2.2256">
        <ele>1745.41</ele>
        <time>2018-09-23T14:01:27Z</time>
      </trkpt>
      <trkpt lat="42.49034" lon="2.22547">
        <ele>1745.89</ele>
        <time>2018-09-23T14:01:36Z</time>
      </trkpt>
      <trkpt lat="42.49029" lon="2.22547">
        <ele>1745.89</ele>
        <time>2018-09-23T14:01:40Z</time>
      </trkpt>
      <trkpt lat="42.49025" lon="2.2254">
        <ele>1745.89</ele>
        <time>2018-09-23T14:01:52Z</time>
      </trkpt>
      <trkpt lat="42.49027" lon="2.22532">
        <ele>1743.97</ele>
        <time>2018-09-23T14:01:59Z</time>
      </trkpt>
      <trkpt lat="42.49035" lon="2.22517">
        <ele>1743.01</ele>
        <time>2018-09-23T14:02:11Z</time>
      </trkpt>
      <trkpt lat="42.49044" lon="2.225">
        <ele>1743.49</ele>
        <time>2018-09-23T14:02:25Z</time>
      </trkpt>
      <trkpt lat="42.49051" lon="2.22485">
        <ele>1740.12</ele>
        <time>2018-09-23T14:02:41Z</time>
      </trkpt>
      <trkpt lat="42.49056" lon="2.22483">
        <ele>1739.16</ele>
        <time>2018-09-23T14:02:56Z</time>
      </trkpt>
      <trkpt lat="42.49066" lon="2.22467">
        <ele>1735.8</ele>
        <time>2018-09-23T14:03:09Z</time>
      </trkpt>
      <trkpt lat="42.49069" lon="2.22462">
        <ele>1735.32</ele>
        <time>2018-09-23T14:03:13Z</time>
      </trkpt>
      <trkpt lat="42.49072" lon="2.2246">
        <ele>1734.84</ele>
        <time>2018-09-23T14:03:16Z</time>
      </trkpt>
      <trkpt lat="42.49077" lon="2.22444">
        <ele>1734.84</ele>
        <time>2018-09-23T14:03:30Z</time>
      </trkpt>
      <trkpt lat="42.49085" lon="2.2244">
        <ele>1734.84</ele>
        <time>2018-09-23T14:03:41Z</time>
      </trkpt>
      <trkpt lat="42.49086" lon="2.22439">
        <ele>1734.84</ele>
        <time>2018-09-23T14:03:43Z</time>
      </trkpt>
      <trkpt lat="42.49099" lon="2.22441">
        <ele>1735.32</ele>
        <time>2018-09-23T14:03:58Z</time>
      </trkpt>
      <trkpt lat="42.49102" lon="2.22443">
        <ele>1735.8</ele>
        <time>2018-09-23T14:04:00Z</time>
      </trkpt>
      <trkpt lat="42.49105" lon="2.22442">
        <ele>1735.32</ele>
        <time>2018-09-23T14:04:03Z</time>
      </trkpt>
      <trkpt lat="42.49115" lon="2.22437">
        <ele>1735.32</ele>
        <time>2018-09-23T14:04:15Z</time>
      </trkpt>
      <trkpt lat="42.49125" lon="2.22439">
        <ele>1738.68</ele>
        <time>2018-09-23T14:04:28Z</time>
      </trkpt>
      <trkpt lat="42.49131" lon="2.22435">
        <ele>1738.68</ele>
        <time>2018-09-23T14:04:40Z</time>
      </trkpt>
      <trkpt lat="42.49129" lon="2.22429">
        <ele>1743.01</ele>
        <time>2018-09-23T14:04:54Z</time>
      </trkpt>
      <trkpt lat="42.49132" lon="2.22425">
        <ele>1744.93</ele>
        <time>2018-09-23T14:05:08Z</time>
      </trkpt>
      <trkpt lat="42.49132" lon="2.2242">
        <ele>1749.74</ele>
        <time>2018-09-23T14:05:27Z</time>
      </trkpt>
      <trkpt lat="42.49138" lon="2.22415">
        <ele>1755.02</ele>
        <time>2018-09-23T14:05:41Z</time>
      </trkpt>
      <trkpt lat="42.49148" lon="2.22405">
        <ele>1757.43</ele>
        <time>2018-09-23T14:05:55Z</time>
      </trkpt>
      <trkpt lat="42.49157" lon="2.22402">
        <ele>1755.99</ele>
        <time>2018-09-23T14:06:05Z</time>
      </trkpt>
      <trkpt lat="42.49161" lon="2.22397">
        <ele>1755.02</ele>
        <time>2018-09-23T14:06:10Z</time>
      </trkpt>
      <trkpt lat="42.49169" lon="2.22383">
        <ele>1754.54</ele>
        <time>2018-09-23T14:06:23Z</time>
      </trkpt>
      <trkpt lat="42.49173" lon="2.22375">
        <ele>1755.02</ele>
        <time>2018-09-23T14:06:32Z</time>
      </trkpt>
      <trkpt lat="42.49174" lon="2.22374">
        <ele>1755.5</ele>
        <time>2018-09-23T14:06:34Z</time>
      </trkpt>
      <trkpt lat="42.49179" lon="2.22372">
        <ele>1756.95</ele>
        <time>2018-09-23T14:06:48Z</time>
      </trkpt>
      <trkpt lat="42.4918" lon="2.22375">
        <ele>1760.79</ele>
        <time>2018-09-23T14:07:18Z</time>
      </trkpt>
      <trkpt lat="42.49188" lon="2.2237">
        <ele>1762.71</ele>
        <time>2018-09-23T14:07:31Z</time>
      </trkpt>
      <trkpt lat="42.49191" lon="2.22367">
        <ele>1764.64</ele>
        <time>2018-09-23T14:07:39Z</time>
      </trkpt>
      <trkpt lat="42.49197" lon="2.22361">
        <ele>1766.56</ele>
        <time>2018-09-23T14:07:51Z</time>
      </trkpt>
      <trkpt lat="42.49201" lon="2.22354">
        <ele>1768.48</ele>
        <time>2018-09-23T14:08:05Z</time>
      </trkpt>
      <trkpt lat="42.49204" lon="2.2235">
        <ele>1770.89</ele>
        <time>2018-09-23T14:08:16Z</time>
      </trkpt>
      <trkpt lat="42.49206" lon="2.22348">
        <ele>1770.89</ele>
        <time>2018-09-23T14:08:21Z</time>
      </trkpt>
      <trkpt lat="42.49217" lon="2.2235">
        <ele>1774.73</ele>
        <time>2018-09-23T14:08:36Z</time>
      </trkpt>
      <trkpt lat="42.49218" lon="2.2235">
        <ele>1774.73</ele>
        <time>2018-09-23T14:08:37Z</time>
      </trkpt>
      <trkpt lat="42.49223" lon="2.22354">
        <ele>1777.13</ele>
        <time>2018-09-23T14:08:44Z</time>
      </trkpt>
      <trkpt lat="42.49225" lon="2.22361">
        <ele>1780.02</ele>
        <time>2018-09-23T14:08:50Z</time>
      </trkpt>
      <trkpt lat="42.49233" lon="2.22369">
        <ele>1783.86</ele>
        <time>2018-09-23T14:09:02Z</time>
      </trkpt>
      <trkpt lat="42.4924" lon="2.2237">
        <ele>1790.59</ele>
        <time>2018-09-23T14:09:15Z</time>
      </trkpt>
      <trkpt lat="42.49252" lon="2.2236">
        <ele>1791.55</ele>
        <time>2018-09-23T14:09:29Z</time>
      </trkpt>
      <trkpt lat="42.49255" lon="2.22358">
        <ele>1790.59</ele>
        <time>2018-09-23T14:09:32Z</time>
      </trkpt>
      <trkpt lat="42.49267" lon="2.22346">
        <ele>1788.67</ele>
        <time>2018-09-23T14:09:45Z</time>
      </trkpt>
      <trkpt lat="42.49275" lon="2.22328">
        <ele>1789.15</ele>
        <time>2018-09-23T14:10:00Z</time>
      </trkpt>
      <trkpt lat="42.49279" lon="2.22317">
        <ele>1790.11</ele>
        <time>2018-09-23T14:10:11Z</time>
      </trkpt>
      <trkpt lat="42.49287" lon="2.22307">
        <ele>1793</ele>
        <time>2018-09-23T14:10:24Z</time>
      </trkpt>
      <trkpt lat="42.49293" lon="2.22301">
        <ele>1795.4</ele>
        <time>2018-09-23T14:10:35Z</time>
      </trkpt>
      <trkpt lat="42.49301" lon="2.22298">
        <ele>1798.28</ele>
        <time>2018-09-23T14:10:44Z</time>
      </trkpt>
      <trkpt lat="42.49309" lon="2.22298">
        <ele>1801.65</ele>
        <time>2018-09-23T14:10:56Z</time>
      </trkpt>
      <trkpt lat="42.49311" lon="2.22296">
        <ele>1801.65</ele>
        <time>2018-09-23T14:11:08Z</time>
      </trkpt>
      <trkpt lat="42.49312" lon="2.22297">
        <ele>1798.28</ele>
        <time>2018-09-23T14:11:26Z</time>
      </trkpt>
      <trkpt lat="42.49314" lon="2.22298">
        <ele>1797.32</ele>
        <time>2018-09-23T14:11:56Z</time>
      </trkpt>
      <trkpt lat="42.49314" lon="2.22298">
        <ele>1795.4</ele>
        <time>2018-09-23T14:12:28Z</time>
      </trkpt>
      <trkpt lat="42.49315" lon="2.22294">
        <ele>1794.92</ele>
        <time>2018-09-23T14:12:53Z</time>
      </trkpt>
      <trkpt lat="42.49314" lon="2.22295">
        <ele>1792.52</ele>
        <time>2018-09-23T14:13:22Z</time>
      </trkpt>
      <trkpt lat="42.49315" lon="2.22293">
        <ele>1792.03</ele>
        <time>2018-09-23T14:13:41Z</time>
      </trkpt>
      <trkpt lat="42.49316" lon="2.22296">
        <ele>1789.63</ele>
        <time>2018-09-23T14:14:16Z</time>
      </trkpt>
      <trkpt lat="42.49315" lon="2.22296">
        <ele>1791.55</ele>
        <time>2018-09-23T14:14:48Z</time>
      </trkpt>
      <trkpt lat="42.49315" lon="2.22298">
        <ele>1792.52</ele>
        <time>2018-09-23T14:15:19Z</time>
      </trkpt>
      <trkpt lat="42.49314" lon="2.22296">
        <ele>1794.92</ele>
        <time>2018-09-23T14:15:38Z</time>
      </trkpt>
      <trkpt lat="42.4932" lon="2.22285">
        <ele>1800.21</ele>
        <time>2018-09-23T14:15:52Z</time>
      </trkpt>
      <trkpt lat="42.49329" lon="2.22279">
        <ele>1805.01</ele>
        <time>2018-09-23T14:16:05Z</time>
      </trkpt>
      <trkpt lat="42.49336" lon="2.22281">
        <ele>1808.38</ele>
        <time>2018-09-23T14:16:15Z</time>
      </trkpt>
      <trkpt lat="42.49338" lon="2.22279">
        <ele>1809.34</ele>
        <time>2018-09-23T14:16:18Z</time>
      </trkpt>
      <trkpt lat="42.49351" lon="2.22275">
        <ele>1811.26</ele>
        <time>2018-09-23T14:16:30Z</time>
      </trkpt>
      <trkpt lat="42.49365" lon="2.22262">
        <ele>1810.78</ele>
        <time>2018-09-23T14:16:44Z</time>
      </trkpt>
      <trkpt lat="42.49374" lon="2.22259">
        <ele>1812.22</ele>
        <time>2018-09-23T14:16:55Z</time>
      </trkpt>
      <trkpt lat="42.49379" lon="2.22256">
        <ele>1810.3</ele>
        <time>2018-09-23T14:17:08Z</time>
      </trkpt>
      <trkpt lat="42.4938" lon="2.22249">
        <ele>1813.66</ele>
        <time>2018-09-23T14:17:30Z</time>
      </trkpt>
      <trkpt lat="42.49381" lon="2.22248">
        <ele>1813.66</ele>
        <time>2018-09-23T14:17:33Z</time>
      </trkpt>
      <trkpt lat="42.49383" lon="2.22243">
        <ele>1813.66</ele>
        <time>2018-09-23T14:17:37Z</time>
      </trkpt>
      <trkpt lat="42.49388" lon="2.22237">
        <ele>1812.22</ele>
        <time>2018-09-23T14:17:43Z</time>
      </trkpt>
      <trkpt lat="42.49396" lon="2.22225">
        <ele>1808.38</ele>
        <time>2018-09-23T14:17:55Z</time>
      </trkpt>
      <trkpt lat="42.49406" lon="2.22204">
        <ele>1803.57</ele>
        <time>2018-09-23T14:18:09Z</time>
      </trkpt>
      <trkpt lat="42.4941" lon="2.22199">
        <ele>1802.61</ele>
        <time>2018-09-23T14:18:13Z</time>
      </trkpt>
      <trkpt lat="42.49413" lon="2.22187">
        <ele>1800.69</ele>
        <time>2018-09-23T14:18:21Z</time>
      </trkpt>
      <trkpt lat="42.49415" lon="2.22181">
        <ele>1799.73</ele>
        <time>2018-09-23T14:18:24Z</time>
      </trkpt>
      <trkpt lat="42.49424" lon="2.22164">
        <ele>1796.84</ele>
        <time>2018-09-23T14:18:37Z</time>
      </trkpt>
      <trkpt lat="42.49425" lon="2.22159">
        <ele>1795.88</ele>
        <time>2018-09-23T14:18:40Z</time>
      </trkpt>
      <trkpt lat="42.49432" lon="2.22133">
        <ele>1785.79</ele>
        <time>2018-09-23T14:18:56Z</time>
      </trkpt>
      <trkpt lat="42.49434" lon="2.22125">
        <ele>1782.9</ele>
        <time>2018-09-23T14:19:01Z</time>
      </trkpt>
      <trkpt lat="42.49441" lon="2.22104">
        <ele>1780.02</ele>
        <time>2018-09-23T14:19:13Z</time>
      </trkpt>
      <trkpt lat="42.49449" lon="2.22086">
        <ele>1777.61</ele>
        <time>2018-09-23T14:19:23Z</time>
      </trkpt>
      <trkpt lat="42.49459" lon="2.22075">
        <ele>1777.13</ele>
        <time>2018-09-23T14:19:34Z</time>
      </trkpt>
      <trkpt lat="42.4946" lon="2.22076">
        <ele>1776.65</ele>
        <time>2018-09-23T14:19:35Z</time>
      </trkpt>
      <trkpt lat="42.49465" lon="2.22085">
        <ele>1770.41</ele>
        <time>2018-09-23T14:19:47Z</time>
      </trkpt>
      <trkpt lat="42.49469" lon="2.2209">
        <ele>1767.52</ele>
        <time>2018-09-23T14:19:53Z</time>
      </trkpt>
      <trkpt lat="42.49475" lon="2.22095">
        <ele>1764.64</ele>
        <time>2018-09-23T14:20:07Z</time>
      </trkpt>
      <trkpt lat="42.49483" lon="2.22086">
        <ele>1764.64</ele>
        <time>2018-09-23T14:20:19Z</time>
      </trkpt>
      <trkpt lat="42.49488" lon="2.22095">
        <ele>1762.71</ele>
        <time>2018-09-23T14:20:31Z</time>
      </trkpt>
      <trkpt lat="42.49491" lon="2.22111">
        <ele>1760.79</ele>
        <time>2018-09-23T14:20:44Z</time>
      </trkpt>
      <trkpt lat="42.49493" lon="2.22129">
        <ele>1755.5</ele>
        <time>2018-09-23T14:20:58Z</time>
      </trkpt>
      <trkpt lat="42.49497" lon="2.22127">
        <ele>1751.66</ele>
        <time>2018-09-23T14:21:09Z</time>
      </trkpt>
      <trkpt lat="42.49503" lon="2.22126">
        <ele>1748.29</ele>
        <time>2018-09-23T14:21:20Z</time>
      </trkpt>
      <trkpt lat="42.49504" lon="2.2213">
        <ele>1746.85</ele>
        <time>2018-09-23T14:21:24Z</time>
      </trkpt>
      <trkpt lat="42.49507" lon="2.2213">
        <ele>1746.85</ele>
        <time>2018-09-23T14:21:27Z</time>
      </trkpt>
      <trkpt lat="42.49515" lon="2.22114">
        <ele>1744.45</ele>
        <time>2018-09-23T14:21:40Z</time>
      </trkpt>
      <trkpt lat="42.49519" lon="2.22108">
        <ele>1742.53</ele>
        <time>2018-09-23T14:21:52Z</time>
      </trkpt>
      <trkpt lat="42.49521" lon="2.22119">
        <ele>1741.08</ele>
        <time>2018-09-23T14:22:06Z</time>
      </trkpt>
      <trkpt lat="42.49522" lon="2.2213">
        <ele>1739.16</ele>
        <time>2018-09-23T14:22:16Z</time>
      </trkpt>
      <trkpt lat="42.49533" lon="2.22127">
        <ele>1738.68</ele>
        <time>2018-09-23T14:22:29Z</time>
      </trkpt>
      <trkpt lat="42.49536" lon="2.22124">
        <ele>1736.76</ele>
        <time>2018-09-23T14:22:34Z</time>
      </trkpt>
      <trkpt lat="42.49541" lon="2.22135">
        <ele>1733.39</ele>
        <time>2018-09-23T14:22:46Z</time>
      </trkpt>
      <trkpt lat="42.49543" lon="2.22137">
        <ele>1731.95</ele>
        <time>2018-09-23T14:22:55Z</time>
      </trkpt>
      <trkpt lat="42.49544" lon="2.22132">
        <ele>1730.99</ele>
        <time>2018-09-23T14:22:58Z</time>
      </trkpt>
      <trkpt lat="42.49544" lon="2.22128">
        <ele>1730.03</ele>
        <time>2018-09-23T14:23:01Z</time>
      </trkpt>
      <trkpt lat="42.49551" lon="2.2212">
        <ele>1728.11</ele>
        <time>2018-09-23T14:23:11Z</time>
      </trkpt>
      <trkpt lat="42.49558" lon="2.22117">
        <ele>1727.15</ele>
        <time>2018-09-23T14:23:16Z</time>
      </trkpt>
      <trkpt lat="42.49569" lon="2.22119">
        <ele>1727.15</ele>
        <time>2018-09-23T14:23:24Z</time>
      </trkpt>
      <trkpt lat="42.49573" lon="2.2212">
        <ele>1728.11</ele>
        <time>2018-09-23T14:23:28Z</time>
      </trkpt>
      <trkpt lat="42.49578" lon="2.22119">
        <ele>1727.63</ele>
        <time>2018-09-23T14:23:33Z</time>
      </trkpt>
      <trkpt lat="42.4958" lon="2.22119">
        <ele>1727.63</ele>
        <time>2018-09-23T14:23:35Z</time>
      </trkpt>
      <trkpt lat="42.49585" lon="2.22119">
        <ele>1728.11</ele>
        <time>2018-09-23T14:23:39Z</time>
      </trkpt>
      <trkpt lat="42.49587" lon="2.2212">
        <ele>1727.63</ele>
        <time>2018-09-23T14:23:41Z</time>
      </trkpt>
      <trkpt lat="42.49599" lon="2.22118">
        <ele>1725.7</ele>
        <time>2018-09-23T14:23:51Z</time>
      </trkpt>
      <trkpt lat="42.49607" lon="2.22121">
        <ele>1724.26</ele>
        <time>2018-09-23T14:23:58Z</time>
      </trkpt>
      <trkpt lat="42.49611" lon="2.22121">
        <ele>1725.22</ele>
        <time>2018-09-23T14:24:10Z</time>
      </trkpt>
      <trkpt lat="42.49612" lon="2.22121">
        <ele>1726.67</ele>
        <time>2018-09-23T14:24:41Z</time>
      </trkpt>
      <trkpt lat="42.49609" lon="2.22122">
        <ele>1729.07</ele>
        <time>2018-09-23T14:25:14Z</time>
      </trkpt>
      <trkpt lat="42.4961" lon="2.22116">
        <ele>1728.59</ele>
        <time>2018-09-23T14:25:34Z</time>
      </trkpt>
      <trkpt lat="42.49612" lon="2.22122">
        <ele>1732.43</ele>
        <time>2018-09-23T14:25:55Z</time>
      </trkpt>
      <trkpt lat="42.49611" lon="2.22125">
        <ele>1733.39</ele>
        <time>2018-09-23T14:26:18Z</time>
      </trkpt>
      <trkpt lat="42.49618" lon="2.2213">
        <ele>1730.51</ele>
        <time>2018-09-23T14:26:33Z</time>
      </trkpt>
      <trkpt lat="42.4962" lon="2.2213">
        <ele>1729.07</ele>
        <time>2018-09-23T14:26:35Z</time>
      </trkpt>
      <trkpt lat="42.49626" lon="2.2213">
        <ele>1727.63</ele>
        <time>2018-09-23T14:26:40Z</time>
      </trkpt>
      <trkpt lat="42.49635" lon="2.22133">
        <ele>1725.22</ele>
        <time>2018-09-23T14:26:47Z</time>
      </trkpt>
      <trkpt lat="42.49642" lon="2.22134">
        <ele>1723.78</ele>
        <time>2018-09-23T14:26:53Z</time>
      </trkpt>
      <trkpt lat="42.49648" lon="2.22136">
        <ele>1722.82</ele>
        <time>2018-09-23T14:26:58Z</time>
      </trkpt>
      <trkpt lat="42.49658" lon="2.22147">
        <ele>1718.01</ele>
        <time>2018-09-23T14:27:09Z</time>
      </trkpt>
      <trkpt lat="42.49665" lon="2.22161">
        <ele>1715.13</ele>
        <time>2018-09-23T14:27:24Z</time>
      </trkpt>
      <trkpt lat="42.49673" lon="2.22171">
        <ele>1712.73</ele>
        <time>2018-09-23T14:27:36Z</time>
      </trkpt>
      <trkpt lat="42.49677" lon="2.22175">
        <ele>1711.76</ele>
        <time>2018-09-23T14:27:41Z</time>
      </trkpt>
      <trkpt lat="42.49672" lon="2.22177">
        <ele>1706.96</ele>
        <time>2018-09-23T14:27:55Z</time>
      </trkpt>
      <trkpt lat="42.49666" lon="2.22179">
        <ele>1704.07</ele>
        <time>2018-09-23T14:28:03Z</time>
      </trkpt>
      <trkpt lat="42.49659" lon="2.22181">
        <ele>1703.59</ele>
        <time>2018-09-23T14:28:18Z</time>
      </trkpt>
      <trkpt lat="42.4966" lon="2.22178">
        <ele>1707.44</ele>
        <time>2018-09-23T14:28:30Z</time>
      </trkpt>
      <trkpt lat="42.49663" lon="2.22176">
        <ele>1706.96</ele>
        <time>2018-09-23T14:28:46Z</time>
      </trkpt>
      <trkpt lat="42.49657" lon="2.22178">
        <ele>1705.52</ele>
        <time>2018-09-23T14:29:07Z</time>
      </trkpt>
      <trkpt lat="42.49655" lon="2.22173">
        <ele>1707.44</ele>
        <time>2018-09-23T14:29:18Z</time>
      </trkpt>
      <trkpt lat="42.49654" lon="2.22174">
        <ele>1710.8</ele>
        <time>2018-09-23T14:29:43Z</time>
      </trkpt>
      <trkpt lat="42.49656" lon="2.22179">
        <ele>1710.32</ele>
        <time>2018-09-23T14:29:47Z</time>
      </trkpt>
      <trkpt lat="42.49671" lon="2.2218">
        <ele>1714.17</ele>
        <time>2018-09-23T14:30:04Z</time>
      </trkpt>
      <trkpt lat="42.49679" lon="2.22184">
        <ele>1717.05</ele>
        <time>2018-09-23T14:30:16Z</time>
      </trkpt>
      <trkpt lat="42.4969" lon="2.22193">
        <ele>1717.53</ele>
        <time>2018-09-23T14:30:29Z</time>
      </trkpt>
      <trkpt lat="42.49697" lon="2.22198">
        <ele>1717.53</ele>
        <time>2018-09-23T14:30:35Z</time>
      </trkpt>
      <trkpt lat="42.49701" lon="2.22207">
        <ele>1717.05</ele>
        <time>2018-09-23T14:30:43Z</time>
      </trkpt>
      <trkpt lat="42.49705" lon="2.22212">
        <ele>1716.57</ele>
        <time>2018-09-23T14:30:49Z</time>
      </trkpt>
      <trkpt lat="42.49707" lon="2.22215">
        <ele>1715.13</ele>
        <time>2018-09-23T14:30:52Z</time>
      </trkpt>
      <trkpt lat="42.49722" lon="2.2223">
        <ele>1716.09</ele>
        <time>2018-09-23T14:31:09Z</time>
      </trkpt>
      <trkpt lat="42.49725" lon="2.22233">
        <ele>1716.57</ele>
        <time>2018-09-23T14:31:13Z</time>
      </trkpt>
      <trkpt lat="42.49732" lon="2.22242">
        <ele>1717.53</ele>
        <time>2018-09-23T14:31:22Z</time>
      </trkpt>
      <trkpt lat="42.49746" lon="2.22254">
        <ele>1718.49</ele>
        <time>2018-09-23T14:31:36Z</time>
      </trkpt>
      <trkpt lat="42.49756" lon="2.22265">
        <ele>1721.86</ele>
        <time>2018-09-23T14:31:51Z</time>
      </trkpt>
      <trkpt lat="42.49762" lon="2.22266">
        <ele>1723.78</ele>
        <time>2018-09-23T14:32:02Z</time>
      </trkpt>
      <trkpt lat="42.49765" lon="2.22262">
        <ele>1723.3</ele>
        <time>2018-09-23T14:32:16Z</time>
      </trkpt>
      <trkpt lat="42.49764" lon="2.22259">
        <ele>1723.78</ele>
        <time>2018-09-23T14:32:32Z</time>
      </trkpt>
      <trkpt lat="42.49765" lon="2.22263">
        <ele>1721.38</ele>
        <time>2018-09-23T14:33:04Z</time>
      </trkpt>
      <trkpt lat="42.49767" lon="2.22264">
        <ele>1719.94</ele>
        <time>2018-09-23T14:33:07Z</time>
      </trkpt>
      <trkpt lat="42.49773" lon="2.22262">
        <ele>1717.05</ele>
        <time>2018-09-23T14:33:12Z</time>
      </trkpt>
      <trkpt lat="42.49785" lon="2.22255">
        <ele>1715.61</ele>
        <time>2018-09-23T14:33:23Z</time>
      </trkpt>
      <trkpt lat="42.49802" lon="2.22262">
        <ele>1715.61</ele>
        <time>2018-09-23T14:33:38Z</time>
      </trkpt>
      <trkpt lat="42.4981" lon="2.22268">
        <ele>1713.69</ele>
        <time>2018-09-23T14:33:46Z</time>
      </trkpt>
      <trkpt lat="42.49813" lon="2.22281">
        <ele>1712.25</ele>
        <time>2018-09-23T14:33:54Z</time>
      </trkpt>
      <trkpt lat="42.49819" lon="2.2229">
        <ele>1710.8</ele>
        <time>2018-09-23T14:34:03Z</time>
      </trkpt>
      <trkpt lat="42.49819" lon="2.22293">
        <ele>1709.84</ele>
        <time>2018-09-23T14:34:05Z</time>
      </trkpt>
      <trkpt lat="42.49821" lon="2.22294">
        <ele>1709.36</ele>
        <time>2018-09-23T14:34:07Z</time>
      </trkpt>
      <trkpt lat="42.49825" lon="2.223">
        <ele>1706.96</ele>
        <time>2018-09-23T14:34:12Z</time>
      </trkpt>
      <trkpt lat="42.49829" lon="2.22301">
        <ele>1705.04</ele>
        <time>2018-09-23T14:34:15Z</time>
      </trkpt>
      <trkpt lat="42.49839" lon="2.22313">
        <ele>1702.15</ele>
        <time>2018-09-23T14:34:29Z</time>
      </trkpt>
      <trkpt lat="42.49838" lon="2.22313">
        <ele>1702.63</ele>
        <time>2018-09-23T14:34:40Z</time>
      </trkpt>
      <trkpt lat="42.49833" lon="2.22318">
        <ele>1702.15</ele>
        <time>2018-09-23T14:34:45Z</time>
      </trkpt>
      <trkpt lat="42.49828" lon="2.22327">
        <ele>1703.11</ele>
        <time>2018-09-23T14:34:54Z</time>
      </trkpt>
      <trkpt lat="42.49821" lon="2.22334">
        <ele>1706.96</ele>
        <time>2018-09-23T14:35:06Z</time>
      </trkpt>
      <trkpt lat="42.49817" lon="2.22345">
        <ele>1707.44</ele>
        <time>2018-09-23T14:35:16Z</time>
      </trkpt>
      <trkpt lat="42.49813" lon="2.22351">
        <ele>1707.92</ele>
        <time>2018-09-23T14:35:25Z</time>
      </trkpt>
      <trkpt lat="42.49808" lon="2.22355">
        <ele>1707.92</ele>
        <time>2018-09-23T14:35:38Z</time>
      </trkpt>
      <trkpt lat="42.49806" lon="2.2236">
        <ele>1708.4</ele>
        <time>2018-09-23T14:35:52Z</time>
      </trkpt>
      <trkpt lat="42.49808" lon="2.22364">
        <ele>1715.61</ele>
        <time>2018-09-23T14:36:23Z</time>
      </trkpt>
      <trkpt lat="42.49808" lon="2.22364">
        <ele>1719.94</ele>
        <time>2018-09-23T14:36:53Z</time>
      </trkpt>
      <trkpt lat="42.49809" lon="2.2236">
        <ele>1719.94</ele>
        <time>2018-09-23T14:37:15Z</time>
      </trkpt>
      <trkpt lat="42.49813" lon="2.22355">
        <ele>1717.53</ele>
        <time>2018-09-23T14:37:31Z</time>
      </trkpt>
      <trkpt lat="42.49811" lon="2.2235">
        <ele>1718.97</ele>
        <time>2018-09-23T14:37:59Z</time>
      </trkpt>
      <trkpt lat="42.49811" lon="2.22357">
        <ele>1717.53</ele>
        <time>2018-09-23T14:38:23Z</time>
      </trkpt>
      <trkpt lat="42.49817" lon="2.22347">
        <ele>1717.53</ele>
        <time>2018-09-23T14:38:34Z</time>
      </trkpt>
      <trkpt lat="42.49825" lon="2.22334">
        <ele>1715.13</ele>
        <time>2018-09-23T14:38:47Z</time>
      </trkpt>
      <trkpt lat="42.49828" lon="2.22332">
        <ele>1712.73</ele>
        <time>2018-09-23T14:38:58Z</time>
      </trkpt>
      <trkpt lat="42.49832" lon="2.22323">
        <ele>1711.76</ele>
        <time>2018-09-23T14:39:08Z</time>
      </trkpt>
      <trkpt lat="42.49839" lon="2.22318">
        <ele>1714.17</ele>
        <time>2018-09-23T14:39:18Z</time>
      </trkpt>
      <trkpt lat="42.4984" lon="2.22318">
        <ele>1714.17</ele>
        <time>2018-09-23T14:39:20Z</time>
      </trkpt>
      <trkpt lat="42.49843" lon="2.22318">
        <ele>1713.69</ele>
        <time>2018-09-23T14:39:22Z</time>
      </trkpt>
      <trkpt lat="42.49848" lon="2.22314">
        <ele>1712.73</ele>
        <time>2018-09-23T14:39:27Z</time>
      </trkpt>
      <trkpt lat="42.49864" lon="2.22309">
        <ele>1715.13</ele>
        <time>2018-09-23T14:39:41Z</time>
      </trkpt>
      <trkpt lat="42.49867" lon="2.22308">
        <ele>1715.13</ele>
        <time>2018-09-23T14:39:43Z</time>
      </trkpt>
      <trkpt lat="42.49877" lon="2.223">
        <ele>1713.21</ele>
        <time>2018-09-23T14:39:52Z</time>
      </trkpt>
      <trkpt lat="42.49891" lon="2.22292">
        <ele>1713.21</ele>
        <time>2018-09-23T14:40:05Z</time>
      </trkpt>
      <trkpt lat="42.49904" lon="2.22284">
        <ele>1710.8</ele>
        <time>2018-09-23T14:40:15Z</time>
      </trkpt>
      <trkpt lat="42.49908" lon="2.22282">
        <ele>1710.8</ele>
        <time>2018-09-23T14:40:18Z</time>
      </trkpt>
      <trkpt lat="42.49917" lon="2.2228">
        <ele>1711.28</ele>
        <time>2018-09-23T14:40:26Z</time>
      </trkpt>
      <trkpt lat="42.49934" lon="2.2229">
        <ele>1708.88</ele>
        <time>2018-09-23T14:40:39Z</time>
      </trkpt>
      <trkpt lat="42.4995" lon="2.22293">
        <ele>1705.52</ele>
        <time>2018-09-23T14:40:51Z</time>
      </trkpt>
      <trkpt lat="42.49956" lon="2.22283">
        <ele>1705.04</ele>
        <time>2018-09-23T14:40:57Z</time>
      </trkpt>
      <trkpt lat="42.49959" lon="2.22272">
        <ele>1702.63</ele>
        <time>2018-09-23T14:41:03Z</time>
      </trkpt>
      <trkpt lat="42.49961" lon="2.22262">
        <ele>1699.75</ele>
        <time>2018-09-23T14:41:08Z</time>
      </trkpt>
      <trkpt lat="42.49966" lon="2.22244">
        <ele>1697.34</ele>
        <time>2018-09-23T14:41:20Z</time>
      </trkpt>
      <trkpt lat="42.49977" lon="2.22222">
        <ele>1698.31</ele>
        <time>2018-09-23T14:41:33Z</time>
      </trkpt>
      <trkpt lat="42.49977" lon="2.22219">
        <ele>1698.79</ele>
        <time>2018-09-23T14:41:35Z</time>
      </trkpt>
      <trkpt lat="42.49981" lon="2.2221">
        <ele>1699.27</ele>
        <time>2018-09-23T14:41:40Z</time>
      </trkpt>
      <trkpt lat="42.49982" lon="2.22203">
        <ele>1699.75</ele>
        <time>2018-09-23T14:41:45Z</time>
      </trkpt>
      <trkpt lat="42.49988" lon="2.22183">
        <ele>1699.27</ele>
        <time>2018-09-23T14:41:57Z</time>
      </trkpt>
      <trkpt lat="42.4999" lon="2.22157">
        <ele>1697.34</ele>
        <time>2018-09-23T14:42:11Z</time>
      </trkpt>
      <trkpt lat="42.49991" lon="2.22152">
        <ele>1696.86</ele>
        <time>2018-09-23T14:42:14Z</time>
      </trkpt>
      <trkpt lat="42.49993" lon="2.22145">
        <ele>1696.38</ele>
        <time>2018-09-23T14:42:18Z</time>
      </trkpt>
      <trkpt lat="42.49997" lon="2.22129">
        <ele>1695.42</ele>
        <time>2018-09-23T14:42:30Z</time>
      </trkpt>
      <trkpt lat="42.5" lon="2.22119">
        <ele>1693.98</ele>
        <time>2018-09-23T14:42:36Z</time>
      </trkpt>
      <trkpt lat="42.50005" lon="2.22106">
        <ele>1693.5</ele>
        <time>2018-09-23T14:42:44Z</time>
      </trkpt>
      <trkpt lat="42.50023" lon="2.22093">
        <ele>1695.42</ele>
        <time>2018-09-23T14:42:59Z</time>
      </trkpt>
      <trkpt lat="42.50024" lon="2.22093">
        <ele>1695.42</ele>
        <time>2018-09-23T14:43:00Z</time>
      </trkpt>
      <trkpt lat="42.50038" lon="2.2208">
        <ele>1692.54</ele>
        <time>2018-09-23T14:43:14Z</time>
      </trkpt>
      <trkpt lat="42.50039" lon="2.22079">
        <ele>1692.06</ele>
        <time>2018-09-23T14:43:15Z</time>
      </trkpt>
      <trkpt lat="42.50046" lon="2.22062">
        <ele>1690.14</ele>
        <time>2018-09-23T14:43:24Z</time>
      </trkpt>
      <trkpt lat="42.50048" lon="2.22037">
        <ele>1689.17</ele>
        <time>2018-09-23T14:43:37Z</time>
      </trkpt>
      <trkpt lat="42.50049" lon="2.22031">
        <ele>1688.69</ele>
        <time>2018-09-23T14:43:40Z</time>
      </trkpt>
      <trkpt lat="42.50049" lon="2.2202">
        <ele>1689.17</ele>
        <time>2018-09-23T14:43:46Z</time>
      </trkpt>
      <trkpt lat="42.5005" lon="2.22002">
        <ele>1689.17</ele>
        <time>2018-09-23T14:43:56Z</time>
      </trkpt>
      <trkpt lat="42.50052" lon="2.21995">
        <ele>1690.14</ele>
        <time>2018-09-23T14:44:00Z</time>
      </trkpt>
      <trkpt lat="42.50054" lon="2.21969">
        <ele>1690.14</ele>
        <time>2018-09-23T14:44:11Z</time>
      </trkpt>
      <trkpt lat="42.50057" lon="2.2196">
        <ele>1690.14</ele>
        <time>2018-09-23T14:44:16Z</time>
      </trkpt>
      <trkpt lat="42.50065" lon="2.21948">
        <ele>1689.65</ele>
        <time>2018-09-23T14:44:23Z</time>
      </trkpt>
      <trkpt lat="42.50075" lon="2.2193">
        <ele>1688.21</ele>
        <time>2018-09-23T14:44:35Z</time>
      </trkpt>
      <trkpt lat="42.50076" lon="2.21928">
        <ele>1688.21</ele>
        <time>2018-09-23T14:44:37Z</time>
      </trkpt>
      <trkpt lat="42.50079" lon="2.21925">
        <ele>1687.73</ele>
        <time>2018-09-23T14:44:40Z</time>
      </trkpt>
      <trkpt lat="42.50087" lon="2.21915">
        <ele>1686.29</ele>
        <time>2018-09-23T14:44:48Z</time>
      </trkpt>
      <trkpt lat="42.50096" lon="2.21906">
        <ele>1683.89</ele>
        <time>2018-09-23T14:44:58Z</time>
      </trkpt>
      <trkpt lat="42.50097" lon="2.21906">
        <ele>1683.89</ele>
        <time>2018-09-23T14:44:59Z</time>
      </trkpt>
      <trkpt lat="42.50114" lon="2.21897">
        <ele>1683.89</ele>
        <time>2018-09-23T14:45:14Z</time>
      </trkpt>
      <trkpt lat="42.50119" lon="2.21891">
        <ele>1684.37</ele>
        <time>2018-09-23T14:45:18Z</time>
      </trkpt>
      <trkpt lat="42.50122" lon="2.21886">
        <ele>1683.41</ele>
        <time>2018-09-23T14:45:22Z</time>
      </trkpt>
      <trkpt lat="42.50131" lon="2.2188">
        <ele>1681.48</ele>
        <time>2018-09-23T14:45:31Z</time>
      </trkpt>
      <trkpt lat="42.5014" lon="2.21874">
        <ele>1680.04</ele>
        <time>2018-09-23T14:45:36Z</time>
      </trkpt>
      <trkpt lat="42.50146" lon="2.21873">
        <ele>1678.6</ele>
        <time>2018-09-23T14:45:39Z</time>
      </trkpt>
      <trkpt lat="42.50149" lon="2.21873">
        <ele>1677.64</ele>
        <time>2018-09-23T14:45:41Z</time>
      </trkpt>
      <trkpt lat="42.50157" lon="2.21871">
        <ele>1675.72</ele>
        <time>2018-09-23T14:45:46Z</time>
      </trkpt>
      <trkpt lat="42.50167" lon="2.21867">
        <ele>1673.79</ele>
        <time>2018-09-23T14:45:52Z</time>
      </trkpt>
      <trkpt lat="42.50178" lon="2.21868">
        <ele>1670.91</ele>
        <time>2018-09-23T14:46:00Z</time>
      </trkpt>
      <trkpt lat="42.50185" lon="2.21871">
        <ele>1669.47</ele>
        <time>2018-09-23T14:46:05Z</time>
      </trkpt>
      <trkpt lat="42.50204" lon="2.21873">
        <ele>1667.54</ele>
        <time>2018-09-23T14:46:17Z</time>
      </trkpt>
      <trkpt lat="42.5021" lon="2.21871">
        <ele>1668.51</ele>
        <time>2018-09-23T14:46:22Z</time>
      </trkpt>
      <trkpt lat="42.50217" lon="2.21845">
        <ele>1664.18</ele>
        <time>2018-09-23T14:46:38Z</time>
      </trkpt>
      <trkpt lat="42.5022" lon="2.2184">
        <ele>1663.22</ele>
        <time>2018-09-23T14:46:41Z</time>
      </trkpt>
      <trkpt lat="42.50224" lon="2.21834">
        <ele>1662.74</ele>
        <time>2018-09-23T14:46:45Z</time>
      </trkpt>
      <trkpt lat="42.50226" lon="2.2183">
        <ele>1661.78</ele>
        <time>2018-09-23T14:46:47Z</time>
      </trkpt>
      <trkpt lat="42.50227" lon="2.21825">
        <ele>1660.81</ele>
        <time>2018-09-23T14:46:50Z</time>
      </trkpt>
      <trkpt lat="42.50236" lon="2.21817">
        <ele>1658.89</ele>
        <time>2018-09-23T14:46:58Z</time>
      </trkpt>
      <trkpt lat="42.50238" lon="2.21815">
        <ele>1657.93</ele>
        <time>2018-09-23T14:47:00Z</time>
      </trkpt>
      <trkpt lat="42.50249" lon="2.21804">
        <ele>1655.05</ele>
        <time>2018-09-23T14:47:10Z</time>
      </trkpt>
      <trkpt lat="42.5025" lon="2.21801">
        <ele>1654.09</ele>
        <time>2018-09-23T14:47:12Z</time>
      </trkpt>
      <trkpt lat="42.50258" lon="2.21795">
        <ele>1651.68</ele>
        <time>2018-09-23T14:47:19Z</time>
      </trkpt>
      <trkpt lat="42.50264" lon="2.21791">
        <ele>1649.76</ele>
        <time>2018-09-23T14:47:24Z</time>
      </trkpt>
      <trkpt lat="42.50269" lon="2.21785">
        <ele>1647.84</ele>
        <time>2018-09-23T14:47:28Z</time>
      </trkpt>
      <trkpt lat="42.50287" lon="2.21773">
        <ele>1645.43</ele>
        <time>2018-09-23T14:47:38Z</time>
      </trkpt>
      <trkpt lat="42.50301" lon="2.21766">
        <ele>1644.47</ele>
        <time>2018-09-23T14:47:48Z</time>
      </trkpt>
      <trkpt lat="42.50307" lon="2.21763">
        <ele>1644.95</ele>
        <time>2018-09-23T14:47:51Z</time>
      </trkpt>
      <trkpt lat="42.50313" lon="2.21757">
        <ele>1644.47</ele>
        <time>2018-09-23T14:47:55Z</time>
      </trkpt>
      <trkpt lat="42.50324" lon="2.21753">
        <ele>1643.99</ele>
        <time>2018-09-23T14:48:00Z</time>
      </trkpt>
      <trkpt lat="42.50332" lon="2.21749">
        <ele>1642.55</ele>
        <time>2018-09-23T14:48:05Z</time>
      </trkpt>
      <trkpt lat="42.50335" lon="2.21747">
        <ele>1642.07</ele>
        <time>2018-09-23T14:48:07Z</time>
      </trkpt>
      <trkpt lat="42.50337" lon="2.21746">
        <ele>1642.07</ele>
        <time>2018-09-23T14:48:09Z</time>
      </trkpt>
      <trkpt lat="42.5034" lon="2.21745">
        <ele>1642.07</ele>
        <time>2018-09-23T14:48:11Z</time>
      </trkpt>
      <trkpt lat="42.50345" lon="2.21741">
        <ele>1642.55</ele>
        <time>2018-09-23T14:48:16Z</time>
      </trkpt>
      <trkpt lat="42.50359" lon="2.21727">
        <ele>1643.03</ele>
        <time>2018-09-23T14:48:29Z</time>
      </trkpt>
      <trkpt lat="42.50363" lon="2.21727">
        <ele>1643.51</ele>
        <time>2018-09-23T14:48:32Z</time>
      </trkpt>
      <trkpt lat="42.50379" lon="2.21724">
        <ele>1644.47</ele>
        <time>2018-09-23T14:48:44Z</time>
      </trkpt>
      <trkpt lat="42.50387" lon="2.2172">
        <ele>1646.4</ele>
        <time>2018-09-23T14:48:49Z</time>
      </trkpt>
      <trkpt lat="42.50396" lon="2.21712">
        <ele>1644.95</ele>
        <time>2018-09-23T14:48:56Z</time>
      </trkpt>
      <trkpt lat="42.50402" lon="2.21705">
        <ele>1643.51</ele>
        <time>2018-09-23T14:49:02Z</time>
      </trkpt>
      <trkpt lat="42.50405" lon="2.217">
        <ele>1643.51</ele>
        <time>2018-09-23T14:49:05Z</time>
      </trkpt>
      <trkpt lat="42.5041" lon="2.2168">
        <ele>1638.7</ele>
        <time>2018-09-23T14:49:17Z</time>
      </trkpt>
      <trkpt lat="42.5041" lon="2.21679">
        <ele>1638.22</ele>
        <time>2018-09-23T14:49:18Z</time>
      </trkpt>
      <trkpt lat="42.5041" lon="2.21675">
        <ele>1638.22</ele>
        <time>2018-09-23T14:49:20Z</time>
      </trkpt>
      <trkpt lat="42.50412" lon="2.2167">
        <ele>1637.26</ele>
        <time>2018-09-23T14:49:23Z</time>
      </trkpt>
      <trkpt lat="42.50412" lon="2.21666">
        <ele>1636.78</ele>
        <time>2018-09-23T14:49:25Z</time>
      </trkpt>
      <trkpt lat="42.50415" lon="2.21658">
        <ele>1636.3</ele>
        <time>2018-09-23T14:49:30Z</time>
      </trkpt>
      <trkpt lat="42.50417" lon="2.21655">
        <ele>1635.34</ele>
        <time>2018-09-23T14:49:32Z</time>
      </trkpt>
      <trkpt lat="42.50419" lon="2.21649">
        <ele>1633.9</ele>
        <time>2018-09-23T14:49:35Z</time>
      </trkpt>
      <trkpt lat="42.50433" lon="2.2163">
        <ele>1633.42</ele>
        <time>2018-09-23T14:49:49Z</time>
      </trkpt>
      <trkpt lat="42.50443" lon="2.21616">
        <ele>1635.34</ele>
        <time>2018-09-23T14:49:58Z</time>
      </trkpt>
      <trkpt lat="42.50455" lon="2.216">
        <ele>1636.3</ele>
        <time>2018-09-23T14:50:10Z</time>
      </trkpt>
      <trkpt lat="42.50459" lon="2.21597">
        <ele>1639.19</ele>
        <time>2018-09-23T14:50:20Z</time>
      </trkpt>
      <trkpt lat="42.50463" lon="2.21596">
        <ele>1639.67</ele>
        <time>2018-09-23T14:50:23Z</time>
      </trkpt>
      <trkpt lat="42.50468" lon="2.21591">
        <ele>1640.15</ele>
        <time>2018-09-23T14:50:28Z</time>
      </trkpt>
      <trkpt lat="42.50475" lon="2.21581">
        <ele>1641.11</ele>
        <time>2018-09-23T14:50:37Z</time>
      </trkpt>
      <trkpt lat="42.50485" lon="2.21572">
        <ele>1644.47</ele>
        <time>2018-09-23T14:50:52Z</time>
      </trkpt>
      <trkpt lat="42.50483" lon="2.21571">
        <ele>1644.95</ele>
        <time>2018-09-23T14:51:07Z</time>
      </trkpt>
      <trkpt lat="42.50479" lon="2.21566">
        <ele>1643.51</ele>
        <time>2018-09-23T14:51:21Z</time>
      </trkpt>
      <trkpt lat="42.50475" lon="2.21559">
        <ele>1643.99</ele>
        <time>2018-09-23T14:51:30Z</time>
      </trkpt>
      <trkpt lat="42.5047" lon="2.21554">
        <ele>1642.07</ele>
        <time>2018-09-23T14:51:44Z</time>
      </trkpt>
      <trkpt lat="42.5047" lon="2.21553">
        <ele>1643.03</ele>
        <time>2018-09-23T14:52:06Z</time>
      </trkpt>
      <trkpt lat="42.50469" lon="2.21553">
        <ele>1645.43</ele>
        <time>2018-09-23T14:52:27Z</time>
      </trkpt>
      <trkpt lat="42.50471" lon="2.21554">
        <ele>1647.84</ele>
        <time>2018-09-23T14:52:50Z</time>
      </trkpt>
      <trkpt lat="42.50472" lon="2.21554">
        <ele>1649.76</ele>
        <time>2018-09-23T14:53:14Z</time>
      </trkpt>
      <trkpt lat="42.5047" lon="2.21554">
        <ele>1647.84</ele>
        <time>2018-09-23T14:53:27Z</time>
      </trkpt>
      <trkpt lat="42.50469" lon="2.21551">
        <ele>1645.43</ele>
        <time>2018-09-23T14:53:44Z</time>
      </trkpt>
      <trkpt lat="42.50467" lon="2.2155">
        <ele>1644.95</ele>
        <time>2018-09-23T14:53:46Z</time>
      </trkpt>
      <trkpt lat="42.50457" lon="2.21541">
        <ele>1642.55</ele>
        <time>2018-09-23T14:53:54Z</time>
      </trkpt>
      <trkpt lat="42.50443" lon="2.21533">
        <ele>1638.7</ele>
        <time>2018-09-23T14:54:06Z</time>
      </trkpt>
      <trkpt lat="42.50429" lon="2.2152">
        <ele>1637.26</ele>
        <time>2018-09-23T14:54:20Z</time>
      </trkpt>
      <trkpt lat="42.50426" lon="2.21516">
        <ele>1638.7</ele>
        <time>2018-09-23T14:54:24Z</time>
      </trkpt>
      <trkpt lat="42.50423" lon="2.21514">
        <ele>1639.19</ele>
        <time>2018-09-23T14:54:27Z</time>
      </trkpt>
      <trkpt lat="42.50414" lon="2.21505">
        <ele>1639.67</ele>
        <time>2018-09-23T14:54:37Z</time>
      </trkpt>
      <trkpt lat="42.5041" lon="2.21501">
        <ele>1639.67</ele>
        <time>2018-09-23T14:54:41Z</time>
      </trkpt>
      <trkpt lat="42.50402" lon="2.21493">
        <ele>1639.19</ele>
        <time>2018-09-23T14:54:48Z</time>
      </trkpt>
      <trkpt lat="42.50394" lon="2.21487">
        <ele>1636.78</ele>
        <time>2018-09-23T14:54:55Z</time>
      </trkpt>
      <trkpt lat="42.50382" lon="2.21474">
        <ele>1634.86</ele>
        <time>2018-09-23T14:55:06Z</time>
      </trkpt>
      <trkpt lat="42.5037" lon="2.21466">
        <ele>1631.98</ele>
        <time>2018-09-23T14:55:15Z</time>
      </trkpt>
      <trkpt lat="42.50369" lon="2.21463">
        <ele>1631.01</ele>
        <time>2018-09-23T14:55:17Z</time>
      </trkpt>
      <trkpt lat="42.50364" lon="2.21458">
        <ele>1628.61</ele>
        <time>2018-09-23T14:55:21Z</time>
      </trkpt>
      <trkpt lat="42.50351" lon="2.21444">
        <ele>1626.21</ele>
        <time>2018-09-23T14:55:33Z</time>
      </trkpt>
      <trkpt lat="42.50349" lon="2.21441">
        <ele>1626.21</ele>
        <time>2018-09-23T14:55:35Z</time>
      </trkpt>
      <trkpt lat="42.50346" lon="2.21435">
        <ele>1626.69</ele>
        <time>2018-09-23T14:55:39Z</time>
      </trkpt>
      <trkpt lat="42.5034" lon="2.21427">
        <ele>1626.21</ele>
        <time>2018-09-23T14:55:45Z</time>
      </trkpt>
      <trkpt lat="42.50338" lon="2.21424">
        <ele>1625.73</ele>
        <time>2018-09-23T14:55:47Z</time>
      </trkpt>
      <trkpt lat="42.50333" lon="2.21415">
        <ele>1625.73</ele>
        <time>2018-09-23T14:55:53Z</time>
      </trkpt>
      <trkpt lat="42.50329" lon="2.21405">
        <ele>1624.77</ele>
        <time>2018-09-23T14:55:58Z</time>
      </trkpt>
      <trkpt lat="42.50319" lon="2.21387">
        <ele>1620.92</ele>
        <time>2018-09-23T14:56:10Z</time>
      </trkpt>
      <trkpt lat="42.50317" lon="2.21383">
        <ele>1619.48</ele>
        <time>2018-09-23T14:56:13Z</time>
      </trkpt>
      <trkpt lat="42.50316" lon="2.2138">
        <ele>1619</ele>
        <time>2018-09-23T14:56:15Z</time>
      </trkpt>
      <trkpt lat="42.50312" lon="2.21375">
        <ele>1617.56</ele>
        <time>2018-09-23T14:56:19Z</time>
      </trkpt>
      <trkpt lat="42.50311" lon="2.2137">
        <ele>1618.52</ele>
        <time>2018-09-23T14:56:22Z</time>
      </trkpt>
      <trkpt lat="42.503" lon="2.21351">
        <ele>1620.92</ele>
        <time>2018-09-23T14:56:36Z</time>
      </trkpt>
      <trkpt lat="42.50289" lon="2.21339">
        <ele>1619</ele>
        <time>2018-09-23T14:56:48Z</time>
      </trkpt>
      <trkpt lat="42.50286" lon="2.21336">
        <ele>1616.11</ele>
        <time>2018-09-23T14:57:06Z</time>
      </trkpt>
      <trkpt lat="42.50289" lon="2.21343">
        <ele>1611.79</ele>
        <time>2018-09-23T14:57:25Z</time>
      </trkpt>
      <trkpt lat="42.5029" lon="2.21345">
        <ele>1610.83</ele>
        <time>2018-09-23T14:57:48Z</time>
      </trkpt>
      <trkpt lat="42.50291" lon="2.21345">
        <ele>1614.19</ele>
        <time>2018-09-23T14:58:14Z</time>
      </trkpt>
      <trkpt lat="42.50299" lon="2.21354">
        <ele>1609.86</ele>
        <time>2018-09-23T14:58:28Z</time>
      </trkpt>
      <trkpt lat="42.50308" lon="2.21365">
        <ele>1606.02</ele>
        <time>2018-09-23T14:58:41Z</time>
      </trkpt>
      <trkpt lat="42.50309" lon="2.21366">
        <ele>1605.54</ele>
        <time>2018-09-23T14:58:42Z</time>
      </trkpt>
      <trkpt lat="42.50327" lon="2.21384">
        <ele>1607.46</ele>
        <time>2018-09-23T14:58:55Z</time>
      </trkpt>
      <trkpt lat="42.50342" lon="2.2139">
        <ele>1606.02</ele>
        <time>2018-09-23T14:59:06Z</time>
      </trkpt>
      <trkpt lat="42.50352" lon="2.21402">
        <ele>1606.02</ele>
        <time>2018-09-23T14:59:18Z</time>
      </trkpt>
      <trkpt lat="42.50367" lon="2.21413">
        <ele>1605.54</ele>
        <time>2018-09-23T14:59:29Z</time>
      </trkpt>
      <trkpt lat="42.50386" lon="2.21422">
        <ele>1606.98</ele>
        <time>2018-09-23T14:59:42Z</time>
      </trkpt>
      <trkpt lat="42.50392" lon="2.21423">
        <ele>1603.14</ele>
        <time>2018-09-23T14:59:50Z</time>
      </trkpt>
      <trkpt lat="42.50403" lon="2.21424">
        <ele>1601.69</ele>
        <time>2018-09-23T14:59:55Z</time>
      </trkpt>
      <trkpt lat="42.50416" lon="2.21421">
        <ele>1601.69</ele>
        <time>2018-09-23T15:00:02Z</time>
      </trkpt>
      <trkpt lat="42.50427" lon="2.21432">
        <ele>1601.21</ele>
        <time>2018-09-23T15:00:15Z</time>
      </trkpt>
      <trkpt lat="42.50434" lon="2.21439">
        <ele>1598.81</ele>
        <time>2018-09-23T15:00:25Z</time>
      </trkpt>
      <trkpt lat="42.50455" lon="2.21443">
        <ele>1599.29</ele>
        <time>2018-09-23T15:00:36Z</time>
      </trkpt>
      <trkpt lat="42.50472" lon="2.21449">
        <ele>1596.41</ele>
        <time>2018-09-23T15:00:47Z</time>
      </trkpt>
      <trkpt lat="42.50486" lon="2.21455">
        <ele>1591.6</ele>
        <time>2018-09-23T15:01:00Z</time>
      </trkpt>
      <trkpt lat="42.50502" lon="2.21453">
        <ele>1586.31</ele>
        <time>2018-09-23T15:01:12Z</time>
      </trkpt>
      <trkpt lat="42.50503" lon="2.21453">
        <ele>1585.83</ele>
        <time>2018-09-23T15:01:13Z</time>
      </trkpt>
      <trkpt lat="42.50521" lon="2.21443">
        <ele>1581.03</ele>
        <time>2018-09-23T15:01:27Z</time>
      </trkpt>
      <trkpt lat="42.50527" lon="2.21441">
        <ele>1581.99</ele>
        <time>2018-09-23T15:01:39Z</time>
      </trkpt>
      <trkpt lat="42.5054" lon="2.21431">
        <ele>1579.58</ele>
        <time>2018-09-23T15:01:55Z</time>
      </trkpt>
      <trkpt lat="42.50543" lon="2.21424">
        <ele>1579.58</ele>
        <time>2018-09-23T15:02:07Z</time>
      </trkpt>
      <trkpt lat="42.50548" lon="2.21428">
        <ele>1576.22</ele>
        <time>2018-09-23T15:02:19Z</time>
      </trkpt>
      <trkpt lat="42.50554" lon="2.21433">
        <ele>1574.3</ele>
        <time>2018-09-23T15:02:35Z</time>
      </trkpt>
      <trkpt lat="42.50563" lon="2.21433">
        <ele>1572.85</ele>
        <time>2018-09-23T15:02:44Z</time>
      </trkpt>
      <trkpt lat="42.50565" lon="2.21431">
        <ele>1572.85</ele>
        <time>2018-09-23T15:02:47Z</time>
      </trkpt>
      <trkpt lat="42.5058" lon="2.21424">
        <ele>1571.89</ele>
        <time>2018-09-23T15:03:00Z</time>
      </trkpt>
      <trkpt lat="42.50606" lon="2.21416">
        <ele>1572.37</ele>
        <time>2018-09-23T15:03:13Z</time>
      </trkpt>
      <trkpt lat="42.50622" lon="2.21412">
        <ele>1572.85</ele>
        <time>2018-09-23T15:03:25Z</time>
      </trkpt>
      <trkpt lat="42.50626" lon="2.21414">
        <ele>1573.33</ele>
        <time>2018-09-23T15:03:43Z</time>
      </trkpt>
      <trkpt lat="42.50633" lon="2.21411">
        <ele>1572.37</ele>
        <time>2018-09-23T15:04:00Z</time>
      </trkpt>
      <trkpt lat="42.50647" lon="2.21403">
        <ele>1569.01</ele>
        <time>2018-09-23T15:04:13Z</time>
      </trkpt>
      <trkpt lat="42.50659" lon="2.21396">
        <ele>1568.05</ele>
        <time>2018-09-23T15:04:26Z</time>
      </trkpt>
      <trkpt lat="42.5067" lon="2.21392">
        <ele>1565.64</ele>
        <time>2018-09-23T15:04:35Z</time>
      </trkpt>
      <trkpt lat="42.50679" lon="2.21402">
        <ele>1562.76</ele>
        <time>2018-09-23T15:04:48Z</time>
      </trkpt>
      <trkpt lat="42.50686" lon="2.21419">
        <ele>1556.03</ele>
        <time>2018-09-23T15:05:01Z</time>
      </trkpt>
      <trkpt lat="42.50691" lon="2.21431">
        <ele>1553.15</ele>
        <time>2018-09-23T15:05:07Z</time>
      </trkpt>
      <trkpt lat="42.50694" lon="2.21455">
        <ele>1550.74</ele>
        <time>2018-09-23T15:05:21Z</time>
      </trkpt>
      <trkpt lat="42.50698" lon="2.21475">
        <ele>1544.98</ele>
        <time>2018-09-23T15:05:33Z</time>
      </trkpt>
      <trkpt lat="42.50705" lon="2.21491">
        <ele>1541.13</ele>
        <time>2018-09-23T15:05:45Z</time>
      </trkpt>
      <trkpt lat="42.50709" lon="2.21508">
        <ele>1535.84</ele>
        <time>2018-09-23T15:05:56Z</time>
      </trkpt>
      <trkpt lat="42.50716" lon="2.21528">
        <ele>1532.48</ele>
        <time>2018-09-23T15:06:06Z</time>
      </trkpt>
      <trkpt lat="42.50736" lon="2.21556">
        <ele>1531.04</ele>
        <time>2018-09-23T15:06:19Z</time>
      </trkpt>
      <trkpt lat="42.50751" lon="2.21574">
        <ele>1524.79</ele>
        <time>2018-09-23T15:06:31Z</time>
      </trkpt>
      <trkpt lat="42.50757" lon="2.21591">
        <ele>1518.54</ele>
        <time>2018-09-23T15:06:44Z</time>
      </trkpt>
      <trkpt lat="42.50769" lon="2.21613">
        <ele>1516.14</ele>
        <time>2018-09-23T15:06:59Z</time>
      </trkpt>
      <trkpt lat="42.50788" lon="2.21635">
        <ele>1521.42</ele>
        <time>2018-09-23T15:07:11Z</time>
      </trkpt>
      <trkpt lat="42.50796" lon="2.21648">
        <ele>1524.79</ele>
        <time>2018-09-23T15:07:21Z</time>
      </trkpt>
      <trkpt lat="42.50805" lon="2.21669">
        <ele>1523.83</ele>
        <time>2018-09-23T15:07:35Z</time>
      </trkpt>
      <trkpt lat="42.50807" lon="2.21668">
        <ele>1522.39</ele>
        <time>2018-09-23T15:07:43Z</time>
      </trkpt>
      <trkpt lat="42.50808" lon="2.21647">
        <ele>1519.5</ele>
        <time>2018-09-23T15:07:57Z</time>
      </trkpt>
      <trkpt lat="42.50808" lon="2.21641">
        <ele>1518.54</ele>
        <time>2018-09-23T15:08:15Z</time>
      </trkpt>
      <trkpt lat="42.5081" lon="2.21646">
        <ele>1519.5</ele>
        <time>2018-09-23T15:08:50Z</time>
      </trkpt>
      <trkpt lat="42.50805" lon="2.21643">
        <ele>1513.73</ele>
        <time>2018-09-23T15:09:19Z</time>
      </trkpt>
      <trkpt lat="42.50808" lon="2.21631">
        <ele>1515.66</ele>
        <time>2018-09-23T15:09:48Z</time>
      </trkpt>
      <trkpt lat="42.50807" lon="2.21609">
        <ele>1516.14</ele>
        <time>2018-09-23T15:10:00Z</time>
      </trkpt>
      <trkpt lat="42.50803" lon="2.21587">
        <ele>1513.73</ele>
        <time>2018-09-23T15:10:12Z</time>
      </trkpt>
      <trkpt lat="42.50796" lon="2.21568">
        <ele>1510.85</ele>
        <time>2018-09-23T15:10:24Z</time>
      </trkpt>
      <trkpt lat="42.50794" lon="2.21561">
        <ele>1508.93</ele>
        <time>2018-09-23T15:10:28Z</time>
      </trkpt>
      <trkpt lat="42.50789" lon="2.21533">
        <ele>1505.56</ele>
        <time>2018-09-23T15:10:42Z</time>
      </trkpt>
      <trkpt lat="42.50788" lon="2.21531">
        <ele>1505.56</ele>
        <time>2018-09-23T15:10:43Z</time>
      </trkpt>
      <trkpt lat="42.50781" lon="2.2151">
        <ele>1507.48</ele>
        <time>2018-09-23T15:10:54Z</time>
      </trkpt>
      <trkpt lat="42.50777" lon="2.21491">
        <ele>1506.04</ele>
        <time>2018-09-23T15:11:02Z</time>
      </trkpt>
      <trkpt lat="42.50771" lon="2.21469">
        <ele>1502.2</ele>
        <time>2018-09-23T15:11:11Z</time>
      </trkpt>
      <trkpt lat="42.50769" lon="2.21449">
        <ele>1495.95</ele>
        <time>2018-09-23T15:11:25Z</time>
      </trkpt>
      <trkpt lat="42.50775" lon="2.21457">
        <ele>1491.14</ele>
        <time>2018-09-23T15:11:35Z</time>
      </trkpt>
      <trkpt lat="42.50785" lon="2.21471">
        <ele>1488.26</ele>
        <time>2018-09-23T15:11:46Z</time>
      </trkpt>
      <trkpt lat="42.50787" lon="2.21474">
        <ele>1487.78</ele>
        <time>2018-09-23T15:11:48Z</time>
      </trkpt>
      <trkpt lat="42.5079" lon="2.21477">
        <ele>1487.3</ele>
        <time>2018-09-23T15:11:50Z</time>
      </trkpt>
      <trkpt lat="42.50791" lon="2.2148">
        <ele>1486.82</ele>
        <time>2018-09-23T15:11:52Z</time>
      </trkpt>
      <trkpt lat="42.50806" lon="2.21505">
        <ele>1483.45</ele>
        <time>2018-09-23T15:12:05Z</time>
      </trkpt>
      <trkpt lat="42.50813" lon="2.21524">
        <ele>1482.97</ele>
        <time>2018-09-23T15:12:16Z</time>
      </trkpt>
      <trkpt lat="42.50818" lon="2.21533">
        <ele>1477.2</ele>
        <time>2018-09-23T15:12:27Z</time>
      </trkpt>
      <trkpt lat="42.50824" lon="2.21543">
        <ele>1468.07</ele>
        <time>2018-09-23T15:12:39Z</time>
      </trkpt>
      <trkpt lat="42.50829" lon="2.21554">
        <ele>1459.9</ele>
        <time>2018-09-23T15:12:51Z</time>
      </trkpt>
      <trkpt lat="42.50832" lon="2.21568">
        <ele>1455.57</ele>
        <time>2018-09-23T15:13:02Z</time>
      </trkpt>
      <trkpt lat="42.50854" lon="2.21585">
        <ele>1463.74</ele>
        <time>2018-09-23T15:13:18Z</time>
      </trkpt>
      <trkpt lat="42.50856" lon="2.21601">
        <ele>1461.34</ele>
        <time>2018-09-23T15:13:29Z</time>
      </trkpt>
      <trkpt lat="42.50858" lon="2.21615">
        <ele>1457.5</ele>
        <time>2018-09-23T15:13:40Z</time>
      </trkpt>
      <trkpt lat="42.50876" lon="2.2164">
        <ele>1463.26</ele>
        <time>2018-09-23T15:13:54Z</time>
      </trkpt>
      <trkpt lat="42.50876" lon="2.21641">
        <ele>1463.26</ele>
        <time>2018-09-23T15:13:55Z</time>
      </trkpt>
      <trkpt lat="42.50883" lon="2.21653">
        <ele>1461.34</ele>
        <time>2018-09-23T15:14:06Z</time>
      </trkpt>
      <trkpt lat="42.50894" lon="2.21671">
        <ele>1461.34</ele>
        <time>2018-09-23T15:14:15Z</time>
      </trkpt>
      <trkpt lat="42.50906" lon="2.21691">
        <ele>1463.26</ele>
        <time>2018-09-23T15:14:29Z</time>
      </trkpt>
      <trkpt lat="42.50915" lon="2.21704">
        <ele>1459.9</ele>
        <time>2018-09-23T15:14:41Z</time>
      </trkpt>
      <trkpt lat="42.50922" lon="2.21712">
        <ele>1457.02</ele>
        <time>2018-09-23T15:14:50Z</time>
      </trkpt>
      <trkpt lat="42.50931" lon="2.21727">
        <ele>1456.53</ele>
        <time>2018-09-23T15:14:59Z</time>
      </trkpt>
      <trkpt lat="42.5094" lon="2.21749">
        <ele>1458.94</ele>
        <time>2018-09-23T15:15:12Z</time>
      </trkpt>
      <trkpt lat="42.50939" lon="2.2176">
        <ele>1457.02</ele>
        <time>2018-09-23T15:15:18Z</time>
      </trkpt>
      <trkpt lat="42.50939" lon="2.21778">
        <ele>1451.73</ele>
        <time>2018-09-23T15:15:32Z</time>
      </trkpt>
      <trkpt lat="42.50941" lon="2.21777">
        <ele>1448.36</ele>
        <time>2018-09-23T15:15:38Z</time>
      </trkpt>
      <trkpt lat="42.5095" lon="2.21769">
        <ele>1440.67</ele>
        <time>2018-09-23T15:15:46Z</time>
      </trkpt>
      <trkpt lat="42.50957" lon="2.2176">
        <ele>1437.31</ele>
        <time>2018-09-23T15:15:51Z</time>
      </trkpt>
      <trkpt lat="42.50966" lon="2.2175">
        <ele>1433.94</ele>
        <time>2018-09-23T15:16:03Z</time>
      </trkpt>
      <trkpt lat="42.50966" lon="2.21749">
        <ele>1433.94</ele>
        <time>2018-09-23T15:16:04Z</time>
      </trkpt>
      <trkpt lat="42.5097" lon="2.21728">
        <ele>1435.39</ele>
        <time>2018-09-23T15:16:16Z</time>
      </trkpt>
      <trkpt lat="42.50966" lon="2.21707">
        <ele>1434.91</ele>
        <time>2018-09-23T15:16:28Z</time>
      </trkpt>
      <trkpt lat="42.50965" lon="2.21704">
        <ele>1434.42</ele>
        <time>2018-09-23T15:16:30Z</time>
      </trkpt>
      <trkpt lat="42.5096" lon="2.21693">
        <ele>1432.98</ele>
        <time>2018-09-23T15:16:36Z</time>
      </trkpt>
      <trkpt lat="42.50957" lon="2.21681">
        <ele>1430.1</ele>
        <time>2018-09-23T15:16:43Z</time>
      </trkpt>
      <trkpt lat="42.50955" lon="2.21675">
        <ele>1429.62</ele>
        <time>2018-09-23T15:16:47Z</time>
      </trkpt>
      <trkpt lat="42.50953" lon="2.21667">
        <ele>1429.62</ele>
        <time>2018-09-23T15:16:51Z</time>
      </trkpt>
      <trkpt lat="42.5094" lon="2.21647">
        <ele>1427.21</ele>
        <time>2018-09-23T15:17:05Z</time>
      </trkpt>
      <trkpt lat="42.50932" lon="2.21624">
        <ele>1427.7</ele>
        <time>2018-09-23T15:17:19Z</time>
      </trkpt>
      <trkpt lat="42.50928" lon="2.21602">
        <ele>1425.77</ele>
        <time>2018-09-23T15:17:31Z</time>
      </trkpt>
      <trkpt lat="42.50921" lon="2.21578">
        <ele>1422.41</ele>
        <time>2018-09-23T15:17:46Z</time>
      </trkpt>
      <trkpt lat="42.5092" lon="2.21562">
        <ele>1420</ele>
        <time>2018-09-23T15:17:58Z</time>
      </trkpt>
      <trkpt lat="42.50921" lon="2.21563">
        <ele>1419.52</ele>
        <time>2018-09-23T15:17:59Z</time>
      </trkpt>
      <trkpt lat="42.50928" lon="2.21579">
        <ele>1417.6</ele>
        <time>2018-09-23T15:18:13Z</time>
      </trkpt>
      <trkpt lat="42.50933" lon="2.21591">
        <ele>1415.2</ele>
        <time>2018-09-23T15:18:26Z</time>
      </trkpt>
      <trkpt lat="42.5094" lon="2.21602">
        <ele>1409.91</ele>
        <time>2018-09-23T15:18:39Z</time>
      </trkpt>
      <trkpt lat="42.50941" lon="2.21605">
        <ele>1409.43</ele>
        <time>2018-09-23T15:18:42Z</time>
      </trkpt>
      <trkpt lat="42.50955" lon="2.21616">
        <ele>1407.03</ele>
        <time>2018-09-23T15:18:53Z</time>
      </trkpt>
      <trkpt lat="42.50968" lon="2.21624">
        <ele>1404.62</ele>
        <time>2018-09-23T15:19:06Z</time>
      </trkpt>
      <trkpt lat="42.50982" lon="2.21628">
        <ele>1399.34</ele>
        <time>2018-09-23T15:19:19Z</time>
      </trkpt>
      <trkpt lat="42.5099" lon="2.21631">
        <ele>1394.53</ele>
        <time>2018-09-23T15:19:27Z</time>
      </trkpt>
      <trkpt lat="42.51004" lon="2.21639">
        <ele>1389.72</ele>
        <time>2018-09-23T15:19:35Z</time>
      </trkpt>
      <trkpt lat="42.5102" lon="2.21647">
        <ele>1384.44</ele>
        <time>2018-09-23T15:19:44Z</time>
      </trkpt>
      <trkpt lat="42.51033" lon="2.21654">
        <ele>1381.07</ele>
        <time>2018-09-23T15:19:54Z</time>
      </trkpt>
      <trkpt lat="42.51047" lon="2.21664">
        <ele>1377.23</ele>
        <time>2018-09-23T15:20:07Z</time>
      </trkpt>
      <trkpt lat="42.51053" lon="2.21668">
        <ele>1375.3</ele>
        <time>2018-09-23T15:20:11Z</time>
      </trkpt>
      <trkpt lat="42.51079" lon="2.21684">
        <ele>1377.71</ele>
        <time>2018-09-23T15:20:24Z</time>
      </trkpt>
      <trkpt lat="42.51095" lon="2.21696">
        <ele>1376.26</ele>
        <time>2018-09-23T15:20:39Z</time>
      </trkpt>
      <trkpt lat="42.51114" lon="2.21704">
        <ele>1379.15</ele>
        <time>2018-09-23T15:20:52Z</time>
      </trkpt>
      <trkpt lat="42.51126" lon="2.21708">
        <ele>1375.3</ele>
        <time>2018-09-23T15:21:04Z</time>
      </trkpt>
      <trkpt lat="42.51128" lon="2.21708">
        <ele>1374.34</ele>
        <time>2018-09-23T15:21:06Z</time>
      </trkpt>
      <trkpt lat="42.5114" lon="2.21702">
        <ele>1374.34</ele>
        <time>2018-09-23T15:21:16Z</time>
      </trkpt>
      <trkpt lat="42.5115" lon="2.21701">
        <ele>1375.78</ele>
        <time>2018-09-23T15:21:24Z</time>
      </trkpt>
      <trkpt lat="42.51159" lon="2.217">
        <ele>1374.34</ele>
        <time>2018-09-23T15:21:32Z</time>
      </trkpt>
      <trkpt lat="42.5118" lon="2.21699">
        <ele>1366.17</ele>
        <time>2018-09-23T15:21:47Z</time>
      </trkpt>
      <trkpt lat="42.51196" lon="2.21693">
        <ele>1362.81</ele>
        <time>2018-09-23T15:22:00Z</time>
      </trkpt>
      <trkpt lat="42.51202" lon="2.21696">
        <ele>1362.33</ele>
        <time>2018-09-23T15:22:05Z</time>
      </trkpt>
      <trkpt lat="42.51218" lon="2.21696">
        <ele>1360.88</ele>
        <time>2018-09-23T15:22:17Z</time>
      </trkpt>
      <trkpt lat="42.51241" lon="2.21688">
        <ele>1358.96</ele>
        <time>2018-09-23T15:22:34Z</time>
      </trkpt>
      <trkpt lat="42.51244" lon="2.21687">
        <ele>1358</ele>
        <time>2018-09-23T15:22:36Z</time>
      </trkpt>
      <trkpt lat="42.5126" lon="2.2168">
        <ele>1351.27</ele>
        <time>2018-09-23T15:22:46Z</time>
      </trkpt>
      <trkpt lat="42.51279" lon="2.21674">
        <ele>1346.94</ele>
        <time>2018-09-23T15:22:59Z</time>
      </trkpt>
      <trkpt lat="42.51296" lon="2.21667">
        <ele>1344.54</ele>
        <time>2018-09-23T15:23:12Z</time>
      </trkpt>
      <trkpt lat="42.5132" lon="2.21664">
        <ele>1343.1</ele>
        <time>2018-09-23T15:23:29Z</time>
      </trkpt>
      <trkpt lat="42.51327" lon="2.21667">
        <ele>1341.18</ele>
        <time>2018-09-23T15:23:42Z</time>
      </trkpt>
      <trkpt lat="42.51334" lon="2.21667">
        <ele>1342.14</ele>
        <time>2018-09-23T15:23:54Z</time>
      </trkpt>
      <trkpt lat="42.51343" lon="2.21664">
        <ele>1342.62</ele>
        <time>2018-09-23T15:24:07Z</time>
      </trkpt>
      <trkpt lat="42.5135" lon="2.21665">
        <ele>1343.58</ele>
        <time>2018-09-23T15:24:20Z</time>
      </trkpt>
      <trkpt lat="42.51351" lon="2.21665">
        <ele>1343.58</ele>
        <time>2018-09-23T15:24:36Z</time>
      </trkpt>
      <trkpt lat="42.51356" lon="2.21662">
        <ele>1345.5</ele>
        <time>2018-09-23T15:24:51Z</time>
      </trkpt>
      <trkpt lat="42.51347" lon="2.21665">
        <ele>1346.46</ele>
        <time>2018-09-23T15:25:04Z</time>
      </trkpt>
      <trkpt lat="42.51349" lon="2.21664">
        <ele>1347.91</ele>
        <time>2018-09-23T15:25:18Z</time>
      </trkpt>
      <trkpt lat="42.51349" lon="2.21664">
        <ele>1347.91</ele>
        <time>2018-09-23T15:25:34Z</time>
      </trkpt>
      <trkpt lat="42.51349" lon="2.21664">
        <ele>1345.98</ele>
        <time>2018-09-23T15:25:48Z</time>
      </trkpt>
      <trkpt lat="42.5135" lon="2.21665">
        <ele>1346.94</ele>
        <time>2018-09-23T15:26:03Z</time>
      </trkpt>
      <trkpt lat="42.51347" lon="2.21664">
        <ele>1346.46</ele>
        <time>2018-09-23T15:26:18Z</time>
      </trkpt>
      <trkpt lat="42.5135" lon="2.21663">
        <ele>1346.46</ele>
        <time>2018-09-23T15:26:43Z</time>
      </trkpt>
      <trkpt lat="42.51346" lon="2.21662">
        <ele>1346.94</ele>
        <time>2018-09-23T15:27:02Z</time>
      </trkpt>
      <trkpt lat="42.51351" lon="2.21666">
        <ele>1345.02</ele>
        <time>2018-09-23T15:27:27Z</time>
      </trkpt>
      <trkpt lat="42.51344" lon="2.21653">
        <ele>1342.62</ele>
        <time>2018-09-23T15:27:56Z</time>
      </trkpt>
      <trkpt lat="42.51343" lon="2.2166">
        <ele>1341.66</ele>
        <time>2018-09-23T15:28:22Z</time>
      </trkpt>
      <trkpt lat="42.51342" lon="2.21657">
        <ele>1341.18</ele>
        <time>2018-09-23T15:28:48Z</time>
      </trkpt>
      <trkpt lat="42.51343" lon="2.21653">
        <ele>1343.1</ele>
        <time>2018-09-23T15:29:16Z</time>
      </trkpt>
      <trkpt lat="42.51342" lon="2.21658">
        <ele>1338.77</ele>
        <time>2018-09-23T15:29:42Z</time>
      </trkpt>
      <trkpt lat="42.51345" lon="2.21655">
        <ele>1337.81</ele>
        <time>2018-09-23T15:30:08Z</time>
      </trkpt>
      <trkpt lat="42.51345" lon="2.21662">
        <ele>1342.14</ele>
        <time>2018-09-23T15:30:34Z</time>
      </trkpt>
      <trkpt lat="42.51345" lon="2.21652">
        <ele>1341.18</ele>
        <time>2018-09-23T15:31:00Z</time>
      </trkpt>
      <trkpt lat="42.51348" lon="2.21664">
        <ele>1345.02</ele>
        <time>2018-09-23T15:31:31Z</time>
      </trkpt>
      <trkpt lat="42.51347" lon="2.2166">
        <ele>1346.46</ele>
        <time>2018-09-23T15:31:54Z</time>
      </trkpt>
      <trkpt lat="42.51342" lon="2.21656">
        <ele>1350.31</ele>
        <time>2018-09-23T15:32:20Z</time>
      </trkpt>
      <trkpt lat="42.51346" lon="2.21656">
        <ele>1352.23</ele>
        <time>2018-09-23T15:32:42Z</time>
      </trkpt>
      <trkpt lat="42.51345" lon="2.21664">
        <ele>1353.19</ele>
        <time>2018-09-23T15:33:09Z</time>
      </trkpt>
      <trkpt lat="42.51345" lon="2.2166">
        <ele>1351.27</ele>
        <time>2018-09-23T15:33:36Z</time>
      </trkpt>
      <trkpt lat="42.51341" lon="2.21662">
        <ele>1346.46</ele>
        <time>2018-09-23T15:34:04Z</time>
      </trkpt>
      <trkpt lat="42.51342" lon="2.21662">
        <ele>1344.06</ele>
        <time>2018-09-23T15:34:30Z</time>
      </trkpt>
      <trkpt lat="42.51345" lon="2.21661">
        <ele>1348.39</ele>
        <time>2018-09-23T15:34:52Z</time>
      </trkpt>
      <trkpt lat="42.51343" lon="2.21656">
        <ele>1347.43</ele>
        <time>2018-09-23T15:35:14Z</time>
      </trkpt>
      <trkpt lat="42.51344" lon="2.2166">
        <ele>1347.43</ele>
        <time>2018-09-23T15:35:38Z</time>
      </trkpt>
      <trkpt lat="42.51349" lon="2.2167">
        <ele>1348.87</ele>
        <time>2018-09-23T15:36:02Z</time>
      </trkpt>
      <trkpt lat="42.51346" lon="2.21656">
        <ele>1349.35</ele>
        <time>2018-09-23T15:36:24Z</time>
      </trkpt>
      <trkpt lat="42.51344" lon="2.21649">
        <ele>1348.87</ele>
        <time>2018-09-23T15:36:46Z</time>
      </trkpt>
      <trkpt lat="42.51341" lon="2.21663">
        <ele>1349.83</ele>
        <time>2018-09-23T15:37:09Z</time>
      </trkpt>
      <trkpt lat="42.51343" lon="2.21667">
        <ele>1352.71</ele>
        <time>2018-09-23T15:37:39Z</time>
      </trkpt>
      <trkpt lat="42.51344" lon="2.21664">
        <ele>1353.19</ele>
        <time>2018-09-23T15:38:09Z</time>
      </trkpt>
      <trkpt lat="42.51345" lon="2.21663">
        <ele>1352.71</ele>
        <time>2018-09-23T15:38:31Z</time>
      </trkpt>
      <trkpt lat="42.51343" lon="2.21662">
        <ele>1351.27</ele>
        <time>2018-09-23T15:38:48Z</time>
      </trkpt>
      <trkpt lat="42.51344" lon="2.2166">
        <ele>1350.31</ele>
        <time>2018-09-23T15:39:07Z</time>
      </trkpt>
      <trkpt lat="42.51343" lon="2.21662">
        <ele>1350.31</ele>
        <time>2018-09-23T15:39:39Z</time>
      </trkpt>
      <trkpt lat="42.51344" lon="2.21664">
        <ele>1351.27</ele>
        <time>2018-09-23T15:39:54Z</time>
      </trkpt>
      <trkpt lat="42.51344" lon="2.21663">
        <ele>1351.75</ele>
        <time>2018-09-23T15:40:24Z</time>
      </trkpt>
      <trkpt lat="42.51344" lon="2.21662">
        <ele>1352.71</ele>
        <time>2018-09-23T15:40:54Z</time>
      </trkpt>
      <trkpt lat="42.51345" lon="2.21664">
        <ele>1353.19</ele>
        <time>2018-09-23T15:41:13Z</time>
      </trkpt>
      <trkpt lat="42.51342" lon="2.21662">
        <ele>1353.67</ele>
        <time>2018-09-23T15:41:36Z</time>
      </trkpt>
      <trkpt lat="42.51342" lon="2.21666">
        <ele>1354.15</ele>
        <time>2018-09-23T15:42:06Z</time>
      </trkpt>
      <trkpt lat="42.51342" lon="2.21663">
        <ele>1355.12</ele>
        <time>2018-09-23T15:42:34Z</time>
      </trkpt>
      <trkpt lat="42.51345" lon="2.21662">
        <ele>1351.75</ele>
        <time>2018-09-23T15:43:10Z</time>
      </trkpt>
      <trkpt lat="42.51343" lon="2.21665">
        <ele>1353.67</ele>
        <time>2018-09-23T15:43:45Z</time>
      </trkpt>
      <trkpt lat="42.51342" lon="2.21665">
        <ele>1354.15</ele>
        <time>2018-09-23T15:44:15Z</time>
      </trkpt>
      <trkpt lat="42.51343" lon="2.21664">
        <ele>1353.19</ele>
        <time>2018-09-23T15:44:46Z</time>
      </trkpt>
      <trkpt lat="42.51344" lon="2.21666">
        <ele>1353.67</ele>
        <time>2018-09-23T15:45:06Z</time>
      </trkpt>
      <trkpt lat="42.51344" lon="2.21662">
        <ele>1349.35</ele>
        <time>2018-09-23T15:45:35Z</time>
      </trkpt>
      <trkpt lat="42.51347" lon="2.21659">
        <ele>1348.39</ele>
        <time>2018-09-23T15:46:06Z</time>
      </trkpt>
      <trkpt lat="42.5135" lon="2.21657">
        <ele>1345.98</ele>
        <time>2018-09-23T15:46:28Z</time>
      </trkpt>
      <trkpt lat="42.51345" lon="2.21661">
        <ele>1347.91</ele>
        <time>2018-09-23T15:46:46Z</time>
      </trkpt>
      <trkpt lat="42.51342" lon="2.21661">
        <ele>1347.91</ele>
        <time>2018-09-23T15:46:51Z</time>
      </trkpt>
      <trkpt lat="42.51331" lon="2.21665">
        <ele>1347.91</ele>
        <time>2018-09-23T15:47:04Z</time>
      </trkpt>
      <trkpt lat="42.5133" lon="2.21665">
        <ele>1347.91</ele>
        <time>2018-09-23T15:47:10Z</time>
      </trkpt>
      <trkpt lat="42.51317" lon="2.21671">
        <ele>1346.94</ele>
        <time>2018-09-23T15:47:23Z</time>
      </trkpt>
      <trkpt lat="42.51304" lon="2.21678">
        <ele>1344.06</ele>
        <time>2018-09-23T15:47:37Z</time>
      </trkpt>
      <trkpt lat="42.51292" lon="2.21688">
        <ele>1344.54</ele>
        <time>2018-09-23T15:47:51Z</time>
      </trkpt>
      <trkpt lat="42.51287" lon="2.21695">
        <ele>1344.06</ele>
        <time>2018-09-23T15:47:58Z</time>
      </trkpt>
      <trkpt lat="42.51275" lon="2.21702">
        <ele>1343.1</ele>
        <time>2018-09-23T15:48:10Z</time>
      </trkpt>
      <trkpt lat="42.51263" lon="2.21714">
        <ele>1338.29</ele>
        <time>2018-09-23T15:48:24Z</time>
      </trkpt>
      <trkpt lat="42.51268" lon="2.21719">
        <ele>1335.89</ele>
        <time>2018-09-23T15:48:36Z</time>
      </trkpt>
      <trkpt lat="42.51269" lon="2.21719">
        <ele>1334.93</ele>
        <time>2018-09-23T15:48:37Z</time>
      </trkpt>
      <trkpt lat="42.51272" lon="2.21718">
        <ele>1330.6</ele>
        <time>2018-09-23T15:48:51Z</time>
      </trkpt>
      <trkpt lat="42.51279" lon="2.21718">
        <ele>1324.35</ele>
        <time>2018-09-23T15:49:10Z</time>
      </trkpt>
      <trkpt lat="42.51289" lon="2.21717">
        <ele>1323.39</ele>
        <time>2018-09-23T15:49:23Z</time>
      </trkpt>
      <trkpt lat="42.5129" lon="2.21717">
        <ele>1322.91</ele>
        <time>2018-09-23T15:49:24Z</time>
      </trkpt>
      <trkpt lat="42.51299" lon="2.21714">
        <ele>1321.95</ele>
        <time>2018-09-23T15:49:34Z</time>
      </trkpt>
      <trkpt lat="42.51313" lon="2.21715">
        <ele>1321.47</ele>
        <time>2018-09-23T15:49:47Z</time>
      </trkpt>
      <trkpt lat="42.51305" lon="2.21723">
        <ele>1319.55</ele>
        <time>2018-09-23T15:50:01Z</time>
      </trkpt>
      <trkpt lat="42.51294" lon="2.21731">
        <ele>1315.22</ele>
        <time>2018-09-23T15:50:15Z</time>
      </trkpt>
      <trkpt lat="42.51285" lon="2.21735">
        <ele>1311.38</ele>
        <time>2018-09-23T15:50:26Z</time>
      </trkpt>
      <trkpt lat="42.51273" lon="2.2175">
        <ele>1307.53</ele>
        <time>2018-09-23T15:50:40Z</time>
      </trkpt>
      <trkpt lat="42.51261" lon="2.21767">
        <ele>1305.13</ele>
        <time>2018-09-23T15:50:55Z</time>
      </trkpt>
      <trkpt lat="42.51247" lon="2.21776">
        <ele>1298.88</ele>
        <time>2018-09-23T15:51:09Z</time>
      </trkpt>
      <trkpt lat="42.51232" lon="2.21785">
        <ele>1294.55</ele>
        <time>2018-09-23T15:51:26Z</time>
      </trkpt>
      <trkpt lat="42.5122" lon="2.21786">
        <ele>1292.63</ele>
        <time>2018-09-23T15:51:40Z</time>
      </trkpt>
      <trkpt lat="42.5121" lon="2.21785">
        <ele>1295.03</ele>
        <time>2018-09-23T15:51:49Z</time>
      </trkpt>
      <trkpt lat="42.51202" lon="2.21791">
        <ele>1297.44</ele>
        <time>2018-09-23T15:52:00Z</time>
      </trkpt>
      <trkpt lat="42.51193" lon="2.21801">
        <ele>1298.4</ele>
        <time>2018-09-23T15:52:14Z</time>
      </trkpt>
      <trkpt lat="42.51182" lon="2.21808">
        <ele>1296.48</ele>
        <time>2018-09-23T15:52:26Z</time>
      </trkpt>
      <trkpt lat="42.51171" lon="2.21825">
        <ele>1295.99</ele>
        <time>2018-09-23T15:52:42Z</time>
      </trkpt>
      <trkpt lat="42.51166" lon="2.21831">
        <ele>1295.99</ele>
        <time>2018-09-23T15:52:56Z</time>
      </trkpt>
      <trkpt lat="42.51169" lon="2.21837">
        <ele>1295.03</ele>
        <time>2018-09-23T15:53:16Z</time>
      </trkpt>
      <trkpt lat="42.51164" lon="2.21847">
        <ele>1295.99</ele>
        <time>2018-09-23T15:53:28Z</time>
      </trkpt>
      <trkpt lat="42.51156" lon="2.21853">
        <ele>1293.11</ele>
        <time>2018-09-23T15:53:39Z</time>
      </trkpt>
      <trkpt lat="42.51148" lon="2.21865">
        <ele>1291.67</ele>
        <time>2018-09-23T15:53:51Z</time>
      </trkpt>
      <trkpt lat="42.5114" lon="2.2188">
        <ele>1290.71</ele>
        <time>2018-09-23T15:54:03Z</time>
      </trkpt>
      <trkpt lat="42.51138" lon="2.21881">
        <ele>1290.23</ele>
        <time>2018-09-23T15:54:05Z</time>
      </trkpt>
      <trkpt lat="42.51136" lon="2.21886">
        <ele>1288.3</ele>
        <time>2018-09-23T15:54:09Z</time>
      </trkpt>
      <trkpt lat="42.51131" lon="2.21906">
        <ele>1285.42</ele>
        <time>2018-09-23T15:54:22Z</time>
      </trkpt>
      <trkpt lat="42.51131" lon="2.21921">
        <ele>1282.06</ele>
        <time>2018-09-23T15:54:33Z</time>
      </trkpt>
      <trkpt lat="42.51138" lon="2.21924">
        <ele>1280.61</ele>
        <time>2018-09-23T15:54:46Z</time>
      </trkpt>
      <trkpt lat="42.51139" lon="2.21914">
        <ele>1281.09</ele>
        <time>2018-09-23T15:54:55Z</time>
      </trkpt>
      <trkpt lat="42.51149" lon="2.219">
        <ele>1280.61</ele>
        <time>2018-09-23T15:55:07Z</time>
      </trkpt>
      <trkpt lat="42.5115" lon="2.21895">
        <ele>1281.09</ele>
        <time>2018-09-23T15:55:13Z</time>
      </trkpt>
      <trkpt lat="42.51158" lon="2.21885">
        <ele>1279.17</ele>
        <time>2018-09-23T15:55:25Z</time>
      </trkpt>
      <trkpt lat="42.51169" lon="2.2188">
        <ele>1276.77</ele>
        <time>2018-09-23T15:55:39Z</time>
      </trkpt>
      <trkpt lat="42.51178" lon="2.21873">
        <ele>1273.88</ele>
        <time>2018-09-23T15:55:51Z</time>
      </trkpt>
      <trkpt lat="42.51187" lon="2.21868">
        <ele>1272.92</ele>
        <time>2018-09-23T15:56:01Z</time>
      </trkpt>
      <trkpt lat="42.51197" lon="2.21865">
        <ele>1271</ele>
        <time>2018-09-23T15:56:13Z</time>
      </trkpt>
      <trkpt lat="42.51208" lon="2.21867">
        <ele>1268.6</ele>
        <time>2018-09-23T15:56:26Z</time>
      </trkpt>
      <trkpt lat="42.51206" lon="2.21869">
        <ele>1266.67</ele>
        <time>2018-09-23T15:56:38Z</time>
      </trkpt>
      <trkpt lat="42.512" lon="2.21874">
        <ele>1262.83</ele>
        <time>2018-09-23T15:56:49Z</time>
      </trkpt>
      <trkpt lat="42.51192" lon="2.21879">
        <ele>1258.98</ele>
        <time>2018-09-23T15:57:00Z</time>
      </trkpt>
      <trkpt lat="42.51185" lon="2.21894">
        <ele>1255.14</ele>
        <time>2018-09-23T15:57:13Z</time>
      </trkpt>
      <trkpt lat="42.51179" lon="2.21914">
        <ele>1251.77</ele>
        <time>2018-09-23T15:57:26Z</time>
      </trkpt>
      <trkpt lat="42.51177" lon="2.21931">
        <ele>1248.41</ele>
        <time>2018-09-23T15:57:39Z</time>
      </trkpt>
      <trkpt lat="42.5118" lon="2.21949">
        <ele>1247.93</ele>
        <time>2018-09-23T15:57:53Z</time>
      </trkpt>
      <trkpt lat="42.51181" lon="2.21945">
        <ele>1247.45</ele>
        <time>2018-09-23T15:57:57Z</time>
      </trkpt>
      <trkpt lat="42.51185" lon="2.21928">
        <ele>1244.56</ele>
        <time>2018-09-23T15:58:09Z</time>
      </trkpt>
      <trkpt lat="42.5119" lon="2.21918">
        <ele>1243.6</ele>
        <time>2018-09-23T15:58:19Z</time>
      </trkpt>
      <trkpt lat="42.51198" lon="2.2191">
        <ele>1242.16</ele>
        <time>2018-09-23T15:58:30Z</time>
      </trkpt>
      <trkpt lat="42.51211" lon="2.21908">
        <ele>1240.72</ele>
        <time>2018-09-23T15:58:42Z</time>
      </trkpt>
      <trkpt lat="42.51213" lon="2.21912">
        <ele>1234.95</ele>
        <time>2018-09-23T15:58:55Z</time>
      </trkpt>
      <trkpt lat="42.51209" lon="2.21914">
        <ele>1232.55</ele>
        <time>2018-09-23T15:59:00Z</time>
      </trkpt>
      <trkpt lat="42.512" lon="2.21928">
        <ele>1227.26</ele>
        <time>2018-09-23T15:59:13Z</time>
      </trkpt>
      <trkpt lat="42.51196" lon="2.21941">
        <ele>1225.82</ele>
        <time>2018-09-23T15:59:24Z</time>
      </trkpt>
      <trkpt lat="42.51195" lon="2.21958">
        <ele>1224.86</ele>
        <time>2018-09-23T15:59:36Z</time>
      </trkpt>
      <trkpt lat="42.51192" lon="2.21967">
        <ele>1224.86</ele>
        <time>2018-09-23T15:59:43Z</time>
      </trkpt>
      <trkpt lat="42.51187" lon="2.21972">
        <ele>1223.9</ele>
        <time>2018-09-23T15:59:48Z</time>
      </trkpt>
      <trkpt lat="42.51185" lon="2.21987">
        <ele>1220.53</ele>
        <time>2018-09-23T15:59:59Z</time>
      </trkpt>
      <trkpt lat="42.51179" lon="2.21999">
        <ele>1219.09</ele>
        <time>2018-09-23T16:00:11Z</time>
      </trkpt>
      <trkpt lat="42.51175" lon="2.22012">
        <ele>1216.69</ele>
        <time>2018-09-23T16:00:23Z</time>
      </trkpt>
      <trkpt lat="42.51172" lon="2.22025">
        <ele>1213.8</ele>
        <time>2018-09-23T16:00:35Z</time>
      </trkpt>
      <trkpt lat="42.5117" lon="2.22045">
        <ele>1210.92</ele>
        <time>2018-09-23T16:00:47Z</time>
      </trkpt>
      <trkpt lat="42.51167" lon="2.22058">
        <ele>1208.51</ele>
        <time>2018-09-23T16:00:57Z</time>
      </trkpt>
      <trkpt lat="42.51165" lon="2.22075">
        <ele>1207.07</ele>
        <time>2018-09-23T16:01:09Z</time>
      </trkpt>
      <trkpt lat="42.51165" lon="2.22076">
        <ele>1207.07</ele>
        <time>2018-09-23T16:01:10Z</time>
      </trkpt>
      <trkpt lat="42.51168" lon="2.2208">
        <ele>1203.71</ele>
        <time>2018-09-23T16:01:24Z</time>
      </trkpt>
      <trkpt lat="42.51174" lon="2.2207">
        <ele>1202.27</ele>
        <time>2018-09-23T16:01:39Z</time>
      </trkpt>
      <trkpt lat="42.51186" lon="2.22056">
        <ele>1202.27</ele>
        <time>2018-09-23T16:01:51Z</time>
      </trkpt>
      <trkpt lat="42.51194" lon="2.2205">
        <ele>1203.71</ele>
        <time>2018-09-23T16:02:01Z</time>
      </trkpt>
      <trkpt lat="42.51201" lon="2.22042">
        <ele>1205.15</ele>
        <time>2018-09-23T16:02:12Z</time>
      </trkpt>
      <trkpt lat="42.51207" lon="2.22032">
        <ele>1201.79</ele>
        <time>2018-09-23T16:02:26Z</time>
      </trkpt>
      <trkpt lat="42.51215" lon="2.22021">
        <ele>1197.94</ele>
        <time>2018-09-23T16:02:39Z</time>
      </trkpt>
      <trkpt lat="42.51225" lon="2.22006">
        <ele>1195.06</ele>
        <time>2018-09-23T16:02:52Z</time>
      </trkpt>
      <trkpt lat="42.51232" lon="2.21998">
        <ele>1191.69</ele>
        <time>2018-09-23T16:03:02Z</time>
      </trkpt>
      <trkpt lat="42.51241" lon="2.21989">
        <ele>1188.33</ele>
        <time>2018-09-23T16:03:13Z</time>
      </trkpt>
      <trkpt lat="42.51246" lon="2.21992">
        <ele>1184.96</ele>
        <time>2018-09-23T16:03:24Z</time>
      </trkpt>
      <trkpt lat="42.51246" lon="2.21991">
        <ele>1184.48</ele>
        <time>2018-09-23T16:03:25Z</time>
      </trkpt>
      <trkpt lat="42.5124" lon="2.22001">
        <ele>1181.12</ele>
        <time>2018-09-23T16:03:35Z</time>
      </trkpt>
      <trkpt lat="42.51237" lon="2.2201">
        <ele>1178.71</ele>
        <time>2018-09-23T16:03:42Z</time>
      </trkpt>
      <trkpt lat="42.51233" lon="2.22023">
        <ele>1176.79</ele>
        <time>2018-09-23T16:03:52Z</time>
      </trkpt>
      <trkpt lat="42.51234" lon="2.22041">
        <ele>1172.47</ele>
        <time>2018-09-23T16:04:04Z</time>
      </trkpt>
      <trkpt lat="42.51236" lon="2.22059">
        <ele>1167.66</ele>
        <time>2018-09-23T16:04:18Z</time>
      </trkpt>
      <trkpt lat="42.51233" lon="2.22079">
        <ele>1164.77</ele>
        <time>2018-09-23T16:04:32Z</time>
      </trkpt>
      <trkpt lat="42.51229" lon="2.22089">
        <ele>1163.81</ele>
        <time>2018-09-23T16:04:42Z</time>
      </trkpt>
      <trkpt lat="42.51227" lon="2.22093">
        <ele>1162.85</ele>
        <time>2018-09-23T16:04:45Z</time>
      </trkpt>
      <trkpt lat="42.51223" lon="2.22107">
        <ele>1160.93</ele>
        <time>2018-09-23T16:04:58Z</time>
      </trkpt>
      <trkpt lat="42.51222" lon="2.22117">
        <ele>1159.01</ele>
        <time>2018-09-23T16:05:04Z</time>
      </trkpt>
      <trkpt lat="42.51221" lon="2.22142">
        <ele>1151.8</ele>
        <time>2018-09-23T16:05:19Z</time>
      </trkpt>
      <trkpt lat="42.51219" lon="2.22159">
        <ele>1146.51</ele>
        <time>2018-09-23T16:05:33Z</time>
      </trkpt>
      <trkpt lat="42.51218" lon="2.22171">
        <ele>1143.14</ele>
        <time>2018-09-23T16:05:42Z</time>
      </trkpt>
      <trkpt lat="42.51218" lon="2.22178">
        <ele>1143.14</ele>
        <time>2018-09-23T16:05:47Z</time>
      </trkpt>
      <trkpt lat="42.51227" lon="2.22192">
        <ele>1140.26</ele>
        <time>2018-09-23T16:05:58Z</time>
      </trkpt>
      <trkpt lat="42.51231" lon="2.2219">
        <ele>1141.7</ele>
        <time>2018-09-23T16:06:14Z</time>
      </trkpt>
      <trkpt lat="42.51235" lon="2.22178">
        <ele>1138.82</ele>
        <time>2018-09-23T16:06:38Z</time>
      </trkpt>
      <trkpt lat="42.51235" lon="2.22177">
        <ele>1138.34</ele>
        <time>2018-09-23T16:06:40Z</time>
      </trkpt>
      <trkpt lat="42.51239" lon="2.22175">
        <ele>1136.9</ele>
        <time>2018-09-23T16:06:52Z</time>
      </trkpt>
      <trkpt lat="42.51243" lon="2.22169">
        <ele>1135.45</ele>
        <time>2018-09-23T16:07:05Z</time>
      </trkpt>
      <trkpt lat="42.5124" lon="2.22164">
        <ele>1130.65</ele>
        <time>2018-09-23T16:07:31Z</time>
      </trkpt>
      <trkpt lat="42.51243" lon="2.22159">
        <ele>1131.13</ele>
        <time>2018-09-23T16:07:46Z</time>
      </trkpt>
      <trkpt lat="42.51254" lon="2.22148">
        <ele>1127.76</ele>
        <time>2018-09-23T16:07:59Z</time>
      </trkpt>
      <trkpt lat="42.5126" lon="2.22138">
        <ele>1123.92</ele>
        <time>2018-09-23T16:08:10Z</time>
      </trkpt>
      <trkpt lat="42.5127" lon="2.2213">
        <ele>1122</ele>
        <time>2018-09-23T16:08:21Z</time>
      </trkpt>
      <trkpt lat="42.51277" lon="2.22124">
        <ele>1122.48</ele>
        <time>2018-09-23T16:08:29Z</time>
      </trkpt>
      <trkpt lat="42.51282" lon="2.22116">
        <ele>1121.03</ele>
        <time>2018-09-23T16:08:38Z</time>
      </trkpt>
      <trkpt lat="42.51287" lon="2.22102">
        <ele>1117.67</ele>
        <time>2018-09-23T16:08:49Z</time>
      </trkpt>
      <trkpt lat="42.51291" lon="2.22086">
        <ele>1114.31</ele>
        <time>2018-09-23T16:09:01Z</time>
      </trkpt>
      <trkpt lat="42.51306" lon="2.22077">
        <ele>1112.86</ele>
        <time>2018-09-23T16:09:12Z</time>
      </trkpt>
      <trkpt lat="42.51311" lon="2.2208">
        <ele>1108.06</ele>
        <time>2018-09-23T16:09:25Z</time>
      </trkpt>
      <trkpt lat="42.51309" lon="2.22086">
        <ele>1106.13</ele>
        <time>2018-09-23T16:09:29Z</time>
      </trkpt>
      <trkpt lat="42.51305" lon="2.22109">
        <ele>1100.85</ele>
        <time>2018-09-23T16:09:43Z</time>
      </trkpt>
      <trkpt lat="42.51303" lon="2.22128">
        <ele>1096.04</ele>
        <time>2018-09-23T16:09:54Z</time>
      </trkpt>
      <trkpt lat="42.51302" lon="2.22134">
        <ele>1094.12</ele>
        <time>2018-09-23T16:09:58Z</time>
      </trkpt>
      <trkpt lat="42.51299" lon="2.22148">
        <ele>1089.31</ele>
        <time>2018-09-23T16:10:08Z</time>
      </trkpt>
      <trkpt lat="42.5131" lon="2.22147">
        <ele>1089.31</ele>
        <time>2018-09-23T16:10:17Z</time>
      </trkpt>
      <trkpt lat="42.51316" lon="2.2213">
        <ele>1084.5</ele>
        <time>2018-09-23T16:10:28Z</time>
      </trkpt>
      <trkpt lat="42.51321" lon="2.2212">
        <ele>1082.1</ele>
        <time>2018-09-23T16:10:38Z</time>
      </trkpt>
      <trkpt lat="42.51332" lon="2.22109">
        <ele>1079.7</ele>
        <time>2018-09-23T16:10:48Z</time>
      </trkpt>
      <trkpt lat="42.51338" lon="2.22108">
        <ele>1077.78</ele>
        <time>2018-09-23T16:10:53Z</time>
      </trkpt>
      <trkpt lat="42.51339" lon="2.22117">
        <ele>1074.41</ele>
        <time>2018-09-23T16:11:04Z</time>
      </trkpt>
      <trkpt lat="42.5133" lon="2.22125">
        <ele>1072.49</ele>
        <time>2018-09-23T16:11:13Z</time>
      </trkpt>
      <trkpt lat="42.51327" lon="2.22143">
        <ele>1068.64</ele>
        <time>2018-09-23T16:11:25Z</time>
      </trkpt>
      <trkpt lat="42.51327" lon="2.2215">
        <ele>1067.68</ele>
        <time>2018-09-23T16:11:28Z</time>
      </trkpt>
      <trkpt lat="42.51322" lon="2.22177">
        <ele>1063.36</ele>
        <time>2018-09-23T16:11:42Z</time>
      </trkpt>
      <trkpt lat="42.51315" lon="2.22196">
        <ele>1060.47</ele>
        <time>2018-09-23T16:11:55Z</time>
      </trkpt>
      <trkpt lat="42.51311" lon="2.22215">
        <ele>1056.63</ele>
        <time>2018-09-23T16:12:08Z</time>
      </trkpt>
      <trkpt lat="42.51316" lon="2.22217">
        <ele>1054.7</ele>
        <time>2018-09-23T16:12:11Z</time>
      </trkpt>
      <trkpt lat="42.51329" lon="2.22215">
        <ele>1051.34</ele>
        <time>2018-09-23T16:12:21Z</time>
      </trkpt>
      <trkpt lat="42.5134" lon="2.22201">
        <ele>1047.97</ele>
        <time>2018-09-23T16:12:35Z</time>
      </trkpt>
      <trkpt lat="42.51345" lon="2.22194">
        <ele>1048.45</ele>
        <time>2018-09-23T16:12:45Z</time>
      </trkpt>
      <trkpt lat="42.51355" lon="2.22183">
        <ele>1043.65</ele>
        <time>2018-09-23T16:12:58Z</time>
      </trkpt>
      <trkpt lat="42.51362" lon="2.22175">
        <ele>1043.17</ele>
        <time>2018-09-23T16:13:05Z</time>
      </trkpt>
      <trkpt lat="42.51373" lon="2.22168">
        <ele>1040.76</ele>
        <time>2018-09-23T16:13:17Z</time>
      </trkpt>
      <trkpt lat="42.51382" lon="2.22166">
        <ele>1037.88</ele>
        <time>2018-09-23T16:13:26Z</time>
      </trkpt>
      <trkpt lat="42.51398" lon="2.22165">
        <ele>1029.71</ele>
        <time>2018-09-23T16:13:39Z</time>
      </trkpt>
      <trkpt lat="42.51401" lon="2.22164">
        <ele>1028.27</ele>
        <time>2018-09-23T16:13:41Z</time>
      </trkpt>
      <trkpt lat="42.51406" lon="2.22163">
        <ele>1025.86</ele>
        <time>2018-09-23T16:13:46Z</time>
      </trkpt>
      <trkpt lat="42.51422" lon="2.22163">
        <ele>1019.13</ele>
        <time>2018-09-23T16:14:02Z</time>
      </trkpt>
      <trkpt lat="42.51432" lon="2.22168">
        <ele>1015.29</ele>
        <time>2018-09-23T16:14:12Z</time>
      </trkpt>
      <trkpt lat="42.51449" lon="2.22178">
        <ele>1013.85</ele>
        <time>2018-09-23T16:14:26Z</time>
      </trkpt>
      <trkpt lat="42.51454" lon="2.22179">
        <ele>1013.37</ele>
        <time>2018-09-23T16:14:29Z</time>
      </trkpt>
      <trkpt lat="42.51466" lon="2.22175">
        <ele>1010.48</ele>
        <time>2018-09-23T16:14:38Z</time>
      </trkpt>
      <trkpt lat="42.5148" lon="2.22176">
        <ele>1008.08</ele>
        <time>2018-09-23T16:14:47Z</time>
      </trkpt>
      <trkpt lat="42.51487" lon="2.22176">
        <ele>1008.56</ele>
        <time>2018-09-23T16:14:52Z</time>
      </trkpt>
      <trkpt lat="42.51492" lon="2.22175">
        <ele>1007.6</ele>
        <time>2018-09-23T16:14:57Z</time>
      </trkpt>
      <trkpt lat="42.51499" lon="2.2218">
        <ele>1003.75</ele>
        <time>2018-09-23T16:15:10Z</time>
      </trkpt>
      <trkpt lat="42.51507" lon="2.2218">
        <ele>1002.79</ele>
        <time>2018-09-23T16:15:34Z</time>
      </trkpt>
      <trkpt lat="42.51508" lon="2.2218">
        <ele>1002.79</ele>
        <time>2018-09-23T16:15:35Z</time>
      </trkpt>
      <trkpt lat="42.51516" lon="2.22181">
        <ele>1002.79</ele>
        <time>2018-09-23T16:15:42Z</time>
      </trkpt>
      <trkpt lat="42.51521" lon="2.22188">
        <ele>1003.75</ele>
        <time>2018-09-23T16:15:47Z</time>
      </trkpt>
      <trkpt lat="42.51527" lon="2.2219">
        <ele>1005.2</ele>
        <time>2018-09-23T16:15:52Z</time>
      </trkpt>
      <trkpt lat="42.51542" lon="2.22187">
        <ele>1005.2</ele>
        <time>2018-09-23T16:16:07Z</time>
      </trkpt>
      <trkpt lat="42.51546" lon="2.22185">
        <ele>1004.72</ele>
        <time>2018-09-23T16:16:10Z</time>
      </trkpt>
      <trkpt lat="42.5156" lon="2.22185">
        <ele>1004.23</ele>
        <time>2018-09-23T16:16:21Z</time>
      </trkpt>
      <trkpt lat="42.51567" lon="2.22189">
        <ele>1002.31</ele>
        <time>2018-09-23T16:16:27Z</time>
      </trkpt>
      <trkpt lat="42.51569" lon="2.2219">
        <ele>1001.83</ele>
        <time>2018-09-23T16:16:29Z</time>
      </trkpt>
      <trkpt lat="42.51574" lon="2.22193">
        <ele>1000.39</ele>
        <time>2018-09-23T16:16:34Z</time>
      </trkpt>
      <trkpt lat="42.51578" lon="2.22193">
        <ele>999.43</ele>
        <time>2018-09-23T16:16:38Z</time>
      </trkpt>
      <trkpt lat="42.51582" lon="2.22193">
        <ele>998.47</ele>
        <time>2018-09-23T16:16:41Z</time>
      </trkpt>
      <trkpt lat="42.51585" lon="2.22194">
        <ele>997.02</ele>
        <time>2018-09-23T16:16:44Z</time>
      </trkpt>
      <trkpt lat="42.51598" lon="2.22192">
        <ele>992.22</ele>
        <time>2018-09-23T16:16:58Z</time>
      </trkpt>
      <trkpt lat="42.5161" lon="2.22195">
        <ele>986.93</ele>
        <time>2018-09-23T16:17:10Z</time>
      </trkpt>
      <trkpt lat="42.51611" lon="2.22197">
        <ele>985.01</ele>
        <time>2018-09-23T16:17:19Z</time>
      </trkpt>
      <trkpt lat="42.51604" lon="2.22197">
        <ele>983.57</ele>
        <time>2018-09-23T16:17:31Z</time>
      </trkpt>
      <trkpt lat="42.51596" lon="2.22198">
        <ele>983.09</ele>
        <time>2018-09-23T16:17:37Z</time>
      </trkpt>
      <trkpt lat="42.51592" lon="2.22198">
        <ele>983.57</ele>
        <time>2018-09-23T16:17:40Z</time>
      </trkpt>
      <trkpt lat="42.51573" lon="2.22198">
        <ele>986.45</ele>
        <time>2018-09-23T16:17:55Z</time>
      </trkpt>
      <trkpt lat="42.51572" lon="2.22198">
        <ele>986.45</ele>
        <time>2018-09-23T16:17:56Z</time>
      </trkpt>
      <trkpt lat="42.51568" lon="2.22198">
        <ele>987.41</ele>
        <time>2018-09-23T16:18:00Z</time>
      </trkpt>
      <trkpt lat="42.51555" lon="2.22199">
        <ele>988.85</ele>
        <time>2018-09-23T16:18:10Z</time>
      </trkpt>
      <trkpt lat="42.51544" lon="2.22206">
        <ele>989.81</ele>
        <time>2018-09-23T16:18:18Z</time>
      </trkpt>
      <trkpt lat="42.51533" lon="2.22207">
        <ele>990.78</ele>
        <time>2018-09-23T16:18:26Z</time>
      </trkpt>
      <trkpt lat="42.51518" lon="2.22205">
        <ele>992.7</ele>
        <time>2018-09-23T16:18:36Z</time>
      </trkpt>
      <trkpt lat="42.51506" lon="2.22199">
        <ele>995.58</ele>
        <time>2018-09-23T16:18:47Z</time>
      </trkpt>
      <trkpt lat="42.51493" lon="2.22196">
        <ele>996.06</ele>
        <time>2018-09-23T16:18:57Z</time>
      </trkpt>
      <trkpt lat="42.51477" lon="2.22197">
        <ele>1000.87</ele>
        <time>2018-09-23T16:19:11Z</time>
      </trkpt>
      <trkpt lat="42.51468" lon="2.22199">
        <ele>998.95</ele>
        <time>2018-09-23T16:19:22Z</time>
      </trkpt>
      <trkpt lat="42.51469" lon="2.22203">
        <ele>996.54</ele>
        <time>2018-09-23T16:19:40Z</time>
      </trkpt>
      <trkpt lat="42.51466" lon="2.22206">
        <ele>996.54</ele>
        <time>2018-09-23T16:19:57Z</time>
      </trkpt>
      <trkpt lat="42.51466" lon="2.22206">
        <ele>995.1</ele>
        <time>2018-09-23T16:20:32Z</time>
      </trkpt>
      <trkpt lat="42.51464" lon="2.22207">
        <ele>995.1</ele>
        <time>2018-09-23T16:20:59Z</time>
      </trkpt>
      <trkpt lat="42.51464" lon="2.22208">
        <ele>996.06</ele>
        <time>2018-09-23T16:21:27Z</time>
      </trkpt>
      <trkpt lat="42.51467" lon="2.22205">
        <ele>995.1</ele>
        <time>2018-09-23T16:21:50Z</time>
      </trkpt>
      <trkpt lat="42.51464" lon="2.22209">
        <ele>991.74</ele>
        <time>2018-09-23T16:22:13Z</time>
      </trkpt>
      <trkpt lat="42.51466" lon="2.22208">
        <ele>998.47</ele>
        <time>2018-09-23T16:22:37Z</time>
      </trkpt>
      <trkpt lat="42.51465" lon="2.22204">
        <ele>1003.27</ele>
        <time>2018-09-23T16:22:53Z</time>
      </trkpt>
      <trkpt lat="42.51468" lon="2.22206">
        <ele>1006.16</ele>
        <time>2018-09-23T16:23:19Z</time>
      </trkpt>
      <trkpt lat="42.5147" lon="2.22204">
        <ele>1004.23</ele>
        <time>2018-09-23T16:23:37Z</time>
      </trkpt>
      <trkpt lat="42.51469" lon="2.22206">
        <ele>1004.23</ele>
        <time>2018-09-23T16:23:55Z</time>
      </trkpt>
      <trkpt lat="42.51465" lon="2.22207">
        <ele>1005.68</ele>
        <time>2018-09-23T16:24:14Z</time>
      </trkpt>
      <trkpt lat="42.51458" lon="2.22204">
        <ele>1005.2</ele>
        <time>2018-09-23T16:24:27Z</time>
      </trkpt>
      <trkpt lat="42.51453" lon="2.22206">
        <ele>1004.23</ele>
        <time>2018-09-23T16:24:38Z</time>
      </trkpt>
      <trkpt lat="42.51451" lon="2.22205">
        <ele>1004.23</ele>
        <time>2018-09-23T16:24:40Z</time>
      </trkpt>
      <trkpt lat="42.51435" lon="2.22201">
        <ele>1005.2</ele>
        <time>2018-09-23T16:24:53Z</time>
      </trkpt>
      <trkpt lat="42.51429" lon="2.22198">
        <ele>1003.27</ele>
        <time>2018-09-23T16:24:58Z</time>
      </trkpt>
      <trkpt lat="42.51419" lon="2.22195">
        <ele>1001.83</ele>
        <time>2018-09-23T16:25:08Z</time>
      </trkpt>
      <trkpt lat="42.51413" lon="2.222">
        <ele>998.95</ele>
        <time>2018-09-23T16:25:21Z</time>
      </trkpt>
      <trkpt lat="42.5141" lon="2.22205">
        <ele>1000.39</ele>
        <time>2018-09-23T16:25:28Z</time>
      </trkpt>
      <trkpt lat="42.51396" lon="2.22224">
        <ele>1001.35</ele>
        <time>2018-09-23T16:25:40Z</time>
      </trkpt>
      <trkpt lat="42.51386" lon="2.22246">
        <ele>1005.68</ele>
        <time>2018-09-23T16:25:54Z</time>
      </trkpt>
      <trkpt lat="42.51383" lon="2.22263">
        <ele>1009.04</ele>
        <time>2018-09-23T16:26:06Z</time>
      </trkpt>
      <trkpt lat="42.51376" lon="2.22285">
        <ele>1012.89</ele>
        <time>2018-09-23T16:26:18Z</time>
      </trkpt>
      <trkpt lat="42.51367" lon="2.22308">
        <ele>1013.85</ele>
        <time>2018-09-23T16:26:32Z</time>
      </trkpt>
      <trkpt lat="42.51366" lon="2.22321">
        <ele>1013.37</ele>
        <time>2018-09-23T16:26:38Z</time>
      </trkpt>
      <trkpt lat="42.51362" lon="2.22334">
        <ele>1012.89</ele>
        <time>2018-09-23T16:26:45Z</time>
      </trkpt>
      <trkpt lat="42.51351" lon="2.22355">
        <ele>1010.96</ele>
        <time>2018-09-23T16:26:58Z</time>
      </trkpt>
      <trkpt lat="42.51348" lon="2.2237">
        <ele>1010</ele>
        <time>2018-09-23T16:27:12Z</time>
      </trkpt>
      <trkpt lat="42.51355" lon="2.22376">
        <ele>1005.2</ele>
        <time>2018-09-23T16:27:28Z</time>
      </trkpt>
      <trkpt lat="42.51348" lon="2.2238">
        <ele>1005.2</ele>
        <time>2018-09-23T16:27:33Z</time>
      </trkpt>
      <trkpt lat="42.5133" lon="2.22385">
        <ele>1005.2</ele>
        <time>2018-09-23T16:27:45Z</time>
      </trkpt>
      <trkpt lat="42.51308" lon="2.224">
        <ele>1002.79</ele>
        <time>2018-09-23T16:28:19Z</time>
      </trkpt>
      <trkpt lat="42.51303" lon="2.2239">
        <ele>1003.75</ele>
        <time>2018-09-23T16:28:32Z</time>
      </trkpt>
      <trkpt lat="42.51289" lon="2.22399">
        <ele>1000.87</ele>
        <time>2018-09-23T16:28:49Z</time>
      </trkpt>
      <trkpt lat="42.51272" lon="2.2248">
        <ele>997.02</ele>
        <time>2018-09-23T16:29:11Z</time>
      </trkpt>
      <trkpt lat="42.51298" lon="2.22478">
        <ele>1001.83</ele>
        <time>2018-09-23T16:29:22Z</time>
      </trkpt>
      <trkpt lat="42.51315" lon="2.22477">
        <ele>1005.2</ele>
        <time>2018-09-23T16:29:35Z</time>
      </trkpt>
      <trkpt lat="42.51328" lon="2.22525">
        <ele>1004.72</ele>
        <time>2018-09-23T16:29:48Z</time>
      </trkpt>
      <trkpt lat="42.51336" lon="2.22559">
        <ele>1003.27</ele>
        <time>2018-09-23T16:30:07Z</time>
      </trkpt>
      <trkpt lat="42.51357" lon="2.22574">
        <ele>1003.75</ele>
        <time>2018-09-23T16:30:26Z</time>
      </trkpt>
      <trkpt lat="42.51344" lon="2.22565">
        <ele>1004.72</ele>
        <time>2018-09-23T16:30:46Z</time>
      </trkpt>
      <trkpt lat="42.5136" lon="2.22559">
        <ele>1012.41</ele>
        <time>2018-09-23T16:31:05Z</time>
      </trkpt>
      <trkpt lat="42.51364" lon="2.22568">
        <ele>1022.98</ele>
        <time>2018-09-23T16:31:24Z</time>
      </trkpt>
      <trkpt lat="42.51358" lon="2.22568">
        <ele>1026.83</ele>
        <time>2018-09-23T16:31:33Z</time>
      </trkpt>
      <trkpt lat="42.51353" lon="2.22571">
        <ele>1026.83</ele>
        <time>2018-09-23T16:31:43Z</time>
      </trkpt>
      <trkpt lat="42.51339" lon="2.22552">
        <ele>1034.52</ele>
        <time>2018-09-23T16:31:58Z</time>
      </trkpt>
      <trkpt lat="42.51278" lon="2.22491">
        <ele>1047.97</ele>
        <time>2018-09-23T16:32:07Z</time>
      </trkpt>
      <trkpt lat="42.51251" lon="2.22464">
        <ele>1051.82</ele>
        <time>2018-09-23T16:32:16Z</time>
      </trkpt>
      <trkpt lat="42.51224" lon="2.22436">
        <ele>1049.9</ele>
        <time>2018-09-23T16:32:32Z</time>
      </trkpt>
      <trkpt lat="42.51222" lon="2.22419">
        <ele>1049.9</ele>
        <time>2018-09-23T16:32:46Z</time>
      </trkpt>
      <trkpt lat="42.5122" lon="2.22426">
        <ele>1049.9</ele>
        <time>2018-09-23T16:32:59Z</time>
      </trkpt>
      <trkpt lat="42.51189" lon="2.22512">
        <ele>1052.3</ele>
        <time>2018-09-23T16:33:20Z</time>
      </trkpt>
      <trkpt lat="42.51156" lon="2.22519">
        <ele>1054.7</ele>
        <time>2018-09-23T16:33:37Z</time>
      </trkpt>
      <trkpt lat="42.51152" lon="2.2255">
        <ele>1056.15</ele>
        <time>2018-09-23T16:33:58Z</time>
      </trkpt>
      <trkpt lat="42.51154" lon="2.22551">
        <ele>1056.63</ele>
        <time>2018-09-23T16:34:08Z</time>
      </trkpt>
      <trkpt lat="42.51172" lon="2.22505">
        <ele>1064.32</ele>
        <time>2018-09-23T16:34:21Z</time>
      </trkpt>
      <trkpt lat="42.51182" lon="2.22499">
        <ele>1064.8</ele>
        <time>2018-09-23T16:34:32Z</time>
      </trkpt>
      <trkpt lat="42.512" lon="2.2248">
        <ele>1065.28</ele>
        <time>2018-09-23T16:34:47Z</time>
      </trkpt>
      <trkpt lat="42.51216" lon="2.22452">
        <ele>1064.8</ele>
        <time>2018-09-23T16:34:59Z</time>
      </trkpt>
      <trkpt lat="42.51212" lon="2.2245">
        <ele>1064.8</ele>
        <time>2018-09-23T16:35:10Z</time>
      </trkpt>
      <trkpt lat="42.51208" lon="2.22449">
        <ele>1063.84</ele>
        <time>2018-09-23T16:35:20Z</time>
      </trkpt>
      <trkpt lat="42.5121" lon="2.2245">
        <ele>1063.36</ele>
        <time>2018-09-23T16:35:21Z</time>
      </trkpt>
      <trkpt lat="42.51215" lon="2.22457">
        <ele>1062.87</ele>
        <time>2018-09-23T16:35:30Z</time>
      </trkpt>
      <trkpt lat="42.51221" lon="2.22458">
        <ele>1062.39</ele>
        <time>2018-09-23T16:35:36Z</time>
      </trkpt>
      <trkpt lat="42.5123" lon="2.22455">
        <ele>1061.91</ele>
        <time>2018-09-23T16:35:45Z</time>
      </trkpt>
      <trkpt lat="42.51234" lon="2.22457">
        <ele>1061.43</ele>
        <time>2018-09-23T16:35:48Z</time>
      </trkpt>
      <trkpt lat="42.51244" lon="2.22443">
        <ele>1060.47</ele>
        <time>2018-09-23T16:36:01Z</time>
      </trkpt>
      <trkpt lat="42.51259" lon="2.22445">
        <ele>1061.91</ele>
        <time>2018-09-23T16:36:13Z</time>
      </trkpt>
      <trkpt lat="42.5128" lon="2.22449">
        <ele>1062.87</ele>
        <time>2018-09-23T16:36:23Z</time>
      </trkpt>
      <trkpt lat="42.51287" lon="2.22452">
        <ele>1062.87</ele>
        <time>2018-09-23T16:36:29Z</time>
      </trkpt>
      <trkpt lat="42.5129" lon="2.22435">
        <ele>1065.28</ele>
        <time>2018-09-23T16:36:48Z</time>
      </trkpt>
      <trkpt lat="42.51299" lon="2.22415">
        <ele>1070.57</ele>
        <time>2018-09-23T16:37:10Z</time>
      </trkpt>
      <trkpt lat="42.51307" lon="2.22411">
        <ele>1071.53</ele>
        <time>2018-09-23T16:37:24Z</time>
      </trkpt>
      <trkpt lat="42.51315" lon="2.22406">
        <ele>1072.49</ele>
        <time>2018-09-23T16:37:38Z</time>
      </trkpt>
      <trkpt lat="42.51319" lon="2.2241">
        <ele>1072.49</ele>
        <time>2018-09-23T16:37:48Z</time>
      </trkpt>
      <trkpt lat="42.51317" lon="2.22445">
        <ele>1073.93</ele>
        <time>2018-09-23T16:38:05Z</time>
      </trkpt>
      <trkpt lat="42.51315" lon="2.22447">
        <ele>1073.93</ele>
        <time>2018-09-23T16:38:06Z</time>
      </trkpt>
      <trkpt lat="42.51316" lon="2.22452">
        <ele>1075.37</ele>
        <time>2018-09-23T16:38:09Z</time>
      </trkpt>
      <trkpt lat="42.51307" lon="2.22451">
        <ele>1075.85</ele>
        <time>2018-09-23T16:38:15Z</time>
      </trkpt>
      <trkpt lat="42.51316" lon="2.22442">
        <ele>1077.78</ele>
        <time>2018-09-23T16:38:31Z</time>
      </trkpt>
      <trkpt lat="42.5132" lon="2.22437">
        <ele>1078.26</ele>
        <time>2018-09-23T16:38:35Z</time>
      </trkpt>
      <trkpt lat="42.51323" lon="2.22437">
        <ele>1078.74</ele>
        <time>2018-09-23T16:38:38Z</time>
      </trkpt>
      <trkpt lat="42.51327" lon="2.22438">
        <ele>1078.74</ele>
        <time>2018-09-23T16:38:41Z</time>
      </trkpt>
      <trkpt lat="42.51335" lon="2.22429">
        <ele>1078.26</ele>
        <time>2018-09-23T16:38:47Z</time>
      </trkpt>
      <trkpt lat="42.51342" lon="2.22392">
        <ele>1070.08</ele>
        <time>2018-09-23T16:38:59Z</time>
      </trkpt>
      <trkpt lat="42.51345" lon="2.22386">
        <ele>1068.16</ele>
        <time>2018-09-23T16:39:02Z</time>
      </trkpt>
      <trkpt lat="42.51355" lon="2.22375">
        <ele>1064.32</ele>
        <time>2018-09-23T16:39:09Z</time>
      </trkpt>
      <trkpt lat="42.51358" lon="2.22341">
        <ele>1050.38</ele>
        <time>2018-09-23T16:39:20Z</time>
      </trkpt>
      <trkpt lat="42.51358" lon="2.2233">
        <ele>1045.57</ele>
        <time>2018-09-23T16:39:25Z</time>
      </trkpt>
      <trkpt lat="42.51359" lon="2.22316">
        <ele>1041.25</ele>
        <time>2018-09-23T16:39:34Z</time>
      </trkpt>
      <trkpt lat="42.51362" lon="2.22307">
        <ele>1038.84</ele>
        <time>2018-09-23T16:39:39Z</time>
      </trkpt>
      <trkpt lat="42.51368" lon="2.22286">
        <ele>1037.88</ele>
        <time>2018-09-23T16:39:52Z</time>
      </trkpt>
      <trkpt lat="42.51372" lon="2.22278">
        <ele>1036.92</ele>
        <time>2018-09-23T16:39:58Z</time>
      </trkpt>
      <trkpt lat="42.51376" lon="2.22271">
        <ele>1035.48</ele>
        <time>2018-09-23T16:40:02Z</time>
      </trkpt>
      <trkpt lat="42.51381" lon="2.22264">
        <ele>1034.52</ele>
        <time>2018-09-23T16:40:05Z</time>
      </trkpt>
      <trkpt lat="42.51395" lon="2.22247">
        <ele>1031.15</ele>
        <time>2018-09-23T16:40:17Z</time>
      </trkpt>
      <trkpt lat="42.51401" lon="2.22232">
        <ele>1026.34</ele>
        <time>2018-09-23T16:40:26Z</time>
      </trkpt>
      <trkpt lat="42.51414" lon="2.22213">
        <ele>1018.65</ele>
        <time>2018-09-23T16:40:38Z</time>
      </trkpt>
      <trkpt lat="42.51425" lon="2.22204">
        <ele>1014.33</ele>
        <time>2018-09-23T16:40:54Z</time>
      </trkpt>
      <trkpt lat="42.51428" lon="2.22205">
        <ele>1011.93</ele>
        <time>2018-09-23T16:41:00Z</time>
      </trkpt>
      <trkpt lat="42.5143" lon="2.22206">
        <ele>1010.48</ele>
        <time>2018-09-23T16:41:02Z</time>
      </trkpt>
      <trkpt lat="42.51434" lon="2.22206">
        <ele>1008.08</ele>
        <time>2018-09-23T16:41:06Z</time>
      </trkpt>
      <trkpt lat="42.51436" lon="2.22208">
        <ele>1007.12</ele>
        <time>2018-09-23T16:41:09Z</time>
      </trkpt>
      <trkpt lat="42.5144" lon="2.22209">
        <ele>1006.16</ele>
        <time>2018-09-23T16:41:12Z</time>
      </trkpt>
      <trkpt lat="42.51455" lon="2.22209">
        <ele>1002.79</ele>
        <time>2018-09-23T16:41:26Z</time>
      </trkpt>
      <trkpt lat="42.51454" lon="2.22211">
        <ele>1001.35</ele>
        <time>2018-09-23T16:41:39Z</time>
      </trkpt>
      <trkpt lat="42.51456" lon="2.22213">
        <ele>998.95</ele>
        <time>2018-09-23T16:41:54Z</time>
      </trkpt>
      <trkpt lat="42.51455" lon="2.22209">
        <ele>999.91</ele>
        <time>2018-09-23T16:42:09Z</time>
      </trkpt>
      <trkpt lat="42.51457" lon="2.22205">
        <ele>999.91</ele>
        <time>2018-09-23T16:42:23Z</time>
      </trkpt>
      <trkpt lat="42.51457" lon="2.2221">
        <ele>1000.39</ele>
        <time>2018-09-23T16:42:37Z</time>
      </trkpt>
      <trkpt lat="42.51464" lon="2.22211">
        <ele>1001.83</ele>
        <time>2018-09-23T16:42:50Z</time>
      </trkpt>
      <trkpt lat="42.51464" lon="2.22211">
        <ele>1001.83</ele>
        <time>2018-09-23T16:42:54Z</time>
      </trkpt>
      <trkpt lat="42.51473" lon="2.22206">
        <ele>999.91</ele>
        <time>2018-09-23T16:43:03Z</time>
      </trkpt>
      <trkpt lat="42.51483" lon="2.22201">
        <ele>997.02</ele>
        <time>2018-09-23T16:43:14Z</time>
      </trkpt>
      <trkpt lat="42.51493" lon="2.22204">
        <ele>997.02</ele>
        <time>2018-09-23T16:43:21Z</time>
      </trkpt>
      <trkpt lat="42.51496" lon="2.22205">
        <ele>997.51</ele>
        <time>2018-09-23T16:43:23Z</time>
      </trkpt>
      <trkpt lat="42.5151" lon="2.22209">
        <ele>995.58</ele>
        <time>2018-09-23T16:43:35Z</time>
      </trkpt>
      <trkpt lat="42.51514" lon="2.22211">
        <ele>995.1</ele>
        <time>2018-09-23T16:43:38Z</time>
      </trkpt>
      <trkpt lat="42.5152" lon="2.22213">
        <ele>995.1</ele>
        <time>2018-09-23T16:43:44Z</time>
      </trkpt>
      <trkpt lat="42.51522" lon="2.22214">
        <ele>995.1</ele>
        <time>2018-09-23T16:43:46Z</time>
      </trkpt>
      <trkpt lat="42.51532" lon="2.22214">
        <ele>995.1</ele>
        <time>2018-09-23T16:43:54Z</time>
      </trkpt>
      <trkpt lat="42.51539" lon="2.22213">
        <ele>994.62</ele>
        <time>2018-09-23T16:43:58Z</time>
      </trkpt>
      <trkpt lat="42.51557" lon="2.22203">
        <ele>997.02</ele>
        <time>2018-09-23T16:44:13Z</time>
      </trkpt>
      <trkpt lat="42.51559" lon="2.22202">
        <ele>995.58</ele>
        <time>2018-09-23T16:44:15Z</time>
      </trkpt>
      <trkpt lat="42.51567" lon="2.22204">
        <ele>995.1</ele>
        <time>2018-09-23T16:44:20Z</time>
      </trkpt>
      <trkpt lat="42.51579" lon="2.22204">
        <ele>995.1</ele>
        <time>2018-09-23T16:44:28Z</time>
      </trkpt>
      <trkpt lat="42.51583" lon="2.22202">
        <ele>995.1</ele>
        <time>2018-09-23T16:44:31Z</time>
      </trkpt>
      <trkpt lat="42.51588" lon="2.22201">
        <ele>995.1</ele>
        <time>2018-09-23T16:44:35Z</time>
      </trkpt>
      <trkpt lat="42.51598" lon="2.22198">
        <ele>994.62</ele>
        <time>2018-09-23T16:44:46Z</time>
      </trkpt>
      <trkpt lat="42.51601" lon="2.22197">
        <ele>994.62</ele>
        <time>2018-09-23T16:44:59Z</time>
      </trkpt>
      <trkpt lat="42.51611" lon="2.22201">
        <ele>995.1</ele>
        <time>2018-09-23T16:45:14Z</time>
      </trkpt>
      <trkpt lat="42.51623" lon="2.22207">
        <ele>994.14</ele>
        <time>2018-09-23T16:45:26Z</time>
      </trkpt>
      <trkpt lat="42.51627" lon="2.22213">
        <ele>993.66</ele>
        <time>2018-09-23T16:45:37Z</time>
      </trkpt>
      <trkpt lat="42.51632" lon="2.22212">
        <ele>993.66</ele>
        <time>2018-09-23T16:45:44Z</time>
      </trkpt>
      <trkpt lat="42.51646" lon="2.22203">
        <ele>993.18</ele>
        <time>2018-09-23T16:45:55Z</time>
      </trkpt>
      <trkpt lat="42.51655" lon="2.22198">
        <ele>993.18</ele>
        <time>2018-09-23T16:46:03Z</time>
      </trkpt>
      <trkpt lat="42.51658" lon="2.22194">
        <ele>993.18</ele>
        <time>2018-09-23T16:46:06Z</time>
      </trkpt>
      <trkpt lat="42.51663" lon="2.22193">
        <ele>993.18</ele>
        <time>2018-09-23T16:46:09Z</time>
      </trkpt>
      <trkpt lat="42.51681" lon="2.22195">
        <ele>994.14</ele>
        <time>2018-09-23T16:46:21Z</time>
      </trkpt>
      <trkpt lat="42.51694" lon="2.22186">
        <ele>994.14</ele>
        <time>2018-09-23T16:46:33Z</time>
      </trkpt>
      <trkpt lat="42.51697" lon="2.22187">
        <ele>994.62</ele>
        <time>2018-09-23T16:46:36Z</time>
      </trkpt>
      <trkpt lat="42.51711" lon="2.22188">
        <ele>994.62</ele>
        <time>2018-09-23T16:46:47Z</time>
      </trkpt>
      <trkpt lat="42.51714" lon="2.22187">
        <ele>994.62</ele>
        <time>2018-09-23T16:46:49Z</time>
      </trkpt>
      <trkpt lat="42.5172" lon="2.2217">
        <ele>993.18</ele>
        <time>2018-09-23T16:47:01Z</time>
      </trkpt>
      <trkpt lat="42.51728" lon="2.22154">
        <ele>990.78</ele>
        <time>2018-09-23T16:47:12Z</time>
      </trkpt>
      <trkpt lat="42.51736" lon="2.22139">
        <ele>986.93</ele>
        <time>2018-09-23T16:47:23Z</time>
      </trkpt>
      <trkpt lat="42.5174" lon="2.22134">
        <ele>985.01</ele>
        <time>2018-09-23T16:47:28Z</time>
      </trkpt>
      <trkpt lat="42.51742" lon="2.22127">
        <ele>983.57</ele>
        <time>2018-09-23T16:47:32Z</time>
      </trkpt>
      <trkpt lat="42.51752" lon="2.22118">
        <ele>984.53</ele>
        <time>2018-09-23T16:47:40Z</time>
      </trkpt>
      <trkpt lat="42.51761" lon="2.22099">
        <ele>983.57</ele>
        <time>2018-09-23T16:47:54Z</time>
      </trkpt>
      <trkpt lat="42.51767" lon="2.22089">
        <ele>983.57</ele>
        <time>2018-09-23T16:48:02Z</time>
      </trkpt>
      <trkpt lat="42.51778" lon="2.22081">
        <ele>982.12</ele>
        <time>2018-09-23T16:48:13Z</time>
      </trkpt>
      <trkpt lat="42.5178" lon="2.2208">
        <ele>982.12</ele>
        <time>2018-09-23T16:48:14Z</time>
      </trkpt>
      <trkpt lat="42.51785" lon="2.22079">
        <ele>981.64</ele>
        <time>2018-09-23T16:48:18Z</time>
      </trkpt>
      <trkpt lat="42.51799" lon="2.22084">
        <ele>981.16</ele>
        <time>2018-09-23T16:48:27Z</time>
      </trkpt>
      <trkpt lat="42.51804" lon="2.22086">
        <ele>981.64</ele>
        <time>2018-09-23T16:48:31Z</time>
      </trkpt>
      <trkpt lat="42.51816" lon="2.22078">
        <ele>984.05</ele>
        <time>2018-09-23T16:48:43Z</time>
      </trkpt>
      <trkpt lat="42.51823" lon="2.22076">
        <ele>984.05</ele>
        <time>2018-09-23T16:48:50Z</time>
      </trkpt>
      <trkpt lat="42.51827" lon="2.22075">
        <ele>983.57</ele>
        <time>2018-09-23T16:48:53Z</time>
      </trkpt>
      <trkpt lat="42.5184" lon="2.22096">
        <ele>976.84</ele>
        <time>2018-09-23T16:49:08Z</time>
      </trkpt>
      <trkpt lat="42.5186" lon="2.22111">
        <ele>977.32</ele>
        <time>2018-09-23T16:49:21Z</time>
      </trkpt>
      <trkpt lat="42.51878" lon="2.22104">
        <ele>983.09</ele>
        <time>2018-09-23T16:49:33Z</time>
      </trkpt>
      <trkpt lat="42.519" lon="2.22108">
        <ele>984.53</ele>
        <time>2018-09-23T16:49:49Z</time>
      </trkpt>
      <trkpt lat="42.51915" lon="2.22103">
        <ele>986.45</ele>
        <time>2018-09-23T16:50:00Z</time>
      </trkpt>
      <trkpt lat="42.51932" lon="2.22091">
        <ele>990.3</ele>
        <time>2018-09-23T16:50:15Z</time>
      </trkpt>
      <trkpt lat="42.51935" lon="2.2209">
        <ele>989.81</ele>
        <time>2018-09-23T16:50:18Z</time>
      </trkpt>
      <trkpt lat="42.51956" lon="2.22091">
        <ele>989.33</ele>
        <time>2018-09-23T16:50:35Z</time>
      </trkpt>
      <trkpt lat="42.51977" lon="2.22081">
        <ele>991.26</ele>
        <time>2018-09-23T16:50:51Z</time>
      </trkpt>
      <trkpt lat="42.51978" lon="2.2208">
        <ele>991.26</ele>
        <time>2018-09-23T16:50:52Z</time>
      </trkpt>
      <trkpt lat="42.51986" lon="2.2207">
        <ele>991.26</ele>
        <time>2018-09-23T16:51:03Z</time>
      </trkpt>
      <trkpt lat="42.51996" lon="2.22068">
        <ele>991.26</ele>
        <time>2018-09-23T16:51:09Z</time>
      </trkpt>
      <trkpt lat="42.52" lon="2.22063">
        <ele>992.22</ele>
        <time>2018-09-23T16:51:13Z</time>
      </trkpt>
      <trkpt lat="42.51998" lon="2.22047">
        <ele>993.66</ele>
        <time>2018-09-23T16:51:28Z</time>
      </trkpt>
      <trkpt lat="42.52003" lon="2.22057">
        <ele>997.51</ele>
        <time>2018-09-23T16:51:46Z</time>
      </trkpt>
      <trkpt lat="42.52004" lon="2.22049">
        <ele>997.51</ele>
        <time>2018-09-23T16:51:49Z</time>
      </trkpt>
      <trkpt lat="42.52005" lon="2.22019">
        <ele>997.99</ele>
        <time>2018-09-23T16:52:04Z</time>
      </trkpt>
      <trkpt lat="42.52003" lon="2.22008">
        <ele>998.95</ele>
        <time>2018-09-23T16:52:10Z</time>
      </trkpt>
      <trkpt lat="42.52003" lon="2.22003">
        <ele>998.95</ele>
        <time>2018-09-23T16:52:13Z</time>
      </trkpt>
      <trkpt lat="42.52003" lon="2.2199">
        <ele>1001.35</ele>
        <time>2018-09-23T16:52:20Z</time>
      </trkpt>
      <trkpt lat="42.52002" lon="2.21983">
        <ele>1000.87</ele>
        <time>2018-09-23T16:52:24Z</time>
      </trkpt>
      <trkpt lat="42.52002" lon="2.21979">
        <ele>1001.83</ele>
        <time>2018-09-23T16:52:26Z</time>
      </trkpt>
      <trkpt lat="42.5199" lon="2.21962">
        <ele>1004.72</ele>
        <time>2018-09-23T16:52:39Z</time>
      </trkpt>
      <trkpt lat="42.5198" lon="2.21934">
        <ele>1002.79</ele>
        <time>2018-09-23T16:52:55Z</time>
      </trkpt>
      <trkpt lat="42.51978" lon="2.21906">
        <ele>999.91</ele>
        <time>2018-09-23T16:53:11Z</time>
      </trkpt>
      <trkpt lat="42.51976" lon="2.21878">
        <ele>1005.2</ele>
        <time>2018-09-23T16:53:26Z</time>
      </trkpt>
      <trkpt lat="42.5197" lon="2.21858">
        <ele>1008.08</ele>
        <time>2018-09-23T16:53:41Z</time>
      </trkpt>
      <trkpt lat="42.51967" lon="2.21852">
        <ele>1008.08</ele>
        <time>2018-09-23T16:53:53Z</time>
      </trkpt>
      <trkpt lat="42.51968" lon="2.21858">
        <ele>1006.64</ele>
        <time>2018-09-23T16:54:11Z</time>
      </trkpt>
      <trkpt lat="42.51967" lon="2.21866">
        <ele>1006.16</ele>
        <time>2018-09-23T16:54:30Z</time>
      </trkpt>
      <trkpt lat="42.51973" lon="2.21876">
        <ele>1002.79</ele>
        <time>2018-09-23T16:54:46Z</time>
      </trkpt>
      <trkpt lat="42.51974" lon="2.21879">
        <ele>1000.87</ele>
        <time>2018-09-23T16:54:50Z</time>
      </trkpt>
      <trkpt lat="42.51981" lon="2.21882">
        <ele>997.99</ele>
        <time>2018-09-23T16:55:03Z</time>
      </trkpt>
      <trkpt lat="42.51986" lon="2.21871">
        <ele>995.58</ele>
        <time>2018-09-23T16:55:15Z</time>
      </trkpt>
      <trkpt lat="42.51988" lon="2.21858">
        <ele>991.74</ele>
        <time>2018-09-23T16:55:29Z</time>
      </trkpt>
      <trkpt lat="42.51992" lon="2.21861">
        <ele>989.33</ele>
        <time>2018-09-23T16:55:42Z</time>
      </trkpt>
      <trkpt lat="42.51994" lon="2.21853">
        <ele>986.93</ele>
        <time>2018-09-23T16:55:53Z</time>
      </trkpt>
      <trkpt lat="42.51998" lon="2.21854">
        <ele>981.64</ele>
        <time>2018-09-23T16:56:06Z</time>
      </trkpt>
      <trkpt lat="42.52001" lon="2.21868">
        <ele>974.91</ele>
        <time>2018-09-23T16:56:19Z</time>
      </trkpt>
      <trkpt lat="42.52004" lon="2.21867">
        <ele>967.7</ele>
        <time>2018-09-23T16:56:32Z</time>
      </trkpt>
      <trkpt lat="42.52009" lon="2.21854">
        <ele>966.26</ele>
        <time>2018-09-23T16:56:45Z</time>
      </trkpt>
      <trkpt lat="42.52016" lon="2.21853">
        <ele>961.46</ele>
        <time>2018-09-23T16:56:59Z</time>
      </trkpt>
      <trkpt lat="42.5202" lon="2.2186">
        <ele>955.69</ele>
        <time>2018-09-23T16:57:11Z</time>
      </trkpt>
      <trkpt lat="42.52022" lon="2.21862">
        <ele>951.84</ele>
        <time>2018-09-23T16:57:23Z</time>
      </trkpt>
      <trkpt lat="42.52022" lon="2.21858">
        <ele>950.88</ele>
        <time>2018-09-23T16:57:27Z</time>
      </trkpt>
      <trkpt lat="42.52022" lon="2.21851">
        <ele>949.92</ele>
        <time>2018-09-23T16:57:40Z</time>
      </trkpt>
      <trkpt lat="42.52024" lon="2.2184">
        <ele>950.4</ele>
        <time>2018-09-23T16:57:56Z</time>
      </trkpt>
      <trkpt lat="42.52025" lon="2.21835">
        <ele>951.36</ele>
        <time>2018-09-23T16:58:16Z</time>
      </trkpt>
      <trkpt lat="42.52026" lon="2.21835">
        <ele>950.88</ele>
        <time>2018-09-23T16:58:20Z</time>
      </trkpt>
      <trkpt lat="42.5203" lon="2.21845">
        <ele>946.07</ele>
        <time>2018-09-23T16:58:31Z</time>
      </trkpt>
      <trkpt lat="42.52038" lon="2.21856">
        <ele>941.75</ele>
        <time>2018-09-23T16:58:44Z</time>
      </trkpt>
      <trkpt lat="42.52039" lon="2.21857">
        <ele>937.9</ele>
        <time>2018-09-23T16:58:52Z</time>
      </trkpt>
      <trkpt lat="42.52039" lon="2.21848">
        <ele>935.98</ele>
        <time>2018-09-23T16:59:06Z</time>
      </trkpt>
      <trkpt lat="42.52043" lon="2.21843">
        <ele>935.02</ele>
        <time>2018-09-23T16:59:17Z</time>
      </trkpt>
      <trkpt lat="42.5205" lon="2.21849">
        <ele>931.65</ele>
        <time>2018-09-23T16:59:29Z</time>
      </trkpt>
      <trkpt lat="42.52051" lon="2.2185">
        <ele>930.21</ele>
        <time>2018-09-23T16:59:34Z</time>
      </trkpt>
      <trkpt lat="42.52054" lon="2.21859">
        <ele>928.29</ele>
        <time>2018-09-23T16:59:47Z</time>
      </trkpt>
      <trkpt lat="42.52058" lon="2.21864">
        <ele>925.89</ele>
        <time>2018-09-23T17:00:00Z</time>
      </trkpt>
      <trkpt lat="42.52062" lon="2.21871">
        <ele>923</ele>
        <time>2018-09-23T17:00:11Z</time>
      </trkpt>
      <trkpt lat="42.52063" lon="2.21866">
        <ele>923.48</ele>
        <time>2018-09-23T17:00:24Z</time>
      </trkpt>
      <trkpt lat="42.52067" lon="2.21872">
        <ele>922.52</ele>
        <time>2018-09-23T17:00:41Z</time>
      </trkpt>
      <trkpt lat="42.52072" lon="2.21884">
        <ele>918.68</ele>
        <time>2018-09-23T17:00:54Z</time>
      </trkpt>
      <trkpt lat="42.52078" lon="2.21893">
        <ele>916.27</ele>
        <time>2018-09-23T17:01:05Z</time>
      </trkpt>
      <trkpt lat="42.52085" lon="2.21904">
        <ele>913.87</ele>
        <time>2018-09-23T17:01:17Z</time>
      </trkpt>
      <trkpt lat="42.52088" lon="2.21907">
        <ele>912.91</ele>
        <time>2018-09-23T17:01:21Z</time>
      </trkpt>
      <trkpt lat="42.52091" lon="2.2191">
        <ele>911.47</ele>
        <time>2018-09-23T17:01:25Z</time>
      </trkpt>
      <trkpt lat="42.52101" lon="2.2192">
        <ele>910.03</ele>
        <time>2018-09-23T17:01:39Z</time>
      </trkpt>
      <trkpt lat="42.52104" lon="2.21929">
        <ele>906.66</ele>
        <time>2018-09-23T17:01:54Z</time>
      </trkpt>
      <trkpt lat="42.5211" lon="2.21935">
        <ele>902.82</ele>
        <time>2018-09-23T17:02:06Z</time>
      </trkpt>
      <trkpt lat="42.52113" lon="2.21951">
        <ele>900.89</ele>
        <time>2018-09-23T17:02:18Z</time>
      </trkpt>
      <trkpt lat="42.52114" lon="2.21964">
        <ele>901.85</ele>
        <time>2018-09-23T17:02:26Z</time>
      </trkpt>
      <trkpt lat="42.52114" lon="2.21966">
        <ele>901.37</ele>
        <time>2018-09-23T17:02:28Z</time>
      </trkpt>
      <trkpt lat="42.52119" lon="2.21977">
        <ele>901.37</ele>
        <time>2018-09-23T17:02:42Z</time>
      </trkpt>
      <trkpt lat="42.52123" lon="2.21985">
        <ele>897.53</ele>
        <time>2018-09-23T17:02:53Z</time>
      </trkpt>
      <trkpt lat="42.52124" lon="2.21986">
        <ele>898.01</ele>
        <time>2018-09-23T17:02:54Z</time>
      </trkpt>
      <trkpt lat="42.52125" lon="2.21993">
        <ele>897.53</ele>
        <time>2018-09-23T17:02:58Z</time>
      </trkpt>
      <trkpt lat="42.5213" lon="2.22002">
        <ele>894.64</ele>
        <time>2018-09-23T17:03:10Z</time>
      </trkpt>
      <trkpt lat="42.52134" lon="2.2201">
        <ele>891.28</ele>
        <time>2018-09-23T17:03:21Z</time>
      </trkpt>
      <trkpt lat="42.52138" lon="2.22016">
        <ele>888.4</ele>
        <time>2018-09-23T17:03:32Z</time>
      </trkpt>
      <trkpt lat="42.52143" lon="2.22022">
        <ele>887.43</ele>
        <time>2018-09-23T17:03:43Z</time>
      </trkpt>
      <trkpt lat="42.52147" lon="2.22027">
        <ele>884.07</ele>
        <time>2018-09-23T17:03:55Z</time>
      </trkpt>
      <trkpt lat="42.52151" lon="2.22035">
        <ele>879.74</ele>
        <time>2018-09-23T17:04:07Z</time>
      </trkpt>
      <trkpt lat="42.52155" lon="2.22045">
        <ele>877.34</ele>
        <time>2018-09-23T17:04:22Z</time>
      </trkpt>
      <trkpt lat="42.5216" lon="2.22053">
        <ele>875.9</ele>
        <time>2018-09-23T17:04:34Z</time>
      </trkpt>
      <trkpt lat="42.52161" lon="2.2206">
        <ele>872.53</ele>
        <time>2018-09-23T17:04:48Z</time>
      </trkpt>
      <trkpt lat="42.52164" lon="2.22066">
        <ele>871.57</ele>
        <time>2018-09-23T17:04:54Z</time>
      </trkpt>
      <trkpt lat="42.52169" lon="2.22069">
        <ele>872.05</ele>
        <time>2018-09-23T17:05:01Z</time>
      </trkpt>
      <trkpt lat="42.52175" lon="2.22068">
        <ele>872.53</ele>
        <time>2018-09-23T17:05:10Z</time>
      </trkpt>
      <trkpt lat="42.52182" lon="2.22079">
        <ele>871.57</ele>
        <time>2018-09-23T17:05:23Z</time>
      </trkpt>
      <trkpt lat="42.52191" lon="2.22077">
        <ele>869.17</ele>
        <time>2018-09-23T17:05:35Z</time>
      </trkpt>
      <trkpt lat="42.522" lon="2.22077">
        <ele>867.25</ele>
        <time>2018-09-23T17:05:43Z</time>
      </trkpt>
      <trkpt lat="42.52207" lon="2.22079">
        <ele>866.29</ele>
        <time>2018-09-23T17:05:49Z</time>
      </trkpt>
      <trkpt lat="42.52208" lon="2.2208">
        <ele>865.8</ele>
        <time>2018-09-23T17:05:51Z</time>
      </trkpt>
      <trkpt lat="42.52218" lon="2.22085">
        <ele>864.84</ele>
        <time>2018-09-23T17:06:03Z</time>
      </trkpt>
      <trkpt lat="42.52228" lon="2.22087">
        <ele>862.92</ele>
        <time>2018-09-23T17:06:14Z</time>
      </trkpt>
      <trkpt lat="42.52232" lon="2.22084">
        <ele>863.88</ele>
        <time>2018-09-23T17:06:29Z</time>
      </trkpt>
      <trkpt lat="42.52234" lon="2.22086">
        <ele>863.4</ele>
        <time>2018-09-23T17:06:46Z</time>
      </trkpt>
      <trkpt lat="42.5224" lon="2.22078">
        <ele>866.77</ele>
        <time>2018-09-23T17:07:00Z</time>
      </trkpt>
      <trkpt lat="42.5225" lon="2.22077">
        <ele>863.4</ele>
        <time>2018-09-23T17:07:14Z</time>
      </trkpt>
      <trkpt lat="42.52251" lon="2.22077">
        <ele>862.92</ele>
        <time>2018-09-23T17:07:15Z</time>
      </trkpt>
      <trkpt lat="42.52261" lon="2.22073">
        <ele>857.63</ele>
        <time>2018-09-23T17:07:26Z</time>
      </trkpt>
      <trkpt lat="42.52272" lon="2.22077">
        <ele>855.23</ele>
        <time>2018-09-23T17:07:35Z</time>
      </trkpt>
      <trkpt lat="42.52284" lon="2.2208">
        <ele>853.31</ele>
        <time>2018-09-23T17:07:46Z</time>
      </trkpt>
      <trkpt lat="42.52286" lon="2.22085">
        <ele>851.87</ele>
        <time>2018-09-23T17:07:59Z</time>
      </trkpt>
      <trkpt lat="42.5229" lon="2.22083">
        <ele>849.94</ele>
        <time>2018-09-23T17:08:11Z</time>
      </trkpt>
      <trkpt lat="42.52293" lon="2.22075">
        <ele>847.54</ele>
        <time>2018-09-23T17:08:23Z</time>
      </trkpt>
      <trkpt lat="42.52296" lon="2.2207">
        <ele>843.21</ele>
        <time>2018-09-23T17:08:34Z</time>
      </trkpt>
      <trkpt lat="42.52304" lon="2.22074">
        <ele>836.96</ele>
        <time>2018-09-23T17:08:45Z</time>
      </trkpt>
      <trkpt lat="42.52312" lon="2.22079">
        <ele>830.72</ele>
        <time>2018-09-23T17:08:57Z</time>
      </trkpt>
      <trkpt lat="42.52318" lon="2.22083">
        <ele>826.39</ele>
        <time>2018-09-23T17:09:07Z</time>
      </trkpt>
      <trkpt lat="42.52321" lon="2.22083">
        <ele>825.43</ele>
        <time>2018-09-23T17:09:13Z</time>
      </trkpt>
      <trkpt lat="42.52322" lon="2.22081">
        <ele>827.83</ele>
        <time>2018-09-23T17:09:24Z</time>
      </trkpt>
      <trkpt lat="42.5233" lon="2.22078">
        <ele>825.43</ele>
        <time>2018-09-23T17:09:51Z</time>
      </trkpt>
      <trkpt lat="42.52328" lon="2.22088">
        <ele>827.83</ele>
        <time>2018-09-23T17:10:07Z</time>
      </trkpt>
      <trkpt lat="42.52328" lon="2.22092">
        <ele>827.35</ele>
        <time>2018-09-23T17:10:10Z</time>
      </trkpt>
      <trkpt lat="42.5233" lon="2.22105">
        <ele>825.91</ele>
        <time>2018-09-23T17:10:19Z</time>
      </trkpt>
      <trkpt lat="42.52332" lon="2.22119">
        <ele>826.39</ele>
        <time>2018-09-23T17:10:27Z</time>
      </trkpt>
      <trkpt lat="42.52329" lon="2.22125">
        <ele>825.91</ele>
        <time>2018-09-23T17:10:33Z</time>
      </trkpt>
      <trkpt lat="42.52326" lon="2.22126">
        <ele>825.43</ele>
        <time>2018-09-23T17:10:36Z</time>
      </trkpt>
      <trkpt lat="42.52324" lon="2.22127">
        <ele>825.43</ele>
        <time>2018-09-23T17:10:38Z</time>
      </trkpt>
      <trkpt lat="42.52317" lon="2.22126">
        <ele>826.39</ele>
        <time>2018-09-23T17:10:44Z</time>
      </trkpt>
      <trkpt lat="42.52311" lon="2.22126">
        <ele>826.39</ele>
        <time>2018-09-23T17:10:49Z</time>
      </trkpt>
      <trkpt lat="42.52307" lon="2.22126">
        <ele>826.39</ele>
        <time>2018-09-23T17:10:52Z</time>
      </trkpt>
      <trkpt lat="42.52299" lon="2.22126">
        <ele>827.35</ele>
        <time>2018-09-23T17:10:59Z</time>
      </trkpt>
      <trkpt lat="42.52283" lon="2.22132">
        <ele>830.72</ele>
        <time>2018-09-23T17:11:14Z</time>
      </trkpt>
      <trkpt lat="42.52272" lon="2.22148">
        <ele>838.41</ele>
        <time>2018-09-23T17:11:28Z</time>
      </trkpt>
      <trkpt lat="42.52257" lon="2.2216">
        <ele>843.69</ele>
        <time>2018-09-23T17:11:43Z</time>
      </trkpt>
      <trkpt lat="42.52254" lon="2.22166">
        <ele>844.18</ele>
        <time>2018-09-23T17:11:55Z</time>
      </trkpt>
      <trkpt lat="42.52255" lon="2.22166">
        <ele>846.58</ele>
        <time>2018-09-23T17:12:23Z</time>
      </trkpt>
      <trkpt lat="42.52252" lon="2.22166">
        <ele>848.5</ele>
        <time>2018-09-23T17:12:41Z</time>
      </trkpt>
    </trkseg>
  </trk>
</gpx>